# Wetter Temperatur Luftdruck Luftfeuchtigkeit Sichtweite Windgeschwindigkeit Windrichtung Zeit
1 Haze 31 1014 66 10000 1.5 20 19:59 17.10.2019
2 Haze 31 1014 66 10000 1.5 20 19:39 17.10.2019
3 Haze 32 1014 59 10000 1.5 30 19:19 17.10.2019
4 Haze 32 1014 62 10000 1.5 10 18:58 17.10.2019
5 Haze 32 1014 62 10000 1.5 10 18:38 17.10.2019
6 Haze 32 1014 62 10000 2.6 20 18:20 17.10.2019
7 Clouds 32 1013 62 10000 3.1 20 17:42 17.10.2019
8 Clouds 32 1013 62 10000 3.6 20 17:23 17.10.2019
9 Clouds 32 1013 62 10000 3.1 20 16:57 17.10.2019
10 Clouds 32 1013 62 10000 3.1 20 16:38 17.10.2019
11 Clouds 33 1013 59 10000 3.6 10 16:18 17.10.2019
12 Clouds 33 1013 52 8000 4.6 10 15:55 17.10.2019
13 Clouds 33 1013 52 8000 4.6 10 15:37 17.10.2019
14 Dust 33 1014 38 1600 10.3 20 15:19 17.10.2019
15 Clouds 35 1013 56 6000 4.6 40 14:43 17.10.2019
16 Clouds 35 1012 59 6000 4.6 40 14:24 17.10.2019
17 Clouds 35 1012 59 6000 4.6 40 14:24 17.10.2019
18 Clouds 35 1012 47 6000 4.1 50 13:57 17.10.2019
19 Clouds 35 1012 47 6000 4.1 50 13:39 17.10.2019
20 Haze 36 1013 18 9000 3.1 10 13:19 17.10.2019
21 Clouds 35 1013 32 10000 4.6 360 12:41 17.10.2019
22 Clouds 35 1013 41 10000 4.1 10 12:21 17.10.2019
23 Clouds 34 1013 36 10000 3.6 360 11:59 17.10.2019
24 Clouds 34 1013 36 10000 3.6 360 11:41 17.10.2019
25 Clouds 34 1013 36 10000 3.6 360 11:41 17.10.2019
26 Clouds 34 1013 36 10000 3.6 360 11:41 17.10.2019
27 Clouds 34 1013 36 10000 3.6 360 11:41 17.10.2019
28 Clear 34 1014 41 10000 3.6 10 11:20 17.10.2019
29 Clear 34 1014 41 10000 3.6 10 10:56 17.10.2019
30 Clear 34 1014 41 10000 3.6 10 10:56 17.10.2019
31 Clear 34 1014 41 10000 3.6 10 10:38 17.10.2019
32 Haze 33 1015 38 9000 2.6 340 10:18 17.10.2019
33 Clear 33 1015 52 7000 4.1 350 09:54 17.10.2019
34 Clouds 33 1015 52 7000 4.1 350 09:36 17.10.2019
35 Haze 33 1016 55 9000 3.6 330 09:18 17.10.2019
36 Mist 32 1016 70 5000 2.6 300 08:42 17.10.2019
37 -273 0 0 0 0 0 08:24 17.10.2019
38 Haze 31 1015 59 5000 1.5 270 07:56 17.10.2019
39 Haze 31 1015 59 5000 1.5 270 07:37 17.10.2019
40 Haze 30 1015 62 5000 1 0 07:18 17.10.2019
41 Haze 28 1015 70 4500 1.5 230 06:40 17.10.2019
42 Haze 28 1014 74 4000 1 0 06:21 17.10.2019
43 Haze 27 1014 74 4000 1.5 250 05:54 17.10.2019
44 Haze 27 1014 78 4000 1 0 05:32 17.10.2019
45 Haze 27 1014 74 4000 1.5 240 04:55 17.10.2019
46 Haze 27 1013 74 5000 1.5 230 03:55 17.10.2019
47 Clouds 27 1013 74 7000 1 0 02:37 17.10.2019
48 Mist 28 1014 83 6000 2.289 334 01:31 17.10.2019
49 Clouds 28 1013 74 8000 2.289 334 00:40 17.10.2019
50 Clouds 28 1013 70 8000 1.633 24 00:19 17.10.2019
51 Clouds 29 1013 74 8000 1 360 23:42 16.10.2019
52 Mist 29 1014 78 8000 1.633 24 23:21 16.10.2019
53 Clouds 29 1013 70 8000 2.1 20 22:56 16.10.2019
54 Clouds 29 1013 70 8000 2.1 20 22:56 16.10.2019
55 Clouds 29 1013 70 8000 2.1 20 22:37 16.10.2019
56 Clouds 29 1013 62 8000 2.6 40 22:19 16.10.2019
57 Clouds 30 1014 70 8000 2.6 10 21:56 16.10.2019
58 Clouds 30 1014 70 8000 2.6 10 21:37 16.10.2019
59 Clouds 30 1014 74 8000 2.1 20 21:19 16.10.2019
60 Clouds 30 1014 74 8000 2.1 20 21:19 16.10.2019
61 Clouds 31 1014 70 8000 1.5 30 20:57 16.10.2019
62 Clouds 31 1014 70 8000 1.5 30 20:38 16.10.2019
63 Clouds 31 1014 70 8000 2.1 10 20:20 16.10.2019
64 Clouds 31 1014 70 8000 2.1 10 19:57 16.10.2019
65 Clouds 31 1014 70 8000 2.1 10 19:38 16.10.2019
66 Clouds 29 1014 70 8000 1.5 30 19:20 16.10.2019
67 Clouds 30 1014 70 8000 2.1 20 18:39 16.10.2019
68 Clear 30 1014 62 8000 2.6 10 18:19 16.10.2019
69 Clear 30 1013 66 8000 2.1 20 17:58 16.10.2019
70 Clear 30 1013 66 8000 2.1 20 17:58 16.10.2019
71 Clear 30 1013 66 8000 2.1 20 17:39 16.10.2019
72 Clear 30 1013 66 8000 2.1 20 17:21 16.10.2019
73 Rain 30 1013 66 7000 4.1 10 16:59 16.10.2019
74 Rain 30 1013 66 7000 4.1 10 16:41 16.10.2019
75 Rain 30 1013 66 7000 4.1 10 16:41 16.10.2019
76 Clouds 31 1013 59 6000 3.1 30 16:20 16.10.2019
77 Clouds 32 1013 55 7000 3.6 30 15:56 16.10.2019
78 Clouds 32 1013 55 7000 3.6 30 15:38 16.10.2019
79 Clouds 34 1012 56 6000 5.1 90 15:18 16.10.2019
80 Clouds 34 1012 56 6000 5.1 90 14:56 16.10.2019
81 Clouds 34 1012 56 6000 5.1 90 14:38 16.10.2019
82 Clouds 34 1012 56 6000 4.6 80 14:18 16.10.2019
83 Clouds 34 1012 56 6000 4.1 80 13:56 16.10.2019
84 Clouds 34 1012 56 6000 4.1 80 13:37 16.10.2019
85 Thunderstorm 35 1013 37 9000 5.1 110 13:19 16.10.2019
86 Clouds 35 1012 56 6000 5.1 90 12:41 16.10.2019
87 Clouds 36 1013 50 7000 4.1 70 12:19 16.10.2019
88 Clouds 35 1013 50 7000 3.6 10 11:44 16.10.2019
89 Clear 35 1013 52 7000 4.1 10 11:18 16.10.2019
90 Clear 35 1014 52 7000 4.1 10 10:41 16.10.2019
91 Clear 35 1014 56 7000 4.1 360 10:22 16.10.2019
92 Clear 35 1014 56 7000 4.1 360 10:22 16.10.2019
93 Clear 34 1015 56 7000 4.1 360 09:58 16.10.2019
94 Clear 34 1015 56 7000 4.1 360 09:39 16.10.2019
95 Clear 34 1015 52 10000 3.6 360 09:20 16.10.2019
96 Clear 33 1015 63 10000 3.1 20 08:44 16.10.2019
97 Clear 33 1015 59 10000 3.1 40 08:25 16.10.2019
98 Haze 33 1016 49 9000 1.939 22 07:56 16.10.2019
99 Haze 33 1016 49 9000 1.939 22 07:56 16.10.2019
100 Clear 32 1015 59 10000 2.6 20 07:38 16.10.2019
101 Clear 32 1015 66 10000 2.6 30 07:19 16.10.2019
102 Clear 30 1014 79 10000 2.6 350 06:40 16.10.2019
103 Clear 30 1014 79 10000 2.6 350 06:19 16.10.2019
104 Clear 27 1013 78 10000 1.5 350 03:33 16.10.2019
105 Clear 27 1013 74 10000 2.1 340 02:50 16.10.2019
106 Clear 28 1013 70 10000 1.5 350 01:20 16.10.2019
107 Clear 28 1013 70 10000 2.1 330 00:54 16.10.2019
108 Clear 28 1013 70 10000 2.1 330 00:35 16.10.2019
109 Clear 28 1013 70 10000 0.5 30 23:42 15.10.2019
110 Clear 28 1013 70 10000 0.5 30 23:22 15.10.2019
111 Clear 29 1014 66 10000 1 360 22:57 15.10.2019
112 Clear 29 1014 66 10000 1 360 22:38 15.10.2019
113 Clear 29 1014 66 10000 1 360 22:20 15.10.2019
114 Clear 30 1014 62 10000 1 80 21:57 15.10.2019
115 Clear 30 1014 62 10000 1 80 21:38 15.10.2019
116 Clear 30 1014 62 10000 1 80 21:20 15.10.2019
117 Clear 31 1014 62 10000 1.5 40 20:58 15.10.2019
118 Clear 31 1014 62 10000 1.5 40 20:39 15.10.2019
119 Clear 31 1014 62 10000 1.5 40 20:21 15.10.2019
120 Clear 31 1014 62 10000 2.1 30 19:59 15.10.2019
121 Clear 31 1014 62 10000 2.1 30 19:41 15.10.2019
122 Clear 31 1014 62 10000 2.1 30 19:20 15.10.2019
123 Clear 32 1014 59 10000 2.1 30 18:55 15.10.2019
124 Clear 32 1014 59 10000 2.1 30 18:36 15.10.2019
125 Clear 32 1013 55 10000 3.1 70 18:18 15.10.2019
126 Clear 32 1013 59 10000 3.1 60 17:41 15.10.2019
127 -273 0 0 0 0 0 17:41 15.10.2019
128 Clear 32 1013 59 10000 3.1 60 17:21 15.10.2019
129 Haze 33 1013 41 9000 3.6 80 16:59 15.10.2019
130 Haze 33 1013 41 9000 3.6 80 16:41 15.10.2019
131 Clouds 33 1013 55 10000 3.1 60 16:21 15.10.2019
132 Clouds 34 1012 49 10000 4.1 70 15:55 15.10.2019
133 Clouds 34 1012 49 10000 4.1 70 15:55 15.10.2019
134 Clouds 34 1012 49 10000 4.1 70 15:37 15.10.2019
135 Thunderstorm 34 1013 32 9000 3.6 100 15:19 15.10.2019
136 Clouds 35 1012 49 10000 3.6 40 14:38 15.10.2019
137 Clouds 35 1012 49 10000 3.6 40 14:20 15.10.2019
138 Clouds 35 1013 47 10000 3.1 40 13:59 15.10.2019
139 Clouds 35 1013 47 10000 3.1 40 13:40 15.10.2019
140 Clouds 35 1013 47 10000 3.1 40 13:20 15.10.2019
141 Clouds 35 1013 47 10000 3.6 90 12:44 15.10.2019
142 Clouds 35 1013 47 10000 3.6 90 12:22 15.10.2019
143 Clouds 35 1014 56 10000 3.6 90 11:58 15.10.2019
144 Clouds 35 1014 56 10000 3.6 90 11:40 15.10.2019
145 Clouds 35 1014 56 10000 3.6 90 11:19 15.10.2019
146 Clouds 35 1015 56 10000 3.6 110 10:46 15.10.2019
147 Haze 35 1015 56 10000 3.6 110 10:23 15.10.2019
148 Haze 34 1015 59 10000 3.1 70 09:59 15.10.2019
149 Haze 34 1015 59 10000 3.1 70 09:40 15.10.2019
150 Haze 34 1015 59 10000 3.1 70 09:20 15.10.2019
151 Haze 33 1015 59 10000 3.6 100 08:57 15.10.2019
152 Haze 33 1015 59 10000 3.6 100 08:37 15.10.2019
153 Haze 33 1015 59 10000 3.6 100 08:18 15.10.2019
154 Haze 33 1015 59 10000 3.6 100 08:18 15.10.2019
155 Haze 33 1015 59 10000 2.1 20 07:43 15.10.2019
156 Haze 33 1015 59 10000 2.1 20 07:21 15.10.2019
157 Mist 31 1014 62 10000 2.6 60 06:55 15.10.2019
158 Mist 31 1014 62 10000 2.6 60 06:37 15.10.2019
159 Mist 29 1013 66 10000 2.1 40 05:56 15.10.2019
160 Mist 29 1013 66 10000 2.1 40 05:36 15.10.2019
161 Mist 29 1013 70 10000 2.1 20 04:40 15.10.2019
162 Mist 29 1014 78 8000 1.5 350 03:59 15.10.2019
163 Mist 29 1013 74 10000 3.1 10 03:34 15.10.2019
164 Haze 30 1013 70 10000 2.1 10 01:51 15.10.2019
165 Haze 30 1013 70 10000 2.1 10 01:26 15.10.2019
166 Haze 30 1013 66 10000 2.1 360 00:59 15.10.2019
167 Haze 30 1013 66 10000 2.1 360 00:24 15.10.2019
168 Haze 31 1013 66 10000 3.1 20 23:57 14.10.2019
169 Haze 31 1013 66 10000 3.1 20 23:37 14.10.2019
170 Haze 31 1013 62 10000 4.1 50 23:18 14.10.2019
171 Haze 31 1013 66 10000 2.6 30 22:39 14.10.2019
172 Haze 31 1013 66 10000 2.6 30 22:20 14.10.2019
173 Haze 32 1014 66 10000 2.6 20 21:57 14.10.2019
174 Haze 32 1014 66 10000 2.6 20 21:39 14.10.2019
175 Haze 32 1014 66 10000 2.6 20 21:20 14.10.2019
176 Haze 32 1014 62 10000 2.6 30 20:57 14.10.2019
177 Haze 32 1014 62 10000 2.6 30 20:38 14.10.2019
178 Haze 32 1014 62 10000 2.6 30 20:19 14.10.2019
179 Clear 32 1014 62 10000 2.6 20 19:43 14.10.2019
180 Clear 32 1014 62 10000 2.6 20 19:25 14.10.2019
181 Haze 32 1013 62 10000 3.6 30 18:59 14.10.2019
182 Haze 32 1013 62 10000 3.6 30 18:40 14.10.2019
183 Haze 32 1013 62 10000 3.6 30 18:40 14.10.2019
184 Haze 32 1013 62 10000 3.6 30 18:20 14.10.2019
185 Haze 33 1013 59 10000 4.1 40 17:59 14.10.2019
186 Haze 33 1013 59 10000 4.1 40 17:40 14.10.2019
187 Haze 33 1013 59 10000 4.1 40 17:22 14.10.2019
188 Haze 33 1012 59 10000 5.1 40 16:44 14.10.2019
189 Thunderstorm 34 1012 59 10000 5.1 40 16:22 14.10.2019
190 Thunderstorm 34 1012 56 10000 4.6 40 15:58 14.10.2019
191 Thunderstorm 34 1012 56 10000 4.6 40 15:38 14.10.2019
192 Thunderstorm 34 1012 56 10000 4.6 40 15:20 14.10.2019
193 Thunderstorm 35 1012 47 10000 4.1 50 14:43 14.10.2019
194 Thunderstorm 35 1012 47 10000 4.1 50 14:24 14.10.2019
195 Haze 36 1012 41 10000 4.1 60 13:57 14.10.2019
196 Haze 36 1012 41 10000 4.1 60 13:39 14.10.2019
197 Haze 36 1012 41 10000 4.1 60 13:20 14.10.2019
198 Haze 36 1013 50 10000 4.1 60 12:41 14.10.2019
199 Haze 36 1013 50 10000 4.1 60 12:19 14.10.2019
200 Haze 36 1014 50 10000 3.6 70 11:48 14.10.2019
201 Haze 36 1014 22 9000 2.1 0 11:27 14.10.2019
202 Haze 36 1014 53 10000 3.6 90 10:59 14.10.2019
203 Haze 36 1014 53 10000 3.6 90 10:41 14.10.2019
204 Haze 36 1014 53 10000 3.6 90 10:21 14.10.2019
205 Haze 36 1014 53 10000 3.6 90 10:21 14.10.2019
206 Haze 35 1015 56 10000 2.6 80 09:57 14.10.2019
207 Haze 35 1015 56 10000 2.6 80 09:38 14.10.2019
208 Haze 35 1015 56 10000 2.6 80 09:19 14.10.2019
209 Haze 34 1015 59 10000 1.5 80 08:46 14.10.2019
210 Haze 34 1015 59 10000 1.5 80 08:23 14.10.2019
211 Clouds 33 1015 63 10000 3.1 90 07:44 14.10.2019
212 Mist 31 1015 63 10000 3.1 90 07:21 14.10.2019
213 Mist 30 1014 62 10000 3.1 100 06:54 14.10.2019
214 Mist 30 1014 62 10000 3.1 100 06:27 14.10.2019
215 Mist 28 1013 66 10000 3.1 110 05:50 14.10.2019
216 Mist 28 1012 62 10000 2.6 100 04:50 14.10.2019
217 Mist 29 1012 66 10000 2.1 120 03:48 14.10.2019
218 Mist 29 1012 66 10000 2.1 120 03:21 14.10.2019
219 Haze 30 1012 66 10000 2.6 90 01:36 14.10.2019
220 Haze 30 1012 66 10000 2.6 90 01:18 14.10.2019
221 Haze 30 1012 66 10000 4.1 80 00:23 14.10.2019
222 Haze 31 1012 62 10000 5.1 70 23:46 13.10.2019
223 Haze 32 1013 66 9000 3.1 70 23:21 13.10.2019
224 Haze 31 1012 62 10000 6.7 60 23:00 13.10.2019
225 Haze 31 1012 62 10000 6.7 60 22:41 13.10.2019
226 Haze 31 1012 62 10000 6.7 60 22:22 13.10.2019
227 Haze 31 1012 62 10000 6.7 60 22:22 13.10.2019
228 Haze 31 1012 62 10000 7.2 50 21:58 13.10.2019
229 Haze 31 1012 62 10000 7.2 50 21:38 13.10.2019
230 Haze 31 1012 62 10000 7.2 50 21:19 13.10.2019
231 Haze 32 1012 66 10000 6.2 60 20:58 13.10.2019
232 Haze 32 1012 66 10000 6.2 60 20:58 13.10.2019
233 Haze 32 1012 66 10000 6.2 60 20:40 13.10.2019
234 Haze 32 1012 66 10000 6.2 60 20:21 13.10.2019
235 Haze 32 1012 62 10000 6.2 60 19:59 13.10.2019
236 Haze 32 1012 62 10000 6.2 60 19:39 13.10.2019
237 Haze 32 1012 62 10000 6.2 60 19:39 13.10.2019
238 Haze 32 1012 62 10000 6.2 60 19:39 13.10.2019
239 Haze 32 1013 62 9000 3.6 50 19:21 13.10.2019
240 Haze 32 1011 66 10000 6.2 50 18:59 13.10.2019
241 Haze 32 1011 66 10000 6.2 50 18:59 13.10.2019
242 Haze 32 1011 66 10000 6.2 50 18:58 13.10.2019
243 Haze 32 1011 66 10000 6.2 50 18:58 13.10.2019
244 Haze 32 1012 62 9000 3.6 50 18:38 13.10.2019
245 Haze 32 1012 62 9000 3.6 50 18:38 13.10.2019
246 Haze 32 1012 62 9000 3.6 50 18:19 13.10.2019
247 Haze 33 1010 62 10000 5.1 50 17:58 13.10.2019
248 Haze 33 1010 62 10000 5.1 50 17:39 13.10.2019
249 Haze 33 1011 46 9000 3.6 60 17:21 13.10.2019
250 Haze 35 1010 63 9000 4.6 50 16:43 13.10.2019
251 Haze 35 1010 63 9000 4.6 50 16:19 13.10.2019
252 -273 0 0 0 0 0 15:57 13.10.2019
253 Clouds 35 1010 59 10000 4.1 50 15:57 13.10.2019
254 Clouds 35 1010 59 10000 4.1 50 15:38 13.10.2019
255 Clouds 35 1010 59 10000 4.1 50 15:19 13.10.2019
256 Haze 36 1009 52 10000 3.6 60 14:57 13.10.2019
257 Haze 36 1009 52 10000 3.6 60 14:38 13.10.2019
258 Haze 36 1009 52 10000 3.6 60 14:19 13.10.2019
259 Haze 36 1009 56 10000 3.6 60 13:42 13.10.2019
260 Haze 36 1010 27 9000 2.6 110 13:23 13.10.2019
261 Haze 37 1010 50 10000 3.1 90 12:59 13.10.2019
262 Haze 38 1011 29 9000 2.6 0 12:39 13.10.2019
263 Haze 36 1011 29 9000 2.6 0 12:21 13.10.2019
264 Haze 36 1010 53 10000 3.6 100 11:59 13.10.2019
265 Haze 36 1010 53 10000 3.6 100 11:39 13.10.2019
266 Haze 36 1011 35 9000 2.6 70 11:21 13.10.2019
267 Haze 36 1011 53 10000 4.1 130 10:59 13.10.2019
268 Haze 36 1011 53 10000 4.1 130 10:39 13.10.2019
269 Haze 36 1011 53 10000 4.1 130 10:39 13.10.2019
270 Haze 35 1012 32 9000 4.1 120 10:20 13.10.2019
271 Haze 35 1011 56 10000 4.6 120 09:39 13.10.2019
272 Haze 35 1011 56 10000 4.6 120 09:21 13.10.2019
273 Haze 35 1011 56 10000 4.6 120 09:21 13.10.2019
274 Haze 35 1011 52 10000 4.6 130 08:51 13.10.2019
275 Haze 34 1011 52 10000 4.6 130 08:27 13.10.2019
276 Smoke 33 1011 63 10000 5.7 100 07:55 13.10.2019
277 Smoke 33 1011 63 10000 5.7 100 07:35 13.10.2019
278 Mist 32 1011 63 10000 4.1 100 06:54 13.10.2019
279 Mist 32 1011 63 10000 4.1 100 06:24 13.10.2019
280 Mist 30 1011 74 6000 1.5 70 05:27 13.10.2019
281 Mist 30 1011 74 6000 1.5 70 05:27 13.10.2019
282 Mist 30 1009 74 10000 3.6 90 04:35 13.10.2019
283 Mist 30 1009 74 10000 2.6 90 03:35 13.10.2019
284 Mist 30 1009 74 8000 1 80 02:32 13.10.2019
285 Clear 31 1008 79 10000 2.1 70 01:37 13.10.2019
286 Mist 30 1008 79 10000 2.1 70 01:18 13.10.2019
287 Mist 30 1008 79 10000 1.5 50 00:42 13.10.2019
288 Mist 30 1008 79 10000 1.5 50 00:42 13.10.2019
289 Mist 30 1008 79 10000 1.5 50 00:19 13.10.2019
290 Mist 31 1009 70 10000 2.1 60 23:42 12.10.2019
291 Mist 31 1009 70 10000 2.1 60 23:23 12.10.2019
292 Mist 31 1009 70 10000 2.1 50 22:59 12.10.2019
293 Mist 31 1009 70 10000 2.1 50 22:40 12.10.2019
294 Mist 31 1009 70 10000 2.1 50 22:22 12.10.2019
295 Mist 31 1009 70 10000 2.1 50 21:59 12.10.2019
296 Mist 31 1009 70 10000 2.1 50 21:40 12.10.2019
297 Mist 31 1009 70 10000 2.1 50 21:22 12.10.2019
298 Mist 31 1009 66 10000 3.1 50 20:56 12.10.2019
299 Clear 31 1009 66 10000 3.1 50 20:37 12.10.2019
300 Haze 32 1009 66 10000 3.1 50 20:19 12.10.2019
301 Haze 32 1009 70 9000 3.6 60 19:36 12.10.2019
302 Haze 32 1009 70 9000 3.6 60 19:18 12.10.2019
303 Haze 32 1009 66 10000 3.6 50 18:44 12.10.2019
304 Haze 32 1009 66 10000 3.6 50 18:26 12.10.2019
305 Haze 32 1008 70 9000 5.1 70 17:46 12.10.2019
306 Haze 32 1008 70 9000 5.1 70 17:25 12.10.2019
307 Haze 33 1008 63 8000 3.6 50 16:59 12.10.2019
308 Haze 33 1008 63 8000 3.6 50 16:40 12.10.2019
309 Haze 33 1008 63 8000 3.6 50 16:21 12.10.2019
310 Thunderstorm 35 1008 59 8000 4.1 100 15:57 12.10.2019
311 Thunderstorm 35 1008 59 8000 4.1 100 15:38 12.10.2019
312 Thunderstorm 34 1008 59 8000 4.1 100 15:18 12.10.2019
313 Haze 35 1007 59 8000 4.1 70 14:40 12.10.2019
314 Haze 35 1007 59 8000 4.1 70 14:20 12.10.2019
315 Haze 36 1008 53 10000 3.6 80 13:51 12.10.2019
316 Haze 36 1008 31 9000 6.79 89.561 13:32 12.10.2019
317 Haze 36 1008 56 9000 2.6 120 12:56 12.10.2019
318 Haze 36 1008 56 9000 2.6 120 12:38 12.10.2019
319 Haze 36 1008 56 9000 2.6 120 12:38 12.10.2019
320 Haze 36 1008 56 9000 2.6 120 12:20 12.10.2019
321 Haze 36 1008 56 9000 2.6 120 12:20 12.10.2019
322 Haze 35 1009 56 9000 3.1 110 11:45 12.10.2019
323 Haze 35 1009 42 9000 2.6 130 11:24 12.10.2019
324 Haze 34 1009 63 9000 4.1 110 10:58 12.10.2019
325 Haze 34 1009 63 9000 4.1 110 10:39 12.10.2019
326 Haze 34 1009 63 9000 4.1 110 10:20 12.10.2019
327 Haze 34 1010 63 8000 1.5 0 09:57 12.10.2019
328 Clouds 33 1010 63 8000 1.5 0 09:38 12.10.2019
329 Mist 33 1010 63 8000 1.5 0 09:20 12.10.2019
330 Mist 33 1010 67 8000 1.5 160 08:45 12.10.2019
331 Mist 33 1010 67 8000 1.5 160 08:25 12.10.2019
332 Mist 32 1010 75 7000 2.1 230 07:59 12.10.2019
333 Mist 32 1010 75 7000 2.1 230 07:31 12.10.2019
334 Mist 29 1009 74 6000 1.5 210 06:38 12.10.2019
335 Mist 27 1008 78 6000 1 250 05:44 12.10.2019
336 Mist 28 1008 74 9000 1.5 230 04:43 12.10.2019
337 Mist 29 1008 79 10000 2.6 170 03:56 12.10.2019
338 Mist 29 1007 74 10000 3.1 180 02:50 12.10.2019
339 Mist 29 1007 79 10000 2.6 160 01:35 12.10.2019
340 Mist 30 1007 74 10000 2.1 140 00:57 12.10.2019
341 Mist 30 1007 74 10000 2.1 140 00:38 12.10.2019
342 Mist 30 1008 70 10000 2.6 150 23:55 11.10.2019
343 Mist 30 1008 70 10000 2.6 150 23:37 11.10.2019
344 Mist 31 1009 79 8000 1.5 160 23:18 11.10.2019
345 Mist 31 1008 74 10000 1.5 140 22:39 11.10.2019
346 Mist 31 1008 74 10000 1.5 140 22:20 11.10.2019
347 Mist 32 1008 70 10000 3.1 110 21:55 11.10.2019
348 Mist 32 1008 70 10000 3.1 110 21:36 11.10.2019
349 Mist 32 1008 70 10000 3.1 110 21:18 11.10.2019
350 Mist 32 1009 75 10000 2.6 90 20:42 11.10.2019
351 Mist 32 1009 75 10000 2.6 90 20:24 11.10.2019
352 Haze 32 1009 75 10000 2.6 90 19:56 11.10.2019
353 Haze 32 1009 75 10000 2.6 90 19:38 11.10.2019
354 Haze 32 1009 75 10000 2.6 90 19:18 11.10.2019
355 Haze 32 1009 75 10000 2.6 90 19:18 11.10.2019
356 Haze 32 1009 70 10000 2.6 60 18:56 11.10.2019
357 Haze 32 1009 70 10000 2.6 60 18:37 11.10.2019
358 Haze 32 1009 70 10000 2.6 60 18:18 11.10.2019
359 Haze 33 1008 63 9000 3.1 50 17:57 11.10.2019
360 Haze 33 1008 63 9000 3.1 50 17:37 11.10.2019
361 Haze 33 1008 63 9000 3.1 50 17:18 11.10.2019
362 Haze 34 1008 66 7000 4.1 50 16:41 11.10.2019
363 Haze 34 1008 66 7000 4.1 50 16:21 11.10.2019
364 Haze 35 1008 59 7000 4.1 70 15:59 11.10.2019
365 Haze 35 1008 59 7000 4.1 70 15:38 11.10.2019
366 Haze 35 1008 59 7000 4.1 70 15:38 11.10.2019
367 Haze 35 1008 59 7000 4.1 70 15:19 11.10.2019
368 Haze 35 1008 47 8000 4.6 80 14:47 11.10.2019
369 Haze 35 1008 47 8000 4.6 80 14:29 11.10.2019
370 Haze 36 1009 44 10000 4.6 60 13:57 11.10.2019
371 Clear 34 1009 44 10000 4.6 60 13:38 11.10.2019
372 Haze 36 1009 44 10000 4.6 60 13:19 11.10.2019
373 Haze 37 1009 44 10000 4.6 60 12:56 11.10.2019
374 Haze 37 1009 44 10000 4.6 60 12:38 11.10.2019
375 Haze 37 1009 44 10000 4.6 60 12:18 11.10.2019
376 Haze 37 1010 50 10000 4.1 70 11:41 11.10.2019
377 Haze 37 1010 50 10000 4.1 70 11:22 11.10.2019
378 Haze 38 1011 27 10000 1.5 0 10:58 11.10.2019
379 Haze 38 1011 27 10000 1.5 0 10:40 11.10.2019
380 Haze 38 1011 27 10000 1.5 0 10:22 11.10.2019
381 Haze 36 1011 41 10000 1.5 170 09:56 11.10.2019
382 Haze 36 1011 41 10000 1.5 170 09:37 11.10.2019
383 Haze 36 1011 41 10000 1.5 170 09:19 11.10.2019
384 Haze 34 1012 52 10000 2.6 200 08:55 11.10.2019
385 Haze 34 1012 52 10000 2.6 200 08:36 11.10.2019
386 Haze 34 1012 52 10000 2.6 200 08:18 11.10.2019
387 Haze 32 1012 70 7000 3.1 220 07:44 11.10.2019
388 Haze 32 1012 70 7000 3.1 220 07:25 11.10.2019
389 Mist 30 1011 84 6000 3.6 220 06:48 11.10.2019
390 Mist 30 1011 84 6000 3.6 220 06:23 11.10.2019
391 Mist 30 1010 70 6000 2.6 210 05:39 11.10.2019
392 Mist 30 1010 70 10000 2.6 170 04:59 11.10.2019
393 Mist 30 1010 70 10000 2.6 170 04:24 11.10.2019
394 Mist 30 1010 74 10000 2.6 150 02:40 11.10.2019
395 Mist 31 1010 70 10000 2.6 110 00:50 11.10.2019
396 Mist 31 1010 70 10000 2.6 110 00:29 11.10.2019
397 Mist 32 1010 66 10000 3.1 100 23:44 10.10.2019
398 Mist 32 1010 66 10000 3.1 100 23:22 10.10.2019
399 Haze 32 1011 66 10000 5.1 90 22:58 10.10.2019
400 Haze 32 1011 66 10000 5.1 90 22:39 10.10.2019
401 Haze 32 1011 66 10000 5.1 90 22:21 10.10.2019
402 Mist 32 1011 66 10000 2.6 90 21:58 10.10.2019
403 Mist 32 1011 66 10000 2.6 90 21:58 10.10.2019
404 Mist 32 1011 66 10000 2.6 90 21:39 10.10.2019
405 Mist 32 1011 66 10000 2.6 90 21:21 10.10.2019
406 Mist 32 1011 66 10000 2.6 90 21:21 10.10.2019
407 Haze 32 1011 66 10000 2.1 60 20:43 10.10.2019
408 Haze 32 1011 66 10000 2.1 60 20:22 10.10.2019
409 Haze 33 1011 62 10000 1.5 50 19:59 10.10.2019
410 Haze 33 1011 62 10000 1.5 50 19:41 10.10.2019
411 Haze 33 1011 62 10000 1.5 50 19:21 10.10.2019
412 Haze 33 1010 59 10000 1.5 40 18:59 10.10.2019
413 Haze 33 1010 59 10000 1.5 40 18:40 10.10.2019
414 Haze 33 1010 59 10000 1.5 40 18:20 10.10.2019
415 Haze 34 1009 56 10000 2.1 30 17:55 10.10.2019
416 Haze 34 1009 56 10000 2.1 30 17:55 10.10.2019
417 Haze 34 1009 56 10000 2.1 30 17:37 10.10.2019
418 Haze 34 1009 56 10000 2.1 30 17:18 10.10.2019
419 Haze 35 1009 44 10000 2.6 40 16:46 10.10.2019
420 Haze 36 1009 50 10000 3.6 30 16:26 10.10.2019
421 Haze 36 1009 50 10000 3.6 30 15:58 10.10.2019
422 Haze 36 1009 50 10000 3.6 30 15:38 10.10.2019
423 Haze 36 1009 50 10000 3.6 30 15:19 10.10.2019
424 Haze 39 1009 37 10000 4.1 120 14:55 10.10.2019
425 Haze 39 1010 13 9000 5.1 350 14:36 10.10.2019
426 Haze 39 1010 13 9000 5.1 350 14:18 10.10.2019
427 Haze 39 1009 33 10000 3.1 90 13:42 10.10.2019
428 Haze 38 1010 16 9000 1.5 320 13:24 10.10.2019
429 Haze 38 1010 33 10000 3.1 110 12:58 10.10.2019
430 Haze 39 1011 17 9000 1.5 320 12:40 10.10.2019
431 Haze 39 1011 17 9000 1.5 320 12:20 10.10.2019
432 Haze 39 1011 17 9000 1.5 320 12:20 10.10.2019
433 Haze 39 1010 24 10000 3.6 350 11:57 10.10.2019
434 Haze 39 1010 24 10000 3.6 350 11:38 10.10.2019
435 Haze 39 1010 24 10000 3.6 350 11:19 10.10.2019
436 Haze 38 1011 27 10000 3.1 360 10:44 10.10.2019
437 Haze 38 1011 27 10000 3.1 360 10:26 10.10.2019
438 Haze 37 1012 37 10000 1.5 260 09:56 10.10.2019
439 Haze 37 1012 37 10000 1.5 260 09:38 10.10.2019
440 Haze 37 1012 37 10000 1.5 260 09:20 10.10.2019
441 Haze 34 1012 50 10000 2.6 280 08:57 10.10.2019
442 Haze 34 1012 50 10000 2.6 280 08:37 10.10.2019
443 Haze 34 1012 50 10000 2.6 280 08:18 10.10.2019
444 Mist 32 1012 63 8000 2.1 0 07:44 10.10.2019
445 Mist 32 1012 63 8000 2.1 0 07:21 10.10.2019
446 Mist 30 1011 74 7000 2.1 250 06:48 10.10.2019
447 Mist 30 1011 74 7000 2.1 250 06:29 10.10.2019
448 Mist 28 1011 79 6000 1.5 260 05:28 10.10.2019
449 Mist 29 1010 79 10000 2.1 250 04:47 10.10.2019
450 Mist 29 1010 79 10000 2.1 250 04:26 10.10.2019
451 Mist 29 1010 79 10000 2.1 250 04:26 10.10.2019
452 Mist 29 1010 70 10000 2.1 310 01:44 10.10.2019
453 Mist 29 1011 78 8000 1.5 300 01:25 10.10.2019
454 Mist 29 1010 74 10000 2.6 340 00:54 10.10.2019
455 Mist 29 1010 74 10000 2.6 340 00:23 10.10.2019
456 Mist 30 1011 70 10000 2.6 340 23:40 09.10.2019
457 Mist 30 1011 70 10000 2.6 340 23:22 09.10.2019
458 Mist 30 1011 70 10000 3.6 330 22:57 09.10.2019
459 Mist 30 1011 70 10000 3.6 330 22:38 09.10.2019
460 Mist 30 1011 70 10000 3.6 330 22:20 09.10.2019
461 Clear 31 1011 70 10000 4.1 340 21:41 09.10.2019
462 Haze 31 1011 70 10000 3.6 350 21:21 09.10.2019
463 Haze 31 1011 70 10000 3.6 350 20:56 09.10.2019
464 Clear 29 1012 78 0 3.35 340.094 20:38 09.10.2019
465 Clear 32 1011 70 10000 4.1 350 20:19 09.10.2019
466 Clear 32 1011 70 10000 4.1 350 20:19 09.10.2019
467 Clear 32 1011 70 10000 4.1 350 20:19 09.10.2019
468 Clear 32 1011 70 10000 4.1 350 19:58 09.10.2019
469 Clear 32 1011 70 10000 4.1 350 19:40 09.10.2019
470 Clear 32 1011 70 10000 4.1 350 19:22 09.10.2019
471 Clear 29 1012 78 0 3.35 340.094 18:38 09.10.2019
472 Haze 32 1011 75 10000 5.1 10 18:20 09.10.2019
473 Haze 32 1011 75 10000 5.1 10 17:58 09.10.2019
474 Haze 32 1011 75 10000 5.1 10 17:37 09.10.2019
475 Haze 32 1011 75 10000 5.1 10 17:37 09.10.2019
476 Haze 32 1011 75 10000 5.1 10 17:19 09.10.2019
477 Haze 34 1010 70 9000 4.6 20 16:56 09.10.2019
478 Haze 34 1010 70 9000 4.6 20 16:37 09.10.2019
479 Haze 34 1010 70 9000 4.6 20 16:18 09.10.2019
480 Haze 34 1010 70 9000 4.6 20 16:18 09.10.2019
481 Haze 34 1010 63 9000 5.1 20 15:55 09.10.2019
482 Haze 34 1010 63 9000 5.1 20 15:36 09.10.2019
483 Haze 35 1011 44 9000 3.6 40 15:18 09.10.2019
484 Haze 35 1011 63 10000 4.6 30 14:44 09.10.2019
485 Haze 35 1011 63 10000 4.6 30 14:19 09.10.2019
486 Haze 35 1011 53 10000 4.6 30 13:59 09.10.2019
487 Haze 35 1011 53 10000 4.6 30 13:37 09.10.2019
488 Haze 36 1012 37 9000 2.1 340 13:18 09.10.2019
489 Haze 36 1012 47 10000 3.1 20 12:43 09.10.2019
490 Haze 36 1012 47 10000 3.1 20 12:22 09.10.2019
491 Haze 36 1012 50 10000 2.6 20 11:58 09.10.2019
492 Haze 36 1012 50 10000 2.6 20 11:39 09.10.2019
493 Haze 36 1012 50 10000 2.6 20 11:20 09.10.2019
494 Haze 35 1013 56 10000 3.1 10 10:58 09.10.2019
495 Haze 35 1013 56 10000 3.1 10 10:40 09.10.2019
496 Haze 35 1013 56 10000 3.1 10 10:18 09.10.2019
497 Haze 34 1014 52 10000 3.1 350 09:43 09.10.2019
498 Haze 34 1015 39 9000 2.1 20 09:20 09.10.2019
499 Haze 33 1015 55 10000 3.1 360 08:57 09.10.2019
500 Haze 33 1015 55 10000 3.1 360 08:37 09.10.2019
501 Haze 33 1015 55 10000 3.1 360 08:19 09.10.2019
502 Haze 32 1015 59 10000 3.1 360 07:47 09.10.2019
503 Haze 32 1014 63 10000 2.1 350 07:24 09.10.2019
504 Haze 32 1014 63 10000 2.1 350 07:24 09.10.2019
505 Haze 30 1014 62 10000 2.6 340 06:56 09.10.2019
506 Haze 29 1014 62 10000 2.6 340 06:25 09.10.2019
507 Haze 29 1013 74 10000 2.9 353.594 05:47 09.10.2019
508 Haze 29 1013 70 10000 1 360 04:41 09.10.2019
509 Haze 29 1012 70 10000 1 350 03:43 09.10.2019
510 Haze 29 1012 70 10000 1 350 03:43 09.10.2019
511 Haze 30 1012 66 10000 1 340 01:55 09.10.2019
512 Haze 30 1013 62 9000 2.2 19.472 01:22 09.10.2019
513 Haze 30 1013 62 9000 2.2 19.472 01:22 09.10.2019
514 Haze 30 1013 66 10000 2.1 20 00:59 09.10.2019
515 Haze 30 1013 66 10000 2.1 20 00:40 09.10.2019
516 Haze 31 1013 66 10000 2.1 20 00:22 09.10.2019
517 Haze 31 1013 66 10000 1.5 30 23:58 08.10.2019
518 Clear 32 1013 66 10000 1.5 30 23:37 08.10.2019
519 Haze 31 1013 66 10000 1.5 30 23:18 08.10.2019
520 Haze 31 1013 62 10000 2.1 30 22:41 08.10.2019
521 Haze 31 1013 62 10000 2.1 30 22:41 08.10.2019
522 Haze 32 1013 62 10000 1.5 20 22:21 08.10.2019
523 Haze 32 1013 62 10000 1.5 20 21:58 08.10.2019
524 Haze 32 1013 62 10000 1.5 20 21:39 08.10.2019
525 Haze 32 1013 62 10000 1.5 40 21:20 08.10.2019
526 Haze 32 1013 62 10000 1.5 40 20:58 08.10.2019
527 Haze 32 1013 62 10000 1.5 40 20:39 08.10.2019
528 Haze 32 1014 52 9000 2.1 70 20:21 08.10.2019
529 Haze 32 1013 62 10000 2.1 30 19:59 08.10.2019
530 Haze 32 1013 62 10000 2.1 30 19:41 08.10.2019
531 Haze 32 1013 62 10000 2.1 30 19:23 08.10.2019
532 Haze 33 1013 62 10000 1.5 40 18:57 08.10.2019
533 Haze 33 1014 43 9000 3.1 100 18:39 08.10.2019
534 Haze 33 1014 43 9000 3.1 100 18:19 08.10.2019
535 Haze 34 1012 59 10000 2.1 40 17:55 08.10.2019
536 Haze 34 1013 36 9000 2.6 90 17:36 08.10.2019
537 Haze 34 1013 36 9000 2.6 90 17:18 08.10.2019
538 Haze 35 1012 52 10000 2.6 70 16:41 08.10.2019
539 Haze 34 1012 52 10000 2.6 70 16:22 08.10.2019
540 Haze 35 1012 52 10000 3.1 100 15:57 08.10.2019
541 Clear 32 1013 63 0 3.31 87.942 15:38 08.10.2019
542 Haze 35 1012 47 10000 4.1 90 15:19 08.10.2019
543 Haze 35 1012 47 10000 4.1 90 14:42 08.10.2019
544 Haze 35 1012 47 10000 4.1 90 14:42 08.10.2019
545 Haze 36 1012 27 9000 4.6 110 14:21 08.10.2019
546 Haze 36 1012 44 10000 4.6 110 13:59 08.10.2019
547 Haze 36 1012 44 10000 4.6 110 13:39 08.10.2019
548 Haze 36 1013 29 9000 4.1 120 13:21 08.10.2019
549 Haze 36 1013 47 10000 4.6 120 12:59 08.10.2019
550 Haze 36 1013 47 10000 4.6 120 12:40 08.10.2019
551 Haze 36 1013 29 9000 5.1 100 12:20 08.10.2019
552 Haze 36 1013 44 10000 4.6 120 11:56 08.10.2019
553 Haze 36 1013 44 10000 5.1 110 11:37 08.10.2019
554 Haze 36 1013 44 10000 5.1 110 11:19 08.10.2019
555 Haze 37 1013 41 10000 4.6 120 10:40 08.10.2019
556 Haze 36 1014 32 9000 3.6 170 10:22 08.10.2019
557 Clouds 36 1014 47 10000 5.1 110 09:58 08.10.2019
558 Clouds 36 1014 47 10000 5.1 110 09:40 08.10.2019
559 Haze 36 1014 50 10000 4.6 100 09:21 08.10.2019
560 Haze 35 1014 50 10000 4.6 100 08:45 08.10.2019
561 Haze 35 1015 32 9000 5.1 160 08:25 08.10.2019
562 Haze 35 1014 53 10000 5.7 120 07:47 08.10.2019
563 Haze 34 1015 46 9000 4.1 140 07:23 08.10.2019
564 Haze 33 1014 52 10000 5.7 120 06:57 08.10.2019
565 Haze 33 1014 59 10000 5.1 120 06:36 08.10.2019
566 Mist 32 1013 63 10000 4.6 120 05:59 08.10.2019
567 Mist 32 1013 63 10000 4.6 120 05:40 08.10.2019
568 Mist 32 1013 63 10000 4.6 120 05:40 08.10.2019
569 Mist 32 1012 63 10000 5.7 110 04:56 08.10.2019
570 Mist 32 1011 63 10000 4.6 110 03:30 08.10.2019
571 Mist 33 1011 66 10000 5.7 110 02:41 08.10.2019
572 Mist 33 1010 66 10000 6.2 100 01:56 08.10.2019
573 Mist 33 1010 66 10000 6.2 100 01:38 08.10.2019
574 Haze 32 1010 66 10000 6.2 100 00:55 08.10.2019
575 Haze 33 1011 62 8000 3.6 100 00:23 08.10.2019
576 Haze 33 1010 66 10000 6.7 90 23:44 07.10.2019
577 Haze 33 1010 66 10000 6.7 90 23:21 07.10.2019
578 Haze 33 1010 66 10000 6.7 90 23:21 07.10.2019
579 Haze 33 1010 66 10000 6.7 90 23:21 07.10.2019
580 Haze 33 1010 66 10000 6.7 90 22:59 07.10.2019
581 Haze 33 1010 66 10000 6.7 90 22:40 07.10.2019
582 Haze 33 1010 66 10000 5.7 90 22:21 07.10.2019
583 Haze 33 1010 63 10000 6.7 90 21:59 07.10.2019
584 Haze 33 1010 63 10000 6.7 90 21:40 07.10.2019
585 Haze 34 1011 59 8000 3.6 90 21:21 07.10.2019
586 Haze 34 1011 56 10000 6.2 90 20:59 07.10.2019
587 Haze 34 1011 56 10000 6.2 90 20:40 07.10.2019
588 Haze 34 1011 59 9000 6.7 80 20:21 07.10.2019
589 Haze 33 1011 59 9000 6.7 80 19:59 07.10.2019
590 Haze 33 1011 59 9000 6.7 80 19:41 07.10.2019
591 Haze 33 1010 56 9000 6.7 90 19:20 07.10.2019
592 Haze 33 1010 56 9000 6.7 90 18:59 07.10.2019
593 Haze 33 1010 56 8000 6.2 90 18:40 07.10.2019
594 Haze 33 1010 56 8000 6.2 90 18:19 07.10.2019
595 Haze 33 1010 56 8000 6.2 90 18:19 07.10.2019
596 Haze 33 1010 59 7000 6.2 80 17:55 07.10.2019
597 Haze 33 1009 59 6000 6.2 80 17:37 07.10.2019
598 Haze 33 1009 59 6000 6.2 80 17:18 07.10.2019
599 Dust 34 1009 56 4000 6.7 80 16:43 07.10.2019
600 Dust 34 1009 49 5000 6.2 80 16:25 07.10.2019
601 Dust 34 1009 56 3500 6.7 80 15:46 07.10.2019
602 Dust 34 1009 49 5000 7.2 90 15:26 07.10.2019
603 Dust 35 1009 56 3500 6.2 80 14:58 07.10.2019
604 Dust 35 1009 56 3500 6.2 80 14:40 07.10.2019
605 Dust 36 1009 56 3500 6.7 80 14:22 07.10.2019
606 Dust 36 1008 53 3500 6.7 90 13:44 07.10.2019
607 Haze 36 1009 41 7000 6.7 110 13:21 07.10.2019
608 Haze 36 1009 41 7000 6.7 110 12:57 07.10.2019
609 Haze 36 1009 35 6000 7.2 110 12:39 07.10.2019
610 Haze 36 1009 35 6000 7.2 110 12:19 07.10.2019
611 Haze 36 1009 47 8000 8.2 120 11:58 07.10.2019
612 Haze 36 1009 47 8000 8.2 120 11:39 07.10.2019
613 Haze 36 1009 32 9000 5.1 130 11:20 07.10.2019
614 Haze 36 1009 47 9000 7.7 120 10:42 07.10.2019
615 Haze 36 1009 44 10000 7.7 120 10:21 07.10.2019
616 Haze 36 1009 50 10000 7.7 120 09:56 07.10.2019
617 Haze 36 1009 50 10000 7.7 120 09:38 07.10.2019
618 Haze 36 1010 50 10000 6.7 100 09:19 07.10.2019
619 Haze 35 1010 53 10000 7.2 100 08:42 07.10.2019
620 Haze 34 1010 59 10000 5.1 90 08:20 07.10.2019
621 Haze 34 1010 59 10000 5.1 90 07:46 07.10.2019
622 Haze 34 1009 59 10000 6.2 80 07:27 07.10.2019
623 Mist 33 1009 63 10000 5.7 70 06:57 07.10.2019
624 Mist 33 1009 63 10000 5.7 70 06:38 07.10.2019
625 Mist 31 1008 62 10000 4.1 70 05:56 07.10.2019
626 Mist 31 1008 62 10000 4.1 70 05:25 07.10.2019
627 Mist 31 1007 59 10000 4.1 70 04:47 07.10.2019
628 Haze 30 1007 62 10000 3.6 80 03:45 07.10.2019
629 Haze 30 1007 62 10000 3.6 80 03:27 07.10.2019
630 Haze 30 1007 62 10000 4.1 40 02:37 07.10.2019
631 Haze 30 1007 62 10000 4.1 40 02:18 07.10.2019
632 Haze 30 1007 62 10000 3.6 40 01:23 07.10.2019
633 Haze 30 1006 66 10000 3.6 40 00:49 07.10.2019
634 Haze 30 1006 66 10000 3.6 40 00:23 07.10.2019
635 Haze 31 1006 62 10000 3.6 40 23:59 06.10.2019
636 Haze 31 1006 62 10000 3.6 40 23:39 06.10.2019
637 Haze 31 1006 62 10000 3.6 40 23:18 06.10.2019
638 -273 0 0 0 0 0 22:54 06.10.2019
639 Haze 30 1007 66 10000 3.1 30 22:36 06.10.2019
640 Haze 30 1007 66 10000 3.1 30 22:18 06.10.2019
641 Haze 30 1007 66 10000 3.1 30 22:18 06.10.2019
642 Haze 30 1007 62 10000 2.6 20 21:55 06.10.2019
643 Haze 30 1007 62 10000 2.6 20 21:54 06.10.2019
644 Haze 30 1007 62 10000 2.6 20 21:36 06.10.2019
645 Haze 30 1007 62 10000 2.6 20 21:36 06.10.2019
646 Haze 31 1007 62 10000 2.6 20 21:18 06.10.2019
647 Haze 31 1007 62 10000 2.6 20 21:18 06.10.2019
648 Haze 31 1007 58 10000 2.1 360 20:54 06.10.2019
649 Haze 31 1007 58 10000 2.1 360 20:36 06.10.2019
650 Haze 31 1007 58 10000 2.1 360 20:36 06.10.2019
651 Haze 31 1007 58 10000 2.1 360 20:18 06.10.2019
652 Haze 31 1007 52 10000 2.6 20 19:54 06.10.2019
653 Haze 31 1007 52 10000 2.6 20 19:36 06.10.2019
654 Haze 31 1007 52 10000 2.6 20 19:18 06.10.2019
655 Haze 32 1007 52 10000 3.6 10 18:54 06.10.2019
656 Haze 32 1007 52 10000 3.6 10 18:36 06.10.2019
657 Haze 32 1007 52 10000 3.6 10 18:18 06.10.2019
658 Haze 32 1006 55 10000 4.6 20 17:42 06.10.2019
659 Haze 32 1006 55 10000 4.6 20 17:19 06.10.2019
660 Haze 33 1006 49 10000 4.1 30 16:55 06.10.2019
661 Haze 33 1006 49 10000 4.1 30 16:54 06.10.2019
662 Haze 33 1006 49 10000 4.1 30 16:36 06.10.2019
663 Haze 33 1006 49 10000 4.1 30 16:18 06.10.2019
664 Haze 34 1006 44 10000 5.1 20 15:42 06.10.2019
665 Haze 34 1006 30 9000 5.1 50 15:19 06.10.2019
666 Haze 34 1006 30 9000 5.1 50 15:19 06.10.2019
667 Haze 35 1006 41 10000 5.7 20 14:44 06.10.2019
668 Haze 35 1006 41 10000 5.7 20 14:25 06.10.2019
669 Haze 35 1006 41 10000 5.7 10 13:58 06.10.2019
670 Haze 35 1006 41 10000 5.7 10 13:39 06.10.2019
671 Haze 36 1006 27 9000 5.7 50 13:21 06.10.2019
672 Haze 36 1006 36 10000 5.1 10 12:58 06.10.2019
673 Haze 36 1006 36 10000 5.1 10 12:39 06.10.2019
674 Haze 36 1006 36 10000 5.1 10 12:39 06.10.2019
675 Haze 36 1006 36 10000 5.1 10 12:21 06.10.2019
676 Haze 35 1007 34 10000 6.2 10 11:58 06.10.2019
677 Haze 35 1007 34 10000 6.2 10 11:39 06.10.2019
678 Haze 35 1007 34 10000 6.2 10 11:20 06.10.2019
679 Haze 35 1007 34 10000 6.2 10 11:20 06.10.2019
680 Haze 35 1007 39 10000 6.2 10 10:45 06.10.2019
681 Haze 35 1007 39 10000 6.2 10 10:26 06.10.2019
682 Haze 34 1007 44 10000 5.1 10 09:58 06.10.2019
683 Haze 34 1007 44 10000 5.1 10 09:40 06.10.2019
684 Haze 34 1007 44 10000 5.1 10 09:19 06.10.2019
685 Haze 34 1008 44 10000 5.1 10 08:45 06.10.2019
686 Haze 33 1008 41 10000 4.1 350 08:21 06.10.2019
687 Haze 33 1008 38 10000 5.1 340 07:57 06.10.2019
688 Haze 33 1008 38 10000 5.1 340 07:38 06.10.2019
689 Haze 29 1008 42 9000 1.5 280 06:32 06.10.2019
690 Haze 28 1008 50 9000 1.83 309.552 05:35 06.10.2019
691 Haze 29 1008 50 9000 1.83 309.552 04:27 06.10.2019
692 Haze 29 1006 38 10000 3.1 310 02:47 06.10.2019
693 Haze 30 1007 47 9000 3.27 323.614 02:27 06.10.2019
694 Clear 29 1006 38 10000 2.1 320 01:46 06.10.2019
695 Haze 29 1006 38 10000 2.1 320 01:27 06.10.2019
696 Haze 30 1006 43 10000 3.6 330 00:59 06.10.2019
697 Haze 30 1006 43 10000 3.6 330 00:29 06.10.2019
698 Clear 31 1006 45 10000 4.1 330 23:46 05.10.2019
699 Haze 30 1007 40 10000 4.1 330 23:23 05.10.2019
700 Haze 30 1007 40 10000 4.1 330 22:59 05.10.2019
701 Haze 30 1007 40 10000 4.1 330 22:40 05.10.2019
702 Haze 30 1007 40 10000 4.1 330 22:21 05.10.2019
703 Haze 31 1007 40 10000 4.6 330 21:57 05.10.2019
704 Haze 31 1007 40 10000 4.6 330 21:57 05.10.2019
705 Haze 31 1007 40 10000 4.6 330 21:39 05.10.2019
706 Haze 31 1007 40 10000 4.6 330 21:20 05.10.2019
707 Haze 32 1007 41 10000 4.6 320 20:56 05.10.2019
708 Haze 32 1007 41 10000 4.6 320 20:38 05.10.2019
709 Haze 32 1008 45 8000 3.1 330 20:19 05.10.2019
710 Haze 32 1007 49 10000 5.7 330 19:39 05.10.2019
711 Haze 33 1007 49 10000 5.7 330 19:21 05.10.2019
712 Haze 33 1006 56 9000 6.2 340 18:57 05.10.2019
713 Haze 33 1006 56 9000 6.2 340 18:39 05.10.2019
714 Haze 33 1006 56 9000 6.2 340 18:20 05.10.2019
715 Haze 33 1006 70 8000 3.6 10 17:55 05.10.2019
716 Haze 33 1006 70 8000 3.6 10 17:55 05.10.2019
717 Haze 33 1006 70 8000 3.6 10 17:37 05.10.2019
718 Haze 33 1006 70 8000 3.6 10 17:18 05.10.2019
719 Haze 34 1005 67 7000 4.6 20 16:42 05.10.2019
720 Haze 35 1006 56 6000 4.6 20 16:21 05.10.2019
721 Haze 35 1005 63 6000 4.6 20 15:57 05.10.2019
722 Haze 35 1005 63 6000 4.6 20 15:39 05.10.2019
723 Haze 36 1005 47 6000 6.2 30 15:21 05.10.2019
724 Haze 36 1005 63 6000 4.1 40 14:57 05.10.2019
725 Clouds 35 1005 63 6000 4.1 40 14:38 05.10.2019
726 Haze 37 1005 63 6000 4.1 40 14:20 05.10.2019
727 Haze 36 1005 63 6000 3.1 20 13:42 05.10.2019
728 Haze 36 1005 33 8000 2.6 330 13:22 05.10.2019
729 Haze 36 1006 63 6000 4.1 360 12:46 05.10.2019
730 Haze 36 1006 63 6000 4.1 360 12:21 05.10.2019
731 Haze 36 1006 63 6000 3.1 360 11:59 05.10.2019
732 Haze 36 1006 63 6000 3.1 360 11:37 05.10.2019
733 Haze 36 1006 63 6000 3.1 360 11:18 05.10.2019
734 Haze 36 1006 63 6000 3.1 360 11:18 05.10.2019
735 Haze 36 1007 56 6000 2.6 360 10:45 05.10.2019
736 Haze 36 1007 56 6000 2.6 360 10:26 05.10.2019
737 Haze 36 1008 56 6000 2.6 80 09:58 05.10.2019
738 Clear 34 1007 58 0 5.33 81.186 09:39 05.10.2019
739 Haze 35 1008 67 6000 2.6 120 09:20 05.10.2019
740 Haze 35 1008 67 6000 2.6 120 09:20 05.10.2019
741 Haze 35 1008 67 6000 2.6 120 08:40 05.10.2019
742 Haze 34 1008 67 6000 2.6 110 08:20 05.10.2019
743 Haze 34 1008 67 6000 2.6 110 07:57 05.10.2019
744 Haze 33 1008 59 8000 2.59 9.776 07:34 05.10.2019
745 Mist 33 1007 70 6000 1.5 140 06:58 05.10.2019
746 Mist 32 1008 66 3200 2.59 9.776 06:28 05.10.2019
747 Mist 32 1006 75 6000 1.5 160 05:51 05.10.2019
748 Mist 32 1005 75 7000 3.1 90 03:57 05.10.2019
749 Mist 32 1005 75 7000 3.1 90 03:28 05.10.2019
750 Mist 32 1005 79 6000 3.6 80 01:41 05.10.2019
751 Mist 32 1005 79 6000 3.6 80 01:20 05.10.2019
752 Haze 32 1006 79 4000 4.1 70 00:43 05.10.2019
753 Haze 32 1006 79 4000 4.1 70 00:23 05.10.2019
754 Haze 32 1006 79 4000 4.6 50 23:44 04.10.2019
755 Haze 32 1006 79 4000 4.6 50 23:26 04.10.2019
756 Haze 32 1006 79 4000 4.6 50 23:26 04.10.2019
757 Haze 32 1005 79 4500 1 70 22:59 04.10.2019
758 Haze 32 1005 79 4500 1 70 22:39 04.10.2019
759 Haze 32 1005 79 4500 1 70 22:20 04.10.2019
760 Haze 32 1005 79 4500 2.6 140 21:57 04.10.2019
761 Haze 32 1005 79 4500 2.6 140 21:38 04.10.2019
762 Haze 32 1005 79 4500 2.6 140 21:19 04.10.2019
763 Haze 32 1005 75 5000 3.1 130 20:55 04.10.2019
764 Haze 32 1005 75 5000 3.1 130 20:36 04.10.2019
765 Haze 32 1005 75 5000 3.1 130 20:18 04.10.2019
766 Haze 33 1005 75 5000 2.6 140 19:45 04.10.2019
767 Haze 33 1005 75 5000 2.6 140 19:26 04.10.2019
768 Haze 33 1005 75 5000 3.6 140 18:58 04.10.2019
769 Haze 33 1005 75 5000 3.6 140 18:38 04.10.2019
770 Haze 33 1005 75 5000 3.6 140 18:19 04.10.2019
771 Haze 33 1005 75 5000 3.6 140 18:19 04.10.2019
772 Haze 33 1005 75 5000 4.1 140 17:54 04.10.2019
773 Haze 33 1004 75 5000 4.6 120 17:36 04.10.2019
774 Haze 33 1004 75 5000 4.6 120 17:18 04.10.2019
775 Haze 35 1004 71 4000 4.6 120 16:41 04.10.2019
776 Haze 35 1005 53 9000 4.1 120 16:19 04.10.2019
777 Haze 35 1005 53 9000 4.1 120 16:19 04.10.2019
778 Haze 34 1005 63 5000 5.1 120 15:58 04.10.2019
779 Haze 34 1005 63 5000 5.1 120 15:40 04.10.2019
780 Haze 35 1005 67 5000 4.6 120 15:21 04.10.2019
781 Haze 36 1005 67 5000 4.6 120 14:59 04.10.2019
782 Haze 36 1005 67 5000 4.6 120 14:41 04.10.2019
783 Haze 36 1005 47 9000 2.6 130 14:21 04.10.2019
784 Haze 37 1006 63 5000 5.1 100 13:46 04.10.2019
785 Haze 37 1006 23 9000 1.5 40 13:24 04.10.2019
786 Haze 37 1006 63 5000 4.1 100 12:59 04.10.2019
787 Haze 37 1006 63 5000 4.1 100 12:40 04.10.2019
788 Haze 37 1006 63 5000 4.1 100 12:22 04.10.2019
789 Haze 37 1007 67 5000 4.6 80 11:43 04.10.2019
790 Haze 37 1007 67 5000 4.6 80 11:43 04.10.2019
791 Haze 37 1008 31 9000 2.1 250 11:22 04.10.2019
792 Haze 36 1008 63 5000 3.1 100 10:56 04.10.2019
793 Haze 36 1009 39 9000 1.5 110 10:37 04.10.2019
794 Haze 36 1009 39 9000 1.5 110 10:19 04.10.2019
795 Haze 36 1009 60 5000 1.5 140 09:43 04.10.2019
796 Haze 35 1009 50 8000 0.48 161.338 09:25 04.10.2019
797 Haze 34 1009 67 5000 2.6 160 08:46 04.10.2019
798 Haze 34 1009 67 5000 2.6 160 08:27 04.10.2019
799 Haze 33 1009 75 4800 2.6 200 07:48 04.10.2019
800 Haze 32 1009 70 5000 1.5 230 07:26 04.10.2019
801 Haze 31 1008 79 4000 1.5 200 06:59 04.10.2019
802 Haze 31 1008 79 4000 1.5 200 06:59 04.10.2019
803 Haze 31 1008 79 4000 1.5 200 06:40 04.10.2019
804 Haze 30 1009 79 5000 1.5 270 06:21 04.10.2019
805 Haze 30 1009 79 5000 1.5 270 06:21 04.10.2019
806 Haze 30 1008 83 5000 2.63 245.987 05:21 04.10.2019
807 Haze 30 1007 79 6000 2.1 150 04:39 04.10.2019
808 Mist 31 1007 78 8000 2.63 245.987 03:32 04.10.2019
809 Mist 30 1006 79 7000 1.5 160 02:45 04.10.2019
810 Mist 30 1006 79 7000 1 0 01:54 04.10.2019
811 -273 0 0 0 0 0 01:54 04.10.2019
812 Mist 31 1007 78 8000 1.86 114.95 01:26 04.10.2019
813 Mist 31 1007 74 8000 1 270 00:34 04.10.2019
814 Mist 31 1006 79 7000 1 0 23:41 03.10.2019
815 Mist 31 1006 79 6000 1.5 60 23:22 03.10.2019
816 Mist 31 1006 79 6000 1.5 60 23:22 03.10.2019
817 Mist 31 1006 79 6000 1.5 60 22:58 03.10.2019
818 Mist 31 1006 79 6000 1.5 60 22:39 03.10.2019
819 Mist 31 1006 79 6000 1.5 60 22:21 03.10.2019
820 Mist 31 1006 79 6000 1.5 60 22:21 03.10.2019
821 Mist 32 1006 75 7000 1 20 21:59 03.10.2019
822 Mist 32 1006 75 7000 1 20 21:40 03.10.2019
823 Mist 32 1007 66 8000 1.5 100 21:20 03.10.2019
824 Mist 32 1007 66 8000 1.5 100 21:20 03.10.2019
825 Haze 32 1007 75 7000 1.5 360 20:58 03.10.2019
826 Haze 32 1007 75 7000 1.5 360 20:40 03.10.2019
827 Haze 32 1007 75 7000 1.5 360 20:21 03.10.2019
828 Haze 33 1007 70 7000 2.6 20 19:57 03.10.2019
829 Haze 33 1007 70 7000 2.6 20 19:39 03.10.2019
830 Haze 33 1007 70 7000 2.6 20 19:20 03.10.2019
831 Haze 34 1007 67 8000 3.6 30 18:56 03.10.2019
832 Haze 34 1008 49 9000 2.6 70 18:37 03.10.2019
833 Haze 34 1008 49 9000 2.6 70 18:18 03.10.2019
834 Haze 35 1006 67 8000 3.1 20 17:42 03.10.2019
835 Haze 35 1007 41 9000 3.1 70 17:22 03.10.2019
836 Haze 35 1006 56 8000 3.6 20 16:58 03.10.2019
837 Haze 35 1006 56 8000 3.6 20 16:39 03.10.2019
838 Haze 36 1007 37 9000 3.6 60 16:21 03.10.2019
839 Haze 37 1006 50 8000 4.1 40 15:45 03.10.2019
840 Haze 37 1007 33 9000 3.6 80 15:24 03.10.2019
841 Haze 38 1006 50 6000 4.6 30 14:59 03.10.2019
842 Haze 38 1006 50 6000 4.6 30 14:37 03.10.2019
843 Haze 38 1006 50 6000 4.6 30 14:19 03.10.2019
844 Haze 38 1006 56 6000 5.1 50 13:44 03.10.2019
845 Haze 40 1006 10 9000 4.6 340 13:26 03.10.2019
846 Haze 40 1006 29 9000 4.1 50 12:59 03.10.2019
847 Haze 40 1006 29 9000 4.1 50 12:40 03.10.2019
848 Haze 40 1006 29 9000 4.1 50 12:40 03.10.2019
849 -273 0 0 0 0 0 12:20 03.10.2019
850 Haze 41 1007 20 8000 4.1 20 11:58 03.10.2019
851 Haze 41 1007 20 8000 4.1 20 11:58 03.10.2019
852 Haze 41 1007 20 8000 4.1 20 11:40 03.10.2019
853 Haze 41 1007 20 8000 4.1 20 11:21 03.10.2019
854 Haze 41 1008 22 10000 2.6 290 10:58 03.10.2019
855 Haze 41 1008 22 10000 2.6 290 10:38 03.10.2019
856 Haze 41 1008 22 10000 2.6 290 10:18 03.10.2019
857 Haze 39 1008 28 9000 2.6 280 09:56 03.10.2019
858 Haze 39 1008 28 9000 2.6 280 09:37 03.10.2019
859 Haze 39 1008 28 9000 2.6 280 09:19 03.10.2019
860 Haze 36 1009 39 9000 2.6 250 08:43 03.10.2019
861 Haze 35 1009 30 9000 3.6 290 08:24 03.10.2019
862 Haze 35 1009 30 9000 3.6 290 08:24 03.10.2019
863 Haze 35 1009 30 9000 3.6 290 08:24 03.10.2019
864 Haze 34 1008 44 8000 2.1 250 07:42 03.10.2019
865 Haze 33 1009 49 8000 4.1 300 07:20 03.10.2019
866 Mist 32 1008 52 8000 2.6 290 06:53 03.10.2019
867 Mist 30 1008 62 6000 2.6 300 06:27 03.10.2019
868 Mist 29 1007 55 8000 2.1 240 05:49 03.10.2019
869 Mist 30 1008 69 6000 2.1 280 05:27 03.10.2019
870 Mist 30 1007 49 10000 2.1 240 04:45 03.10.2019
871 Mist 30 1006 52 9000 1.5 230 03:54 03.10.2019
872 Mist 30 1006 52 9000 1.5 230 03:54 03.10.2019
873 Mist 29 1007 61 8000 2.1 250 03:19 03.10.2019
874 Mist 29 1007 61 8000 2.1 250 03:19 03.10.2019
875 Haze 30 1007 58 8000 2.1 270 02:27 03.10.2019
876 Haze 30 1006 66 9000 0.5 200 01:40 03.10.2019
877 Haze 30 1006 62 9000 0.5 0 00:53 03.10.2019
878 Haze 30 1007 54 9000 4.8 239.54 00:31 03.10.2019
879 Haze 31 1007 62 9000 0.53 170.017 23:57 02.10.2019
880 Haze 31 1007 62 9000 0.53 170.017 23:37 02.10.2019
881 Haze 31 1007 62 9000 0.53 170.017 23:18 02.10.2019
882 Haze 31 1007 62 10000 0.5 0 22:42 02.10.2019
883 Haze 31 1008 55 8000 0.53 170.017 22:20 02.10.2019
884 Haze 32 1008 59 10000 0.5 120 21:55 02.10.2019
885 Haze 32 1009 41 8000 0.5 170 21:37 02.10.2019
886 Haze 32 1009 41 8000 0.5 170 21:18 02.10.2019
887 -273 0 0 0 0 0 20:55 02.10.2019
888 -273 0 0 0 0 0 20:55 02.10.2019
889 Clear 32 1008 59 10000 0.5 100 20:36 02.10.2019
890 Clear 32 1008 59 10000 0.5 100 20:36 02.10.2019
891 Clear 33 1008 59 10000 1 90 20:18 02.10.2019
892 Clear 33 1008 59 10000 1 90 19:43 02.10.2019
893 Clear 34 1007 50 10000 1 100 19:22 02.10.2019
894 Clear 34 1007 50 10000 1 100 18:57 02.10.2019
895 Clear 34 1007 50 10000 1 100 18:39 02.10.2019
896 Clear 34 1007 50 10000 1 100 18:20 02.10.2019
897 Clouds 34 1007 50 8000 0.5 0 17:57 02.10.2019
898 Clouds 34 1007 50 8000 0.5 0 17:38 02.10.2019
899 Haze 36 1007 44 7000 1.5 50 17:20 02.10.2019
900 Haze 36 1007 44 7000 1.5 50 16:45 02.10.2019
901 Haze 38 1007 42 7000 3.1 40 16:22 02.10.2019
902 Haze 38 1007 42 7000 3.1 40 15:59 02.10.2019
903 Haze 38 1007 42 7000 3.1 40 15:41 02.10.2019
904 Haze 38 1007 42 7000 3.1 40 15:22 02.10.2019
905 Haze 38 1007 37 7000 3.6 60 14:58 02.10.2019
906 Haze 38 1007 37 7000 3.6 60 14:39 02.10.2019
907 Haze 38 1007 37 7000 3.6 60 14:20 02.10.2019
908 Clouds 36 1007 47 8000 4.1 50 13:45 02.10.2019
909 Clouds 37 1007 47 8000 4.1 50 13:26 02.10.2019
910 Clear 36 1007 44 10000 5.7 70 12:58 02.10.2019
911 Clear 36 1007 44 10000 5.7 70 12:38 02.10.2019
912 Haze 40 1007 44 10000 5.7 70 12:20 02.10.2019
913 Haze 40 1008 42 10000 5.1 80 11:45 02.10.2019
914 Haze 40 1008 42 10000 5.1 80 11:23 02.10.2019
915 Haze 41 1008 20 10000 5.1 220 10:42 02.10.2019
916 Haze 41 1008 20 10000 5.1 220 10:20 02.10.2019
917 Haze 38 1009 35 10000 6.2 200 09:59 02.10.2019
918 Haze 38 1009 35 10000 6.2 200 09:38 02.10.2019
919 Haze 38 1009 35 10000 6.2 200 09:20 02.10.2019
920 Haze 35 1009 47 8000 6.2 210 08:45 02.10.2019
921 Haze 35 1009 47 8000 6.2 210 08:25 02.10.2019
922 Haze 32 1009 63 6000 6.7 210 07:59 02.10.2019
923 Haze 32 1009 63 6000 6.7 210 07:39 02.10.2019
924 Haze 32 1009 63 6000 6.7 210 07:20 02.10.2019
925 Mist 31 1008 79 6000 5.7 210 06:40 02.10.2019
926 Mist 30 1007 79 6000 4.6 220 05:55 02.10.2019
927 Mist 30 1007 79 6000 4.6 220 05:55 02.10.2019
928 Mist 30 1007 79 6000 4.6 220 05:24 02.10.2019
929 Mist 30 1007 74 9000 3.1 210 04:53 02.10.2019
930 Mist 30 1007 62 9000 2.1 220 03:52 02.10.2019
931 Mist 30 1006 66 6000 2.1 210 02:42 02.10.2019
932 Mist 30 1006 66 6000 2.1 210 02:23 02.10.2019
933 Mist 30 1006 66 6000 1.5 200 01:40 02.10.2019
934 Mist 31 1007 75 6000 1.5 170 00:50 02.10.2019
935 Mist 31 1007 75 6000 1.5 170 00:26 02.10.2019
936 Mist 32 1007 70 6000 1.5 160 23:43 01.10.2019
937 Mist 32 1007 70 6000 1.5 160 23:25 01.10.2019
938 Mist 32 1007 70 6000 3.1 140 22:59 01.10.2019
939 Mist 32 1007 70 6000 3.1 140 22:40 01.10.2019
940 Mist 32 1007 70 6000 3.1 140 22:19 01.10.2019
941 Mist 32 1007 70 6000 3.1 140 22:19 01.10.2019
942 Mist 33 1007 75 6000 2.1 110 21:57 01.10.2019
943 Mist 33 1007 75 6000 2.1 110 21:38 01.10.2019
944 Mist 33 1007 75 6000 2.1 110 21:19 01.10.2019
945 Haze 33 1007 75 5000 2.1 100 20:55 01.10.2019
946 Haze 33 1007 75 5000 2.1 100 20:55 01.10.2019
947 Haze 33 1007 75 5000 2.1 100 20:37 01.10.2019
948 Haze 33 1007 75 5000 2.1 100 20:18 01.10.2019
949 Haze 34 1007 71 5000 3.1 30 19:55 01.10.2019
950 Haze 34 1007 71 5000 3.1 30 19:55 01.10.2019
951 Haze 34 1007 71 5000 3.1 30 19:37 01.10.2019
952 Haze 35 1006 67 7000 2.6 40 19:18 01.10.2019
953 Haze 35 1006 67 7000 2.6 40 18:40 01.10.2019
954 Haze 35 1006 67 7000 2.6 40 18:21 01.10.2019
955 Clouds 35 1006 56 9000 2.6 30 17:58 01.10.2019
956 Clouds 35 1006 56 9000 2.6 30 17:39 01.10.2019
957 Clouds 35 1006 56 9000 2.6 30 17:19 01.10.2019
958 Clear 35 1005 56 10000 3.6 30 16:57 01.10.2019
959 Clear 35 1005 56 10000 3.6 30 16:39 01.10.2019
960 Haze 39 1005 56 10000 3.6 30 16:21 01.10.2019
961 Haze 39 1005 56 10000 3.6 30 16:21 01.10.2019
962 Haze 40 1005 33 10000 3.1 110 15:42 01.10.2019
963 Haze 40 1005 33 10000 3.1 110 15:23 01.10.2019
964 Clear 38 1005 35 10000 3.6 90 14:41 01.10.2019
965 Haze 41 1005 35 10000 3.6 90 14:20 01.10.2019
966 Haze 41 1005 33 10000 4.1 60 13:58 01.10.2019
967 Haze 41 1005 33 10000 4.1 60 13:39 01.10.2019
968 Haze 41 1005 33 10000 4.1 60 13:21 01.10.2019
969 Haze 41 1006 38 10000 4.6 20 12:58 01.10.2019
970 Haze 41 1006 38 10000 4.6 20 12:39 01.10.2019
971 Haze 41 1006 38 10000 4.6 20 12:19 01.10.2019
972 Haze 42 1006 22 10000 3.6 210 11:58 01.10.2019
973 Haze 42 1006 22 10000 3.6 210 11:38 01.10.2019
974 Haze 42 1006 22 10000 3.6 210 11:18 01.10.2019
975 Haze 39 1007 37 8000 6.2 210 10:49 01.10.2019
976 Haze 39 1007 37 8000 6.2 210 10:29 01.10.2019
977 Haze 36 1008 56 7000 5.7 190 09:49 01.10.2019
978 Haze 36 1008 56 7000 5.7 190 09:31 01.10.2019
979 Haze 33 1009 75 5000 5.1 200 08:57 01.10.2019
980 Haze 33 1009 75 5000 5.1 200 08:39 01.10.2019
981 Haze 33 1009 75 5000 5.1 200 08:21 01.10.2019
982 Haze 32 1008 75 4500 5.1 210 07:43 01.10.2019
983 Haze 31 1008 75 4500 5.1 210 07:24 01.10.2019
984 Haze 30 1008 79 3500 3.6 200 06:47 01.10.2019
985 Haze 29 1007 84 3500 3.1 200 06:18 01.10.2019
986 Haze 29 1007 84 3500 3.1 200 06:18 01.10.2019
987 Haze 29 1007 84 3500 3.1 200 05:46 01.10.2019
988 Haze 30 1007 84 3500 3.1 200 05:18 01.10.2019
989 Clear 29 1007 84 6000 2.1 200 04:29 01.10.2019
990 Mist 30 1006 79 6000 0.5 0 02:28 01.10.2019
991 Mist 30 1006 79 6000 0.61 261.197 01:58 01.10.2019
992 Mist 31 1006 79 6000 0.5 10 00:53 01.10.2019
993 Mist 31 1006 79 6000 0.5 10 00:27 01.10.2019
994 Mist 31 1006 79 6000 1.5 10 23:56 30.09.2019
995 Mist 31 1006 79 6000 1.5 10 23:56 30.09.2019
996 Mist 31 1006 79 6000 1.5 10 23:37 30.09.2019
997 Mist 31 1006 79 6000 1.5 10 23:19 30.09.2019
998 Mist 32 1006 70 6000 1 40 22:43 30.09.2019
999 Mist 32 1006 70 6000 1 40 22:24 30.09.2019
1000 Mist 32 1007 75 7000 1 30 21:57 30.09.2019
1001 Mist 32 1007 75 7000 1 30 21:38 30.09.2019
1002 Mist 32 1007 75 7000 1 30 21:19 30.09.2019
1003 Mist 32 1007 75 7000 1 30 21:19 30.09.2019
1004 Mist 32 1007 70 7000 1.5 30 20:56 30.09.2019
1005 Mist 32 1007 70 7000 1.5 30 20:38 30.09.2019
1006 Mist 32 1007 70 7000 1.5 30 20:20 30.09.2019
1007 Mist 33 1007 70 7000 2.1 20 19:56 30.09.2019
1008 Mist 33 1007 70 7000 2.1 20 19:56 30.09.2019
1009 Clear 33 1007 70 7000 2.1 20 19:38 30.09.2019
1010 Clear 33 1007 70 7000 2.1 20 19:19 30.09.2019
1011 Clear 33 1006 67 6000 2.6 30 18:56 30.09.2019
1012 Clear 33 1006 67 6000 2.6 30 18:56 30.09.2019
1013 Haze 35 1006 67 6000 2.6 30 18:37 30.09.2019
1014 Haze 35 1006 67 6000 2.6 30 18:37 30.09.2019
1015 Haze 34 1006 67 6000 2.6 30 18:19 30.09.2019
1016 Haze 35 1006 71 6000 3.6 30 17:41 30.09.2019
1017 Haze 35 1006 71 6000 3.6 30 17:22 30.09.2019
1018 Haze 35 1006 71 6000 3.6 40 16:56 30.09.2019
1019 Clear 34 1006 71 6000 3.6 40 16:38 30.09.2019
1020 Haze 36 1006 71 6000 3.6 40 16:19 30.09.2019
1021 Haze 36 1005 75 6000 4.6 30 15:57 30.09.2019
1022 Haze 36 1005 75 6000 4.6 30 15:57 30.09.2019
1023 Haze 40 1006 31 8000 6.2 30 15:37 30.09.2019
1024 Haze 38 1006 31 8000 6.2 30 15:19 30.09.2019
1025 Haze 39 1005 47 6000 4.1 10 14:57 30.09.2019
1026 Haze 39 1005 47 6000 4.1 10 14:37 30.09.2019
1027 Haze 39 1005 47 6000 4.1 10 14:18 30.09.2019
1028 Haze 40 1005 35 7000 3.6 50 13:56 30.09.2019
1029 Haze 40 1005 35 7000 3.6 50 13:37 30.09.2019
1030 Haze 40 1005 35 7000 3.6 50 13:19 30.09.2019
1031 Haze 40 1006 45 7000 4.6 90 12:41 30.09.2019
1032 Haze 40 1006 45 7000 4.6 90 12:21 30.09.2019
1033 Haze 42 1006 23 10000 2.6 220 11:44 30.09.2019
1034 Haze 42 1006 23 10000 2.6 220 11:24 30.09.2019
1035 Haze 40 1007 33 9000 3.6 220 10:59 30.09.2019
1036 Haze 40 1007 33 9000 3.6 220 10:40 30.09.2019
1037 Haze 40 1007 33 9000 3.6 220 10:19 30.09.2019
1038 Haze 38 1008 42 8000 4.6 190 09:58 30.09.2019
1039 Haze 38 1008 42 8000 4.6 190 09:58 30.09.2019
1040 Haze 38 1008 42 8000 4.6 190 09:39 30.09.2019
1041 Haze 38 1008 42 8000 4.6 190 09:20 30.09.2019
1042 Clear 36 1008 50 7000 4.1 200 08:46 30.09.2019
1043 Mist 35 1008 50 7000 4.1 200 08:28 30.09.2019
1044 Mist 34 1008 56 7000 4.1 200 07:45 30.09.2019
1045 Mist 34 1008 56 7000 4.1 200 07:27 30.09.2019
1046 Mist 32 1008 66 6000 3.6 170 06:56 30.09.2019
1047 Mist 32 1008 66 6000 3.6 170 06:33 30.09.2019
1048 Mist 30 1008 70 5000 0.7 151.644 05:47 30.09.2019
1049 Mist 31 1007 70 7000 1.5 120 04:32 30.09.2019
1050 Mist 31 1006 70 8000 3.6 70 02:48 30.09.2019
1051 Mist 31 1006 74 8000 1 40 01:37 30.09.2019
1052 Mist 31 1006 70 8000 1.37 174.718 00:42 30.09.2019
1053 Mist 31 1006 70 8000 0.63 183.796 00:22 30.09.2019
1054 Mist 32 1006 70 8000 0.63 183.796 23:48 29.09.2019
1055 Mist 32 1006 70 8000 0.63 183.796 23:28 29.09.2019
1056 Haze 33 1006 70 8000 1 40 22:59 29.09.2019
1057 Haze 33 1006 70 8000 1 40 22:41 29.09.2019
1058 Haze 33 1006 70 8000 1 40 22:23 29.09.2019
1059 Haze 33 1006 70 10000 1 70 21:58 29.09.2019
1060 Haze 33 1006 70 10000 1 70 21:37 29.09.2019
1061 Haze 33 1006 70 10000 1 70 21:19 29.09.2019
1062 Haze 34 1007 52 9000 3.1 80 20:45 29.09.2019
1063 Haze 34 1007 52 9000 3.1 80 20:20 29.09.2019
1064 Haze 35 1006 71 10000 2.1 40 19:59 29.09.2019
1065 Haze 35 1006 71 10000 2.1 40 19:38 29.09.2019
1066 Haze 35 1006 71 10000 2.1 40 19:19 29.09.2019
1067 Haze 35 1006 67 10000 2.6 30 18:56 29.09.2019
1068 Haze 35 1006 67 10000 2.6 30 18:56 29.09.2019
1069 Haze 35 1006 67 10000 2.6 30 18:38 29.09.2019
1070 Haze 35 1006 67 10000 2.6 30 18:38 29.09.2019
1071 Haze 35 1006 67 10000 2.6 30 18:19 29.09.2019
1072 Haze 37 1005 53 10000 2.1 50 17:59 29.09.2019
1073 Haze 37 1005 53 10000 2.1 50 17:40 29.09.2019
1074 Haze 37 1005 53 10000 2.1 50 17:40 29.09.2019
1075 Haze 37 1005 53 10000 2.1 50 17:20 29.09.2019
1076 Haze 38 1005 50 10000 3.1 90 16:59 29.09.2019
1077 Haze 38 1005 50 10000 3.1 90 16:40 29.09.2019
1078 Haze 38 1005 50 10000 3.1 90 16:19 29.09.2019
1079 Haze 39 1004 53 10000 4.1 120 15:57 29.09.2019
1080 Haze 39 1004 53 10000 4.1 120 15:37 29.09.2019
1081 Haze 39 1004 53 10000 4.1 120 15:18 29.09.2019
1082 Haze 39 1005 47 9000 4.1 120 14:55 29.09.2019
1083 Haze 39 1005 47 9000 4.1 120 14:37 29.09.2019
1084 Haze 39 1005 47 9000 4.1 120 14:37 29.09.2019
1085 Haze 39 1005 47 9000 4.1 120 14:18 29.09.2019
1086 Haze 39 1005 53 8000 5.1 100 13:42 29.09.2019
1087 Haze 39 1005 53 8000 5.1 100 13:19 29.09.2019
1088 Haze 40 1005 42 8000 4.1 70 12:58 29.09.2019
1089 Haze 40 1005 42 8000 4.1 70 12:40 29.09.2019
1090 Haze 40 1005 42 8000 4.1 70 12:22 29.09.2019
1091 Haze 42 1006 25 10000 2.1 0 11:59 29.09.2019
1092 Haze 42 1006 25 10000 2.1 0 11:40 29.09.2019
1093 Haze 42 1006 25 10000 2.1 0 11:19 29.09.2019
1094 Haze 40 1007 31 7000 3.6 220 10:57 29.09.2019
1095 Haze 40 1007 31 7000 3.6 220 10:37 29.09.2019
1096 Haze 40 1007 31 7000 3.6 220 10:19 29.09.2019
1097 Haze 38 1007 42 7000 3.6 230 09:55 29.09.2019
1098 Haze 38 1007 42 7000 3.6 230 09:37 29.09.2019
1099 Haze 38 1007 42 7000 3.6 230 09:18 29.09.2019
1100 Haze 35 1008 59 6000 3.6 220 08:42 29.09.2019
1101 Haze 35 1008 59 6000 3.6 220 08:21 29.09.2019
1102 Haze 33 1008 70 5000 3.6 220 07:43 29.09.2019
1103 Haze 33 1008 70 5000 3.6 220 07:25 29.09.2019
1104 Haze 31 1007 75 4000 3.6 220 06:46 29.09.2019
1105 Haze 30 1006 79 4000 2.6 230 05:47 29.09.2019
1106 Haze 30 1007 83 5000 2.6 250 05:47 29.09.2019
1107 Mist 30 1006 79 7000 2.6 210 04:41 29.09.2019
1108 Mist 30 1006 79 7000 2.6 210 04:23 29.09.2019
1109 Mist 30 1005 70 8000 1.5 240 02:51 29.09.2019
1110 Mist 30 1005 70 8000 1.5 240 02:18 29.09.2019
1111 Mist 31 1005 70 9000 2.1 220 01:38 29.09.2019
1112 Mist 31 1005 70 9000 1.5 200 00:53 29.09.2019
1113 Mist 31 1005 70 9000 1.5 200 00:21 29.09.2019
1114 Mist 32 1006 75 9000 0.5 0 23:56 28.09.2019
1115 Mist 32 1006 75 9000 0.5 0 23:36 28.09.2019
1116 Mist 32 1006 75 9000 0.5 0 23:18 28.09.2019
1117 Mist 32 1007 66 8000 2.48 277.145 22:40 28.09.2019
1118 Mist 32 1007 66 8000 2.48 277.145 22:21 28.09.2019
1119 Mist 33 1007 66 9000 1.5 100 21:57 28.09.2019
1120 Clouds 30 1006 67 0 2.48 277.145 21:39 28.09.2019
1121 Mist 34 1007 63 9000 1.5 50 21:21 28.09.2019
1122 Mist 34 1007 63 9000 1.5 50 20:57 28.09.2019
1123 Mist 34 1007 63 9000 1.5 50 20:38 28.09.2019
1124 Mist 34 1007 63 9000 1.5 50 20:18 28.09.2019
1125 Mist 34 1007 63 9000 2.1 50 19:56 28.09.2019
1126 Mist 34 1007 63 9000 2.1 50 19:37 28.09.2019
1127 Mist 34 1007 63 9000 2.1 50 19:37 28.09.2019
1128 Mist 34 1006 63 9000 2.6 60 19:19 28.09.2019
1129 Mist 34 1006 63 9000 2.6 60 18:54 28.09.2019
1130 Mist 34 1006 63 9000 2.6 60 18:36 28.09.2019
1131 Haze 34 1005 71 9000 4.1 20 18:18 28.09.2019
1132 Haze 34 1005 71 9000 4.1 20 17:42 28.09.2019
1133 Haze 34 1005 71 9000 4.1 20 17:22 28.09.2019
1134 Haze 34 1005 71 9000 4.1 20 17:22 28.09.2019
1135 Haze 35 1005 67 9000 3.6 40 16:58 28.09.2019
1136 Haze 35 1005 67 9000 3.6 40 16:38 28.09.2019
1137 Haze 36 1005 59 10000 4.6 30 16:20 28.09.2019
1138 Haze 36 1005 59 10000 4.6 30 15:41 28.09.2019
1139 Haze 36 1005 59 10000 4.6 30 15:22 28.09.2019
1140 Haze 38 1005 53 10000 4.1 90 14:56 28.09.2019
1141 Haze 38 1005 53 10000 4.1 90 14:38 28.09.2019
1142 Haze 38 1005 53 10000 4.1 90 14:19 28.09.2019
1143 Haze 38 1006 50 10000 3.6 60 13:56 28.09.2019
1144 Haze 38 1006 50 10000 3.6 60 13:37 28.09.2019
1145 Haze 38 1006 50 10000 3.6 60 13:19 28.09.2019
1146 Haze 38 1006 50 10000 4.1 60 12:40 28.09.2019
1147 Haze 38 1006 50 10000 4.1 60 12:19 28.09.2019
1148 Haze 38 1007 40 10000 2.6 360 11:54 28.09.2019
1149 Haze 38 1007 40 10000 2.6 360 11:36 28.09.2019
1150 Haze 38 1007 40 10000 2.6 360 11:18 28.09.2019
1151 Haze 37 1008 50 10000 2.6 70 10:40 28.09.2019
1152 Haze 37 1008 50 10000 2.6 70 10:20 28.09.2019
1153 Haze 36 1009 50 10000 2.6 0 09:42 28.09.2019
1154 Haze 36 1009 50 10000 2.6 0 09:23 28.09.2019
1155 Haze 36 1010 44 10000 1.5 0 08:58 28.09.2019
1156 Haze 36 1010 44 10000 1.5 0 08:40 28.09.2019
1157 Haze 36 1010 44 10000 1.5 0 08:22 28.09.2019
1158 Haze 35 1009 56 10000 1 0 07:44 28.09.2019
1159 Haze 35 1009 56 10000 1 0 07:21 28.09.2019
1160 Mist 32 1009 63 10000 1.5 240 06:53 28.09.2019
1161 Mist 32 1009 63 10000 1.5 240 06:31 28.09.2019
1162 Haze 30 1008 70 10000 1 0 05:43 28.09.2019
1163 Haze 30 1008 70 10000 1 0 05:20 28.09.2019
1164 Haze 30 1008 70 10000 1.5 180 04:38 28.09.2019
1165 Clear 31 1007 70 10000 1.5 220 03:55 28.09.2019
1166 Haze 31 1007 70 10000 1.5 220 03:21 28.09.2019
1167 Haze 31 1008 75 10000 1 0 02:45 28.09.2019
1168 Haze 31 1008 75 10000 1 0 02:27 28.09.2019
1169 Haze 31 1008 75 10000 0.5 0 01:48 28.09.2019
1170 Haze 31 1008 75 10000 0.5 0 01:26 28.09.2019
1171 Haze 32 1008 75 10000 0.89 302.55 00:52 28.09.2019
1172 Haze 32 1008 75 10000 0.89 302.55 00:31 28.09.2019
1173 Haze 33 1009 75 10000 1 0 23:58 27.09.2019
1174 Haze 33 1009 75 10000 1 0 23:36 27.09.2019
1175 Haze 33 1009 75 10000 1 0 23:18 27.09.2019
1176 Haze 33 1009 70 10000 1 50 22:44 27.09.2019
1177 Haze 33 1009 70 10000 1 50 22:19 27.09.2019
1178 Haze 33 1009 70 10000 1.5 30 21:56 27.09.2019
1179 Haze 33 1009 70 10000 1.5 30 21:37 27.09.2019
1180 Haze 33 1009 70 10000 1.5 30 21:19 27.09.2019
1181 Haze 34 1009 67 10000 3.1 10 20:55 27.09.2019
1182 Haze 34 1009 67 10000 3.1 10 20:55 27.09.2019
1183 Haze 34 1009 67 10000 3.1 10 20:37 27.09.2019
1184 Haze 34 1009 67 10000 3.1 10 20:18 27.09.2019
1185 Haze 34 1009 67 10000 3.6 20 19:43 27.09.2019
1186 Haze 34 1009 67 10000 3.6 20 19:23 27.09.2019
1187 Haze 34 1008 67 10000 3.1 30 18:58 27.09.2019
1188 Haze 34 1008 67 10000 3.1 30 18:39 27.09.2019
1189 Haze 34 1008 67 10000 3.1 30 18:20 27.09.2019
1190 Haze 34 1008 67 10000 3.1 30 18:20 27.09.2019
1191 Haze 34 1008 67 10000 3.6 50 17:54 27.09.2019
1192 Haze 34 1008 67 10000 3.6 50 17:36 27.09.2019
1193 Haze 34 1008 67 10000 3.6 50 17:18 27.09.2019
1194 Haze 35 1008 59 10000 3.6 50 16:54 27.09.2019
1195 Haze 35 1008 59 10000 3.6 50 16:36 27.09.2019
1196 Haze 35 1008 59 10000 3.6 50 16:18 27.09.2019
1197 Clear 35 1007 67 10000 4.6 70 15:42 27.09.2019
1198 Haze 36 1007 67 10000 4.6 70 15:20 27.09.2019
1199 Haze 36 1008 63 10000 4.1 80 14:56 27.09.2019
1200 Haze 36 1008 63 10000 4.1 80 14:38 27.09.2019
1201 Haze 36 1008 63 10000 4.1 80 14:38 27.09.2019
1202 Haze 36 1008 63 10000 4.1 80 14:18 27.09.2019
1203 Clouds 35 1008 67 10000 4.6 90 13:56 27.09.2019
1204 Clouds 35 1008 67 10000 4.6 90 13:38 27.09.2019
1205 Haze 38 1008 67 10000 4.1 80 13:18 27.09.2019
1206 Haze 38 1008 67 10000 4.1 80 12:43 27.09.2019
1207 Haze 38 1009 67 10000 4.1 100 12:21 27.09.2019
1208 Haze 38 1009 67 10000 4.1 100 12:21 27.09.2019
1209 Haze 41 1010 30 9000 5.43 86.693 11:40 27.09.2019
1210 Haze 37 1010 30 9000 5.43 86.693 11:22 27.09.2019
1211 Haze 37 1010 67 10000 5.1 90 10:59 27.09.2019
1212 Haze 37 1010 67 10000 5.1 90 10:40 27.09.2019
1213 Haze 37 1010 67 10000 5.1 90 10:20 27.09.2019
1214 Haze 37 1010 67 10000 4.6 100 09:44 27.09.2019
1215 Haze 36 1010 67 10000 4.6 100 09:23 27.09.2019
1216 Haze 36 1010 67 10000 4.6 100 09:23 27.09.2019
1217 Haze 35 1011 63 10000 2.6 220 08:58 27.09.2019
1218 Haze 35 1011 63 10000 2.6 220 08:39 27.09.2019
1219 Haze 35 1011 63 10000 2.6 220 08:20 27.09.2019
1220 Haze 35 1011 63 10000 2.6 180 07:46 27.09.2019
1221 Haze 34 1011 63 10000 2.6 180 07:24 27.09.2019
1222 Clear 33 1010 75 10000 2.6 170 06:43 27.09.2019
1223 Mist 32 1010 75 10000 2.6 170 06:25 27.09.2019
1224 Mist 31 1009 79 10000 2.6 150 05:51 27.09.2019
1225 Mist 31 1009 79 10000 2.6 150 05:33 27.09.2019
1226 Haze 32 1008 79 10000 1 110 03:56 27.09.2019
1227 Haze 32 1008 79 10000 1 110 03:34 27.09.2019
1228 Haze 32 1008 75 10000 1 40 01:52 27.09.2019
1229 Haze 32 1008 75 10000 1 40 01:28 27.09.2019
1230 Haze 32 1008 75 10000 2.1 70 00:30 27.09.2019
1231 Haze 33 1008 70 10000 1.5 50 23:56 26.09.2019
1232 Haze 33 1008 70 10000 1.5 50 23:38 26.09.2019
1233 Haze 33 1008 70 10000 1.5 50 23:18 26.09.2019
1234 Haze 33 1008 70 10000 1.5 50 23:18 26.09.2019
1235 Haze 33 1009 70 10000 1 0 22:57 26.09.2019
1236 Haze 33 1009 70 10000 1 0 22:39 26.09.2019
1237 Haze 33 1009 70 10000 1 0 22:18 26.09.2019
1238 Haze 33 1009 70 10000 2.1 50 21:56 26.09.2019
1239 Haze 33 1009 70 10000 2.1 50 21:37 26.09.2019
1240 Haze 33 1009 70 10000 2.1 50 21:18 26.09.2019
1241 Haze 33 1009 75 10000 3.6 60 20:58 26.09.2019
1242 Haze 33 1009 75 10000 3.6 60 20:39 26.09.2019
1243 Haze 33 1009 75 10000 3.6 60 20:21 26.09.2019
1244 Haze 33 1008 70 10000 3.6 60 19:41 26.09.2019
1245 Haze 34 1008 67 10000 4.1 60 19:21 26.09.2019
1246 Haze 34 1008 67 10000 4.1 60 18:59 26.09.2019
1247 Haze 34 1008 67 10000 4.1 60 18:41 26.09.2019
1248 Haze 34 1008 67 10000 4.1 60 18:22 26.09.2019
1249 Haze 34 1007 71 8000 4.1 60 17:58 26.09.2019
1250 Haze 34 1007 71 8000 4.1 60 17:37 26.09.2019
1251 Haze 34 1007 71 8000 4.1 60 17:18 26.09.2019
1252 Haze 35 1007 71 6000 4.6 80 16:55 26.09.2019
1253 Haze 35 1007 71 6000 4.6 80 16:37 26.09.2019
1254 Haze 35 1007 71 6000 4.6 80 16:18 26.09.2019
1255 Haze 36 1007 60 6000 4.6 80 15:41 26.09.2019
1256 Haze 36 1007 60 6000 4.6 80 15:23 26.09.2019
1257 Haze 37 1007 60 6000 4.1 80 14:58 26.09.2019
1258 Haze 37 1007 60 6000 4.1 80 14:39 26.09.2019
1259 Haze 37 1007 60 6000 4.1 80 14:21 26.09.2019
1260 Haze 38 1007 56 6000 4.6 80 13:55 26.09.2019
1261 Haze 38 1007 56 6000 4.6 80 13:37 26.09.2019
1262 Haze 38 1008 56 6000 3.6 70 13:18 26.09.2019
1263 Haze 38 1008 56 6000 3.6 70 12:41 26.09.2019
1264 Haze 38 1008 56 6000 3.6 70 12:22 26.09.2019
1265 Haze 37 1008 56 6000 5.7 100 11:56 26.09.2019
1266 Haze 37 1008 56 6000 5.7 100 11:37 26.09.2019
1267 Haze 37 1008 56 6000 5.7 100 11:37 26.09.2019
1268 Haze 37 1008 56 6000 5.7 100 11:19 26.09.2019
1269 Haze 37 1009 56 6000 5.1 110 10:42 26.09.2019
1270 Haze 37 1009 56 6000 5.1 110 10:23 26.09.2019
1271 Haze 36 1011 50 6000 2.6 190 09:57 26.09.2019
1272 Haze 36 1011 50 6000 2.6 190 09:39 26.09.2019
1273 Haze 36 1011 50 6000 2.6 190 09:18 26.09.2019
1274 Haze 35 1010 56 7000 5.1 150 08:48 26.09.2019
1275 Haze 35 1010 56 7000 5.1 150 08:30 26.09.2019
1276 Mist 35 1010 59 9000 4.1 120 07:47 26.09.2019
1277 Mist 35 1010 59 9000 4.1 120 07:22 26.09.2019
1278 Mist 33 1009 67 10000 3.6 150 06:52 26.09.2019
1279 Mist 33 1009 67 10000 3.6 150 06:28 26.09.2019
1280 Mist 32 1009 66 8000 2.6 120 05:52 26.09.2019
1281 Mist 32 1009 66 8000 2.6 120 05:29 26.09.2019
1282 Mist 32 1008 66 9000 1.5 60 03:33 26.09.2019
1283 Mist 32 1007 74 8000 0.5 0 02:19 26.09.2019
1284 Mist 32 1007 70 8000 0.5 60 01:40 26.09.2019
1285 Mist 32 1007 70 8000 0.5 60 01:22 26.09.2019
1286 Haze 32 1007 75 8000 0.5 10 00:45 26.09.2019
1287 Haze 32 1007 75 8000 0.5 10 00:25 26.09.2019
1288 Haze 32 1007 70 8000 1 0 23:43 25.09.2019
1289 Haze 32 1007 70 8000 1 0 23:19 25.09.2019
1290 Haze 33 1007 66 8000 1 90 22:55 25.09.2019
1291 Haze 33 1007 66 8000 1 90 22:55 25.09.2019
1292 Haze 33 1007 66 8000 1 90 22:55 25.09.2019
1293 Haze 33 1007 66 8000 1 90 22:36 25.09.2019
1294 Haze 33 1007 66 8000 1 90 22:18 25.09.2019
1295 Haze 33 1007 66 8000 3.6 80 21:55 25.09.2019
1296 Haze 33 1007 66 8000 3.6 80 21:36 25.09.2019
1297 Haze 33 1007 66 8000 3.6 80 21:18 25.09.2019
1298 Haze 33 1008 63 9000 4.1 100 20:55 25.09.2019
1299 Haze 33 1008 63 9000 4.1 100 20:37 25.09.2019
1300 Haze 33 1008 63 9000 4.1 100 20:18 25.09.2019
1301 Haze 33 1007 66 7000 4.1 90 19:39 25.09.2019
1302 Haze 33 1008 59 8000 3.6 100 19:20 25.09.2019
1303 Haze 33 1008 59 8000 3.6 100 18:56 25.09.2019
1304 Haze 33 1007 63 6000 4.1 90 18:37 25.09.2019
1305 Haze 33 1007 63 6000 4.1 90 18:18 25.09.2019
1306 Haze 34 1006 59 5000 4.6 100 17:40 25.09.2019
1307 Haze 34 1006 59 5000 4.6 100 17:21 25.09.2019
1308 Haze 34 1006 47 5000 5.7 100 16:57 25.09.2019
1309 Haze 35 1006 59 4000 5.7 100 16:38 25.09.2019
1310 Haze 35 1006 59 4000 5.7 100 16:19 25.09.2019
1311 Dust 36 1006 59 4000 5.1 100 15:55 25.09.2019
1312 Dust 36 1006 59 4000 5.1 100 15:55 25.09.2019
1313 Dust 36 1006 59 4000 5.1 100 15:36 25.09.2019
1314 Dust 36 1006 59 4000 5.1 100 15:18 25.09.2019
1315 Dust 37 1005 53 4000 4.6 110 14:41 25.09.2019
1316 Dust 37 1005 53 4000 4.6 110 14:22 25.09.2019
1317 Dust 37 1006 53 3500 5.7 110 13:57 25.09.2019
1318 Dust 37 1006 53 3500 5.7 110 13:57 25.09.2019
1319 Dust 37 1006 53 3500 5.7 110 13:39 25.09.2019
1320 Dust 37 1006 53 3500 5.7 110 13:20 25.09.2019
1321 Dust 38 1006 53 3500 5.7 120 12:44 25.09.2019
1322 Dust 38 1006 53 3500 5.7 120 12:44 25.09.2019
1323 Dust 38 1006 53 3500 5.7 120 12:25 25.09.2019
1324 Dust 37 1007 40 3500 2.6 160 11:59 25.09.2019
1325 Dust 37 1007 56 4000 4.1 120 11:40 25.09.2019
1326 Dust 37 1007 56 4000 4.1 120 11:20 25.09.2019
1327 Haze 37 1007 56 6000 3.6 110 10:46 25.09.2019
1328 Haze 37 1007 56 6000 3.6 110 10:26 25.09.2019
1329 Haze 36 1008 63 10000 4.1 80 09:59 25.09.2019
1330 Haze 36 1008 63 10000 4.1 80 09:59 25.09.2019
1331 Haze 36 1008 63 10000 4.1 80 09:40 25.09.2019
1332 Haze 36 1008 63 10000 4.1 80 09:22 25.09.2019
1333 Mist 35 1008 67 9000 3.6 80 08:56 25.09.2019
1334 Mist 35 1008 67 9000 3.6 80 08:56 25.09.2019
1335 Mist 35 1008 67 9000 3.6 80 08:37 25.09.2019
1336 Mist 35 1008 67 9000 3.6 80 08:19 25.09.2019
1337 Mist 33 1008 71 9000 3.6 70 07:40 25.09.2019
1338 Mist 32 1007 79 7000 2.1 50 07:22 25.09.2019
1339 Mist 32 1007 79 7000 2.1 50 06:52 25.09.2019
1340 Mist 32 1007 79 7000 2.1 50 06:32 25.09.2019
1341 Mist 31 1006 79 7000 1.5 50 05:39 25.09.2019
1342 Mist 31 1006 79 8000 1.5 60 04:57 25.09.2019
1343 Haze 31 1005 79 5000 3.1 40 02:32 25.09.2019
1344 Haze 31 1004 75 5000 3.6 10 01:19 25.09.2019
1345 Haze 31 1004 79 5000 3.6 350 00:37 25.09.2019
1346 Haze 31 1004 79 5000 3.1 350 00:18 25.09.2019
1347 Haze 31 1004 79 5000 3.1 350 23:41 24.09.2019
1348 Haze 31 1004 79 5000 3.1 350 23:21 24.09.2019
1349 Haze 32 1005 84 5000 3.1 20 22:56 24.09.2019
1350 Haze 32 1005 84 5000 3.1 20 22:36 24.09.2019
1351 Haze 32 1005 84 5000 3.1 20 22:36 24.09.2019
1352 Haze 32 1005 84 5000 3.1 20 22:18 24.09.2019
1353 Haze 32 1005 84 5000 3.1 20 22:18 24.09.2019
1354 Haze 32 1005 84 5000 3.1 20 22:18 24.09.2019
1355 Haze 32 1005 84 5000 2.6 40 21:54 24.09.2019
1356 Haze 32 1005 84 5000 2.6 40 21:36 24.09.2019
1357 Haze 32 1005 84 5000 2.6 40 21:18 24.09.2019
1358 Haze 32 1005 84 5000 2.6 40 21:18 24.09.2019
1359 Haze 33 1005 79 5000 3.1 50 20:54 24.09.2019
1360 Haze 33 1006 79 5000 3.1 50 20:36 24.09.2019
1361 Haze 33 1006 79 5000 3.1 50 20:18 24.09.2019
1362 Haze 33 1005 79 5000 3.6 30 19:41 24.09.2019
1363 Haze 33 1005 79 5000 3.6 30 19:19 24.09.2019
1364 Haze 33 1005 79 4500 3.6 30 18:56 24.09.2019
1365 Haze 33 1005 79 4500 3.6 30 18:56 24.09.2019
1366 Haze 33 1005 79 4500 3.6 30 18:38 24.09.2019
1367 Haze 34 1005 79 5000 4.1 40 18:20 24.09.2019
1368 Haze 34 1005 79 5000 4.1 40 17:55 24.09.2019
1369 Haze 34 1005 79 5000 4.1 40 17:37 24.09.2019
1370 Haze 34 1005 79 5000 4.1 40 17:19 24.09.2019
1371 Haze 35 1004 71 6000 4.6 40 16:42 24.09.2019
1372 Haze 35 1004 71 6000 4.6 40 16:20 24.09.2019
1373 Haze 36 1004 59 7000 4.6 20 15:57 24.09.2019
1374 Haze 36 1004 59 7000 4.6 20 15:38 24.09.2019
1375 Haze 36 1004 59 7000 4.6 20 15:20 24.09.2019
1376 Haze 37 1004 53 8000 4.6 10 14:38 24.09.2019
1377 Haze 37 1004 53 8000 4.6 10 14:18 24.09.2019
1378 Haze 37 1004 53 8000 4.6 360 13:45 24.09.2019
1379 Haze 37 1004 53 8000 4.6 360 13:22 24.09.2019
1380 Haze 37 1005 53 9000 2.6 50 12:56 24.09.2019
1381 Haze 37 1005 53 9000 2.6 50 12:36 24.09.2019
1382 Haze 38 1006 42 10000 3.6 40 12:18 24.09.2019
1383 Haze 38 1006 42 10000 3.6 40 11:41 24.09.2019
1384 Haze 38 1006 42 10000 3.6 40 11:21 24.09.2019
1385 -273 0 0 0 0 0 10:55 24.09.2019
1386 Haze 37 1007 32 10000 4.1 10 10:36 24.09.2019
1387 Haze 37 1007 32 10000 4.1 10 10:18 24.09.2019
1388 Haze 37 1007 30 10000 4.1 350 09:43 24.09.2019
1389 Haze 37 1007 30 10000 4.1 350 09:21 24.09.2019
1390 Clear 36 1007 25 10000 2.6 350 08:57 24.09.2019
1391 Clear 36 1007 25 10000 2.6 350 08:38 24.09.2019
1392 Clear 36 1007 25 10000 2.6 350 08:19 24.09.2019
1393 Haze 34 1007 47 9000 1.5 50 07:46 24.09.2019
1394 Haze 34 1007 47 9000 1.5 50 07:24 24.09.2019
1395 Mist 31 1007 62 8000 1 130 06:51 24.09.2019
1396 Mist 31 1007 62 8000 1 130 06:32 24.09.2019
1397 Mist 29 1006 62 8000 1 0 05:51 24.09.2019
1398 Mist 29 1006 62 8000 1 0 05:18 24.09.2019
1399 Mist 29 1005 70 10000 1.5 160 03:44 24.09.2019
1400 Mist 30 1005 66 10000 1.5 130 02:47 24.09.2019
1401 Mist 30 1004 70 10000 0.5 0 01:55 24.09.2019
1402 Mist 31 1005 66 10000 3.41 295.798 00:43 24.09.2019
1403 Mist 31 1005 66 10000 2.27 352.462 00:25 24.09.2019
1404 Mist 31 1005 66 10000 1.5 350 23:56 23.09.2019
1405 Mist 31 1005 66 10000 1.5 350 23:38 23.09.2019
1406 Mist 31 1005 66 10000 1.5 350 23:20 23.09.2019
1407 Haze 32 1006 63 10000 2.6 360 22:39 23.09.2019
1408 Haze 32 1006 63 10000 2.6 360 22:20 23.09.2019
1409 Haze 33 1006 66 10000 2.6 350 21:57 23.09.2019
1410 Haze 33 1006 66 10000 2.6 350 21:39 23.09.2019
1411 Haze 33 1006 66 10000 2.6 350 21:19 23.09.2019
1412 Haze 33 1006 66 10000 2.1 10 20:41 23.09.2019
1413 Haze 33 1006 66 10000 2.1 10 20:20 23.09.2019
1414 Haze 34 1006 59 10000 2.6 10 19:59 23.09.2019
1415 Haze 34 1006 59 10000 2.6 10 19:39 23.09.2019
1416 Haze 34 1006 59 10000 2.6 10 19:21 23.09.2019
1417 Haze 35 1006 63 10000 3.1 10 18:55 23.09.2019
1418 Haze 35 1006 63 10000 3.1 10 18:37 23.09.2019
1419 Haze 35 1006 63 10000 3.1 10 18:37 23.09.2019
1420 Haze 35 1006 63 10000 3.1 10 18:37 23.09.2019
1421 Haze 35 1006 63 10000 3.1 10 18:18 23.09.2019
1422 -273 0 0 0 0 0 17:55 23.09.2019
1423 Haze 35 1005 63 9000 3.1 30 17:36 23.09.2019
1424 Haze 35 1005 63 9000 3.1 30 17:18 23.09.2019
1425 Haze 37 1005 50 10000 4.1 30 16:40 23.09.2019
1426 Haze 37 1005 50 10000 4.1 30 16:22 23.09.2019
1427 Haze 39 1005 42 10000 3.6 40 15:59 23.09.2019
1428 Haze 39 1005 42 10000 3.6 40 15:41 23.09.2019
1429 Haze 39 1005 42 10000 3.6 40 15:20 23.09.2019
1430 Haze 39 1004 50 10000 4.6 100 14:58 23.09.2019
1431 Haze 39 1004 50 10000 4.6 100 14:39 23.09.2019
1432 Haze 39 1004 50 10000 4.6 100 14:19 23.09.2019
1433 Haze 39 1005 53 10000 4.6 80 13:57 23.09.2019
1434 Haze 40 1005 54 10000 4.6 60 13:37 23.09.2019
1435 Haze 40 1005 51 10000 5.1 90 13:18 23.09.2019
1436 Haze 40 1005 51 10000 5.1 90 13:18 23.09.2019
1437 Haze 40 1005 48 10000 3.6 50 12:40 23.09.2019
1438 Haze 40 1005 48 10000 3.6 50 12:21 23.09.2019
1439 Haze 41 1006 32 10000 2.6 220 11:55 23.09.2019
1440 Haze 41 1006 32 10000 2.6 220 11:36 23.09.2019
1441 Haze 39 1007 33 10000 3.1 210 11:18 23.09.2019
1442 Haze 39 1007 33 10000 3.1 210 10:42 23.09.2019
1443 Haze 39 1007 33 10000 3.1 210 10:20 23.09.2019
1444 Clear 38 1007 37 10000 2.6 170 09:43 23.09.2019
1445 Haze 37 1007 37 10000 2.6 170 09:25 23.09.2019
1446 Haze 37 1008 47 10000 1.5 170 08:58 23.09.2019
1447 Haze 37 1008 47 10000 1.5 170 08:38 23.09.2019
1448 Haze 37 1008 47 10000 1.5 170 08:18 23.09.2019
1449 Haze 37 1008 47 10000 1.5 170 08:18 23.09.2019
1450 Mist 35 1007 56 10000 1.5 150 07:34 23.09.2019
1451 Mist 32 1007 71 8000 1 130 06:58 23.09.2019
1452 Mist 30 1006 89 8000 1.5 340 06:20 23.09.2019
1453 Mist 30 1006 89 8000 1.5 340 05:28 23.09.2019
1454 Mist 30 1005 89 9000 1.5 350 04:56 23.09.2019
1455 Mist 31 1005 84 10000 2.1 30 03:59 23.09.2019
1456 Haze 30 1004 70 10000 1 0 01:25 23.09.2019
1457 Haze 31 1004 70 10000 0.5 0 00:26 23.09.2019
1458 Haze 32 1004 70 10000 1.5 160 23:58 22.09.2019
1459 Haze 32 1004 70 10000 1.5 160 23:40 22.09.2019
1460 Haze 32 1004 70 10000 1.5 160 23:21 22.09.2019
1461 Haze 32 1005 66 10000 1 130 22:55 22.09.2019
1462 Haze 32 1005 66 10000 1 130 22:37 22.09.2019
1463 Haze 33 1005 66 10000 1 80 22:18 22.09.2019
1464 Haze 33 1005 66 10000 1 80 21:42 22.09.2019
1465 Haze 33 1005 66 10000 1 80 21:42 22.09.2019
1466 Haze 33 1005 66 10000 1 80 21:20 22.09.2019
1467 Clear 34 1005 75 10000 2.6 90 20:45 22.09.2019
1468 Clear 34 1005 75 10000 2.6 90 20:45 22.09.2019
1469 Haze 34 1005 75 10000 2.6 90 20:27 22.09.2019
1470 Haze 34 1004 71 10000 2.1 100 19:59 22.09.2019
1471 Haze 34 1004 71 10000 2.1 100 19:40 22.09.2019
1472 Haze 34 1004 71 10000 2.1 100 19:40 22.09.2019
1473 Haze 34 1004 71 10000 2.1 100 19:20 22.09.2019
1474 Haze 34 1004 71 10000 3.1 110 18:57 22.09.2019
1475 Haze 34 1004 71 10000 3.1 110 18:57 22.09.2019
1476 Haze 34 1004 67 10000 2.6 130 18:38 22.09.2019
1477 Haze 36 1004 59 10000 3.6 110 18:18 22.09.2019
1478 Haze 36 1004 59 10000 3.1 110 17:46 22.09.2019
1479 Haze 36 1004 59 10000 3.1 110 17:27 22.09.2019
1480 Haze 37 1004 53 10000 3.6 100 16:57 22.09.2019
1481 Haze 37 1004 53 10000 3.6 100 16:57 22.09.2019
1482 Haze 37 1003 44 10000 4.1 120 16:39 22.09.2019
1483 Haze 37 1003 44 10000 4.1 120 16:20 22.09.2019
1484 Haze 39 1003 35 9000 3.6 120 15:45 22.09.2019
1485 Haze 39 1003 35 9000 3.6 120 15:26 22.09.2019
1486 Haze 39 1003 39 9000 3.1 120 14:55 22.09.2019
1487 Haze 39 1003 47 9000 3.6 110 14:37 22.09.2019
1488 Haze 39 1003 47 9000 3.6 110 14:19 22.09.2019
1489 Haze 38 1004 56 9000 4.1 100 13:43 22.09.2019
1490 Haze 38 1004 56 9000 4.1 100 13:25 22.09.2019
1491 Haze 38 1004 53 9000 2.6 120 12:57 22.09.2019
1492 Haze 38 1004 53 9000 2.6 120 12:57 22.09.2019
1493 Haze 37 1004 63 9000 3.6 120 12:39 22.09.2019
1494 Haze 37 1004 63 9000 3.6 100 12:19 22.09.2019
1495 Haze 37 1004 63 9000 3.6 100 11:56 22.09.2019
1496 Haze 37 1005 63 9000 4.6 100 11:37 22.09.2019
1497 Haze 37 1005 63 9000 5.7 90 11:18 22.09.2019
1498 Haze 37 1005 56 10000 5.1 110 10:42 22.09.2019
1499 Haze 37 1005 56 10000 5.1 110 10:20 22.09.2019
1500 Haze 37 1006 56 10000 4.6 90 09:43 22.09.2019
1501 Haze 37 1006 56 10000 4.6 90 09:22 22.09.2019
1502 Haze 36 1006 53 10000 2.1 10 08:58 22.09.2019
1503 Haze 36 1006 50 9000 1 0 08:40 22.09.2019
1504 Haze 36 1006 50 9000 1 0 08:22 22.09.2019
1505 Haze 36 1006 50 9000 1 0 08:22 22.09.2019
1506 Haze 33 1006 70 8000 3.1 10 07:44 22.09.2019
1507 Haze 33 1006 70 8000 3.1 10 07:26 22.09.2019
1508 Haze 33 1006 63 8000 2.1 10 06:58 22.09.2019
1509 Haze 33 1006 49 10000 2.6 0 06:34 22.09.2019
1510 Haze 30 1003 84 7000 4.6 200 04:41 22.09.2019
1511 Haze 31 1002 79 8000 1.5 170 02:45 22.09.2019
1512 Haze 31 1002 79 8000 1.5 170 02:24 22.09.2019
1513 Haze 31 1002 75 10000 2.6 180 01:38 22.09.2019
1514 Haze 31 1002 79 10000 2.6 150 00:46 22.09.2019
1515 Haze 31 1002 79 10000 2.6 150 00:27 22.09.2019
1516 Haze 32 1003 79 10000 2.6 150 23:51 21.09.2019
1517 Haze 32 1003 75 10000 2.6 160 23:33 21.09.2019
1518 Haze 32 1003 75 10000 2.1 140 22:43 21.09.2019
1519 Haze 32 1003 75 10000 2.1 140 22:43 21.09.2019
1520 Haze 32 1003 75 10000 2.1 140 22:24 21.09.2019
1521 Haze 33 1003 70 10000 2.1 140 21:58 21.09.2019
1522 Haze 33 1003 66 10000 2.1 140 21:40 21.09.2019
1523 Haze 33 1003 66 10000 2.1 140 21:19 21.09.2019
1524 Haze 34 1003 63 10000 2.6 150 20:55 21.09.2019
1525 Haze 34 1003 63 10000 2.6 140 20:36 21.09.2019
1526 Haze 34 1003 63 10000 2.6 140 20:18 21.09.2019
1527 Haze 34 1003 59 10000 3.1 130 19:42 21.09.2019
1528 Haze 35 1003 59 10000 4.1 120 19:19 21.09.2019
1529 Haze 35 1003 53 10000 4.1 120 18:40 21.09.2019
1530 Haze 35 1003 53 10000 4.1 120 18:21 21.09.2019
1531 Clear 35 1002 59 10000 4.1 120 17:43 21.09.2019
1532 Haze 37 1002 59 10000 4.1 120 17:23 21.09.2019
1533 Haze 37 1002 56 10000 4.6 110 16:57 21.09.2019
1534 Haze 37 1002 50 10000 4.6 110 16:37 21.09.2019
1535 Haze 37 1002 50 10000 4.6 110 16:19 21.09.2019
1536 Haze 39 1002 44 10000 4.6 120 15:43 21.09.2019
1537 Haze 39 1002 44 10000 4.6 120 15:22 21.09.2019
1538 Haze 40 1002 37 10000 4.6 110 14:48 21.09.2019
1539 Haze 40 1002 33 10000 4.6 110 14:30 21.09.2019
1540 Haze 40 1002 35 10000 4.6 100 13:54 21.09.2019
1541 Haze 40 1002 29 10000 5.1 80 13:36 21.09.2019
1542 Haze 41 1002 29 10000 4.1 80 13:18 21.09.2019
1543 Haze 41 1003 29 10000 4.1 90 12:41 21.09.2019
1544 Haze 41 1003 29 10000 4.1 90 12:22 21.09.2019
1545 Haze 40 1003 27 10000 4.1 90 11:59 21.09.2019
1546 Haze 40 1004 24 10000 3.6 100 11:41 21.09.2019
1547 Haze 40 1004 24 10000 3.6 100 11:21 21.09.2019
1548 Haze 39 1004 27 10000 2.6 80 10:41 21.09.2019
1549 Haze 39 1004 27 10000 2.6 80 10:23 21.09.2019
1550 Haze 39 1005 33 10000 2.1 0 09:57 21.09.2019
1551 Haze 40 1005 19 10000 0.5 0 09:38 21.09.2019
1552 Haze 40 1005 19 10000 0.5 0 09:20 21.09.2019
1553 Haze 38 1005 23 10000 1 0 08:51 21.09.2019
1554 Haze 38 1005 26 10000 1.5 190 08:27 21.09.2019
1555 Haze 35 1005 39 10000 1.5 240 07:41 21.09.2019
1556 Mist 32 1005 44 10000 1.5 220 07:23 21.09.2019
1557 Mist 32 1005 44 10000 1.5 220 06:51 21.09.2019
1558 Mist 32 1005 46 10000 1.5 230 06:31 21.09.2019
1559 Mist 28 1004 58 10000 1.5 220 04:53 21.09.2019
1560 Mist 28 1004 58 10000 1.5 220 04:34 21.09.2019
1561 Mist 30 1003 46 10000 1.5 210 02:31 21.09.2019
1562 Haze 29 1003 66 10000 1 230 01:54 21.09.2019
1563 Haze 29 1003 66 10000 1 230 01:36 21.09.2019
1564 Haze 30 1004 70 10000 1 0 00:40 21.09.2019
1565 Haze 30 1004 70 10000 1 0 00:18 21.09.2019
1566 Haze 30 1004 70 10000 1 0 00:18 21.09.2019
1567 Haze 31 1004 79 10000 1.22 162.724 23:42 20.09.2019
1568 Haze 31 1004 79 10000 1.22 162.724 23:23 20.09.2019
1569 Haze 31 1005 79 10000 1.22 162.724 22:41 20.09.2019
1570 Haze 31 1005 79 10000 1.22 162.724 22:23 20.09.2019
1571 Haze 32 1005 70 10000 0.5 0 21:56 20.09.2019
1572 Haze 32 1005 75 10000 1 20 21:37 20.09.2019
1573 Haze 32 1005 75 10000 1 20 21:18 20.09.2019
1574 Haze 33 1006 75 10000 1.5 10 20:55 20.09.2019
1575 Haze 33 1006 70 10000 2.1 360 20:36 20.09.2019
1576 Haze 34 1006 66 10000 2.6 360 20:18 20.09.2019
1577 Haze 34 1006 66 10000 3.1 10 19:42 20.09.2019
1578 Haze 34 1006 66 10000 3.1 10 19:21 20.09.2019
1579 Haze 34 1006 56 10000 3.1 10 18:57 20.09.2019
1580 Haze 34 1005 67 8000 3.1 10 18:37 20.09.2019
1581 Haze 35 1005 71 7000 3.6 20 18:18 20.09.2019
1582 Haze 35 1005 71 7000 3.6 20 18:18 20.09.2019
1583 Haze 35 1005 63 7000 3.1 30 17:44 20.09.2019
1584 Haze 35 1005 63 7000 3.1 30 17:25 20.09.2019
1585 Haze 36 1005 67 6000 3.6 50 16:43 20.09.2019
1586 Haze 36 1005 67 6000 3.6 50 16:22 20.09.2019
1587 Haze 37 1004 56 6000 4.6 30 15:59 20.09.2019
1588 Haze 36 1004 63 5000 4.6 110 15:40 20.09.2019
1589 Haze 38 1004 63 5000 4.6 110 15:22 20.09.2019
1590 Haze 36 1004 63 5000 4.6 120 14:43 20.09.2019
1591 Haze 36 1004 63 5000 4.6 120 14:19 20.09.2019
1592 -273 0 0 0 0 0 13:55 20.09.2019
1593 Clear 37 1005 53 6000 4.1 90 13:36 20.09.2019
1594 Haze 39 1005 53 6000 4.1 90 13:18 20.09.2019
1595 Haze 39 1005 47 6000 4.1 100 12:38 20.09.2019
1596 Dust 38 1005 42 5000 4.1 80 12:19 20.09.2019
1597 Dust 38 1005 42 5000 4.1 80 11:50 20.09.2019
1598 Dust 38 1006 47 5000 3.1 90 11:22 20.09.2019
1599 Dust 38 1006 47 5000 2.6 0 10:58 20.09.2019
1600 Dust 37 1006 47 5000 1.5 30 10:39 20.09.2019
1601 Dust 37 1006 47 5000 1.5 30 10:19 20.09.2019
1602 Mist 36 1007 42 6000 1 0 09:38 20.09.2019
1603 Mist 36 1007 42 6000 1 0 09:18 20.09.2019
1604 Mist 35 1008 63 6000 2.1 0 08:46 20.09.2019
1605 Mist 35 1008 63 6000 2.1 0 08:26 20.09.2019
1606 Mist 34 1008 63 7000 2.6 160 07:49 20.09.2019
1607 Mist 34 1008 67 6000 1.5 160 07:29 20.09.2019
1608 Mist 32 1007 63 6000 2.6 330 06:48 20.09.2019
1609 Mist 32 1007 63 6000 2.6 330 06:30 20.09.2019
1610 Mist 30 1007 79 6000 1 0 05:58 20.09.2019
1611 Mist 30 1007 79 6000 1 0 05:58 20.09.2019
1612 Mist 29 1006 89 5000 1 130 04:28 20.09.2019
1613 Mist 30 1005 89 6000 0.5 0 03:26 20.09.2019
1614 Mist 30 1005 84 6000 1 340 01:45 20.09.2019
1615 Mist 30 1005 84 6000 1 340 01:45 20.09.2019
1616 Mist 30 1005 84 6000 1 340 01:27 20.09.2019
1617 Mist 31 1005 84 6000 1 0 00:32 20.09.2019
1618 Mist 31 1005 84 6000 1.5 130 23:46 19.09.2019
1619 Mist 31 1005 84 6000 1.5 130 23:46 19.09.2019
1620 Mist 31 1005 84 6000 1.5 130 23:24 19.09.2019
1621 Mist 32 1006 84 6000 0.5 130 22:57 19.09.2019
1622 Mist 32 1006 84 6000 1 350 22:38 19.09.2019
1623 Mist 32 1006 84 6000 1 350 22:20 19.09.2019
1624 Mist 33 1006 79 6000 1 0 21:56 19.09.2019
1625 Mist 33 1006 79 6000 1.5 30 21:38 19.09.2019
1626 Mist 33 1006 79 6000 1.5 30 21:19 19.09.2019
1627 Haze 33 1006 79 6000 2.6 20 20:43 19.09.2019
1628 Haze 33 1006 79 6000 2.6 20 20:23 19.09.2019
1629 Haze 33 1006 79 7000 3.1 40 19:57 19.09.2019
1630 Haze 33 1006 79 7000 3.1 10 19:39 19.09.2019
1631 Haze 33 1007 59 9000 3.6 10 19:21 19.09.2019
1632 Haze 34 1006 75 7000 2.6 70 18:55 19.09.2019
1633 Haze 34 1006 75 7000 2.6 70 18:37 19.09.2019
1634 Haze 34 1007 56 9000 4.6 100 18:18 19.09.2019
1635 Haze 34 1007 56 9000 4.6 100 18:18 19.09.2019
1636 Haze 34 1005 71 7000 3.6 90 17:42 19.09.2019
1637 Haze 34 1005 71 7000 3.6 90 17:23 19.09.2019
1638 Haze 36 1005 67 7000 4.1 70 16:58 19.09.2019
1639 Haze 36 1005 63 8000 4.6 80 16:39 19.09.2019
1640 Haze 36 1005 63 8000 4.6 80 16:18 19.09.2019
1641 Haze 38 1005 42 10000 4.6 70 15:39 19.09.2019
1642 Haze 38 1005 42 10000 4.6 70 15:19 19.09.2019
1643 Haze 40 1005 29 10000 4.1 80 14:42 19.09.2019
1644 Haze 40 1005 29 10000 4.1 80 14:24 19.09.2019
1645 Haze 40 1005 35 10000 3.6 80 13:59 19.09.2019
1646 Haze 40 1005 35 10000 3.6 80 13:40 19.09.2019
1647 Haze 40 1005 35 10000 3.6 80 13:20 19.09.2019
1648 Haze 40 1006 45 10000 2.6 90 12:40 19.09.2019
1649 Haze 39 1006 53 10000 2.1 120 12:20 19.09.2019
1650 Haze 39 1006 53 10000 2.1 120 11:58 19.09.2019
1651 Haze 39 1006 53 9000 2.6 110 11:39 19.09.2019
1652 Haze 39 1006 53 9000 2.6 110 11:20 19.09.2019
1653 Haze 37 1007 56 6000 3.6 90 10:56 19.09.2019
1654 Haze 37 1007 56 6000 3.6 90 10:56 19.09.2019
1655 Haze 37 1007 63 6000 3.6 90 10:36 19.09.2019
1656 Haze 36 1007 63 6000 3.1 90 10:18 19.09.2019
1657 Haze 36 1008 63 5000 2.6 100 09:41 19.09.2019
1658 Haze 36 1008 63 5000 2.6 100 09:21 19.09.2019
1659 Haze 34 1008 67 5000 2.6 90 08:56 19.09.2019
1660 Haze 34 1008 71 5000 1.5 0 08:29 19.09.2019
1661 Haze 33 1008 67 5000 1.5 0 07:57 19.09.2019
1662 Haze 33 1008 67 5000 1.5 0 07:57 19.09.2019
1663 Mist 33 1008 71 6000 1.5 350 07:38 19.09.2019
1664 Mist 33 1008 71 6000 1.5 350 07:38 19.09.2019
1665 Haze 31 1007 71 8000 1 0 07:20 19.09.2019
1666 Haze 31 1007 75 8000 1.5 120 06:45 19.09.2019
1667 Haze 31 1007 75 8000 1.5 120 06:27 19.09.2019
1668 Mist 29 1006 79 7000 1 0 05:51 19.09.2019
1669 Mist 29 1006 84 9000 2.86 323.659 04:39 19.09.2019
1670 Mist 29 1005 84 9000 0.5 0 03:51 19.09.2019
1671 Mist 30 1004 84 9000 2.1 340 02:27 19.09.2019
1672 Mist 30 1005 79 10000 2.1 360 01:22 19.09.2019
1673 Mist 31 1005 74 10000 1.5 350 00:49 19.09.2019
1674 Mist 31 1005 74 10000 1.5 350 00:25 19.09.2019
1675 Mist 31 1005 74 10000 1 0 23:39 18.09.2019
1676 Mist 31 1005 74 10000 1 0 23:21 18.09.2019
1677 Haze 32 1005 79 10000 1 0 22:44 18.09.2019
1678 Haze 32 1005 79 10000 1 0 22:20 18.09.2019
1679 Haze 32 1005 75 10000 1.5 40 21:59 18.09.2019
1680 Haze 32 1006 70 10000 1.5 20 21:40 18.09.2019
1681 Haze 32 1006 70 10000 1.5 20 21:19 18.09.2019
1682 Haze 33 1006 70 10000 1.5 30 20:58 18.09.2019
1683 Haze 33 1006 66 10000 1.5 20 20:40 18.09.2019
1684 Haze 33 1006 66 10000 1.5 20 20:22 18.09.2019
1685 Haze 33 1006 66 10000 1.5 20 20:22 18.09.2019
1686 Haze 34 1006 63 10000 1.5 30 19:58 18.09.2019
1687 Haze 34 1006 63 10000 1.5 40 19:39 18.09.2019
1688 Clear 34 1006 63 10000 2.1 30 19:19 18.09.2019
1689 Clear 34 1006 63 10000 2.1 30 18:56 18.09.2019
1690 Clear 34 1005 59 10000 2.6 30 18:37 18.09.2019
1691 Haze 35 1005 52 10000 2.1 40 18:19 18.09.2019
1692 Haze 35 1005 52 10000 2.1 40 17:58 18.09.2019
1693 Haze 35 1005 47 10000 2.6 30 17:39 18.09.2019
1694 Haze 35 1005 47 10000 2.6 30 17:19 18.09.2019
1695 Haze 36 1005 47 10000 3.6 40 16:56 18.09.2019
1696 Haze 36 1005 47 10000 3.6 40 16:56 18.09.2019
1697 Haze 37 1005 41 10000 4.1 40 16:37 18.09.2019
1698 Haze 37 1005 41 10000 4.1 40 16:18 18.09.2019
1699 -273 0 0 0 0 0 15:55 18.09.2019
1700 Clear 36 1004 30 10000 3.6 60 15:36 18.09.2019
1701 Haze 39 1004 30 10000 3.6 60 15:18 18.09.2019
1702 Haze 39 1004 37 10000 4.1 60 14:57 18.09.2019
1703 Haze 39 1004 31 10000 3.6 80 14:38 18.09.2019
1704 Haze 39 1004 31 10000 3.6 80 14:20 18.09.2019
1705 Haze 40 1004 27 10000 4.1 100 13:42 18.09.2019
1706 Haze 40 1005 29 10000 4.6 100 13:19 18.09.2019
1707 Haze 40 1005 29 10000 4.6 100 12:55 18.09.2019
1708 Haze 40 1005 27 10000 4.1 90 12:36 18.09.2019
1709 Haze 41 1005 16 10000 3.1 40 12:18 18.09.2019
1710 Clear 40 1005 18 10000 4.1 20 11:39 18.09.2019
1711 Clear 40 1005 18 10000 4.1 20 11:19 18.09.2019
1712 Clear 39 1006 20 10000 3.1 20 10:40 18.09.2019
1713 Haze 40 1006 20 10000 3.1 20 10:21 18.09.2019
1714 Haze 40 1006 14 10000 4.6 350 09:58 18.09.2019
1715 Haze 40 1006 14 10000 4.6 350 09:58 18.09.2019
1716 Haze 40 1006 13 10000 1.5 0 09:39 18.09.2019
1717 Haze 40 1006 13 10000 1.5 0 09:21 18.09.2019
1718 Haze 39 1006 14 10000 1.5 0 08:45 18.09.2019
1719 Haze 39 1006 14 10000 1.5 0 08:26 18.09.2019
1720 Haze 39 1006 14 10000 1.5 0 08:26 18.09.2019
1721 Clear 37 1006 29 10000 1.5 240 07:59 18.09.2019
1722 Clear 36 1006 37 10000 1.5 240 07:41 18.09.2019
1723 Haze 33 1006 41 10000 1.5 220 07:22 18.09.2019
1724 Clear 33 1006 47 10000 1 0 06:41 18.09.2019
1725 Mist 30 1005 62 10000 1 0 05:54 18.09.2019
1726 Mist 29 1005 74 10000 1 0 05:21 18.09.2019
1727 Mist 29 1004 66 10000 1.5 250 03:23 18.09.2019
1728 Mist 29 1003 74 10000 0.5 0 02:39 18.09.2019
1729 Mist 30 1004 84 10000 1.33 285.131 01:34 18.09.2019
1730 Mist 31 1004 79 10000 1 80 00:50 18.09.2019
1731 Mist 31 1004 79 10000 1 80 00:25 18.09.2019
1732 Haze 31 1004 74 10000 1.5 30 23:47 17.09.2019
1733 Haze 31 1004 74 10000 1.5 30 23:23 17.09.2019
1734 Haze 31 1004 74 10000 1 40 22:44 17.09.2019
1735 Haze 31 1004 74 10000 1 40 22:25 17.09.2019
1736 Haze 32 1004 70 10000 1 30 21:56 17.09.2019
1737 Haze 32 1004 70 10000 1 50 21:37 17.09.2019
1738 Haze 32 1004 70 10000 1 50 21:37 17.09.2019
1739 Haze 32 1004 70 10000 1 50 21:19 17.09.2019
1740 Haze 32 1004 70 10000 1 50 21:19 17.09.2019
1741 Haze 33 1005 70 10000 1 40 20:59 17.09.2019
1742 Haze 33 1005 70 10000 1.5 30 20:41 17.09.2019
1743 Haze 33 1005 70 10000 1.5 30 20:22 17.09.2019
1744 Haze 33 1005 66 10000 1.5 30 19:59 17.09.2019
1745 Clear 33 1004 63 10000 1.5 30 19:39 17.09.2019
1746 Clear 33 1004 63 10000 1.5 40 19:20 17.09.2019
1747 Clear 33 1004 63 10000 1.5 40 18:57 17.09.2019
1748 Clear 33 1004 63 10000 1.5 40 18:57 17.09.2019
1749 Clear 33 1004 59 10000 2.6 40 18:39 17.09.2019
1750 Haze 35 1004 59 10000 2.6 40 18:21 17.09.2019
1751 Haze 35 1004 56 10000 3.1 30 17:46 17.09.2019
1752 Haze 35 1004 56 10000 3.1 30 17:21 17.09.2019
1753 Haze 35 1004 56 10000 3.1 30 17:21 17.09.2019
1754 Clear 35 1003 44 10000 3.6 30 16:59 17.09.2019
1755 Clear 35 1003 37 10000 4.1 30 16:40 17.09.2019
1756 Clear 35 1003 37 10000 4.1 30 16:40 17.09.2019
1757 Haze 37 1003 37 10000 4.1 30 16:22 17.09.2019
1758 Haze 37 1003 37 10000 4.1 30 16:22 17.09.2019
1759 Haze 38 1003 37 10000 4.6 20 15:40 17.09.2019
1760 Haze 38 1003 37 10000 4.6 20 15:21 17.09.2019
1761 Haze 38 1003 37 10000 4.6 20 15:21 17.09.2019
1762 Haze 38 1003 37 10000 4.6 20 15:21 17.09.2019
1763 Haze 40 1003 33 10000 4.1 20 14:58 17.09.2019
1764 Haze 40 1003 37 8000 4.1 40 14:40 17.09.2019
1765 Haze 40 1003 37 8000 4.1 40 14:19 17.09.2019
1766 Haze 40 1003 47 8000 4.1 50 13:58 17.09.2019
1767 Haze 40 1003 42 10000 3.1 60 13:39 17.09.2019
1768 Haze 40 1003 42 10000 3.1 60 13:21 17.09.2019
1769 Haze 39 1004 50 10000 3.6 70 12:43 17.09.2019
1770 Haze 39 1004 50 10000 3.6 30 12:20 17.09.2019
1771 Haze 39 1004 50 10000 3.6 30 11:57 17.09.2019
1772 Haze 39 1005 50 10000 2.6 20 11:38 17.09.2019
1773 Haze 39 1005 50 10000 2.6 20 11:38 17.09.2019
1774 Haze 39 1005 50 10000 2.6 20 11:18 17.09.2019
1775 Haze 39 1005 50 10000 2.6 20 11:18 17.09.2019
1776 Haze 39 1006 38 9000 2.6 10 10:41 17.09.2019
1777 Haze 39 1006 38 9000 2.6 10 10:21 17.09.2019
1778 Haze 38 1006 42 9000 3.1 330 09:56 17.09.2019
1779 Haze 38 1006 47 9000 1.5 0 09:37 17.09.2019
1780 Haze 38 1006 47 9000 1.5 0 09:19 17.09.2019
1781 Haze 38 1006 47 9000 1.5 0 09:19 17.09.2019
1782 Clouds 35 1007 56 9000 2.1 200 08:44 17.09.2019
1783 Mist 35 1007 56 9000 2.1 200 08:25 17.09.2019
1784 Mist 33 1007 67 7000 2.1 210 07:46 17.09.2019
1785 Mist 33 1007 67 7000 2.1 210 07:28 17.09.2019
1786 Haze 32 1007 67 6000 1.5 180 06:59 17.09.2019
1787 Haze 32 1006 75 6000 1.5 180 06:40 17.09.2019
1788 Mist 30 1006 75 6000 0.38 260.712 05:56 17.09.2019
1789 Mist 30 1006 79 7000 0.5 0 05:33 17.09.2019
1790 Mist 30 1005 79 10000 1 0 04:19 17.09.2019
1791 Mist 30 1004 55 10000 1.5 160 02:40 17.09.2019
1792 Haze 30 1004 55 10000 2.1 110 01:53 17.09.2019
1793 Haze 31 1004 46 10000 0.5 0 00:58 17.09.2019
1794 Haze 31 1004 46 10000 0.5 0 00:58 17.09.2019
1795 Haze 31 1004 59 10000 1 0 23:55 16.09.2019
1796 Haze 31 1004 66 10000 1 0 23:36 16.09.2019
1797 Haze 31 1004 66 10000 1 0 23:18 16.09.2019
1798 Haze 32 1005 75 10000 1 330 22:41 16.09.2019
1799 Haze 32 1005 75 10000 1 330 22:23 16.09.2019
1800 Haze 32 1006 75 10000 1.5 30 21:58 16.09.2019
1801 Haze 32 1006 75 10000 1 10 21:38 16.09.2019
1802 Haze 32 1006 75 10000 1 10 21:20 16.09.2019
1803 Haze 32 1006 75 9000 2.1 340 20:55 16.09.2019
1804 Haze 32 1006 75 8000 1 0 20:37 16.09.2019
1805 Haze 32 1006 75 8000 1 0 20:18 16.09.2019
1806 Haze 33 1006 70 8000 3.1 350 19:42 16.09.2019
1807 Haze 33 1006 70 8000 3.1 350 19:21 16.09.2019
1808 Haze 34 1006 70 8000 3.6 350 18:59 16.09.2019
1809 Haze 34 1005 63 9000 2.6 10 18:41 16.09.2019
1810 Haze 34 1005 63 9000 3.1 10 18:21 16.09.2019
1811 Clouds 34 1005 59 9000 2.6 30 17:43 16.09.2019
1812 Haze 35 1005 59 9000 2.6 30 17:24 16.09.2019
1813 Haze 35 1005 56 9000 3.1 40 16:58 16.09.2019
1814 Haze 35 1005 53 9000 4.1 40 16:39 16.09.2019
1815 Haze 35 1005 53 9000 4.1 40 16:21 16.09.2019
1816 Haze 35 1005 53 9000 4.1 40 16:21 16.09.2019
1817 Haze 36 1005 59 9000 4.1 30 15:56 16.09.2019
1818 Haze 36 1005 56 9000 3.6 40 15:37 16.09.2019
1819 Haze 36 1005 56 9000 3.6 40 15:19 16.09.2019
1820 Haze 37 1005 53 9000 3.6 50 14:56 16.09.2019
1821 Haze 37 1005 53 0 4.1 80 14:38 16.09.2019
1822 Haze 37 1005 53 0 4.1 80 14:19 16.09.2019
1823 Haze 39 1005 44 8000 4.1 70 13:40 16.09.2019
1824 Haze 39 1005 42 7000 3.1 60 13:21 16.09.2019
1825 Haze 39 1005 45 7000 4.1 50 12:48 16.09.2019
1826 Haze 39 1005 45 7000 4.1 50 12:29 16.09.2019
1827 Haze 39 1006 37 0 2.1 100 11:58 16.09.2019
1828 Haze 39 1006 37 0 2.1 100 11:40 16.09.2019
1829 Haze 39 1006 37 0 2.1 100 11:21 16.09.2019
1830 Haze 38 1007 32 10000 4.1 90 10:40 16.09.2019
1831 Haze 38 1007 32 10000 4.1 90 10:40 16.09.2019
1832 Haze 38 1007 32 10000 4.1 90 10:40 16.09.2019
1833 Haze 38 1007 32 10000 4.1 90 10:21 16.09.2019
1834 Haze 38 1007 37 10000 3.6 100 09:58 16.09.2019
1835 Haze 38 1007 39 10000 4.1 90 09:40 16.09.2019
1836 Haze 38 1007 39 10000 4.1 90 09:20 16.09.2019
1837 Haze 36 1007 44 10000 1 0 08:47 16.09.2019
1838 Haze 36 1007 44 10000 1 0 08:28 16.09.2019
1839 Haze 34 1007 67 10000 2.6 60 07:57 16.09.2019
1840 Haze 34 1007 63 10000 2.1 60 07:39 16.09.2019
1841 Haze 34 1007 63 10000 2.1 60 07:39 16.09.2019
1842 Mist 32 1007 59 10000 2.1 40 07:20 16.09.2019
1843 Mist 32 1007 70 10000 2.1 30 06:48 16.09.2019
1844 Mist 32 1007 70 10000 2.1 30 06:30 16.09.2019
1845 Mist 30 1007 66 10000 2.1 0 05:57 16.09.2019
1846 Mist 30 1006 66 10000 2.6 110 05:38 16.09.2019
1847 Mist 30 1006 58 10000 1.5 280 04:55 16.09.2019
1848 Mist 30 1005 74 10000 1.5 0 03:33 16.09.2019
1849 Mist 30 1005 84 10000 1.5 80 00:44 16.09.2019
1850 Mist 30 1005 84 10000 1.5 80 00:26 16.09.2019
1851 Mist 30 1005 84 10000 2.1 360 23:56 15.09.2019
1852 Mist 31 1005 79 10000 2.6 330 23:37 15.09.2019
1853 Mist 31 1005 79 10000 2.6 330 23:18 15.09.2019
1854 Mist 31 1006 79 10000 2.6 360 22:38 15.09.2019
1855 Mist 31 1006 79 10000 2.6 360 22:19 15.09.2019
1856 Haze 32 1006 79 10000 2.6 360 21:56 15.09.2019
1857 Haze 32 1006 84 10000 3.1 350 21:38 15.09.2019
1858 Haze 32 1006 84 10000 3.1 350 21:19 15.09.2019
1859 Haze 33 1006 79 10000 2.6 360 20:45 15.09.2019
1860 Haze 33 1006 79 10000 2.6 360 20:26 15.09.2019
1861 Haze 33 1006 79 10000 2.6 360 20:26 15.09.2019
1862 Haze 33 1006 79 10000 2.6 360 19:56 15.09.2019
1863 Haze 33 1006 75 10000 3.1 10 19:37 15.09.2019
1864 Haze 33 1006 70 10000 2.6 10 19:19 15.09.2019
1865 Haze 33 1006 75 10000 2.1 50 18:40 15.09.2019
1866 Haze 33 1005 70 10000 2.6 60 18:20 15.09.2019
1867 Haze 34 1005 71 10000 3.6 80 17:43 15.09.2019
1868 Haze 34 1005 71 10000 3.6 80 17:22 15.09.2019
1869 Haze 35 1005 71 9000 4.1 90 16:58 15.09.2019
1870 Haze 35 1005 71 10000 4.6 90 16:40 15.09.2019
1871 Haze 35 1005 71 10000 4.6 90 16:22 15.09.2019
1872 Haze 35 1005 71 10000 4.6 90 16:22 15.09.2019
1873 Haze 36 1005 71 10000 6.2 90 15:56 15.09.2019
1874 Haze 36 1004 67 10000 5.1 90 15:38 15.09.2019
1875 Haze 36 1004 67 10000 5.1 90 15:19 15.09.2019
1876 Haze 37 1004 50 10000 4.6 70 14:55 15.09.2019
1877 Haze 37 1004 53 10000 4.1 60 14:37 15.09.2019
1878 Haze 37 1004 53 10000 4.1 60 14:18 15.09.2019
1879 Haze 38 1004 56 10000 3.1 80 13:43 15.09.2019
1880 Haze 38 1005 56 10000 4.1 100 13:21 15.09.2019
1881 Haze 38 1005 59 10000 4.6 90 12:43 15.09.2019
1882 Haze 38 1005 59 10000 4.6 90 12:24 15.09.2019
1883 Haze 39 1006 53 10000 5.1 90 11:58 15.09.2019
1884 Haze 39 1006 44 10000 4.1 100 11:40 15.09.2019
1885 Haze 39 1006 44 10000 4.1 100 11:20 15.09.2019
1886 Haze 37 1006 53 10000 3.1 90 10:42 15.09.2019
1887 Haze 37 1006 53 10000 3.1 90 10:22 15.09.2019
1888 Haze 36 1006 53 10000 2.1 60 09:58 15.09.2019
1889 Haze 36 1007 53 10000 1.5 90 09:37 15.09.2019
1890 Haze 36 1007 53 10000 1.5 90 09:19 15.09.2019
1891 Haze 35 1007 56 10000 1.5 0 08:45 15.09.2019
1892 Haze 35 1007 56 10000 1.5 0 08:26 15.09.2019
1893 Haze 33 1007 59 10000 1.5 70 07:48 15.09.2019
1894 Haze 33 1006 59 10000 1.5 0 07:26 15.09.2019
1895 Haze 31 1006 62 10000 2.1 340 06:42 15.09.2019
1896 Mist 28 1004 70 10000 3.1 330 03:31 15.09.2019
1897 Mist 29 1004 70 10000 4.1 330 02:33 15.09.2019
1898 Haze 29 1004 70 10000 3.6 320 01:40 15.09.2019
1899 Haze 29 1004 70 10000 3.1 320 01:19 15.09.2019
1900 Haze 29 1004 70 10000 3.1 320 00:43 15.09.2019
1901 Haze 29 1004 70 10000 3.1 320 00:21 15.09.2019
1902 Haze 30 1004 70 10000 2.6 340 23:58 14.09.2019
1903 Haze 30 1004 70 10000 2.6 340 23:58 14.09.2019
1904 Haze 30 1004 70 10000 2.6 340 23:39 14.09.2019
1905 Haze 30 1004 70 10000 2.6 340 23:21 14.09.2019
1906 Haze 30 1005 70 10000 3.6 350 22:59 14.09.2019
1907 Haze 30 1005 70 10000 3.6 350 22:40 14.09.2019
1908 Haze 30 1005 70 10000 3.6 350 22:19 14.09.2019
1909 Haze 31 1005 70 10000 3.6 350 21:55 14.09.2019
1910 Haze 31 1005 70 10000 3.6 350 21:36 14.09.2019
1911 Haze 31 1005 70 10000 3.6 350 21:18 14.09.2019
1912 Haze 32 1005 66 10000 4.6 360 20:40 14.09.2019
1913 Haze 32 1005 66 10000 4.6 360 20:22 14.09.2019
1914 Haze 32 1005 66 10000 4.6 360 20:22 14.09.2019
1915 Haze 34 1005 63 10000 5.7 360 19:57 14.09.2019
1916 Haze 34 1005 63 10000 5.7 360 19:37 14.09.2019
1917 Haze 34 1004 63 10000 7.2 20 19:19 14.09.2019
1918 Haze 34 1004 63 10000 7.2 20 18:41 14.09.2019
1919 Haze 34 1004 63 10000 7.2 20 18:21 14.09.2019
1920 Haze 36 1004 59 10000 8.7 20 17:58 14.09.2019
1921 Haze 36 1004 59 10000 8.7 20 17:39 14.09.2019
1922 Haze 36 1004 59 10000 8.7 20 17:21 14.09.2019
1923 Haze 37 1003 59 10000 8.7 30 16:43 14.09.2019
1924 Haze 37 1003 59 10000 8.7 30 16:21 14.09.2019
1925 Haze 38 1003 53 10000 8.7 30 15:55 14.09.2019
1926 Haze 38 1003 53 10000 8.7 30 15:36 14.09.2019
1927 Haze 40 1003 31 10000 6.7 50 15:18 14.09.2019
1928 Haze 40 1003 31 10000 6.7 50 14:42 14.09.2019
1929 Haze 40 1003 31 10000 6.7 50 14:19 14.09.2019
1930 Haze 40 1003 39 10000 6.2 60 14:19 14.09.2019
1931 Haze 40 1003 39 10000 6.2 60 13:47 14.09.2019
1932 Haze 40 1003 39 10000 6.2 60 13:22 14.09.2019
1933 Haze 39 1004 37 10000 6.7 60 12:48 14.09.2019
1934 Haze 39 1004 37 10000 6.7 60 12:27 14.09.2019
1935 Haze 40 1004 27 10000 5.1 20 11:44 14.09.2019
1936 Haze 40 1004 27 10000 5.1 20 11:22 14.09.2019
1937 Haze 39 1005 31 10000 4.6 20 10:59 14.09.2019
1938 Haze 39 1005 31 10000 4.6 20 10:37 14.09.2019
1939 Haze 39 1005 31 10000 4.6 20 10:19 14.09.2019
1940 Clear 37 1005 30 10000 5.1 330 09:56 14.09.2019
1941 Clear 37 1005 30 10000 5.1 330 09:38 14.09.2019
1942 Haze 36 1005 30 10000 5.1 330 09:18 14.09.2019
1943 Haze 36 1006 32 10000 4.6 310 08:44 14.09.2019
1944 Haze 36 1006 32 10000 4.6 310 08:23 14.09.2019
1945 Haze 36 1006 32 10000 4.6 310 08:23 14.09.2019
1946 Haze 33 1006 49 10000 4.6 290 07:46 14.09.2019
1947 Haze 33 1006 49 10000 4.6 290 07:28 14.09.2019
1948 Haze 30 1005 58 10000 4.1 280 06:40 14.09.2019
1949 Haze 28 1005 55 10000 3.6 280 06:18 14.09.2019
1950 Haze 29 1005 55 10000 3.6 280 05:21 14.09.2019
1951 Haze 29 1004 62 10000 2.6 270 03:43 14.09.2019
1952 Haze 29 1004 62 10000 1.5 260 02:52 14.09.2019
1953 Haze 30 1004 55 10000 1.5 280 01:50 14.09.2019
1954 Haze 30 1004 55 10000 1.5 280 01:22 14.09.2019
1955 Haze 30 1004 49 10000 2.6 310 00:57 14.09.2019
1956 Haze 30 1004 49 10000 2.6 310 00:37 14.09.2019
1957 Haze 31 1005 52 10000 2.6 310 00:19 14.09.2019
1958 Haze 31 1005 52 10000 2.6 310 23:38 13.09.2019
1959 Haze 31 1005 59 10000 3.1 330 23:19 13.09.2019
1960 Haze 31 1005 52 10000 2.6 310 23:19 13.09.2019
1961 Haze 31 1005 59 10000 3.1 330 22:57 13.09.2019
1962 Haze 31 1005 59 10000 3.1 330 22:38 13.09.2019
1963 Haze 31 1005 59 10000 3.1 330 22:19 13.09.2019
1964 Haze 32 1005 62 10000 3.1 340 21:41 13.09.2019
1965 Haze 32 1005 62 10000 3.1 340 21:20 13.09.2019
1966 Haze 32 1006 59 10000 3.6 330 20:59 13.09.2019
1967 Haze 32 1006 59 10000 3.6 330 20:40 13.09.2019
1968 Haze 32 1006 59 10000 3.6 330 20:21 13.09.2019
1969 Haze 33 1005 59 10000 3.6 350 19:56 13.09.2019
1970 Haze 33 1005 59 10000 3.6 350 19:37 13.09.2019
1971 Haze 34 1005 66 10000 4.6 10 19:19 13.09.2019
1972 Haze 34 1005 66 10000 4.6 10 18:55 13.09.2019
1973 Haze 34 1005 66 10000 4.6 10 18:36 13.09.2019
1974 Haze 35 1004 63 10000 5.1 10 18:18 13.09.2019
1975 Haze 35 1004 63 10000 7.2 30 17:39 13.09.2019
1976 Haze 35 1004 63 10000 7.2 30 17:19 13.09.2019
1977 Haze 37 1003 59 10000 8.2 40 16:42 13.09.2019
1978 Haze 37 1003 59 10000 8.2 40 16:21 13.09.2019
1979 Haze 38 1003 56 10000 8.7 40 15:57 13.09.2019
1980 Haze 38 1003 56 10000 8.7 40 15:39 13.09.2019
1981 Haze 38 1003 56 10000 8.7 40 15:20 13.09.2019
1982 Haze 38 1003 56 10000 8.7 40 15:20 13.09.2019
1983 Haze 39 1003 42 10000 6.7 20 14:43 13.09.2019
1984 Haze 39 1003 42 10000 6.7 20 14:22 13.09.2019
1985 Haze 39 1003 31 10000 7.7 20 13:56 13.09.2019
1986 Haze 39 1003 39 10000 6.7 30 13:37 13.09.2019
1987 Haze 39 1003 42 10000 6.7 30 13:18 13.09.2019
1988 Haze 40 1004 38 10000 6.7 20 12:41 13.09.2019
1989 Haze 40 1004 38 10000 6.7 20 12:23 13.09.2019
1990 Haze 39 1004 37 10000 6.2 10 11:55 13.09.2019
1991 Haze 40 1004 28 10000 6.7 360 11:19 13.09.2019
1992 Haze 40 1005 24 10000 5.7 360 10:40 13.09.2019
1993 Haze 38 1005 31 10000 5.7 340 10:20 13.09.2019
1994 Haze 38 1005 31 10000 5.1 340 09:46 13.09.2019
1995 Haze 38 1005 31 10000 5.1 340 09:25 13.09.2019
1996 Haze 36 1006 33 10000 5.1 330 08:59 13.09.2019
1997 Haze 36 1006 37 10000 5.1 330 08:41 13.09.2019
1998 Haze 36 1006 37 10000 5.1 330 08:21 13.09.2019
1999 Haze 34 1006 39 10000 5.1 330 07:56 13.09.2019
2000 Haze 34 1006 47 10000 3.6 320 07:38 13.09.2019
2001 Haze 32 1005 55 10000 3.1 310 06:49 13.09.2019
2002 Haze 30 1005 55 10000 4.1 310 05:50 13.09.2019
2003 Haze 30 1004 55 10000 4.1 310 05:18 13.09.2019
2004 Haze 30 1003 62 10000 4.1 310 03:41 13.09.2019
2005 Haze 30 1003 62 10000 4.1 310 02:48 13.09.2019
2006 Haze 30 1003 62 10000 3.6 310 02:18 13.09.2019
2007 Haze 30 1003 62 10000 3.6 310 02:18 13.09.2019
2008 Haze 31 1003 59 10000 4.6 310 01:35 13.09.2019
2009 Haze 31 1003 59 10000 3.6 310 00:58 13.09.2019
2010 Haze 31 1003 55 10000 3.6 310 00:31 13.09.2019
2011 Haze 31 1004 52 10000 3.6 310 23:42 12.09.2019
2012 Haze 31 1004 52 10000 3.6 310 23:22 12.09.2019
2013 Haze 31 1004 52 10000 3.6 320 22:44 12.09.2019
2014 Haze 31 1004 52 10000 3.6 320 22:25 12.09.2019
2015 Haze 32 1004 52 10000 4.1 310 21:58 12.09.2019
2016 Haze 32 1004 55 10000 4.1 320 21:39 12.09.2019
2017 Haze 32 1004 55 10000 4.1 320 21:20 12.09.2019
2018 Haze 32 1004 52 10000 3.6 330 20:58 12.09.2019
2019 Haze 33 1004 46 10000 3.6 330 20:40 12.09.2019
2020 Haze 33 1004 46 10000 3.6 330 20:21 12.09.2019
2021 Haze 33 1004 49 10000 4.6 330 19:56 12.09.2019
2022 Haze 34 1004 41 10000 4.1 330 19:37 12.09.2019
2023 Haze 35 1004 36 10000 5.1 340 19:19 12.09.2019
2024 Haze 35 1003 37 10000 4.6 350 18:38 12.09.2019
2025 Haze 37 1003 41 10000 5.1 350 18:20 12.09.2019
2026 Haze 37 1003 41 10000 5.1 350 17:59 12.09.2019
2027 Haze 37 1003 39 10000 5.7 360 17:39 12.09.2019
2028 Haze 37 1003 39 10000 5.7 360 17:20 12.09.2019
2029 -273 0 0 0 0 0 16:43 12.09.2019
2030 Haze 37 1003 44 10000 4.6 20 16:23 12.09.2019
2031 Haze 39 1003 45 10000 4.6 10 15:59 12.09.2019
2032 Haze 39 1002 37 10000 5.1 360 15:39 12.09.2019
2033 Haze 39 1002 37 10000 5.1 360 15:21 12.09.2019
2034 Haze 40 1003 31 10000 6.7 350 14:45 12.09.2019
2035 Haze 40 1003 31 10000 6.7 350 14:21 12.09.2019
2036 Haze 40 1003 31 10000 6.7 340 13:54 12.09.2019
2037 Haze 40 1003 33 10000 5.7 340 13:36 12.09.2019
2038 Haze 39 1003 37 10000 6.2 340 13:18 12.09.2019
2039 Haze 39 1003 37 10000 6.2 340 13:18 12.09.2019
2040 Haze 39 1003 42 10000 5.7 350 12:41 12.09.2019
2041 Haze 37 1004 50 10000 5.1 360 12:18 12.09.2019
2042 Haze 37 1004 50 10000 5.1 360 11:55 12.09.2019
2043 Haze 37 1004 53 10000 4.6 360 11:36 12.09.2019
2044 Haze 37 1004 53 10000 4.6 360 11:18 12.09.2019
2045 Haze 37 1005 56 10000 4.1 360 10:43 12.09.2019
2046 Haze 37 1005 56 10000 4.1 360 10:24 12.09.2019
2047 Haze 36 1005 59 10000 5.1 360 09:44 12.09.2019
2048 Haze 36 1005 59 10000 5.1 360 09:20 12.09.2019
2049 Haze 35 1006 56 10000 5.7 360 08:57 12.09.2019
2050 Haze 35 1006 56 10000 5.7 20 08:39 12.09.2019
2051 Haze 35 1006 56 10000 5.7 20 08:21 12.09.2019
2052 Clear 33 1005 56 10000 7.7 330 07:39 12.09.2019
2053 Haze 32 1004 59 10000 5.7 330 07:19 12.09.2019
2054 Haze 32 1004 59 10000 6.2 310 06:49 12.09.2019
2055 Haze 32 1004 59 10000 6.2 310 06:19 12.09.2019
2056 Haze 31 1004 59 10000 4.1 300 05:48 12.09.2019
2057 Haze 31 1004 59 10000 4.1 300 05:27 12.09.2019
2058 Haze 30 1003 55 10000 3.6 290 04:34 12.09.2019
2059 Haze 30 1003 55 10000 3.1 310 01:48 12.09.2019
2060 Haze 31 1003 55 10000 3.1 310 01:30 12.09.2019
2061 Haze 31 1003 52 10000 3.6 310 00:58 12.09.2019
2062 Haze 31 1003 52 10000 2.6 320 00:40 12.09.2019
2063 Haze 31 1003 52 10000 2.6 320 00:22 12.09.2019
2064 Haze 31 1003 52 10000 3.1 310 23:41 11.09.2019
2065 Haze 31 1003 52 10000 3.1 310 23:20 11.09.2019
2066 Haze 32 1003 52 10000 3.1 320 22:56 11.09.2019
2067 Haze 32 1003 52 10000 2.6 310 22:37 11.09.2019
2068 Haze 32 1003 52 10000 2.6 310 22:18 11.09.2019
2069 Clear 32 1004 46 10000 4.1 330 21:42 11.09.2019
2070 Haze 33 1004 46 10000 4.1 330 21:24 11.09.2019
2071 Haze 33 1004 44 10000 4.1 340 20:57 11.09.2019
2072 Haze 33 1004 44 10000 4.1 340 20:38 11.09.2019
2073 Haze 33 1004 44 10000 4.1 340 20:19 11.09.2019
2074 Haze 34 1004 41 10000 4.6 330 19:57 11.09.2019
2075 Haze 34 1004 36 10000 4.6 340 19:39 11.09.2019
2076 Haze 34 1004 36 10000 4.6 340 19:39 11.09.2019
2077 Haze 34 1004 36 10000 4.6 340 19:39 11.09.2019
2078 Haze 35 1004 39 10000 5.1 330 19:19 11.09.2019
2079 Haze 35 1004 39 10000 5.1 330 18:56 11.09.2019
2080 Haze 35 1003 39 10000 5.7 340 18:37 11.09.2019
2081 Haze 36 1003 41 10000 5.1 350 18:19 11.09.2019
2082 Haze 36 1003 34 10000 6.2 350 17:41 11.09.2019
2083 Haze 36 1003 34 10000 6.2 350 17:22 11.09.2019
2084 Haze 37 1003 39 10000 6.2 350 16:59 11.09.2019
2085 Haze 37 1002 50 10000 7.7 350 16:40 11.09.2019
2086 Haze 37 1002 50 10000 7.7 350 16:21 11.09.2019
2087 Haze 38 1002 44 10000 7.7 360 15:47 11.09.2019
2088 Haze 38 1002 42 10000 7.7 10 15:24 11.09.2019
2089 Haze 39 1002 39 10000 8.2 10 14:59 11.09.2019
2090 Haze 38 1002 44 10000 8.2 10 14:40 11.09.2019
2091 Haze 38 1002 44 10000 8.2 10 14:20 11.09.2019
2092 Haze 39 1002 47 10000 9.3 10 13:59 11.09.2019
2093 Haze 39 1002 45 10000 8.2 10 13:37 11.09.2019
2094 Haze 39 1003 45 10000 8.7 10 13:19 11.09.2019
2095 Haze 39 1003 39 10000 8.2 10 12:42 11.09.2019
2096 Haze 39 1003 40 10000 8.2 10 12:22 11.09.2019
2097 Haze 39 1003 40 10000 8.2 10 11:58 11.09.2019
2098 Haze 39 1003 42 10000 8.2 10 11:38 11.09.2019
2099 Haze 39 1003 42 10000 8.2 10 11:20 11.09.2019
2100 -273 0 0 0 0 0 10:55 11.09.2019
2101 Haze 38 1003 42 10000 8.2 10 10:55 11.09.2019
2102 Haze 38 1004 42 10000 7.7 10 10:36 11.09.2019
2103 Haze 38 1004 45 10000 6.7 10 10:18 11.09.2019
2104 Haze 38 1004 50 10000 6.2 10 09:37 11.09.2019
2105 Haze 38 1004 50 10000 6.2 10 09:19 11.09.2019
2106 Haze 37 1004 44 10000 8.2 340 08:41 11.09.2019
2107 Haze 37 1004 44 10000 8.2 340 08:21 11.09.2019
2108 Haze 35 1004 47 10000 7.7 340 07:57 11.09.2019
2109 Haze 35 1003 53 10000 7.2 340 07:38 11.09.2019
2110 Haze 33 1003 53 10000 6.7 340 07:19 11.09.2019
2111 Haze 33 1003 59 10000 5.7 330 06:38 11.09.2019
2112 Haze 31 1003 59 10000 5.1 330 06:19 11.09.2019
2113 Haze 31 1002 59 10000 4.6 330 05:33 11.09.2019
2114 Haze 31 1002 66 10000 4.1 330 04:52 11.09.2019
2115 Haze 31 1002 66 10000 3.1 320 03:59 11.09.2019
2116 Haze 31 1001 66 10000 2.6 320 03:25 11.09.2019
2117 Haze 31 1001 62 10000 4.1 330 02:31 11.09.2019
2118 Haze 31 1001 66 10000 4.1 340 01:31 11.09.2019
2119 Haze 31 1001 66 10000 4.6 330 00:37 11.09.2019
2120 Haze 31 1001 66 10000 4.6 330 00:18 11.09.2019
2121 Haze 32 1001 59 10000 4.6 330 23:40 10.09.2019
2122 Haze 32 1001 59 10000 4.6 330 23:21 10.09.2019
2123 Haze 32 1001 59 10000 5.1 330 22:54 10.09.2019
2124 Haze 32 1001 55 10000 5.1 330 22:36 10.09.2019
2125 Haze 32 1001 55 10000 5.1 330 22:18 10.09.2019
2126 Haze 32 1001 55 10000 5.1 330 21:54 10.09.2019
2127 Haze 32 1001 55 10000 4.6 330 21:36 10.09.2019
2128 Haze 33 1001 55 10000 6.2 330 21:18 10.09.2019
2129 Haze 33 1001 55 10000 6.2 330 20:54 10.09.2019
2130 Haze 33 1001 55 10000 6.7 330 20:36 10.09.2019
2131 Haze 33 1001 55 10000 6.7 330 20:18 10.09.2019
2132 Haze 33 1001 52 10000 6.7 330 19:54 10.09.2019
2133 Haze 33 1001 49 10000 6.7 330 19:36 10.09.2019
2134 Haze 34 1001 49 10000 7.2 340 19:18 10.09.2019
2135 Haze 35 1001 47 10000 7.7 340 18:42 10.09.2019
2136 Haze 35 1001 47 10000 7.7 340 18:22 10.09.2019
2137 Haze 35 1000 50 10000 7.7 340 17:55 10.09.2019
2138 Haze 35 1000 50 10000 7.7 340 17:37 10.09.2019
2139 Haze 35 1000 50 10000 7.7 340 17:19 10.09.2019
2140 Haze 36 1000 56 10000 8.2 350 16:56 10.09.2019
2141 Haze 36 1000 50 10000 8.7 360 16:37 10.09.2019
2142 Haze 37 1000 50 10000 8.2 360 16:18 10.09.2019
2143 Haze 38 1000 47 10000 8.2 360 15:43 10.09.2019
2144 Haze 38 1000 47 10000 8.2 360 15:22 10.09.2019
2145 Haze 38 1000 47 10000 8.7 10 14:55 10.09.2019
2146 Haze 38 1000 44 10000 9.3 10 14:37 10.09.2019
2147 Haze 38 1000 44 10000 9.3 10 14:19 10.09.2019
2148 Haze 39 1000 42 10000 9.3 10 13:44 10.09.2019
2149 Haze 39 1000 42 10000 9.3 10 13:22 10.09.2019
2150 Haze 39 1000 42 10000 9.3 360 12:51 10.09.2019
2151 Haze 39 1000 42 10000 9.8 10 12:28 10.09.2019
2152 Haze 39 1001 45 10000 10.3 360 11:59 10.09.2019
2153 Clear 37 1001 45 10000 9.3 360 11:40 10.09.2019
2154 Haze 38 1001 50 10000 8.7 360 11:21 10.09.2019
2155 Haze 38 1002 53 10000 7.7 360 10:43 10.09.2019
2156 Haze 38 1002 53 10000 7.7 360 10:21 10.09.2019
2157 Haze 37 1002 50 10000 8.2 360 09:59 10.09.2019
2158 Haze 37 1002 47 10000 7.7 350 09:41 10.09.2019
2159 Haze 36 1002 47 10000 8.2 350 09:19 10.09.2019
2160 Haze 36 1002 47 10000 8.2 350 09:19 10.09.2019
2161 Haze 36 1002 50 10000 6.7 330 08:47 10.09.2019
2162 Haze 36 1002 50 10000 6.7 330 08:29 10.09.2019
2163 Haze 35 1002 53 10000 6.2 330 07:56 10.09.2019
2164 Haze 34 1002 56 10000 5.1 330 07:37 10.09.2019
2165 Haze 32 1002 63 10000 4.6 310 07:19 10.09.2019
2166 Haze 32 1002 63 10000 4.1 310 06:39 10.09.2019
2167 Haze 32 1002 63 10000 4.1 310 06:39 10.09.2019
2168 Haze 31 1001 59 10000 3.6 320 06:19 10.09.2019
2169 Haze 31 1000 55 10000 3.1 310 04:19 10.09.2019
2170 Haze 31 1000 52 10000 3.6 310 02:38 10.09.2019
2171 Haze 31 1000 52 10000 3.6 310 02:38 10.09.2019
2172 Haze 31 1000 46 10000 3.1 310 02:20 10.09.2019
2173 Haze 31 1000 46 10000 3.1 310 02:20 10.09.2019
2174 Haze 31 1000 46 10000 3.6 310 01:50 10.09.2019
2175 Haze 31 1000 46 10000 3.6 310 01:50 10.09.2019
2176 Haze 31 1000 46 10000 3.6 310 01:50 10.09.2019
2177 Haze 31 1000 46 10000 3.6 310 01:50 10.09.2019
2178 Haze 31 1000 46 10000 3.6 310 01:50 10.09.2019
2179 Haze 31 1000 46 10000 3.1 320 01:22 10.09.2019
2180 Clear 32 1000 46 10000 3.6 320 00:36 10.09.2019
2181 Clear 32 1000 46 10000 3.6 320 00:36 10.09.2019
2182 Haze 32 1001 46 10000 3.1 310 23:56 09.09.2019
2183 Haze 32 1001 46 10000 3.1 330 23:36 09.09.2019
2184 Haze 32 1001 46 10000 3.1 330 23:18 09.09.2019
2185 Haze 32 1001 46 10000 3.1 330 22:54 09.09.2019
2186 Haze 32 1001 46 10000 3.6 330 22:36 09.09.2019
2187 Haze 33 1001 46 10000 4.1 340 22:18 09.09.2019
2188 Haze 33 1001 46 10000 4.1 340 21:55 09.09.2019
2189 Haze 33 1001 41 10000 4.1 330 21:36 09.09.2019
2190 Haze 33 1001 41 10000 5.7 330 21:18 09.09.2019
2191 Haze 33 1001 41 10000 5.7 330 20:54 09.09.2019
2192 Haze 33 1001 38 10000 4.6 330 20:36 09.09.2019
2193 Haze 34 1001 34 10000 5.1 330 20:18 09.09.2019
2194 Haze 34 1001 36 10000 5.1 340 19:55 09.09.2019
2195 Haze 34 1001 36 10000 5.1 340 19:36 09.09.2019
2196 Haze 35 1002 28 9000 3.6 340 19:18 09.09.2019
2197 Haze 35 1002 28 9000 3.6 340 19:18 09.09.2019
2198 Haze 35 1000 30 10000 4.6 330 18:41 09.09.2019
2199 Haze 37 1000 25 10000 5.7 330 18:22 09.09.2019
2200 Haze 37 1000 25 10000 5.7 330 17:59 09.09.2019
2201 Haze 37 1000 23 10000 6.2 320 17:41 09.09.2019
2202 Haze 38 1000 24 10000 6.7 320 17:21 09.09.2019
2203 Haze 38 1000 24 10000 6.7 320 16:57 09.09.2019
2204 Haze 38 1000 26 10000 6.7 310 16:39 09.09.2019
2205 Haze 40 999 23 10000 6.7 320 16:20 09.09.2019
2206 Haze 40 999 23 10000 6.7 320 15:56 09.09.2019
2207 Haze 40 999 21 10000 7.2 320 15:37 09.09.2019
2208 Haze 41 999 18 10000 7.7 330 15:19 09.09.2019
2209 Haze 41 999 18 10000 7.7 330 14:57 09.09.2019
2210 Haze 41 999 20 10000 5.7 310 14:38 09.09.2019
2211 Haze 41 999 20 10000 5.7 300 14:19 09.09.2019
2212 Haze 41 999 20 10000 6.7 320 13:45 09.09.2019
2213 Haze 41 1000 20 10000 6.7 320 13:21 09.09.2019
2214 Haze 41 1000 20 10000 6.7 320 12:58 09.09.2019
2215 Haze 41 1000 20 10000 6.7 320 12:58 09.09.2019
2216 Haze 41 1000 26 10000 5.1 330 12:40 09.09.2019
2217 Haze 41 1000 26 10000 5.1 330 12:40 09.09.2019
2218 Haze 40 1000 24 10000 8.7 350 12:20 09.09.2019
2219 Haze 40 1001 31 10000 8.2 360 11:48 09.09.2019
2220 Haze 40 1001 31 10000 8.2 360 11:24 09.09.2019
2221 Haze 40 1001 28 10000 6.7 340 10:59 09.09.2019
2222 Haze 40 1001 28 10000 5.1 330 10:41 09.09.2019
2223 Haze 40 1001 28 10000 5.1 330 10:21 09.09.2019
2224 Haze 39 1001 29 10000 5.1 310 09:57 09.09.2019
2225 Haze 39 1001 29 10000 5.1 310 09:57 09.09.2019
2226 Haze 39 1002 33 10000 4.6 300 09:38 09.09.2019
2227 Haze 37 1002 35 10000 5.1 320 09:19 09.09.2019
2228 Haze 37 1002 37 10000 4.6 290 08:39 09.09.2019
2229 Haze 36 1002 37 10000 4.1 290 08:20 09.09.2019
2230 Haze 35 1002 44 10000 4.1 280 07:48 09.09.2019
2231 Haze 33 1002 56 10000 4.1 280 07:23 09.09.2019
2232 Haze 33 1002 56 10000 4.1 280 06:58 09.09.2019
2233 Haze 33 1002 56 10000 2.6 260 06:40 09.09.2019
2234 Haze 30 1001 62 10000 3.1 240 04:56 09.09.2019
2235 Haze 30 1001 62 10000 3.1 240 04:56 09.09.2019
2236 Haze 31 1000 52 10000 2.1 250 02:59 09.09.2019
2237 Haze 31 1000 52 10000 1.5 250 02:39 09.09.2019
2238 Haze 32 1000 41 10000 1.5 290 00:50 09.09.2019
2239 Haze 32 1000 41 10000 1.5 290 00:22 09.09.2019
2240 Haze 33 1000 41 10000 2.1 320 23:46 08.09.2019
2241 Haze 34 1000 36 10000 3.1 330 23:24 08.09.2019
2242 Haze 34 1000 36 10000 3.1 330 22:57 08.09.2019
2243 Haze 33 1001 41 10000 3.1 340 22:38 08.09.2019
2244 Haze 34 1001 38 10000 3.6 330 22:20 08.09.2019
2245 Haze 34 1001 36 10000 3.6 340 21:42 08.09.2019
2246 Haze 34 1001 36 10000 3.6 340 21:42 08.09.2019
2247 Haze 34 1001 36 10000 3.6 340 21:23 08.09.2019
2248 Haze 34 1001 34 10000 4.1 340 20:59 08.09.2019
2249 -273 0 0 0 0 0 20:40 08.09.2019
2250 Haze 34 1001 30 10000 4.1 330 20:22 08.09.2019
2251 Haze 35 1001 28 10000 4.6 330 19:59 08.09.2019
2252 Haze 35 1001 32 10000 4.6 330 19:38 08.09.2019
2253 Haze 37 1001 32 10000 5.1 340 19:20 08.09.2019
2254 Haze 37 1001 32 10000 5.1 340 18:57 08.09.2019
2255 Haze 37 1000 30 10000 5.1 340 18:38 08.09.2019
2256 Haze 38 1000 29 10000 5.7 340 18:19 08.09.2019
2257 Haze 38 1000 29 10000 5.7 340 17:56 08.09.2019
2258 Haze 38 1000 29 10000 6.7 340 17:37 08.09.2019
2259 Clear 39 1000 27 10000 7.7 340 17:18 08.09.2019
2260 Clear 39 999 26 10000 8.2 350 16:45 08.09.2019
2261 Haze 40 999 28 10000 8.7 350 16:22 08.09.2019
2262 Haze 40 999 28 10000 8.7 350 15:59 08.09.2019
2263 Haze 40 999 33 10000 8.7 360 15:41 08.09.2019
2264 Haze 40 999 31 10000 8.7 360 15:21 08.09.2019
2265 Haze 40 999 31 10000 8.7 360 14:57 08.09.2019
2266 Haze 40 999 33 10000 8.7 360 14:39 08.09.2019
2267 Haze 40 999 33 10000 8.7 360 14:20 08.09.2019
2268 Haze 41 999 26 10000 9.8 360 13:56 08.09.2019
2269 Haze 41 999 30 10000 8.2 360 13:37 08.09.2019
2270 Haze 41 999 35 10000 8.7 10 13:19 08.09.2019
2271 Haze 41 999 32 10000 8.2 10 12:42 08.09.2019
2272 Haze 41 999 32 10000 8.2 10 12:42 08.09.2019
2273 Haze 41 1000 32 10000 7.7 10 12:23 08.09.2019
2274 Haze 41 1000 32 10000 7.7 10 11:58 08.09.2019
2275 Haze 41 1000 26 10000 7.7 10 11:40 08.09.2019
2276 Haze 40 1000 30 10000 7.7 360 11:20 08.09.2019
2277 Haze 40 1000 30 10000 7.7 360 10:58 08.09.2019
2278 Haze 40 1001 28 10000 8.2 360 10:40 08.09.2019
2279 Clear 40 1001 33 10000 6.2 350 10:21 08.09.2019
2280 Clear 40 1001 32 10000 6.2 340 09:39 08.09.2019
2281 Haze 39 1001 33 10000 5.1 330 09:21 08.09.2019
2282 Haze 39 1001 33 10000 5.1 330 08:57 08.09.2019
2283 Haze 38 1001 35 10000 5.7 330 08:38 08.09.2019
2284 Haze 37 1001 39 10000 4.1 320 08:18 08.09.2019
2285 Haze 36 1001 44 10000 4.6 320 07:39 08.09.2019
2286 Haze 35 1001 44 10000 3.6 320 07:20 08.09.2019
2287 Haze 35 1001 47 10000 3.6 300 06:53 08.09.2019
2288 Haze 35 1001 47 10000 3.6 300 06:31 08.09.2019
2289 Haze 35 1001 47 10000 3.6 300 06:31 08.09.2019
2290 Haze 33 1000 47 10000 3.6 310 05:38 08.09.2019
2291 Haze 33 999 41 10000 4.1 300 03:56 08.09.2019
2292 Haze 33 999 41 10000 4.1 300 02:59 08.09.2019
2293 Haze 33 999 37 10000 4.1 310 02:26 08.09.2019
2294 Haze 34 999 34 10000 3.1 300 01:49 08.09.2019
2295 Haze 34 999 34 10000 3.1 300 01:22 08.09.2019
2296 Haze 34 999 34 10000 3.1 300 00:45 08.09.2019
2297 Haze 34 999 34 10000 3.1 300 00:26 08.09.2019
2298 Haze 34 1000 29 10000 3.1 310 23:38 07.09.2019
2299 Haze 35 1000 30 10000 4.1 330 23:20 07.09.2019
2300 Haze 35 1000 30 10000 4.1 330 22:57 07.09.2019
2301 Haze 35 1000 27 10000 5.1 330 22:39 07.09.2019
2302 Haze 35 1000 29 10000 5.1 330 22:20 07.09.2019
2303 Haze 35 1000 29 10000 5.1 330 22:20 07.09.2019
2304 Haze 35 1000 27 10000 4.6 330 21:42 07.09.2019
2305 Haze 35 1000 27 10000 4.6 330 21:24 07.09.2019
2306 Haze 36 1001 25 10000 4.1 320 20:57 07.09.2019
2307 Haze 36 1000 29 10000 4.6 310 20:38 07.09.2019
2308 Haze 37 1000 27 10000 4.6 310 20:19 07.09.2019
2309 Haze 37 1000 27 10000 4.6 310 19:55 07.09.2019
2310 Haze 37 1000 22 10000 4.6 320 19:37 07.09.2019
2311 Haze 38 1000 20 10000 3.6 320 19:18 07.09.2019
2312 Haze 38 999 20 10000 4.6 330 18:55 07.09.2019
2313 -273 0 0 0 0 0 18:55 07.09.2019
2314 Haze 38 999 20 10000 4.6 330 18:36 07.09.2019
2315 Haze 39 999 20 10000 4.6 330 18:18 07.09.2019
2316 Haze 39 999 20 10000 4.6 330 17:55 07.09.2019
2317 Clear 39 999 20 10000 6.2 330 17:55 07.09.2019
2318 Haze 41 999 20 10000 6.2 330 17:36 07.09.2019
2319 Haze 41 998 24 10000 7.2 340 17:18 07.09.2019
2320 Haze 41 998 24 10000 7.2 340 16:43 07.09.2019
2321 Haze 41 998 24 10000 7.2 340 16:43 07.09.2019
2322 Haze 41 998 24 10000 7.2 340 16:21 07.09.2019
2323 Haze 42 998 22 10000 7.7 340 15:55 07.09.2019
2324 Haze 42 998 22 10000 7.7 340 15:55 07.09.2019
2325 Haze 42 998 22 10000 8.7 340 15:36 07.09.2019
2326 Haze 43 998 22 10000 8.7 340 15:18 07.09.2019
2327 Haze 43 998 22 10000 8.7 340 14:54 07.09.2019
2328 Haze 43 998 22 10000 8.7 340 14:54 07.09.2019
2329 Haze 43 998 23 10000 9.3 340 14:36 07.09.2019
2330 Haze 43 998 22 10000 9.3 340 14:18 07.09.2019
2331 Haze 43 998 23 10000 9.3 350 13:43 07.09.2019
2332 Haze 43 998 23 10000 9.3 350 13:25 07.09.2019
2333 Haze 43 998 32 10000 8.2 350 12:46 07.09.2019
2334 Haze 43 998 32 10000 8.2 350 12:26 07.09.2019
2335 Haze 43 998 28 10000 7.2 360 11:59 07.09.2019
2336 Haze 43 999 34 10000 6.7 360 11:40 07.09.2019
2337 Haze 43 999 34 10000 6.7 360 11:20 07.09.2019
2338 Haze 43 999 27 10000 7.2 350 10:41 07.09.2019
2339 Haze 43 999 27 10000 7.2 350 10:41 07.09.2019
2340 Haze 42 999 30 10000 7.7 350 10:22 07.09.2019
2341 Haze 42 999 30 10000 7.7 350 09:57 07.09.2019
2342 Haze 42 999 32 10000 7.7 350 09:39 07.09.2019
2343 Haze 40 999 34 10000 6.7 330 09:20 07.09.2019
2344 Haze 40 999 34 10000 6.7 330 09:20 07.09.2019
2345 Haze 40 999 34 10000 6.7 340 08:44 07.09.2019
2346 Haze 40 999 34 10000 6.7 340 08:26 07.09.2019
2347 Haze 37 999 42 10000 5.7 320 07:48 07.09.2019
2348 Haze 37 999 42 10000 5.7 320 07:28 07.09.2019
2349 Haze 35 999 56 10000 4.6 300 06:53 07.09.2019
2350 Mist 32 999 63 10000 3.6 290 06:21 07.09.2019
2351 Mist 32 999 59 10000 3.1 290 05:31 07.09.2019
2352 Fog 32 998 70 10000 2.1 270 04:23 07.09.2019
2353 Mist 32 997 75 10000 1.5 270 02:52 07.09.2019
2354 Haze 32 998 70 10000 2.6 290 02:20 07.09.2019
2355 Haze 32 997 75 10000 2.1 260 01:26 07.09.2019
2356 Haze 33 998 71 10000 1.5 300 00:44 07.09.2019
2357 Mist 33 998 70 10000 1.5 350 00:21 07.09.2019
2358 Mist 33 998 79 10000 2.1 340 23:43 06.09.2019
2359 Mist 33 998 79 10000 2.1 340 23:22 06.09.2019
2360 Mist 33 998 79 10000 2.1 340 23:22 06.09.2019
2361 Haze 34 999 75 10000 1 20 22:58 06.09.2019
2362 Haze 34 999 75 10000 1 40 22:39 06.09.2019
2363 Haze 34 999 75 10000 1.5 20 22:19 06.09.2019
2364 Haze 34 999 75 10000 1.5 20 21:58 06.09.2019
2365 Haze 34 999 75 10000 1.5 20 21:58 06.09.2019
2366 Clear 34 999 71 10000 2.1 350 21:39 06.09.2019
2367 Haze 35 999 67 10000 3.6 350 21:21 06.09.2019
2368 Haze 35 999 67 10000 3.6 350 20:58 06.09.2019
2369 Haze 35 999 63 10000 4.1 350 20:39 06.09.2019
2370 Haze 35 999 63 10000 4.1 350 20:21 06.09.2019
2371 Haze 35 999 67 10000 3.1 360 19:57 06.09.2019
2372 Haze 35 999 67 10000 2.6 360 19:39 06.09.2019
2373 Haze 36 999 67 10000 2.6 10 19:20 06.09.2019
2374 Haze 36 999 67 10000 2.1 30 18:47 06.09.2019
2375 Haze 36 999 67 10000 2.1 30 18:27 06.09.2019
2376 Haze 36 998 67 9000 2.1 30 17:59 06.09.2019
2377 Haze 36 998 67 9000 2.1 30 17:59 06.09.2019
2378 Haze 36 998 63 9000 2.6 50 17:38 06.09.2019
2379 Haze 38 998 63 9000 3.1 80 17:19 06.09.2019
2380 Haze 38 998 63 10000 3.1 90 16:42 06.09.2019
2381 Haze 38 998 30 9000 4.6 110 16:19 06.09.2019
2382 Haze 38 998 30 9000 4.6 110 15:56 06.09.2019
2383 Haze 39 998 56 10000 3.1 100 15:38 06.09.2019
2384 Haze 39 998 53 10000 3.6 90 15:20 06.09.2019
2385 Haze 39 998 56 10000 3.6 90 14:39 06.09.2019
2386 Haze 40 998 40 10000 3.6 100 14:18 06.09.2019
2387 Haze 40 998 42 10000 3.1 90 13:43 06.09.2019
2388 Haze 40 998 42 10000 3.1 90 13:22 06.09.2019
2389 Haze 40 999 45 10000 4.1 110 12:41 06.09.2019
2390 Haze 41 999 40 10000 5.1 100 12:23 06.09.2019
2391 Haze 41 999 40 10000 5.1 100 11:58 06.09.2019
2392 Haze 41 999 35 10000 4.1 80 11:40 06.09.2019
2393 Haze 39 1000 40 10000 5.1 100 11:21 06.09.2019
2394 Haze 39 1000 33 10000 2.1 360 10:43 06.09.2019
2395 Haze 39 1000 33 10000 2.1 360 10:22 06.09.2019
2396 Haze 38 1000 37 10000 1.5 20 09:58 06.09.2019
2397 Haze 38 1000 42 10000 1.5 360 09:37 06.09.2019
2398 Haze 35 1000 50 10000 2.1 20 09:19 06.09.2019
2399 Haze 35 1000 63 10000 2.1 10 08:45 06.09.2019
2400 Haze 35 1000 63 10000 2.1 10 08:26 06.09.2019
2401 Haze 33 1000 63 10000 2.6 360 07:51 06.09.2019
2402 Haze 33 1000 71 10000 2.1 10 07:28 06.09.2019
2403 Haze 32 1000 75 10000 2.1 20 06:59 06.09.2019
2404 Clouds 32 1000 79 10000 1.5 360 06:41 06.09.2019
2405 Haze 30 999 79 10000 2.1 320 05:47 06.09.2019
2406 Haze 30 999 79 10000 3.1 330 04:55 06.09.2019
2407 Haze 30 999 79 10000 1.5 340 04:25 06.09.2019
2408 Haze 30 998 79 10000 2.1 330 02:46 06.09.2019
2409 Haze 31 998 79 10000 3.1 330 00:58 06.09.2019
2410 Haze 31 999 79 10000 3.6 340 00:22 06.09.2019
2411 Haze 31 999 79 10000 3.1 320 23:41 05.09.2019
2412 Haze 31 999 79 10000 3.1 320 23:22 05.09.2019
2413 Clear 32 999 70 10000 3.1 330 22:46 05.09.2019
2414 Clear 32 999 70 10000 3.1 330 22:46 05.09.2019
2415 Haze 32 999 70 10000 3.1 330 22:26 05.09.2019
2416 Haze 32 999 70 10000 4.1 340 21:58 05.09.2019
2417 Clear 32 999 70 10000 4.6 340 21:39 05.09.2019
2418 Haze 34 1000 67 10000 4.1 330 21:20 05.09.2019
2419 Haze 34 1000 67 10000 4.1 330 21:20 05.09.2019
2420 Haze 34 1000 67 10000 4.1 330 20:58 05.09.2019
2421 Clear 33 1000 67 10000 5.1 340 20:39 05.09.2019
2422 Haze 35 999 63 10000 4.6 330 20:20 05.09.2019
2423 Haze 35 999 63 10000 4.6 330 19:57 05.09.2019
2424 Haze 35 999 67 10000 5.1 330 19:39 05.09.2019
2425 Haze 36 999 67 10000 5.7 340 19:20 05.09.2019
2426 Haze 36 999 63 10000 4.6 10 18:45 05.09.2019
2427 Haze 36 999 63 10000 4.6 10 18:27 05.09.2019
2428 Haze 36 999 63 10000 4.6 10 17:59 05.09.2019
2429 Clear 35 999 67 10000 4.6 10 17:39 05.09.2019
2430 Clear 35 999 67 10000 4.6 10 17:39 05.09.2019
2431 Clear 35 999 67 10000 4.6 10 17:39 05.09.2019
2432 Haze 37 999 67 10000 4.6 10 17:21 05.09.2019
2433 Haze 37 998 60 10000 5.1 20 16:57 05.09.2019
2434 Haze 37 998 60 10000 5.1 20 16:57 05.09.2019
2435 Haze 37 998 63 10000 4.1 20 16:39 05.09.2019
2436 Haze 39 998 53 10000 5.7 20 16:18 05.09.2019
2437 Haze 39 998 50 10000 5.1 10 15:40 05.09.2019
2438 Haze 40 998 40 10000 4.6 360 15:19 05.09.2019
2439 Haze 40 998 40 10000 4.6 360 15:19 05.09.2019
2440 Haze 40 998 40 10000 4.6 360 15:19 05.09.2019
2441 Haze 40 998 40 10000 4.6 360 14:57 05.09.2019
2442 Haze 40 998 40 10000 4.6 360 14:57 05.09.2019
2443 Haze 40 998 40 10000 4.1 360 14:38 05.09.2019
2444 Haze 40 998 50 10000 3.6 20 14:18 05.09.2019
2445 Haze 40 998 50 10000 4.1 30 13:43 05.09.2019
2446 Haze 40 998 42 10000 4.1 20 13:21 05.09.2019
2447 Haze 40 999 45 10000 3.6 30 12:46 05.09.2019
2448 Haze 40 999 45 10000 3.6 30 12:26 05.09.2019
2449 Clear 38 999 48 10000 3.6 10 11:58 05.09.2019
2450 Clear 38 999 45 10000 4.6 40 11:39 05.09.2019
2451 Haze 40 1000 45 10000 4.6 40 11:18 05.09.2019
2452 Haze 40 1000 40 10000 4.1 20 10:42 05.09.2019
2453 Haze 39 1000 42 10000 3.6 30 10:22 05.09.2019
2454 Haze 39 1000 42 10000 3.6 30 10:22 05.09.2019
2455 Haze 39 1000 42 10000 3.6 30 09:58 05.09.2019
2456 Haze 39 1000 42 10000 3.6 30 09:58 05.09.2019
2457 Haze 39 1000 42 10000 4.1 350 09:39 05.09.2019
2458 Clear 38 1000 35 10000 4.1 340 09:18 05.09.2019
2459 Clear 38 1000 35 10000 4.1 340 09:18 05.09.2019
2460 Clear 38 1000 35 10000 4.1 340 09:18 05.09.2019
2461 Clear 37 1000 47 10000 4.1 340 08:45 05.09.2019
2462 Haze 37 1000 47 10000 4.1 340 08:26 05.09.2019
2463 Haze 36 1000 50 10000 4.1 320 07:46 05.09.2019
2464 Haze 36 1000 50 10000 4.1 320 07:27 05.09.2019
2465 Haze 35 1000 50 10000 3.6 310 06:57 05.09.2019
2466 Haze 35 1000 53 10000 3.6 310 06:31 05.09.2019
2467 Haze 33 999 59 10000 3.6 310 05:50 05.09.2019
2468 Haze 33 999 59 10000 3.6 310 05:30 05.09.2019
2469 Haze 32 999 56 10000 3.6 310 04:50 05.09.2019
2470 Haze 32 999 56 10000 3.1 300 04:25 05.09.2019
2471 Haze 32 998 56 10000 2.6 290 03:38 05.09.2019
2472 Haze 32 998 56 10000 3.1 280 02:46 05.09.2019
2473 Haze 32 998 56 10000 3.1 280 02:26 05.09.2019
2474 Haze 33 998 50 10000 3.6 300 01:37 05.09.2019
2475 Haze 33 998 44 10000 3.1 310 00:44 05.09.2019
2476 Haze 33 999 47 10000 3.1 310 00:21 05.09.2019
2477 -273 0 0 0 0 0 23:55 04.09.2019
2478 Haze 33 999 49 10000 2.6 330 23:36 04.09.2019
2479 Haze 33 999 49 10000 3.1 340 23:18 04.09.2019
2480 Haze 33 999 47 10000 3.6 330 22:40 04.09.2019
2481 Haze 34 999 47 10000 3.1 330 22:19 04.09.2019
2482 Haze 34 999 47 10000 3.6 340 21:40 04.09.2019
2483 Haze 34 999 47 10000 3.6 340 21:20 04.09.2019
2484 Haze 35 1000 44 10000 3.6 340 20:57 04.09.2019
2485 Haze 35 1000 39 10000 4.6 340 20:39 04.09.2019
2486 Haze 36 999 37 10000 5.7 330 20:19 04.09.2019
2487 Haze 36 999 37 10000 5.7 330 19:56 04.09.2019
2488 Haze 36 999 29 10000 7.2 340 19:38 04.09.2019
2489 Haze 36 999 29 10000 7.2 340 19:38 04.09.2019
2490 Haze 37 1000 23 9000 5.1 330 19:19 04.09.2019
2491 Haze 38 998 22 10000 6.2 330 18:38 04.09.2019
2492 Haze 38 1000 16 9000 6.2 340 18:20 04.09.2019
2493 Haze 38 998 50 10000 6.7 350 17:54 04.09.2019
2494 Haze 38 998 50 10000 6.7 350 17:36 04.09.2019
2495 Haze 39 998 45 10000 7.2 360 17:18 04.09.2019
2496 Haze 40 998 40 10000 7.2 360 16:42 04.09.2019
2497 Haze 40 998 40 10000 7.2 360 16:24 04.09.2019
2498 Haze 41 998 37 10000 6.7 10 15:56 04.09.2019
2499 Haze 41 997 33 10000 6.7 360 15:38 04.09.2019
2500 Haze 42 997 38 10000 5.7 360 15:20 04.09.2019
2501 Haze 41 997 38 10000 5.7 360 14:55 04.09.2019
2502 Haze 41 997 38 10000 5.1 20 14:36 04.09.2019
2503 Haze 43 998 32 10000 5.7 20 14:18 04.09.2019
2504 Haze 42 998 36 10000 5.1 20 13:40 04.09.2019
2505 Haze 42 998 36 10000 6.2 20 13:21 04.09.2019
2506 Haze 42 998 36 10000 6.2 20 12:57 04.09.2019
2507 Haze 42 998 34 10000 5.7 10 12:38 04.09.2019
2508 Haze 41 999 9 9000 10.3 360 12:19 04.09.2019
2509 Haze 42 999 36 10000 5.7 10 11:41 04.09.2019
2510 Haze 42 999 30 10000 6.2 360 11:21 04.09.2019
2511 Haze 42 999 30 10000 6.2 360 10:59 04.09.2019
2512 Haze 42 999 35 10000 4.6 20 10:41 04.09.2019
2513 Haze 41 1000 35 10000 4.6 350 10:23 04.09.2019
2514 Haze 41 1000 35 10000 4.6 350 09:46 04.09.2019
2515 Haze 41 1000 35 10000 4.6 350 09:27 04.09.2019
2516 Haze 38 1000 42 10000 3.1 340 08:59 04.09.2019
2517 Haze 38 1000 42 10000 3.1 340 08:40 04.09.2019
2518 Mist 36 1000 50 10000 1.5 250 08:21 04.09.2019
2519 Mist 36 1000 50 10000 1.5 250 07:46 04.09.2019
2520 Mist 36 1000 50 10000 1.5 250 07:28 04.09.2019
2521 Mist 32 1000 59 6000 2.1 300 06:39 04.09.2019
2522 Haze 30 998 66 5000 1 0 05:19 04.09.2019
2523 Haze 30 998 66 5000 1 0 04:51 04.09.2019
2524 Mist 31 998 66 7000 1 0 03:45 04.09.2019
2525 Mist 32 998 55 8000 1.5 350 01:27 04.09.2019
2526 Mist 32 998 63 7000 1.5 320 00:50 04.09.2019
2527 Mist 32 998 63 7000 1.5 320 00:32 04.09.2019
2528 Haze 32 999 70 5000 2.6 310 23:54 03.09.2019
2529 Haze 32 999 70 5000 2.6 310 23:28 03.09.2019
2530 Haze 33 999 75 5000 1.5 320 22:58 03.09.2019
2531 Haze 33 999 75 5000 1.5 320 22:39 03.09.2019
2532 Haze 34 999 70 5000 2.1 350 22:21 03.09.2019
2533 Haze 34 999 70 5000 2.1 350 21:56 03.09.2019
2534 Haze 34 999 70 5000 2.1 350 21:36 03.09.2019
2535 Haze 34 999 71 5000 3.6 10 21:18 03.09.2019
2536 Haze 34 999 71 5000 3.6 10 20:42 03.09.2019
2537 Haze 35 999 71 5000 2.1 50 20:24 03.09.2019
2538 Haze 35 999 71 5000 2.1 50 19:56 03.09.2019
2539 Haze 35 999 71 5000 2.1 50 19:38 03.09.2019
2540 Haze 35 999 71 5000 3.1 40 19:18 03.09.2019
2541 Haze 35 999 71 5000 3.1 40 18:44 03.09.2019
2542 Haze 34 1000 63 8000 2.6 50 18:26 03.09.2019
2543 Haze 34 1000 63 8000 2.6 50 17:58 03.09.2019
2544 Haze 35 998 71 3500 3.6 50 17:40 03.09.2019
2545 Haze 38 998 67 3500 5.7 70 17:19 03.09.2019
2546 Haze 38 998 67 3500 5.7 70 16:56 03.09.2019
2547 Haze 38 998 67 3500 5.7 70 16:37 03.09.2019
2548 Haze 38 998 63 4500 4.6 40 16:19 03.09.2019
2549 Haze 38 998 63 4500 4.6 40 15:40 03.09.2019
2550 Haze 39 998 60 4500 4.1 40 15:21 03.09.2019
2551 Haze 39 998 60 4500 4.1 40 14:58 03.09.2019
2552 Haze 39 998 60 4500 4.1 40 14:40 03.09.2019
2553 Haze 39 998 56 4500 4.1 50 14:20 03.09.2019
2554 Haze 39 998 56 4500 4.1 50 14:20 03.09.2019
2555 Haze 39 998 56 4500 4.1 50 13:56 03.09.2019
2556 Haze 39 998 56 4500 4.1 50 13:37 03.09.2019
2557 Haze 39 999 56 5000 3.6 80 13:19 03.09.2019
2558 Haze 39 999 56 5000 3.6 80 13:19 03.09.2019
2559 Haze 39 999 56 5000 3.6 80 12:49 03.09.2019
2560 Haze 39 999 56 5000 3.6 80 12:30 03.09.2019
2561 Haze 38 1000 28 9000 2.1 110 11:59 03.09.2019
2562 Haze 38 999 60 8000 4.1 100 11:39 03.09.2019
2563 Haze 37 1000 63 10000 3.6 100 11:20 03.09.2019
2564 Haze 37 1000 63 10000 3.6 100 10:55 03.09.2019
2565 Haze 37 1000 63 10000 3.6 100 10:37 03.09.2019
2566 Haze 36 1000 63 10000 4.1 90 10:18 03.09.2019
2567 Haze 36 1000 63 10000 4.1 90 09:42 03.09.2019
2568 Haze 35 1001 67 10000 4.1 80 09:24 03.09.2019
2569 Haze 35 1001 67 10000 4.1 80 08:44 03.09.2019
2570 Haze 35 1001 67 10000 4.1 80 08:26 03.09.2019
2571 Haze 34 1001 71 10000 3.1 40 07:58 03.09.2019
2572 Haze 34 1001 71 10000 3.1 40 07:39 03.09.2019
2573 Clouds 33 1000 71 10000 1.5 40 07:21 03.09.2019
2574 Clouds 33 1000 71 10000 1.5 40 06:43 03.09.2019
2575 Mist 31 1000 79 10000 2.1 10 05:36 03.09.2019
2576 Haze 31 999 79 10000 3.1 340 03:34 03.09.2019
2577 Haze 31 999 79 10000 3.6 340 02:43 03.09.2019
2578 Haze 32 998 79 10000 2.6 340 02:23 03.09.2019
2579 Haze 32 998 79 10000 2.6 340 01:47 03.09.2019
2580 Haze 32 998 79 10000 2.6 340 01:28 03.09.2019
2581 Haze 32 999 75 10000 3.6 340 00:40 03.09.2019
2582 Haze 32 999 75 10000 3.1 340 00:18 03.09.2019
2583 Haze 32 999 75 10000 3.1 340 23:39 02.09.2019
2584 Haze 33 999 63 9000 4.1 340 23:20 02.09.2019
2585 Haze 33 999 63 9000 4.1 340 23:20 02.09.2019
2586 Haze 33 999 63 9000 4.1 340 22:56 02.09.2019
2587 Haze 33 999 63 9000 4.1 340 22:56 02.09.2019
2588 Haze 33 999 63 9000 4.1 340 22:37 02.09.2019
2589 Clouds 34 999 71 6000 5.1 340 22:19 02.09.2019
2590 Clouds 34 999 71 6000 5.1 340 21:56 02.09.2019
2591 Clouds 34 999 71 6000 5.1 340 21:37 02.09.2019
2592 Haze 35 999 75 6000 3.6 360 21:19 02.09.2019
2593 Haze 35 999 75 6000 3.6 360 20:54 02.09.2019
2594 Haze 35 999 75 6000 3.6 360 20:36 02.09.2019
2595 Haze 34 1001 44 8000 3.1 310 20:18 02.09.2019
2596 Haze 35 999 75 7000 1.5 10 19:54 02.09.2019
2597 Haze 35 999 75 7000 1.5 10 19:36 02.09.2019
2598 Haze 35 1001 39 8000 2.1 320 19:18 02.09.2019
2599 Mist 36 999 75 7000 1.5 20 18:37 02.09.2019
2600 Haze 36 1000 53 4800 2.6 360 18:19 02.09.2019
2601 Haze 36 999 71 5000 3.1 10 17:55 02.09.2019
2602 Haze 36 999 71 5000 3.1 10 17:37 02.09.2019
2603 Haze 38 998 63 6000 3.1 30 17:18 02.09.2019
2604 Haze 38 998 63 6000 3.1 30 16:41 02.09.2019
2605 Haze 38 999 43 4800 4.1 70 16:21 02.09.2019
2606 Haze 38 999 43 4800 4.1 70 15:54 02.09.2019
2607 Haze 38 998 71 6000 3.6 90 15:36 02.09.2019
2608 Haze 40 998 67 5000 4.6 90 15:18 02.09.2019
2609 Haze 40 998 67 5000 4.6 90 14:55 02.09.2019
2610 Haze 40 998 67 5000 4.6 90 14:36 02.09.2019
2611 Haze 41 999 57 6000 3.6 80 14:18 02.09.2019
2612 Haze 41 999 57 6000 3.6 80 13:41 02.09.2019
2613 Haze 40 999 17 9000 6.2 20 13:23 02.09.2019
2614 Haze 40 999 57 6000 3.1 30 12:45 02.09.2019
2615 Haze 39 1000 60 6000 3.6 50 12:26 02.09.2019
2616 Haze 39 1000 60 6000 3.6 50 11:59 02.09.2019
2617 Haze 39 1000 60 6000 3.6 50 11:40 02.09.2019
2618 Haze 39 1001 57 8000 4.1 50 11:21 02.09.2019
2619 Haze 39 1001 57 8000 4.1 50 10:58 02.09.2019
2620 Haze 39 1001 57 8000 4.1 50 10:39 02.09.2019
2621 Haze 38 1001 56 7000 4.1 10 10:20 02.09.2019
2622 Haze 38 1001 56 7000 4.1 10 09:57 02.09.2019
2623 Haze 38 1001 56 7000 4.1 10 09:37 02.09.2019
2624 Mist 37 1001 60 7000 4.6 10 09:18 02.09.2019
2625 Mist 37 1001 60 7000 4.6 10 08:39 02.09.2019
2626 Mist 35 1001 63 7000 5.1 340 08:18 02.09.2019
2627 Mist 35 1001 63 7000 5.1 340 07:41 02.09.2019
2628 Haze 34 1002 75 5000 4.1 10 07:21 02.09.2019
2629 Haze 34 1001 75 5000 3.6 10 06:48 02.09.2019
2630 Haze 34 1001 75 5000 3.6 10 06:29 02.09.2019
2631 Haze 33 1000 84 5000 3.6 360 05:49 02.09.2019
2632 Mist 33 1001 79 4000 2.1 360 05:19 02.09.2019
2633 Mist 33 1000 84 6000 4.1 340 04:33 02.09.2019
2634 Mist 33 998 71 9000 2.6 340 01:48 02.09.2019
2635 Haze 33 998 67 10000 2.1 320 00:53 02.09.2019
2636 Haze 33 998 67 10000 2.1 320 00:32 02.09.2019
2637 Haze 33 999 44 10000 2.6 330 23:48 01.09.2019
2638 Haze 33 999 44 10000 2.6 330 23:23 01.09.2019
2639 Haze 34 999 39 10000 3.6 320 22:59 01.09.2019
2640 Haze 34 999 39 10000 3.6 320 22:40 01.09.2019
2641 Haze 35 999 59 10000 2.1 40 22:20 01.09.2019
2642 Haze 35 999 59 10000 2.1 40 21:57 01.09.2019
2643 Haze 35 999 59 10000 2.1 40 21:39 01.09.2019
2644 Clear 35 998 56 10000 1.5 360 21:21 01.09.2019
2645 Clear 35 998 56 10000 1.5 360 20:57 01.09.2019
2646 Clear 35 998 56 10000 1.5 360 20:38 01.09.2019
2647 Clear 35 998 56 10000 1.5 360 20:38 01.09.2019
2648 Haze 36 998 56 10000 1.5 360 20:18 01.09.2019
2649 Haze 36 998 56 10000 1.5 360 20:18 01.09.2019
2650 Haze 36 998 56 10000 1.5 360 19:58 01.09.2019
2651 Haze 36 998 56 10000 1.5 360 19:58 01.09.2019
2652 Haze 36 998 53 10000 1.5 30 19:37 01.09.2019
2653 Haze 37 999 27 9000 1.5 50 19:19 01.09.2019
2654 Haze 38 998 47 10000 1.5 40 18:43 01.09.2019
2655 Haze 39 997 39 10000 2.6 10 18:25 01.09.2019
2656 Haze 39 997 39 10000 2.6 10 17:56 01.09.2019
2657 Haze 39 997 39 10000 2.6 10 17:38 01.09.2019
2658 Haze 40 997 29 10000 4.1 10 17:19 01.09.2019
2659 Haze 40 997 29 10000 4.1 10 17:19 01.09.2019
2660 Haze 40 997 29 10000 4.1 10 16:41 01.09.2019
2661 Haze 40 997 29 10000 4.1 10 16:41 01.09.2019
2662 Haze 42 997 23 10000 3.1 20 16:20 01.09.2019
2663 Haze 42 997 23 10000 3.1 20 15:50 01.09.2019
2664 Haze 42 997 23 10000 3.1 20 15:31 01.09.2019
2665 Haze 42 997 20 10000 4.6 30 14:59 01.09.2019
2666 Clear 41 997 20 10000 4.6 30 14:40 01.09.2019
2667 Clear 41 997 20 10000 4.6 30 14:40 01.09.2019
2668 Haze 43 997 20 10000 4.6 30 14:21 01.09.2019
2669 Haze 43 997 23 10000 5.7 30 13:56 01.09.2019
2670 Haze 43 997 23 10000 5.7 30 13:37 01.09.2019
2671 Haze 44 997 31 10000 5.1 70 13:19 01.09.2019
2672 Haze 45 998 23 10000 5.1 70 12:41 01.09.2019
2673 Haze 44 998 32 10000 4.1 130 12:23 01.09.2019
2674 Haze 44 998 32 10000 4.1 130 11:42 01.09.2019
2675 Haze 44 999 20 10000 2.1 10 11:20 01.09.2019
2676 Haze 44 999 20 10000 2.1 10 10:59 01.09.2019
2677 Haze 44 999 20 10000 2.1 10 10:41 01.09.2019
2678 Haze 43 999 24 10000 1 0 10:23 01.09.2019
2679 Haze 43 999 24 10000 1 0 09:43 01.09.2019
2680 Haze 43 999 24 10000 1 0 09:25 01.09.2019
2681 Haze 41 1000 28 10000 1.5 210 08:44 01.09.2019
2682 Haze 41 1000 28 10000 1.5 210 08:24 01.09.2019
2683 Haze 37 1000 42 10000 2.6 140 07:51 01.09.2019
2684 Haze 37 1000 42 10000 2.6 140 07:33 01.09.2019
2685 Haze 34 999 44 10000 1.5 20 06:47 01.09.2019
2686 Haze 34 999 44 10000 1.5 20 06:26 01.09.2019
2687 Haze 32 999 52 10000 2.1 90 05:56 01.09.2019
2688 Haze 32 998 56 9000 1.5 270 04:32 01.09.2019
2689 Haze 32 998 63 9000 1 0 03:42 01.09.2019
2690 Haze 32 998 63 9000 1 0 03:42 01.09.2019
2691 Haze 32 997 67 9000 2.6 230 02:58 01.09.2019
2692 Haze 32 997 71 9000 2.1 230 02:28 01.09.2019
2693 Haze 32 997 79 9000 2.6 210 01:51 01.09.2019
2694 Haze 32 997 79 9000 2.6 210 01:51 01.09.2019
2695 Haze 33 997 75 9000 2.1 200 01:23 01.09.2019
2696 Haze 33 997 71 9000 1.5 200 00:46 01.09.2019
2697 Haze 33 997 75 9000 2.1 200 00:22 01.09.2019
2698 Haze 33 997 75 9000 2.1 200 23:54 31.08.2019
2699 Haze 33 998 79 9000 1.5 160 23:36 31.08.2019
2700 Clouds 33 998 79 9000 1.5 150 23:18 31.08.2019
2701 Clouds 33 998 79 9000 1 90 22:44 31.08.2019
2702 Haze 34 998 79 9000 1 90 22:25 31.08.2019
2703 Haze 35 998 79 9000 2.1 140 21:57 31.08.2019
2704 Clouds 34 998 79 9000 1.5 130 21:38 31.08.2019
2705 Haze 35 998 75 9000 1 0 21:19 31.08.2019
2706 Haze 35 998 71 9000 1 0 20:47 31.08.2019
2707 Haze 35 998 71 9000 1 0 20:29 31.08.2019
2708 Haze 36 998 71 10000 1 0 19:57 31.08.2019
2709 Clear 35 998 71 10000 1.5 50 19:38 31.08.2019
2710 Haze 37 998 63 10000 1.5 70 19:20 31.08.2019
2711 Haze 37 998 63 10000 2.1 120 18:40 31.08.2019
2712 Haze 38 997 63 10000 2.1 120 18:21 31.08.2019
2713 Haze 38 997 63 10000 2.1 120 17:58 31.08.2019
2714 Haze 38 997 56 10000 4.6 140 17:37 31.08.2019
2715 Haze 41 997 56 10000 4.6 140 17:19 31.08.2019
2716 Haze 41 997 56 10000 4.6 140 17:19 31.08.2019
2717 Haze 41 997 56 10000 4.6 140 17:19 31.08.2019
2718 Haze 41 997 56 10000 4.6 140 16:58 31.08.2019
2719 Haze 41 997 56 10000 4.6 140 16:58 31.08.2019
2720 Haze 41 997 48 10000 4.1 110 16:40 31.08.2019
2721 Haze 41 997 48 10000 4.1 110 16:21 31.08.2019
2722 Haze 41 997 48 10000 4.1 110 16:21 31.08.2019
2723 Haze 42 997 48 10000 3.6 100 15:57 31.08.2019
2724 Haze 42 997 48 10000 4.1 110 15:37 31.08.2019
2725 Haze 43 997 45 10000 4.1 100 15:18 31.08.2019
2726 Haze 43 997 40 10000 3.6 90 14:41 31.08.2019
2727 Haze 43 997 40 10000 3.6 90 14:22 31.08.2019
2728 Haze 44 998 34 9000 3.6 100 13:42 31.08.2019
2729 Haze 43 998 38 9000 4.1 100 13:23 31.08.2019
2730 Haze 43 998 38 9000 4.1 100 12:59 31.08.2019
2731 Haze 42 998 45 10000 4.1 90 12:40 31.08.2019
2732 Haze 43 999 40 10000 4.1 100 12:20 31.08.2019
2733 Haze 43 999 40 10000 4.1 100 11:56 31.08.2019
2734 Haze 43 999 36 10000 2.1 0 11:38 31.08.2019
2735 Clear 42 1000 38 10000 2.1 80 11:20 31.08.2019
2736 Clear 42 1000 38 10000 2.6 80 10:43 31.08.2019
2737 Haze 41 1001 18 10000 2.1 0 10:19 31.08.2019
2738 Haze 41 1001 18 10000 2.1 0 10:19 31.08.2019
2739 Haze 41 1001 18 10000 2.1 0 09:59 31.08.2019
2740 Haze 41 1001 19 10000 2.1 200 09:38 31.08.2019
2741 Haze 40 1001 20 10000 1.5 250 09:19 31.08.2019
2742 Haze 40 1000 24 10000 1.5 240 08:44 31.08.2019
2743 Haze 40 1000 24 10000 1.5 240 08:25 31.08.2019
2744 Haze 36 1000 44 10000 1.5 20 07:42 31.08.2019
2745 Haze 35 1001 28 9000 3.6 290 07:23 31.08.2019
2746 Haze 34 1000 44 10000 1 0 06:49 31.08.2019
2747 Mist 32 999 56 10000 1 0 06:21 31.08.2019
2748 Mist 31 999 63 10000 1 0 05:34 31.08.2019
2749 Mist 31 998 63 10000 1.5 260 04:36 31.08.2019
2750 Mist 31 998 70 10000 2.6 230 03:50 31.08.2019
2751 Mist 31 998 70 10000 3.1 220 02:59 31.08.2019
2752 Clear 32 998 75 10000 2.6 210 01:56 31.08.2019
2753 Clear 32 998 75 10000 2.1 220 01:36 31.08.2019
2754 Clear 32 998 75 10000 3.1 200 01:18 31.08.2019
2755 Clear 33 998 71 10000 2.1 220 00:41 31.08.2019
2756 Clear 33 998 71 10000 2.1 220 00:41 31.08.2019
2757 Clear 33 999 75 10000 2.6 210 00:23 31.08.2019
2758 Clear 33 999 75 10000 2.1 180 23:47 30.08.2019
2759 Clear 33 999 75 10000 2.1 200 23:18 30.08.2019
2760 -273 0 0 0 0 0 22:55 30.08.2019
2761 -273 0 0 0 0 0 22:55 30.08.2019
2762 Clear 34 999 71 10000 2.1 190 22:37 30.08.2019
2763 Haze 34 1000 67 10000 2.6 170 22:18 30.08.2019
2764 Haze 34 1000 67 10000 2.1 150 21:54 30.08.2019
2765 Haze 34 1000 67 10000 2.1 150 21:36 30.08.2019
2766 Haze 34 1000 71 10000 2.1 140 21:18 30.08.2019
2767 Haze 34 1000 75 10000 2.1 130 20:41 30.08.2019
2768 Haze 35 1000 71 10000 1 130 20:22 30.08.2019
2769 Haze 35 1000 71 10000 1 130 19:59 30.08.2019
2770 Haze 35 1000 67 10000 1.5 90 19:40 30.08.2019
2771 Haze 35 1000 67 10000 1.5 90 19:40 30.08.2019
2772 Haze 36 1000 67 10000 1.5 90 19:21 30.08.2019
2773 Haze 37 999 60 10000 1.5 100 18:55 30.08.2019
2774 Haze 37 999 60 10000 1.5 100 18:37 30.08.2019
2775 Haze 37 1000 45 9000 2.6 100 18:18 30.08.2019
2776 Haze 38 999 63 10000 2.1 50 17:55 30.08.2019
2777 Haze 38 999 63 10000 2.1 50 17:37 30.08.2019
2778 Haze 38 999 60 9000 3.1 90 17:18 30.08.2019
2779 Haze 38 999 60 9000 4.1 100 16:43 30.08.2019
2780 Haze 38 999 60 9000 4.1 100 16:24 30.08.2019
2781 Haze 41 999 60 10000 5.7 110 15:45 30.08.2019
2782 Haze 41 999 60 10000 5.7 110 15:25 30.08.2019
2783 Haze 42 999 54 10000 5.1 100 14:59 30.08.2019
2784 Haze 42 999 51 10000 5.1 90 14:41 30.08.2019
2785 Haze 42 1000 51 10000 5.1 90 14:23 30.08.2019
2786 Haze 42 1000 51 10000 5.1 90 14:23 30.08.2019
2787 Haze 42 1000 45 10000 4.6 90 13:44 30.08.2019
2788 Haze 43 1000 38 10000 3.6 110 13:23 30.08.2019
2789 Haze 43 1000 38 10000 3.6 110 12:58 30.08.2019
2790 Haze 43 1001 43 10000 3.1 90 12:40 30.08.2019
2791 Clear 42 1001 48 10000 3.6 90 12:22 30.08.2019
2792 Clear 42 1002 45 10000 3.1 80 11:42 30.08.2019
2793 Clear 42 1002 45 10000 3.1 80 11:24 30.08.2019
2794 Clear 42 1002 28 10000 2.1 120 10:43 30.08.2019
2795 Clear 42 1002 28 10000 2.1 120 10:24 30.08.2019
2796 Haze 41 1002 26 10000 2.1 140 09:59 30.08.2019
2797 Haze 40 1003 32 10000 1.5 220 09:40 30.08.2019
2798 Haze 38 1003 45 10000 2.1 130 09:19 30.08.2019
2799 Haze 38 1003 45 10000 2.1 130 08:56 30.08.2019
2800 Haze 37 1003 47 10000 2.1 140 08:38 30.08.2019
2801 Haze 36 1003 42 10000 2.1 140 08:20 30.08.2019
2802 Haze 36 1002 53 10000 2.6 130 07:40 30.08.2019
2803 Mist 33 1002 60 10000 1.5 140 07:21 30.08.2019
2804 Mist 33 1002 63 10000 1 0 06:47 30.08.2019
2805 Mist 33 1002 63 10000 1 0 06:28 30.08.2019
2806 Mist 30 1002 75 10000 3.42 324.156 05:44 30.08.2019
2807 Mist 32 1001 75 10000 3.42 324.156 03:59 30.08.2019
2808 Mist 32 1001 75 10000 1 110 03:38 30.08.2019
2809 Mist 32 1001 70 10000 2.1 110 02:56 30.08.2019
2810 Mist 32 1000 66 10000 1 0 02:29 30.08.2019
2811 Haze 32 1000 66 10000 1 0 01:29 30.08.2019
2812 Haze 32 1001 67 10000 2.6 180 00:38 30.08.2019
2813 Haze 33 1001 75 10000 2.6 160 00:18 30.08.2019
2814 Haze 33 1001 75 10000 3.1 150 23:40 29.08.2019
2815 Haze 33 1002 75 10000 2.6 140 23:20 29.08.2019
2816 Haze 34 1002 75 10000 2.6 130 22:44 29.08.2019
2817 Haze 34 1002 75 10000 2.6 130 22:25 29.08.2019
2818 Haze 34 1002 75 10000 1 130 21:57 29.08.2019
2819 Haze 34 1002 79 10000 1.5 100 21:38 29.08.2019
2820 Haze 34 1002 79 10000 1.5 100 21:20 29.08.2019
2821 Haze 34 1002 79 10000 1.5 100 20:54 29.08.2019
2822 Haze 34 1002 75 10000 1.5 70 20:36 29.08.2019
2823 Haze 34 1002 75 10000 1.5 70 20:18 29.08.2019
2824 Haze 35 1002 75 10000 1.5 70 19:44 29.08.2019
2825 Haze 35 1002 75 10000 2.1 70 19:25 29.08.2019
2826 Haze 36 1002 75 10000 2.1 80 18:45 29.08.2019
2827 Haze 36 1001 75 10000 2.6 80 18:21 29.08.2019
2828 Haze 36 1001 75 10000 3.1 90 17:58 29.08.2019
2829 Haze 36 1001 71 10000 3.1 90 17:39 29.08.2019
2830 Haze 36 1001 71 10000 3.1 90 17:20 29.08.2019
2831 Haze 36 1001 71 10000 3.1 90 17:20 29.08.2019
2832 Haze 36 1001 71 10000 3.1 90 17:20 29.08.2019
2833 Haze 38 1001 67 10000 4.1 100 16:59 29.08.2019
2834 Clear 34 1002 59 0 3.28 99.703 16:40 29.08.2019
2835 Haze 40 1000 50 10000 4.6 110 16:22 29.08.2019
2836 Haze 40 1000 50 10000 4.6 110 15:40 29.08.2019
2837 Haze 41 1001 40 10000 4.6 100 15:21 29.08.2019
2838 Haze 41 1001 40 10000 4.6 100 14:56 29.08.2019
2839 Haze 41 1001 45 10000 4.6 110 14:37 29.08.2019
2840 Haze 41 1001 31 10000 5.1 110 14:19 29.08.2019
2841 Haze 41 1001 31 10000 5.1 110 13:54 29.08.2019
2842 Haze 41 1001 38 10000 4.6 110 13:36 29.08.2019
2843 Haze 42 1001 38 10000 5.1 110 13:18 29.08.2019
2844 Haze 42 1002 36 10000 5.7 120 12:55 29.08.2019
2845 Haze 42 1002 36 10000 5.7 120 12:36 29.08.2019
2846 Clear 43 1002 24 10000 4.6 100 12:18 29.08.2019
2847 Clear 43 1002 28 10000 4.1 100 11:40 29.08.2019
2848 Clear 42 1003 10 10000 1.5 160 11:20 29.08.2019
2849 Clear 42 1003 10 10000 1.5 160 10:56 29.08.2019
2850 Haze 41 1003 26 10000 3.1 90 10:38 29.08.2019
2851 Haze 40 1003 45 10000 4.1 80 10:19 29.08.2019
2852 Haze 40 1003 45 10000 3.6 100 09:41 29.08.2019
2853 Haze 38 1003 40 10000 2.6 140 09:18 29.08.2019
2854 Haze 38 1003 45 10000 4.1 130 08:45 29.08.2019
2855 Haze 36 1003 50 10000 4.1 140 08:25 29.08.2019
2856 Haze 36 1003 50 10000 4.1 140 07:54 29.08.2019
2857 Haze 36 1003 60 10000 4.1 150 07:34 29.08.2019
2858 Haze 36 1003 60 10000 4.1 150 07:34 29.08.2019
2859 Mist 34 1003 67 10000 2.6 150 06:57 29.08.2019
2860 Mist 34 1003 67 10000 1.5 150 06:37 29.08.2019
2861 Mist 31 1002 75 9000 2.6 160 05:52 29.08.2019
2862 Mist 31 1002 84 9000 2.1 320 05:21 29.08.2019
2863 Mist 31 1002 84 10000 0.5 0 04:47 29.08.2019
2864 Mist 31 1002 84 10000 0.5 0 04:26 29.08.2019
2865 Haze 32 1001 79 9000 2.1 40 01:54 29.08.2019
2866 Haze 32 1001 79 9000 2.6 360 01:35 29.08.2019
2867 Mist 32 1001 75 9000 0.5 0 00:47 29.08.2019
2868 Haze 33 1001 79 9000 0.5 0 00:23 29.08.2019
2869 Haze 33 1001 79 9000 0.5 0 23:58 28.08.2019
2870 Haze 33 1002 79 9000 1 40 23:38 28.08.2019
2871 Haze 33 1002 79 9000 1 340 23:20 28.08.2019
2872 Haze 33 1002 79 9000 1 340 22:56 28.08.2019
2873 Haze 34 1002 75 9000 1.5 360 22:37 28.08.2019
2874 Haze 34 1002 75 10000 1.5 10 22:18 28.08.2019
2875 Haze 34 1002 75 10000 1.5 50 21:41 28.08.2019
2876 Haze 34 1002 75 10000 1.5 50 21:23 28.08.2019
2877 Haze 34 1002 75 10000 2.1 40 20:56 28.08.2019
2878 Haze 35 1002 67 10000 2.1 30 20:38 28.08.2019
2879 Haze 35 1002 67 9000 2.6 30 20:20 28.08.2019
2880 Haze 35 1002 67 7000 3.6 20 19:42 28.08.2019
2881 Haze 35 1002 50 9000 3.1 60 19:22 28.08.2019
2882 Haze 36 1001 71 7000 3.6 30 18:57 28.08.2019
2883 Haze 36 1001 71 7000 3.6 30 18:37 28.08.2019
2884 Haze 36 1001 71 7000 3.6 30 18:19 28.08.2019
2885 Haze 36 1001 63 7000 3.1 40 17:38 28.08.2019
2886 Haze 38 1000 53 7000 4.1 70 17:19 28.08.2019
2887 Haze 38 1000 53 7000 4.6 60 16:45 28.08.2019
2888 Haze 40 1000 53 7000 4.6 60 16:23 28.08.2019
2889 Haze 39 1000 53 7000 4.6 60 15:59 28.08.2019
2890 Haze 40 1000 48 8000 4.1 50 15:38 28.08.2019
2891 Haze 40 1000 45 9000 4.1 50 15:19 28.08.2019
2892 Haze 40 1000 45 9000 4.1 50 14:57 28.08.2019
2893 Haze 40 1000 45 10000 4.6 30 14:38 28.08.2019
2894 Haze 40 1000 45 10000 4.6 30 14:20 28.08.2019
2895 Haze 42 1000 34 10000 3.6 50 13:58 28.08.2019
2896 Haze 42 1000 30 10000 3.6 60 13:38 28.08.2019
2897 Haze 42 1001 12 9000 3.1 140 13:19 28.08.2019
2898 Haze 42 1001 19 10000 2.6 100 12:42 28.08.2019
2899 Haze 42 1001 19 10000 2.6 100 12:23 28.08.2019
2900 Haze 42 1001 22 8000 3.1 120 11:56 28.08.2019
2901 Haze 42 1001 22 8000 3.1 120 11:56 28.08.2019
2902 Haze 41 1002 34 8000 2.1 130 11:37 28.08.2019
2903 Haze 39 1002 48 8000 3.6 110 11:18 28.08.2019
2904 Haze 39 1002 57 8000 4.1 110 10:41 28.08.2019
2905 Haze 39 1002 57 8000 4.1 110 10:22 28.08.2019
2906 Haze 38 1003 60 9000 4.1 110 09:59 28.08.2019
2907 Haze 38 1003 56 9000 3.6 120 09:41 28.08.2019
2908 Haze 38 1003 53 9000 2.6 100 09:19 28.08.2019
2909 Haze 37 1003 60 9000 2.6 110 08:39 28.08.2019
2910 Clouds 36 1003 63 7000 3.6 110 08:20 28.08.2019
2911 Clouds 36 1002 60 7000 1.5 120 07:45 28.08.2019
2912 Mist 35 1002 67 7000 1.5 120 07:25 28.08.2019
2913 Mist 35 1002 67 7000 1.5 120 06:56 28.08.2019
2914 Mist 34 1002 71 7000 2.1 110 06:37 28.08.2019
2915 Mist 32 1001 75 7000 3.1 120 05:44 28.08.2019
2916 Haze 32 1001 75 8000 4.6 90 03:32 28.08.2019
2917 Mist 32 1001 75 10000 2.1 30 01:50 28.08.2019
2918 Mist 32 1001 75 10000 2.1 30 01:29 28.08.2019
2919 Mist 33 1000 70 10000 3.1 60 00:41 28.08.2019
2920 Haze 33 1001 70 10000 3.1 10 23:59 27.08.2019
2921 Haze 33 1000 70 10000 2.6 10 23:40 27.08.2019
2922 Haze 33 1000 70 10000 2.6 10 23:21 27.08.2019
2923 Haze 33 1001 70 10000 3.1 10 22:56 27.08.2019
2924 Haze 33 1001 75 10000 2.1 30 22:38 27.08.2019
2925 Haze 33 1001 70 10000 2.1 40 22:19 27.08.2019
2926 Haze 33 1001 70 10000 1.5 30 21:55 27.08.2019
2927 Haze 33 1001 70 10000 1.5 30 21:55 27.08.2019
2928 Haze 33 1001 70 10000 1.5 30 21:36 27.08.2019
2929 Haze 34 1001 70 10000 2.1 70 21:18 27.08.2019
2930 Haze 34 1001 63 10000 2.6 60 20:41 27.08.2019
2931 Clear 35 1001 63 10000 2.6 40 20:21 27.08.2019
2932 Clear 35 1001 63 10000 2.6 40 19:58 27.08.2019
2933 Clear 35 1001 63 10000 2.1 90 19:39 27.08.2019
2934 Clear 35 1001 37 10000 2.6 90 19:21 27.08.2019
2935 Haze 35 1001 56 10000 2.6 60 18:43 27.08.2019
2936 Haze 36 1000 53 10000 2.6 50 18:19 27.08.2019
2937 Haze 36 1000 53 10000 2.6 50 17:59 27.08.2019
2938 Haze 36 1000 53 10000 3.6 40 17:41 27.08.2019
2939 Haze 36 1000 53 10000 3.6 40 17:22 27.08.2019
2940 Haze 37 1000 50 10000 4.6 70 16:47 27.08.2019
2941 Haze 37 1000 50 10000 4.6 70 16:28 27.08.2019
2942 Haze 38 1000 47 10000 4.6 60 15:58 27.08.2019
2943 Haze 38 1000 50 10000 5.1 80 15:40 27.08.2019
2944 Haze 39 1000 53 10000 5.1 70 15:21 27.08.2019
2945 Haze 39 1000 53 10000 5.1 70 14:55 27.08.2019
2946 Haze 39 1000 50 10000 5.7 70 14:37 27.08.2019
2947 Haze 41 1000 42 10000 4.6 60 14:18 27.08.2019
2948 Haze 41 1000 35 10000 5.1 50 13:41 27.08.2019
2949 Haze 40 1000 42 10000 5.1 50 13:21 27.08.2019
2950 Haze 40 1001 38 10000 4.1 60 12:42 27.08.2019
2951 Haze 40 1001 35 10000 4.6 40 12:21 27.08.2019
2952 Haze 40 1001 35 10000 4.6 40 12:21 27.08.2019
2953 Haze 40 1001 35 10000 4.6 40 11:58 27.08.2019
2954 Haze 40 1001 40 10000 4.1 70 11:40 27.08.2019
2955 Haze 40 1002 45 7000 3.6 50 11:21 27.08.2019
2956 Haze 39 1002 53 6000 3.6 90 10:41 27.08.2019
2957 Haze 38 1003 56 6000 3.6 90 10:20 27.08.2019
2958 Haze 38 1003 56 6000 3.6 90 09:56 27.08.2019
2959 Haze 38 1003 50 6000 1.5 0 09:37 27.08.2019
2960 Haze 37 1003 53 6000 2.6 50 09:19 27.08.2019
2961 Haze 38 1003 37 7000 1.5 50 08:45 27.08.2019
2962 Haze 38 1003 37 7000 1.5 50 08:24 27.08.2019
2963 Haze 37 1003 37 7000 1 0 07:55 27.08.2019
2964 Haze 37 1003 42 8000 1.5 230 07:36 27.08.2019
2965 Haze 37 1003 42 8000 1.5 230 07:36 27.08.2019
2966 Haze 33 1003 53 8000 1.5 200 07:18 27.08.2019
2967 Haze 33 1002 63 8000 1.5 180 06:44 27.08.2019
2968 Haze 31 1003 79 9000 2.6 280 06:19 27.08.2019
2969 Haze 31 1003 79 9000 2.6 280 06:19 27.08.2019
2970 Mist 31 1002 75 9000 1 0 05:26 27.08.2019
2971 Mist 31 1001 70 10000 1.5 210 03:43 27.08.2019
2972 Mist 32 1001 75 10000 2.22 198.525 02:40 27.08.2019
2973 Mist 32 1001 79 10000 1.5 140 01:46 27.08.2019
2974 Mist 33 1001 75 10000 1.5 100 01:25 27.08.2019
2975 Mist 33 1001 75 10000 1.5 90 00:49 27.08.2019
2976 Mist 33 1001 75 10000 1.5 90 00:28 27.08.2019
2977 Mist 33 1001 70 10000 1 70 23:40 26.08.2019
2978 Mist 33 1001 70 10000 1.5 90 23:22 26.08.2019
2979 Mist 33 1001 70 10000 1.5 90 22:59 26.08.2019
2980 Mist 33 1001 66 10000 1.5 110 22:37 26.08.2019
2981 Mist 33 1001 66 10000 1.5 110 22:18 26.08.2019
2982 Haze 34 1002 63 10000 2.1 130 21:39 26.08.2019
2983 Haze 34 1002 63 10000 2.1 130 21:21 26.08.2019
2984 Haze 34 1002 63 10000 1.5 140 20:59 26.08.2019
2985 Haze 34 1002 67 10000 1.5 120 20:40 26.08.2019
2986 Haze 34 1002 67 10000 1.5 120 20:20 26.08.2019
2987 Haze 35 1002 59 10000 1.5 90 19:56 26.08.2019
2988 Haze 35 1002 63 10000 2.1 70 19:38 26.08.2019
2989 Haze 35 1002 63 10000 2.1 70 19:18 26.08.2019
2990 Haze 35 1001 63 10000 3.1 50 18:39 26.08.2019
2991 Haze 35 1001 63 10000 3.1 50 18:39 26.08.2019
2992 Haze 35 1001 63 10000 3.1 50 18:20 26.08.2019
2993 Haze 36 1001 60 10000 3.6 40 17:59 26.08.2019
2994 Haze 36 1001 56 10000 4.1 60 17:40 26.08.2019
2995 Haze 36 1001 56 10000 4.1 60 17:19 26.08.2019
2996 Haze 38 1001 50 10000 4.1 40 16:56 26.08.2019
2997 Haze 38 1001 60 9000 4.1 40 16:38 26.08.2019
2998 Haze 38 1001 60 9000 4.1 40 16:18 26.08.2019
2999 Haze 38 1001 60 9000 4.1 40 16:18 26.08.2019
3000 Haze 40 1000 60 10000 4.6 60 15:42 26.08.2019
3001 Haze 40 1000 60 10000 4.6 60 15:22 26.08.2019
3002 Haze 41 1001 48 10000 4.1 60 14:56 26.08.2019
3003 Haze 41 1001 60 10000 4.1 90 14:37 26.08.2019
3004 Haze 41 1001 60 10000 4.1 90 14:18 26.08.2019
3005 Clear 38 1001 60 10000 3.6 90 13:40 26.08.2019
3006 Haze 41 1001 60 10000 3.6 90 13:21 26.08.2019
3007 Haze 41 1001 57 10000 4.6 100 12:45 26.08.2019
3008 Haze 40 1002 60 10000 4.6 100 12:27 26.08.2019
3009 Haze 40 1002 60 10000 4.6 90 11:56 26.08.2019
3010 Haze 40 1002 60 10000 5.1 70 11:37 26.08.2019
3011 Haze 40 1002 60 10000 5.1 70 11:18 26.08.2019
3012 Haze 41 1002 27 10000 1.5 0 10:44 26.08.2019
3013 Haze 41 1002 28 10000 2.1 0 10:24 26.08.2019
3014 Haze 40 1003 30 10000 2.1 0 09:59 26.08.2019
3015 Haze 40 1003 36 10000 2.1 200 09:39 26.08.2019
3016 Haze 40 1003 36 10000 2.1 200 09:21 26.08.2019
3017 Haze 38 1003 48 10000 2.1 0 08:55 26.08.2019
3018 Haze 37 1003 57 10000 3.1 130 08:36 26.08.2019
3019 Haze 37 1003 57 10000 3.1 130 08:18 26.08.2019
3020 Haze 36 1003 63 10000 2.1 80 07:41 26.08.2019
3021 Haze 36 1003 63 10000 2.1 80 07:23 26.08.2019
3022 Haze 35 1003 60 10000 2.1 70 06:48 26.08.2019
3023 Haze 35 1003 56 10000 1 0 06:25 26.08.2019
3024 Mist 32 1002 63 10000 2.1 240 05:49 26.08.2019
3025 Mist 31 1002 79 10000 1 0 04:31 26.08.2019
3026 Haze 32 1001 79 10000 1 0 02:56 26.08.2019
3027 Haze 32 1001 75 10000 1 80 01:40 26.08.2019
3028 Haze 32 1001 75 10000 1 80 01:21 26.08.2019
3029 Haze 32 1001 75 10000 1 60 00:41 26.08.2019
3030 Haze 32 1001 75 10000 1 60 00:22 26.08.2019
3031 Haze 34 1001 75 10000 0.48 258.737 23:43 25.08.2019
3032 Haze 34 1001 75 10000 0.48 258.737 23:19 25.08.2019
3033 Haze 34 1001 71 10000 1 40 22:56 25.08.2019
3034 Haze 34 1002 67 10000 1.5 30 22:38 25.08.2019
3035 Haze 34 1002 67 10000 1.5 30 22:38 25.08.2019
3036 Haze 34 1002 67 10000 1.5 30 22:19 25.08.2019
3037 Haze 35 1002 59 10000 1.5 50 21:56 25.08.2019
3038 Haze 35 1002 59 10000 1.5 60 21:37 25.08.2019
3039 Haze 35 1002 59 10000 1.5 60 21:18 25.08.2019
3040 Haze 35 1002 59 10000 2.1 60 20:40 25.08.2019
3041 Haze 35 1002 59 10000 2.1 60 20:20 25.08.2019
3042 Haze 36 1002 56 10000 1.5 60 19:58 25.08.2019
3043 Haze 36 1002 63 10000 2.1 30 19:38 25.08.2019
3044 Haze 36 1002 63 10000 2.1 30 19:19 25.08.2019
3045 Clear 36 1001 60 10000 3.1 20 18:57 25.08.2019
3046 Clear 36 1001 60 10000 3.1 20 18:39 25.08.2019
3047 Haze 37 1001 63 10000 3.6 30 18:20 25.08.2019
3048 Haze 37 1001 63 10000 3.6 30 17:43 25.08.2019
3049 Haze 37 1001 63 10000 3.6 30 17:25 25.08.2019
3050 Haze 38 1001 63 10000 4.6 30 16:54 25.08.2019
3051 Haze 38 1001 67 10000 5.1 20 16:36 25.08.2019
3052 Haze 38 1001 67 10000 5.1 20 16:18 25.08.2019
3053 Haze 40 1001 56 10000 5.1 20 15:42 25.08.2019
3054 Haze 41 1000 35 10000 4.1 80 15:23 25.08.2019
3055 Haze 41 1000 40 10000 5.1 110 14:43 25.08.2019
3056 Haze 41 1000 40 10000 5.1 110 14:24 25.08.2019
3057 Clear 41 1000 38 10000 5.7 110 13:56 25.08.2019
3058 Clear 41 1000 40 10000 5.7 100 13:37 25.08.2019
3059 Clear 41 1000 40 10000 5.7 100 13:18 25.08.2019
3060 Haze 42 1001 32 10000 7.2 90 12:42 25.08.2019
3061 Haze 42 1001 32 10000 7.2 90 12:24 25.08.2019
3062 Haze 42 1001 26 10000 5.7 120 11:58 25.08.2019
3063 Haze 41 1002 40 10000 6.2 110 11:38 25.08.2019
3064 Haze 41 1002 40 10000 6.2 110 11:20 25.08.2019
3065 Haze 42 1002 38 10000 4.1 110 10:56 25.08.2019
3066 Haze 42 1002 36 10000 2.6 80 10:37 25.08.2019
3067 Haze 42 1002 36 10000 2.6 80 10:19 25.08.2019
3068 Haze 41 1003 34 10000 1.5 0 09:43 25.08.2019
3069 Haze 41 1003 34 10000 1.5 0 09:24 25.08.2019
3070 Haze 38 1003 43 10000 2.1 180 08:47 25.08.2019
3071 Haze 37 1003 45 10000 2.1 160 08:29 25.08.2019
3072 Haze 37 1003 50 10000 2.6 110 07:55 25.08.2019
3073 Haze 36 1003 47 10000 3.1 150 07:33 25.08.2019
3074 Mist 33 1003 67 10000 2.6 170 06:39 25.08.2019
3075 Mist 32 1002 75 10000 3.1 110 05:27 25.08.2019
3076 Mist 32 1001 84 10000 2.1 110 03:51 25.08.2019
3077 Mist 32 1001 75 10000 3.1 70 02:55 25.08.2019
3078 Mist 32 1001 75 10000 3.1 70 02:36 25.08.2019
3079 Mist 32 1002 75 10000 1.5 90 00:58 25.08.2019
3080 Mist 32 1002 75 10000 1.5 90 00:24 25.08.2019
3081 Mist 33 1002 75 10000 2.1 60 23:59 24.08.2019
3082 Mist 33 1002 75 10000 2.1 60 23:40 24.08.2019
3083 Mist 33 1002 75 10000 2.1 60 23:22 24.08.2019
3084 Mist 34 1002 71 10000 5.1 20 22:54 24.08.2019
3085 Mist 34 1002 71 10000 5.1 20 22:36 24.08.2019
3086 Mist 34 1002 71 10000 5.1 20 22:18 24.08.2019
3087 Mist 34 1002 71 10000 5.7 20 21:42 24.08.2019
3088 Mist 34 1002 71 10000 5.7 20 21:42 24.08.2019
3089 Mist 34 1002 71 10000 5.7 20 21:24 24.08.2019
3090 Mist 34 1002 71 10000 5.7 20 21:24 24.08.2019
3091 Mist 35 1002 75 10000 5.1 20 20:59 24.08.2019
3092 Mist 35 1002 75 10000 5.1 20 20:40 24.08.2019
3093 Mist 35 1002 75 10000 5.1 20 20:20 24.08.2019
3094 Haze 35 1002 75 10000 4.6 30 19:59 24.08.2019
3095 Haze 35 1002 75 10000 4.6 30 19:39 24.08.2019
3096 Haze 35 1002 75 10000 4.6 30 19:21 24.08.2019
3097 Haze 36 1001 75 10000 4.1 50 18:47 24.08.2019
3098 Haze 36 1001 75 10000 4.1 50 18:25 24.08.2019
3099 Haze 37 1001 67 10000 4.6 50 17:59 24.08.2019
3100 Haze 37 1001 67 10000 4.6 50 17:41 24.08.2019
3101 Haze 37 1001 67 10000 4.6 50 17:22 24.08.2019
3102 Haze 39 1001 60 10000 4.1 50 16:42 24.08.2019
3103 Haze 39 1001 60 10000 4.1 50 16:19 24.08.2019
3104 Haze 40 1001 60 10000 4.6 50 15:55 24.08.2019
3105 Haze 40 1001 60 10000 4.6 50 15:37 24.08.2019
3106 Haze 40 1001 60 10000 4.6 50 15:18 24.08.2019
3107 Haze 40 1001 53 10000 4.1 60 14:41 24.08.2019
3108 Haze 40 1001 53 10000 4.1 60 14:19 24.08.2019
3109 Haze 40 1001 56 10000 4.1 60 13:55 24.08.2019
3110 Haze 40 1001 56 10000 4.1 60 13:36 24.08.2019
3111 Haze 40 1001 56 10000 4.1 60 13:18 24.08.2019
3112 Clear 40 1002 53 10000 3.6 90 12:41 24.08.2019
3113 Clear 40 1002 53 10000 3.6 90 12:23 24.08.2019
3114 Haze 39 1002 56 10000 5.1 120 11:54 24.08.2019
3115 Haze 39 1002 56 10000 5.1 120 11:36 24.08.2019
3116 Haze 39 1002 56 10000 5.1 120 11:18 24.08.2019
3117 Haze 39 1003 53 10000 5.1 110 10:40 24.08.2019
3118 Haze 39 1003 53 10000 5.1 110 10:21 24.08.2019
3119 Haze 39 1004 50 10000 4.6 110 09:43 24.08.2019
3120 Haze 39 1004 50 10000 4.6 110 09:19 24.08.2019
3121 Haze 37 1004 60 10000 6.2 120 08:43 24.08.2019
3122 Haze 37 1004 60 10000 6.2 120 08:25 24.08.2019
3123 Mist 35 1004 63 10000 4.1 100 07:53 24.08.2019
3124 Mist 35 1004 63 10000 4.1 100 07:31 24.08.2019
3125 Mist 33 1003 71 9000 4.6 90 06:53 24.08.2019
3126 Mist 33 1003 71 9000 4.6 90 06:23 24.08.2019
3127 Mist 32 1003 75 7000 3.1 80 05:39 24.08.2019
3128 Mist 32 1002 75 8000 1.5 80 03:51 24.08.2019
3129 Mist 32 1002 75 8000 1.5 80 03:32 24.08.2019
3130 Mist 32 1002 75 8000 3.1 80 02:23 24.08.2019
3131 Mist 32 1001 75 8000 4.1 90 01:29 24.08.2019
3132 Mist 32 1001 75 8000 2.6 100 00:49 24.08.2019
3133 Mist 32 1001 75 8000 2.6 100 00:24 24.08.2019
3134 Mist 33 1001 75 8000 3.1 40 23:47 23.08.2019
3135 Mist 33 1001 75 8000 3.1 40 23:23 23.08.2019
3136 Mist 33 1002 70 8000 5.1 50 22:58 23.08.2019
3137 Mist 33 1002 70 8000 5.1 50 22:40 23.08.2019
3138 Mist 33 1002 70 8000 5.1 50 22:20 23.08.2019
3139 Mist 33 1003 79 8000 5.1 40 21:38 23.08.2019
3140 Mist 33 1003 79 8000 5.1 40 21:19 23.08.2019
3141 Haze 34 1002 75 8000 4.1 70 20:53 23.08.2019
3142 Haze 34 1002 75 8000 4.1 70 20:35 23.08.2019
3143 Haze 34 1002 71 8000 3.6 80 19:58 23.08.2019
3144 Haze 34 1002 71 8000 3.6 80 19:40 23.08.2019
3145 Haze 34 1002 71 8000 3.6 80 19:18 23.08.2019
3146 Haze 35 1001 67 6000 3.6 70 18:42 23.08.2019
3147 Haze 35 1001 67 6000 3.6 70 18:24 23.08.2019
3148 Haze 35 1001 67 5000 3.6 70 17:46 23.08.2019
3149 Haze 35 1001 67 5000 3.6 70 17:28 23.08.2019
3150 Haze 36 1001 67 5000 4.1 70 16:59 23.08.2019
3151 Haze 36 1001 67 5000 4.1 70 16:40 23.08.2019
3152 Haze 36 1001 67 5000 4.1 70 16:22 23.08.2019
3153 Haze 37 1001 63 6000 4.6 60 15:41 23.08.2019
3154 Haze 37 1001 63 6000 4.6 60 15:22 23.08.2019
3155 Haze 38 1001 63 6000 4.6 70 14:58 23.08.2019
3156 Haze 38 1001 63 6000 4.6 70 14:40 23.08.2019
3157 Haze 38 1001 63 6000 4.6 70 14:20 23.08.2019
3158 Haze 38 1001 59 6000 4.6 50 13:56 23.08.2019
3159 Haze 38 1001 59 6000 4.6 50 13:38 23.08.2019
3160 Haze 38 1001 59 6000 4.6 50 13:19 23.08.2019
3161 Haze 39 1001 56 6000 4.1 40 12:44 23.08.2019
3162 Haze 39 1001 56 6000 4.1 40 12:25 23.08.2019
3163 Haze 38 1002 63 5000 3.6 0 11:59 23.08.2019
3164 Haze 38 1002 63 5000 3.6 0 11:41 23.08.2019
3165 Haze 38 1002 63 5000 3.6 0 11:41 23.08.2019
3166 Haze 38 1002 63 5000 3.6 0 11:20 23.08.2019
3167 Haze 38 1002 56 5000 3.6 80 10:59 23.08.2019
3168 Haze 38 1002 56 5000 3.6 80 10:41 23.08.2019
3169 Haze 38 1002 56 5000 3.6 80 10:21 23.08.2019
3170 Haze 37 1003 56 5000 3.6 100 09:48 23.08.2019
3171 Haze 37 1003 56 5000 3.6 100 09:30 23.08.2019
3172 Haze 36 1003 59 6000 3.6 90 08:58 23.08.2019
3173 Haze 36 1003 59 6000 3.6 90 08:38 23.08.2019
3174 Haze 36 1003 59 6000 3.6 90 08:19 23.08.2019
3175 Mist 35 1003 56 6000 2.6 80 07:42 23.08.2019
3176 Mist 35 1003 56 6000 2.6 80 07:24 23.08.2019
3177 Mist 33 1002 63 6000 2.6 100 06:56 23.08.2019
3178 Mist 33 1002 63 6000 2.6 100 06:37 23.08.2019
3179 Mist 33 1002 63 6000 2.6 100 06:19 23.08.2019
3180 Mist 32 1002 66 6000 2.1 120 05:32 23.08.2019
3181 Mist 31 1001 63 7000 2.1 100 04:20 23.08.2019
3182 Mist 32 1000 66 7000 1.54 103.865 02:49 23.08.2019
3183 Mist 32 1000 66 7000 1.54 103.865 02:22 23.08.2019
3184 Mist 33 1000 56 7000 1.5 70 01:38 23.08.2019
3185 Mist 33 1001 70 7000 1 130 00:44 23.08.2019
3186 Mist 33 1001 70 7000 1 130 00:19 23.08.2019
3187 Haze 33 1001 70 7000 3.52 83.46 23:45 22.08.2019
3188 Haze 34 1001 67 7000 1 70 23:23 22.08.2019
3189 Haze 34 1001 67 7000 2.1 80 22:55 22.08.2019
3190 Haze 34 1001 71 7000 1.5 90 22:37 22.08.2019
3191 Haze 34 1001 71 7000 1.5 90 22:19 22.08.2019
3192 Haze 34 1001 71 7000 1.5 90 22:19 22.08.2019
3193 Haze 34 1001 71 7000 2.1 90 21:55 22.08.2019
3194 Haze 34 1001 71 8000 2.1 120 21:36 22.08.2019
3195 Haze 34 1001 71 8000 2.1 120 21:18 22.08.2019
3196 Haze 34 1001 71 8000 2.6 110 20:54 22.08.2019
3197 Haze 34 1001 71 8000 2.6 110 20:54 22.08.2019
3198 Haze 34 1001 71 9000 2.6 110 20:36 22.08.2019
3199 Haze 34 1001 71 9000 2.6 110 20:18 22.08.2019
3200 Haze 35 1001 67 9000 2.6 70 19:40 22.08.2019
3201 Haze 35 1001 67 9000 2.6 70 19:21 22.08.2019
3202 Haze 35 1001 67 9000 2.6 70 19:21 22.08.2019
3203 Haze 35 1000 67 8000 3.1 70 18:59 22.08.2019
3204 Haze 35 1000 67 8000 3.1 70 18:40 22.08.2019
3205 Haze 35 1000 67 8000 3.1 70 18:20 22.08.2019
3206 Haze 35 1000 67 7000 3.1 110 17:57 22.08.2019
3207 Haze 35 1000 67 7000 3.1 110 17:57 22.08.2019
3208 Haze 35 1000 67 7000 3.1 110 17:39 22.08.2019
3209 Haze 36 1000 60 6000 4.1 110 17:19 22.08.2019
3210 Haze 36 1000 60 6000 4.1 110 16:56 22.08.2019
3211 Haze 36 1000 63 6000 4.6 110 16:37 22.08.2019
3212 Haze 36 1000 63 6000 4.6 110 16:19 22.08.2019
3213 Haze 36 1000 63 6000 4.6 110 16:19 22.08.2019
3214 Haze 36 1000 63 6000 4.6 110 16:19 22.08.2019
3215 Haze 36 1000 63 6000 4.6 110 16:19 22.08.2019
3216 Haze 37 1000 56 6000 4.1 80 15:42 22.08.2019
3217 Haze 37 1000 56 6000 4.1 80 15:24 22.08.2019
3218 Haze 37 1000 56 6000 4.1 80 15:24 22.08.2019
3219 Haze 37 1000 56 6000 4.1 80 15:24 22.08.2019
3220 Haze 37 1000 56 6000 4.1 90 14:59 22.08.2019
3221 Haze 37 1000 60 6000 4.6 80 14:41 22.08.2019
3222 Haze 37 1000 60 6000 4.6 80 14:21 22.08.2019
3223 Haze 38 1000 60 6000 5.1 80 13:58 22.08.2019
3224 Haze 38 1000 50 7000 5.7 70 13:39 22.08.2019
3225 Haze 38 1000 50 7000 5.7 70 13:19 22.08.2019
3226 Haze 39 1000 60 7000 5.7 90 12:56 22.08.2019
3227 Clouds 36 1001 60 7000 5.1 100 12:38 22.08.2019
3228 Clouds 36 1001 60 7000 5.1 100 12:19 22.08.2019
3229 Clear 37 1001 53 6000 4.6 100 11:42 22.08.2019
3230 Clear 37 1001 53 6000 4.6 100 11:20 22.08.2019
3231 Haze 38 1002 60 7000 4.6 100 10:58 22.08.2019
3232 Haze 38 1002 60 7000 5.1 90 10:40 22.08.2019
3233 Haze 38 1002 60 7000 5.1 90 10:21 22.08.2019
3234 Haze 38 1002 50 7000 4.6 90 09:56 22.08.2019
3235 Haze 38 1002 60 7000 3.6 80 09:38 22.08.2019
3236 Haze 38 1002 60 7000 3.6 80 09:20 22.08.2019
3237 Haze 37 1002 63 7000 2.1 120 08:42 22.08.2019
3238 Haze 37 1003 60 7000 1 0 08:22 22.08.2019
3239 Haze 35 1002 71 7000 1.5 210 07:58 22.08.2019
3240 Haze 35 1002 71 7000 1.5 210 07:39 22.08.2019
3241 Haze 35 1002 71 7000 1.5 210 07:19 22.08.2019
3242 Haze 33 1002 75 6000 2.6 190 06:47 22.08.2019
3243 Haze 33 1002 75 6000 2.6 190 06:22 22.08.2019
3244 Mist 32 1003 84 6000 2.1 220 05:30 22.08.2019
3245 Mist 32 1001 70 7000 2.1 210 04:19 22.08.2019
3246 Mist 32 1001 70 10000 2.1 150 02:37 22.08.2019
3247 Mist 32 1001 70 10000 2.6 160 01:40 22.08.2019
3248 Mist 32 1001 70 10000 2.6 160 01:20 22.08.2019
3249 Mist 32 1001 70 10000 1.5 130 00:41 22.08.2019
3250 Mist 32 1001 70 10000 1.5 130 00:22 22.08.2019
3251 Mist 33 1001 70 10000 2.6 130 23:44 21.08.2019
3252 Mist 33 1001 70 10000 2.6 130 23:25 21.08.2019
3253 Mist 34 1002 71 10000 2.1 80 22:59 21.08.2019
3254 Mist 34 1002 67 10000 2.6 120 22:40 21.08.2019
3255 Mist 34 1002 67 10000 2.6 120 22:21 21.08.2019
3256 Mist 34 1002 71 10000 2.6 110 21:56 21.08.2019
3257 Mist 34 1002 67 10000 2.6 110 21:38 21.08.2019
3258 Mist 34 1002 67 10000 2.6 110 21:38 21.08.2019
3259 Mist 34 1002 67 10000 2.6 110 21:19 21.08.2019
3260 Mist 34 1002 71 9000 2.6 110 20:56 21.08.2019
3261 Mist 34 1002 71 9000 2.6 120 20:38 21.08.2019
3262 Mist 34 1002 71 9000 2.6 120 20:20 21.08.2019
3263 Haze 35 1002 67 7000 2.6 100 19:44 21.08.2019
3264 Haze 35 1002 67 7000 2.6 100 19:25 21.08.2019
3265 Haze 35 1002 67 7000 2.6 100 18:58 21.08.2019
3266 Haze 35 1002 67 7000 2.6 90 18:39 21.08.2019
3267 Haze 35 1002 67 7000 2.6 90 18:20 21.08.2019
3268 Haze 36 1001 71 7000 3.6 100 17:45 21.08.2019
3269 Haze 36 1001 71 7000 3.6 100 17:23 21.08.2019
3270 Haze 37 1001 67 7000 3.1 80 16:58 21.08.2019
3271 Haze 37 1001 67 7000 4.1 80 16:40 21.08.2019
3272 Haze 37 1001 67 7000 4.1 80 16:20 21.08.2019
3273 Haze 38 1001 60 7000 3.6 70 15:58 21.08.2019
3274 Haze 38 1001 63 7000 4.6 60 15:38 21.08.2019
3275 Haze 38 1001 63 7000 4.6 60 15:20 21.08.2019
3276 Haze 39 1002 34 8000 5.1 90 14:56 21.08.2019
3277 Haze 40 1002 57 7000 5.1 60 14:38 21.08.2019
3278 Haze 40 1002 57 7000 5.1 60 14:19 21.08.2019
3279 Clear 39 1002 51 8000 4.6 100 13:43 21.08.2019
3280 Haze 41 1002 51 8000 4.6 100 13:21 21.08.2019
3281 Haze 41 1002 54 8000 4.6 90 12:58 21.08.2019
3282 Haze 41 1002 48 9000 5.1 100 12:40 21.08.2019
3283 Haze 41 1002 48 9000 5.1 100 12:20 21.08.2019
3284 Haze 41 1002 48 9000 5.1 100 12:20 21.08.2019
3285 Haze 41 1002 48 9000 4.6 100 11:56 21.08.2019
3286 Haze 41 1003 48 10000 4.6 110 11:38 21.08.2019
3287 Haze 41 1003 48 10000 4.6 110 11:19 21.08.2019
3288 Haze 41 1003 51 10000 4.6 100 10:56 21.08.2019
3289 Haze 41 1003 41 10000 2.1 0 10:37 21.08.2019
3290 Haze 41 1003 41 10000 2.1 0 10:19 21.08.2019
3291 Haze 41 1004 40 10000 3.1 210 09:42 21.08.2019
3292 Haze 41 1004 40 10000 3.1 210 09:23 21.08.2019
3293 Haze 39 1004 48 10000 3.1 210 08:57 21.08.2019
3294 Clear 38 1004 50 10000 3.6 210 08:38 21.08.2019
3295 Haze 37 1004 50 10000 3.6 210 08:19 21.08.2019
3296 Haze 36 1004 56 10000 3.6 180 07:40 21.08.2019
3297 Haze 36 1004 56 10000 3.6 180 07:20 21.08.2019
3298 Mist 34 1004 63 9000 3.6 160 06:47 21.08.2019
3299 Mist 34 1004 63 9000 3.6 160 06:21 21.08.2019
3300 Haze 32 1003 70 7000 1.5 130 05:38 21.08.2019
3301 Haze 33 1003 70 7000 1.5 130 05:18 21.08.2019
3302 Haze 32 1003 79 10000 1 0 03:23 21.08.2019
3303 Clear 33 1002 75 10000 1 0 01:42 21.08.2019
3304 Clear 32 1002 75 10000 1 30 00:44 21.08.2019
3305 Clear 33 1002 75 10000 1 30 00:24 21.08.2019
3306 Clear 32 1002 75 10000 0.56 23.239 23:57 20.08.2019
3307 Clear 32 1003 79 10000 0.56 23.239 23:38 20.08.2019
3308 Haze 33 1003 79 10000 0.56 23.239 23:18 20.08.2019
3309 Haze 33 1003 79 10000 0.56 23.239 22:55 20.08.2019
3310 Haze 34 1003 79 10000 0.5 30 22:36 20.08.2019
3311 Haze 34 1003 79 10000 0.5 30 22:18 20.08.2019
3312 Haze 34 1003 75 10000 1.5 30 21:56 20.08.2019
3313 Haze 34 1003 75 10000 1.5 40 21:37 20.08.2019
3314 Haze 34 1003 75 10000 1.5 40 21:18 20.08.2019
3315 Haze 34 1004 75 10000 2.1 30 20:42 20.08.2019
3316 Haze 34 1004 75 10000 2.1 30 20:42 20.08.2019
3317 Haze 34 1004 75 10000 1.5 30 20:24 20.08.2019
3318 Haze 35 1004 71 10000 2.1 50 19:54 20.08.2019
3319 Haze 35 1004 67 10000 2.1 40 19:36 20.08.2019
3320 Haze 35 1004 67 10000 2.1 40 19:36 20.08.2019
3321 Haze 35 1004 67 10000 2.1 40 19:18 20.08.2019
3322 Haze 35 1003 71 10000 3.1 40 18:54 20.08.2019
3323 Haze 35 1003 71 10000 3.1 40 18:54 20.08.2019
3324 Clear 35 1003 67 10000 3.1 50 18:36 20.08.2019
3325 Haze 36 1003 67 10000 3.1 50 18:18 20.08.2019
3326 Haze 37 1003 60 10000 3.1 50 17:39 20.08.2019
3327 Haze 37 1003 60 10000 5.1 80 17:20 20.08.2019
3328 Haze 38 1003 53 10000 4.6 100 16:47 20.08.2019
3329 Haze 38 1003 53 10000 4.6 100 16:28 20.08.2019
3330 Haze 39 1003 47 10000 4.6 100 15:59 20.08.2019
3331 Haze 39 1003 47 10000 4.6 100 15:41 20.08.2019
3332 Haze 40 1002 45 10000 4.1 110 15:18 20.08.2019
3333 Haze 40 1003 42 9000 4.1 100 14:44 20.08.2019
3334 Haze 40 1003 38 9000 4.6 100 14:22 20.08.2019
3335 Haze 40 1003 38 9000 4.6 100 13:59 20.08.2019
3336 Haze 39 1003 48 9000 4.6 110 13:40 20.08.2019
3337 Haze 39 1003 45 9000 4.6 110 13:21 20.08.2019
3338 Haze 39 1003 45 9000 4.6 110 12:55 20.08.2019
3339 Haze 39 1003 51 9000 5.1 120 12:37 20.08.2019
3340 Haze 39 1004 53 10000 5.1 110 12:18 20.08.2019
3341 Haze 39 1004 50 10000 4.6 120 11:42 20.08.2019
3342 Haze 39 1004 53 10000 4.6 90 11:22 20.08.2019
3343 Haze 39 1004 53 10000 4.6 90 10:58 20.08.2019
3344 Haze 39 1004 53 10000 4.6 100 10:39 20.08.2019
3345 Haze 39 1004 53 10000 4.6 100 10:39 20.08.2019
3346 Haze 38 1005 53 10000 4.1 100 10:21 20.08.2019
3347 Haze 38 1005 53 10000 4.1 100 09:59 20.08.2019
3348 Haze 38 1005 53 10000 4.1 110 09:40 20.08.2019
3349 Haze 37 1005 67 10000 4.1 110 09:21 20.08.2019
3350 Haze 38 1005 63 10000 3.1 110 08:42 20.08.2019
3351 Haze 38 1005 63 10000 3.1 110 08:24 20.08.2019
3352 Haze 36 1005 63 10000 3.1 80 07:57 20.08.2019
3353 Haze 36 1005 63 10000 3.1 80 07:57 20.08.2019
3354 Haze 36 1005 63 9000 3.1 80 07:57 20.08.2019
3355 Haze 36 1005 63 9000 3.1 80 07:38 20.08.2019
3356 Mist 34 1004 63 9000 3.1 50 07:20 20.08.2019
3357 Mist 34 1004 71 8000 3.1 40 06:44 20.08.2019
3358 Mist 33 1004 79 8000 2.6 40 06:20 20.08.2019
3359 Mist 33 1004 84 7000 2.1 20 05:42 20.08.2019
3360 Mist 33 1003 84 8000 3.1 10 04:26 20.08.2019
3361 Mist 33 1002 79 10000 3.6 10 02:51 20.08.2019
3362 Mist 33 1002 84 9000 4.6 350 01:58 20.08.2019
3363 Mist 33 1002 84 9000 4.6 350 01:21 20.08.2019
3364 Mist 33 1003 84 9000 3.6 10 00:45 20.08.2019
3365 Mist 33 1003 84 9000 3.6 10 00:24 20.08.2019
3366 Haze 34 1003 79 9000 4.6 10 23:45 19.08.2019
3367 Haze 34 1003 79 9000 4.6 10 23:19 19.08.2019
3368 Haze 34 1003 79 9000 4.6 10 22:58 19.08.2019
3369 Haze 34 1003 79 9000 4.6 360 22:40 19.08.2019
3370 Clear 34 1003 79 9000 4.1 350 22:21 19.08.2019
3371 Clear 34 1003 79 9000 4.1 350 21:57 19.08.2019
3372 Clear 34 1004 79 8000 4.6 360 21:38 19.08.2019
3373 Haze 35 1004 75 7000 4.6 360 21:19 19.08.2019
3374 Haze 35 1004 75 7000 4.6 360 20:55 19.08.2019
3375 Haze 35 1004 79 7000 4.1 10 20:37 19.08.2019
3376 Haze 35 1003 79 7000 4.1 10 20:19 19.08.2019
3377 Haze 35 1003 79 7000 4.1 10 19:54 19.08.2019
3378 Haze 35 1003 75 8000 4.1 10 19:36 19.08.2019
3379 Haze 35 1003 75 8000 4.1 10 19:36 19.08.2019
3380 Haze 35 1003 71 7000 3.6 10 19:18 19.08.2019
3381 Haze 35 1003 71 8000 4.1 20 18:41 19.08.2019
3382 Haze 36 1002 71 6000 4.1 20 18:22 19.08.2019
3383 Haze 36 1002 71 6000 4.6 30 17:56 19.08.2019
3384 Haze 36 1002 71 6000 4.6 30 17:38 19.08.2019
3385 Haze 37 1002 60 6000 4.6 20 17:19 19.08.2019
3386 Haze 37 1002 60 6000 4.6 20 16:54 19.08.2019
3387 Haze 37 1002 60 6000 4.6 20 16:36 19.08.2019
3388 Haze 37 1002 60 6000 4.1 30 16:18 19.08.2019
3389 Haze 37 1002 60 6000 4.1 30 16:18 19.08.2019
3390 Haze 38 1002 53 6000 4.1 30 15:43 19.08.2019
3391 Haze 38 1002 53 6000 4.1 30 15:19 19.08.2019
3392 Haze 38 1002 50 7000 4.6 50 14:44 19.08.2019
3393 Haze 38 1002 50 7000 4.6 50 14:24 19.08.2019
3394 Haze 39 1002 45 10000 4.1 60 13:59 19.08.2019
3395 Haze 39 1002 47 10000 4.1 40 13:40 19.08.2019
3396 Haze 39 1002 47 10000 4.1 40 13:20 19.08.2019
3397 Haze 39 1002 47 10000 4.1 40 13:20 19.08.2019
3398 Haze 39 1002 47 10000 3.6 60 12:58 19.08.2019
3399 Haze 39 1002 47 10000 4.1 50 12:40 19.08.2019
3400 Haze 39 1002 47 10000 4.1 50 12:20 19.08.2019
3401 Haze 38 1003 47 10000 3.6 70 11:41 19.08.2019
3402 Haze 38 1003 47 10000 3.6 70 11:41 19.08.2019
3403 Haze 38 1003 47 10000 3.6 70 11:23 19.08.2019
3404 Haze 39 1003 45 10000 3.6 70 10:58 19.08.2019
3405 Haze 38 1003 53 10000 3.6 70 10:39 19.08.2019
3406 Haze 38 1003 53 10000 3.6 70 10:19 19.08.2019
3407 Haze 36 1003 60 10000 3.6 60 09:54 19.08.2019
3408 Haze 36 1003 63 10000 4.1 30 09:36 19.08.2019
3409 Haze 36 1003 63 10000 4.1 30 09:18 19.08.2019
3410 Haze 35 1003 59 10000 3.1 20 08:41 19.08.2019
3411 Haze 35 1003 59 10000 3.1 20 08:20 19.08.2019
3412 Haze 33 1003 67 10000 3.6 360 07:52 19.08.2019
3413 Haze 33 1003 67 10000 3.6 350 07:32 19.08.2019
3414 Haze 32 1003 67 10000 2.1 340 06:59 19.08.2019
3415 Haze 32 1003 66 10000 1.5 340 06:36 19.08.2019
3416 Haze 31 1002 62 10000 1 0 05:26 19.08.2019
3417 Haze 31 1002 66 10000 1.5 290 04:33 19.08.2019
3418 Haze 31 1001 79 10000 2.1 340 03:25 19.08.2019
3419 Haze 31 1000 79 10000 0.5 0 02:30 19.08.2019
3420 Haze 31 1000 79 10000 0.5 0 01:36 19.08.2019
3421 Haze 33 1000 79 10000 1 20 00:46 19.08.2019
3422 Haze 33 1001 75 10000 1.5 40 00:23 19.08.2019
3423 Haze 33 1001 75 10000 1.5 30 23:43 18.08.2019
3424 Haze 33 1001 75 10000 3.1 10 23:22 18.08.2019
3425 Haze 34 1001 70 10000 4.1 10 22:59 18.08.2019
3426 Haze 34 1002 63 10000 4.1 30 22:39 18.08.2019
3427 Haze 34 1002 63 10000 4.1 30 22:21 18.08.2019
3428 Clear 33 1002 67 10000 5.1 360 21:56 18.08.2019
3429 Clear 33 1002 67 10000 5.1 360 21:38 18.08.2019
3430 Haze 34 1002 67 10000 5.1 360 21:20 18.08.2019
3431 Haze 34 1002 67 10000 5.7 360 20:45 18.08.2019
3432 Haze 34 1002 67 10000 5.7 360 20:26 18.08.2019
3433 Haze 35 1002 67 10000 5.7 360 19:59 18.08.2019
3434 Clear 34 1001 71 10000 5.1 10 19:40 18.08.2019
3435 Clear 34 1001 71 10000 5.1 10 19:40 18.08.2019
3436 Haze 36 1001 71 10000 5.1 10 19:22 18.08.2019
3437 Haze 35 1001 71 10000 5.7 360 18:54 18.08.2019
3438 Clear 34 1001 71 10000 5.1 10 18:36 18.08.2019
3439 Clear 34 1001 71 10000 5.1 10 18:36 18.08.2019
3440 Haze 36 1001 71 10000 5.1 10 18:18 18.08.2019
3441 Haze 36 1000 67 10000 6.2 360 17:43 18.08.2019
3442 Haze 36 1000 67 10000 6.2 360 17:19 18.08.2019
3443 Haze 36 1000 67 10000 6.2 360 17:19 18.08.2019
3444 Haze 37 1000 63 10000 6.2 10 16:59 18.08.2019
3445 Haze 37 1000 56 10000 6.2 10 16:41 18.08.2019
3446 Haze 37 1000 56 10000 6.2 10 16:20 18.08.2019
3447 Haze 38 1000 53 10000 6.2 20 15:58 18.08.2019
3448 Clear 36 1000 50 10000 6.7 10 15:39 18.08.2019
3449 Haze 39 1000 50 10000 6.7 10 15:20 18.08.2019
3450 Haze 39 999 45 10000 6.7 10 14:56 18.08.2019
3451 Haze 39 999 42 10000 6.2 10 14:37 18.08.2019
3452 Haze 39 999 42 10000 6.2 10 14:18 18.08.2019
3453 Clear 38 1000 33 10000 6.2 360 13:43 18.08.2019
3454 Haze 40 1000 33 10000 6.2 360 13:24 18.08.2019
3455 Haze 40 1000 37 10000 5.1 20 12:59 18.08.2019
3456 Haze 40 1000 35 10000 6.2 10 12:40 18.08.2019
3457 Haze 40 1000 35 10000 6.2 10 12:21 18.08.2019
3458 Haze 40 1000 35 10000 6.2 10 12:21 18.08.2019
3459 Haze 41 1001 19 10000 6.7 10 11:44 18.08.2019
3460 Haze 41 1001 19 10000 6.7 10 11:23 18.08.2019
3461 Haze 40 1001 24 10000 7.2 20 10:59 18.08.2019
3462 Haze 40 1001 29 10000 6.7 20 10:41 18.08.2019
3463 Haze 39 1001 35 10000 5.7 10 10:19 18.08.2019
3464 Haze 39 1001 35 10000 5.7 10 09:48 18.08.2019
3465 Haze 39 1001 35 10000 6.7 350 09:21 18.08.2019
3466 Haze 39 1001 31 10000 7.2 340 08:54 18.08.2019
3467 Clear 38 1001 29 10000 7.2 340 08:36 18.08.2019
3468 Haze 37 1001 29 10000 7.2 340 08:18 18.08.2019
3469 Haze 37 1000 35 10000 4.6 320 07:42 18.08.2019
3470 Haze 37 1000 35 10000 4.6 320 07:23 18.08.2019
3471 Haze 32 1000 46 10000 4.1 300 05:46 18.08.2019
3472 Haze 32 999 46 10000 3.6 300 04:52 18.08.2019
3473 Haze 32 998 55 10000 2.6 280 03:23 18.08.2019
3474 Haze 32 998 52 10000 2.1 280 02:46 18.08.2019
3475 Haze 32 998 55 10000 2.6 290 02:19 18.08.2019
3476 Haze 33 998 41 10000 2.6 300 01:30 18.08.2019
3477 Haze 32 998 39 10000 2.1 320 00:44 18.08.2019
3478 Haze 32 998 39 10000 2.1 320 00:24 18.08.2019
3479 Haze 32 998 46 10000 2.1 340 23:58 17.08.2019
3480 Haze 32 998 49 10000 2.6 340 23:40 17.08.2019
3481 Haze 32 998 49 10000 2.6 340 23:22 17.08.2019
3482 Haze 33 998 49 10000 2.1 320 22:59 17.08.2019
3483 Haze 33 998 49 10000 2.6 340 22:41 17.08.2019
3484 Haze 33 998 49 10000 2.6 340 22:23 17.08.2019
3485 Haze 33 999 49 10000 3.1 360 21:56 17.08.2019
3486 Haze 34 999 41 10000 4.6 340 21:38 17.08.2019
3487 Haze 34 999 41 10000 4.6 340 21:38 17.08.2019
3488 Haze 34 999 41 10000 4.6 340 21:20 17.08.2019
3489 Haze 35 998 37 10000 6.2 340 20:40 17.08.2019
3490 Haze 35 998 37 10000 6.2 340 20:21 17.08.2019
3491 Haze 36 998 37 10000 6.2 330 19:57 17.08.2019
3492 Haze 36 998 37 10000 6.2 330 19:39 17.08.2019
3493 Haze 36 998 37 10000 6.2 330 19:20 17.08.2019
3494 Haze 37 998 37 10000 6.2 330 18:41 17.08.2019
3495 Haze 37 998 37 10000 6.2 330 18:19 17.08.2019
3496 Haze 37 998 39 10000 6.7 340 17:58 17.08.2019
3497 Haze 37 997 47 10000 7.2 360 17:40 17.08.2019
3498 Haze 37 997 47 10000 7.2 360 17:21 17.08.2019
3499 Haze 38 997 53 10000 6.7 360 16:45 17.08.2019
3500 Haze 38 997 47 10000 7.7 10 16:26 17.08.2019
3501 Haze 39 997 45 10000 7.7 10 15:59 17.08.2019
3502 Haze 39 997 47 10000 7.7 10 15:39 17.08.2019
3503 Haze 39 997 47 10000 7.7 10 15:20 17.08.2019
3504 Haze 41 997 34 10000 7.7 360 14:43 17.08.2019
3505 Haze 41 997 34 10000 7.7 360 14:23 17.08.2019
3506 Haze 41 997 30 10000 8.2 10 13:49 17.08.2019
3507 Haze 42 997 28 10000 8.2 10 13:23 17.08.2019
3508 Haze 41 997 28 10000 8.2 360 12:59 17.08.2019
3509 Clear 40 998 32 10000 8.2 10 12:41 17.08.2019
3510 Haze 42 998 32 10000 8.2 10 12:19 17.08.2019
3511 Haze 41 998 31 10000 7.7 360 11:57 17.08.2019
3512 Haze 41 998 32 10000 7.2 20 11:36 17.08.2019
3513 Haze 41 998 32 10000 7.2 20 11:18 17.08.2019
3514 Haze 43 999 18 10000 8.2 350 10:39 17.08.2019
3515 Haze 43 999 18 10000 8.2 350 10:19 17.08.2019
3516 Haze 42 999 20 10000 7.7 350 09:50 17.08.2019
3517 Haze 42 999 19 10000 6.2 320 09:31 17.08.2019
3518 Haze 40 999 24 10000 6.7 330 08:54 17.08.2019
3519 Haze 39 999 29 10000 6.7 330 08:26 17.08.2019
3520 Haze 37 999 35 10000 6.2 320 07:53 17.08.2019
3521 Haze 37 999 35 10000 6.2 320 07:22 17.08.2019
3522 Haze 35 999 42 10000 5.7 320 06:55 17.08.2019
3523 Haze 34 999 50 10000 4.6 310 05:55 17.08.2019
3524 Haze 33 998 56 10000 5.7 290 04:30 17.08.2019
3525 Haze 33 998 56 10000 4.1 300 03:35 17.08.2019
3526 Haze 33 997 52 10000 3.1 290 01:48 17.08.2019
3527 Haze 33 997 47 10000 3.6 290 01:29 17.08.2019
3528 Haze 34 997 44 10000 3.6 310 00:55 17.08.2019
3529 Haze 34 997 47 10000 1.5 0 00:31 17.08.2019
3530 Haze 34 998 47 10000 2.6 300 23:52 16.08.2019
3531 Haze 34 998 53 10000 3.1 300 23:30 16.08.2019
3532 Haze 34 999 56 10000 2.6 330 22:58 16.08.2019
3533 Haze 34 999 63 10000 3.1 340 22:39 16.08.2019
3534 Haze 34 999 63 10000 3.1 340 22:19 16.08.2019
3535 Haze 35 999 63 10000 4.1 340 21:42 16.08.2019
3536 Haze 35 999 63 10000 4.1 340 21:21 16.08.2019
3537 Haze 35 999 67 10000 4.1 350 20:58 16.08.2019
3538 Haze 35 999 67 10000 3.6 360 20:39 16.08.2019
3539 Haze 35 999 67 10000 3.6 360 20:19 16.08.2019
3540 Haze 36 999 71 10000 4.1 10 19:44 16.08.2019
3541 Haze 36 999 71 10000 5.1 10 19:23 16.08.2019
3542 Haze 36 999 67 10000 4.1 10 18:55 16.08.2019
3543 Haze 36 998 71 8000 4.1 10 18:36 16.08.2019
3544 Haze 36 998 71 8000 4.1 10 18:18 16.08.2019
3545 Haze 37 998 60 8000 3.6 10 17:43 16.08.2019
3546 Haze 37 998 60 8000 3.6 10 17:24 16.08.2019
3547 Haze 38 998 60 8000 4.1 10 16:56 16.08.2019
3548 Haze 38 998 50 8000 4.1 10 16:37 16.08.2019
3549 Haze 38 998 50 8000 4.1 10 16:18 16.08.2019
3550 Haze 39 998 45 9000 5.7 360 15:41 16.08.2019
3551 Haze 39 998 45 9000 5.7 360 15:22 16.08.2019
3552 Haze 40 998 37 9000 6.2 360 14:58 16.08.2019
3553 Haze 41 998 33 9000 6.2 10 14:39 16.08.2019
3554 Haze 41 998 33 9000 6.2 10 14:19 16.08.2019
3555 Haze 41 998 31 9000 5.1 10 13:57 16.08.2019
3556 Haze 41 999 35 9000 4.6 40 13:37 16.08.2019
3557 Haze 41 999 35 9000 4.6 40 13:19 16.08.2019
3558 Haze 41 999 40 9000 3.6 20 12:39 16.08.2019
3559 Haze 41 999 40 9000 3.6 20 12:20 16.08.2019
3560 Haze 41 999 38 9000 3.6 20 11:42 16.08.2019
3561 Haze 41 1000 38 8000 4.1 10 11:24 16.08.2019
3562 Haze 40 1000 38 8000 3.6 10 10:54 16.08.2019
3563 Haze 40 1001 42 8000 2.6 10 10:36 16.08.2019
3564 Haze 40 1001 42 8000 2.6 10 10:18 16.08.2019
3565 Clear 37 1001 39 8000 2.6 20 09:38 16.08.2019
3566 Haze 38 1001 39 8000 2.6 20 09:18 16.08.2019
3567 Haze 38 1001 37 8000 3.1 10 08:56 16.08.2019
3568 Clear 37 1001 35 7000 3.6 360 08:37 16.08.2019
3569 Haze 37 1001 35 7000 3.6 360 08:18 16.08.2019
3570 Haze 37 1001 39 7000 2.1 10 07:42 16.08.2019
3571 Haze 36 1001 42 6000 2.1 340 07:24 16.08.2019
3572 Haze 34 1000 71 4000 2.1 330 06:33 16.08.2019
3573 Haze 32 1000 84 3500 1.5 350 05:43 16.08.2019
3574 Haze 32 1000 84 4000 1 350 04:33 16.08.2019
3575 Haze 32 999 84 5000 1 10 03:18 16.08.2019
3576 Mist 33 1000 84 6000 3.1 10 01:43 16.08.2019
3577 Mist 33 999 89 6000 2.6 360 01:21 16.08.2019
3578 Mist 33 999 84 6000 2.6 10 00:43 16.08.2019
3579 Mist 33 1000 84 6000 2.6 10 00:22 16.08.2019
3580 Mist 34 1000 84 6000 2.1 10 23:45 15.08.2019
3581 Mist 34 1000 84 6000 1.5 20 23:22 15.08.2019
3582 Mist 34 1000 79 6000 2.1 20 22:58 15.08.2019
3583 Mist 34 1000 79 6000 1.5 30 22:40 15.08.2019
3584 Mist 34 1000 79 6000 1.5 30 22:21 15.08.2019
3585 Mist 34 1000 79 6000 2.1 20 21:56 15.08.2019
3586 Mist 34 1000 79 6000 2.6 10 21:38 15.08.2019
3587 Mist 34 1000 79 6000 2.6 10 21:18 15.08.2019
3588 Haze 35 1000 79 6000 3.1 360 20:43 15.08.2019
3589 Haze 35 1000 79 6000 3.6 360 20:22 15.08.2019
3590 Haze 35 1000 79 6000 3.6 10 19:58 15.08.2019
3591 Haze 35 1000 75 6000 4.1 10 19:39 15.08.2019
3592 Haze 35 1000 75 6000 4.1 10 19:21 15.08.2019
3593 Haze 36 999 71 6000 3.6 20 18:47 15.08.2019
3594 Haze 36 999 71 6000 4.1 20 18:23 15.08.2019
3595 Haze 36 999 71 6000 4.1 30 17:58 15.08.2019
3596 Haze 37 999 67 7000 4.1 20 17:38 15.08.2019
3597 Haze 37 999 67 7000 4.1 20 17:19 15.08.2019
3598 Haze 37 998 67 7000 3.6 40 16:57 15.08.2019
3599 Haze 38 998 60 7000 3.6 40 16:38 15.08.2019
3600 Haze 38 998 60 7000 3.6 40 16:20 15.08.2019
3601 Haze 38 999 56 7000 4.1 90 15:38 15.08.2019
3602 Haze 38 999 56 7000 4.1 90 15:20 15.08.2019
3603 Haze 38 999 63 7000 4.6 80 14:56 15.08.2019
3604 Haze 38 999 60 7000 5.1 80 14:37 15.08.2019
3605 Haze 38 999 60 7000 5.1 80 14:18 15.08.2019
3606 Haze 40 999 56 8000 5.1 90 13:55 15.08.2019
3607 Haze 40 999 50 8000 4.6 100 13:37 15.08.2019
3608 Haze 40 999 50 8000 4.6 100 13:19 15.08.2019
3609 Haze 40 999 50 8000 4.6 100 13:19 15.08.2019
3610 Haze 40 1000 51 8000 3.6 70 12:40 15.08.2019
3611 Haze 40 1000 51 8000 3.6 70 12:20 15.08.2019
3612 Haze 40 1000 51 9000 3.6 50 11:58 15.08.2019
3613 Haze 40 1000 51 9000 4.1 60 11:38 15.08.2019
3614 Haze 40 1000 51 9000 4.1 60 11:19 15.08.2019
3615 Haze 39 1001 51 10000 5.1 50 10:58 15.08.2019
3616 Haze 40 1001 45 10000 5.1 350 10:37 15.08.2019
3617 Haze 40 1001 45 10000 5.1 350 10:37 15.08.2019
3618 Haze 40 1001 45 10000 5.1 350 10:18 15.08.2019
3619 Haze 39 1001 38 10000 3.1 160 09:43 15.08.2019
3620 Haze 39 1001 38 10000 3.1 160 09:22 15.08.2019
3621 Mist 36 1001 60 9000 4.1 160 08:39 15.08.2019
3622 Mist 36 1001 60 9000 4.1 160 08:21 15.08.2019
3623 Mist 34 1001 67 8000 4.1 170 07:58 15.08.2019
3624 Mist 34 1001 75 7000 3.6 150 07:39 15.08.2019
3625 Mist 34 1001 75 7000 3.6 150 07:20 15.08.2019
3626 Haze 33 1001 79 5000 2.6 160 06:48 15.08.2019
3627 Haze 32 1000 84 5000 1.5 180 06:25 15.08.2019
3628 Mist 31 1000 89 5000 1 0 05:30 15.08.2019
3629 Mist 31 1000 89 5000 0.5 150 04:57 15.08.2019
3630 Mist 31 999 89 5000 0.5 0 04:19 15.08.2019
3631 Mist 32 999 89 7000 1.5 350 03:21 15.08.2019
3632 Mist 32 999 89 7000 1.5 360 02:34 15.08.2019
3633 Mist 32 999 89 7000 2.6 10 01:44 15.08.2019
3634 Mist 32 999 89 7000 2.6 10 00:58 15.08.2019
3635 Mist 32 999 84 7000 3.6 10 00:37 15.08.2019
3636 Mist 32 999 84 7000 3.6 10 00:19 15.08.2019
3637 Mist 33 999 84 7000 3.6 10 23:55 14.08.2019
3638 Clear 33 999 84 7000 3.6 10 23:37 14.08.2019
3639 Mist 33 999 84 7000 3.6 10 23:18 14.08.2019
3640 Mist 33 999 84 7000 2.1 360 22:41 14.08.2019
3641 Mist 33 999 84 7000 2.1 360 22:22 14.08.2019
3642 Mist 33 1000 84 7000 1.5 10 21:57 14.08.2019
3643 Clear 33 1000 84 6000 2.6 30 21:39 14.08.2019
3644 Clear 33 1000 84 6000 2.6 30 21:39 14.08.2019
3645 Mist 34 1000 84 6000 2.6 30 21:20 14.08.2019
3646 Mist 34 1000 79 6000 2.1 40 20:56 14.08.2019
3647 Mist 34 1000 79 6000 2.1 40 20:56 14.08.2019
3648 Mist 34 1000 79 6000 2.6 30 20:37 14.08.2019
3649 Mist 34 1000 79 6000 2.6 10 20:18 14.08.2019
3650 Clear 33 999 79 6000 2.1 10 19:41 14.08.2019
3651 Haze 35 999 75 6000 3.1 30 19:22 14.08.2019
3652 Haze 35 999 75 6000 3.1 30 18:59 14.08.2019
3653 Haze 35 999 71 6000 2.6 30 18:39 14.08.2019
3654 Haze 35 999 71 6000 2.6 30 18:21 14.08.2019
3655 Haze 36 998 75 5000 3.1 30 17:59 14.08.2019
3656 Haze 36 998 71 5000 3.6 40 17:39 14.08.2019
3657 Haze 36 998 71 5000 3.6 40 17:21 14.08.2019
3658 Haze 37 998 67 6000 3.6 40 16:56 14.08.2019
3659 Haze 37 998 67 6000 3.6 50 16:38 14.08.2019
3660 Haze 37 998 67 6000 3.6 50 16:19 14.08.2019
3661 Haze 37 998 67 6000 3.6 50 16:19 14.08.2019
3662 Haze 38 998 63 6000 4.6 30 15:43 14.08.2019
3663 Haze 38 998 63 6000 4.6 30 15:18 14.08.2019
3664 Haze 38 998 63 7000 5.1 50 14:55 14.08.2019
3665 Haze 38 998 63 7000 5.1 50 14:55 14.08.2019
3666 Haze 38 998 63 7000 5.7 40 14:36 14.08.2019
3667 Haze 38 998 63 7000 5.7 40 14:36 14.08.2019
3668 Haze 38 998 63 7000 5.7 40 14:18 14.08.2019
3669 Clear 39 998 60 7000 6.2 40 13:43 14.08.2019
3670 Clear 39 998 60 7000 6.2 40 13:24 14.08.2019
3671 Haze 40 999 53 8000 5.1 40 12:57 14.08.2019
3672 Haze 40 999 57 8000 4.6 40 12:39 14.08.2019
3673 Haze 40 999 57 8000 4.6 40 12:20 14.08.2019
3674 Haze 40 999 57 7000 5.1 30 11:56 14.08.2019
3675 Haze 40 999 60 7000 4.1 20 11:37 14.08.2019
3676 Haze 40 999 60 7000 4.1 20 11:19 14.08.2019
3677 Clear 40 1000 60 7000 3.6 30 10:43 14.08.2019
3678 Clear 40 1000 60 7000 3.6 30 10:24 14.08.2019
3679 Haze 39 1000 60 8000 4.6 30 09:57 14.08.2019
3680 Haze 40 1000 45 9000 2.6 300 09:38 14.08.2019
3681 Haze 40 1000 45 9000 2.6 300 09:19 14.08.2019
3682 Haze 38 1000 51 10000 1.5 160 08:39 14.08.2019
3683 Haze 38 1000 51 10000 1.5 160 08:21 14.08.2019
3684 Mist 35 1000 67 10000 3.1 180 07:51 14.08.2019
3685 Mist 35 1000 71 8000 4.1 140 07:32 14.08.2019
3686 Mist 33 1000 79 7000 4.1 130 06:46 14.08.2019
3687 Mist 33 999 84 6000 2.6 100 05:54 14.08.2019
3688 Mist 33 999 84 6000 3.1 100 05:22 14.08.2019
3689 Mist 32 998 89 7000 3.6 60 03:38 14.08.2019
3690 Mist 32 997 89 7000 2.6 30 02:33 14.08.2019
3691 Mist 32 997 89 7000 1.5 50 01:48 14.08.2019
3692 Mist 32 997 89 8000 1 0 01:18 14.08.2019
3693 Mist 32 997 89 8000 1 0 23:50 13.08.2019
3694 Mist 32 997 89 8000 1 0 23:25 13.08.2019
3695 Haze 33 998 89 8000 1 90 22:59 13.08.2019
3696 Haze 33 998 84 8000 1 0 22:39 13.08.2019
3697 Haze 33 998 84 8000 1 0 22:21 13.08.2019
3698 Haze 33 998 84 8000 1.5 110 21:58 13.08.2019
3699 Haze 33 998 84 8000 1.5 80 21:38 13.08.2019
3700 Haze 33 998 84 8000 1.5 80 21:38 13.08.2019
3701 Haze 33 998 84 8000 1.5 80 21:19 13.08.2019
3702 Haze 34 998 84 8000 2.1 80 20:56 13.08.2019
3703 Haze 34 998 84 8000 2.6 70 20:37 13.08.2019
3704 Haze 34 998 84 8000 2.6 70 20:18 13.08.2019
3705 Haze 35 998 79 10000 3.1 60 19:43 13.08.2019
3706 Haze 35 998 79 10000 3.1 60 19:22 13.08.2019
3707 Haze 35 997 71 10000 3.1 60 18:57 13.08.2019
3708 Haze 35 997 67 10000 3.6 70 18:38 13.08.2019
3709 Haze 35 997 67 10000 3.6 70 18:19 13.08.2019
3710 Haze 36 997 71 10000 4.1 80 17:42 13.08.2019
3711 Haze 36 997 71 10000 4.1 80 17:22 13.08.2019
3712 Haze 37 997 71 10000 4.6 80 16:57 13.08.2019
3713 Haze 37 997 63 10000 4.6 80 16:39 13.08.2019
3714 Haze 37 997 63 10000 4.6 80 16:20 13.08.2019
3715 Haze 38 996 56 10000 4.6 110 15:58 13.08.2019
3716 Haze 38 996 56 10000 5.1 110 15:36 13.08.2019
3717 Haze 38 996 56 10000 5.1 110 15:18 13.08.2019
3718 Haze 39 997 47 10000 4.6 110 14:41 13.08.2019
3719 Haze 39 997 47 10000 4.6 110 14:19 13.08.2019
3720 Clear 39 997 50 10000 4.6 110 13:55 13.08.2019
3721 Clear 39 997 53 10000 4.6 120 13:37 13.08.2019
3722 Clear 39 997 53 10000 4.6 120 13:18 13.08.2019
3723 Haze 39 997 50 10000 5.1 110 12:41 13.08.2019
3724 Haze 39 997 50 10000 5.1 110 12:23 13.08.2019
3725 Haze 39 998 53 10000 5.1 110 11:59 13.08.2019
3726 Haze 39 998 53 10000 4.6 110 11:40 13.08.2019
3727 Haze 39 998 53 10000 4.6 110 11:21 13.08.2019
3728 Haze 39 998 53 10000 4.6 110 11:21 13.08.2019
3729 Haze 40 998 50 10000 4.6 110 10:56 13.08.2019
3730 Haze 39 998 50 10000 5.7 110 10:37 13.08.2019
3731 Haze 39 998 50 10000 5.7 110 10:19 13.08.2019
3732 Haze 40 998 45 10000 3.6 110 09:44 13.08.2019
3733 Haze 40 998 45 10000 3.6 110 09:23 13.08.2019
3734 Haze 40 998 45 10000 3.6 110 09:23 13.08.2019
3735 Haze 37 998 42 10000 3.6 100 08:44 13.08.2019
3736 Haze 37 998 39 10000 3.6 100 08:23 13.08.2019
3737 Haze 37 998 27 10000 3.1 130 07:58 13.08.2019
3738 Haze 37 998 27 10000 3.1 130 07:58 13.08.2019
3739 Haze 37 997 25 10000 2.6 150 07:38 13.08.2019
3740 Haze 37 997 25 10000 2.6 150 07:38 13.08.2019
3741 Haze 37 997 25 10000 2.6 150 07:19 13.08.2019
3742 Haze 34 997 36 10000 2.1 160 06:41 13.08.2019
3743 Haze 32 997 46 10000 1 0 05:37 13.08.2019
3744 Haze 32 996 63 10000 2.6 220 03:36 13.08.2019
3745 Haze 32 996 66 10000 3.1 210 02:20 13.08.2019
3746 Haze 33 996 59 10000 2.1 210 01:20 13.08.2019
3747 Haze 33 996 59 10000 2.1 180 00:47 13.08.2019
3748 Haze 33 996 59 10000 2.1 170 23:58 12.08.2019
3749 Haze 33 996 63 10000 2.1 180 23:40 12.08.2019
3750 Haze 33 996 63 10000 2.1 180 23:19 12.08.2019
3751 Haze 33 996 66 10000 2.1 140 22:40 12.08.2019
3752 Haze 33 996 66 10000 2.1 140 22:20 12.08.2019
3753 Haze 34 996 59 10000 2.1 130 21:56 12.08.2019
3754 Haze 35 996 50 10000 1 0 21:38 12.08.2019
3755 Haze 35 996 50 10000 1 0 21:19 12.08.2019
3756 Haze 35 996 50 10000 3.55 51.053 20:57 12.08.2019
3757 Haze 35 996 47 10000 1.5 40 20:38 12.08.2019
3758 Haze 35 996 47 10000 1.5 40 20:20 12.08.2019
3759 Haze 36 996 50 10000 1.5 20 19:56 12.08.2019
3760 Haze 36 996 53 10000 1.5 20 19:37 12.08.2019
3761 Haze 36 996 53 10000 1.5 20 19:19 12.08.2019
3762 Haze 37 995 50 10000 2.6 360 18:55 12.08.2019
3763 Haze 37 995 47 10000 2.6 350 18:37 12.08.2019
3764 Haze 37 995 47 10000 2.6 350 18:37 12.08.2019
3765 Haze 37 995 47 10000 2.6 350 18:19 12.08.2019
3766 Haze 38 995 44 10000 2.6 350 17:46 12.08.2019
3767 Haze 38 995 47 10000 2.6 20 17:28 12.08.2019
3768 Haze 40 995 39 10000 3.6 20 16:57 12.08.2019
3769 Haze 40 995 31 10000 4.6 20 16:39 12.08.2019
3770 Haze 40 995 31 10000 4.6 20 16:39 12.08.2019
3771 Haze 40 995 31 10000 4.6 20 16:20 12.08.2019
3772 Haze 41 994 24 10000 4.6 10 15:59 12.08.2019
3773 Haze 42 994 23 10000 4.6 360 15:40 12.08.2019
3774 Haze 42 994 23 10000 4.6 360 15:21 12.08.2019
3775 -273 0 0 0 0 0 14:56 12.08.2019
3776 -273 0 0 0 0 0 14:56 12.08.2019
3777 Clear 41 994 19 10000 5.1 360 14:38 12.08.2019
3778 Clear 41 994 19 10000 5.1 360 14:38 12.08.2019
3779 Haze 42 994 19 10000 5.1 360 14:19 12.08.2019
3780 Haze 43 995 8 10000 5.1 320 13:43 12.08.2019
3781 Haze 43 995 8 10000 5.1 320 13:24 12.08.2019
3782 Haze 44 995 8 10000 6.2 320 12:58 12.08.2019
3783 Haze 44 995 8 10000 6.2 320 12:58 12.08.2019
3784 Haze 44 995 9 10000 6.2 320 12:39 12.08.2019
3785 Haze 44 995 9 10000 6.2 320 12:18 12.08.2019
3786 Haze 44 996 9 10000 5.7 310 11:42 12.08.2019
3787 Haze 44 996 9 10000 5.7 310 11:42 12.08.2019
3788 Haze 43 996 10 10000 4.6 310 11:23 12.08.2019
3789 Haze 43 996 14 10000 5.1 310 10:43 12.08.2019
3790 -273 0 0 0 0 0 10:23 12.08.2019
3791 Haze 42 996 14 10000 5.1 310 09:57 12.08.2019
3792 Clear 41 996 14 10000 6.2 300 09:38 12.08.2019
3793 Haze 41 996 14 10000 6.2 300 09:19 12.08.2019
3794 Haze 41 996 15 10000 6.2 290 08:58 12.08.2019
3795 Haze 41 996 16 10000 5.7 290 08:39 12.08.2019
3796 Haze 41 996 16 10000 5.7 290 08:20 12.08.2019
3797 Haze 41 996 16 10000 5.7 290 08:20 12.08.2019
3798 Haze 38 996 17 10000 5.7 290 07:52 12.08.2019
3799 Haze 38 996 19 10000 4.1 290 07:28 12.08.2019
3800 Haze 36 996 22 10000 5.1 280 06:52 12.08.2019
3801 Haze 33 995 30 10000 4.6 280 05:40 12.08.2019
3802 Haze 33 995 36 10000 2.1 260 02:44 12.08.2019
3803 Haze 34 994 36 10000 2.1 270 01:55 12.08.2019
3804 Haze 34 994 36 10000 2.6 250 01:21 12.08.2019
3805 Haze 34 995 34 10000 3.1 260 00:58 12.08.2019
3806 Haze 34 994 30 10000 2.6 270 00:39 12.08.2019
3807 Haze 34 994 30 10000 2.6 270 00:20 12.08.2019
3808 Haze 34 995 23 10000 1.5 0 23:55 11.08.2019
3809 Haze 34 995 19 10000 2.6 300 23:37 11.08.2019
3810 Haze 34 995 19 10000 2.6 300 23:18 11.08.2019
3811 Haze 36 995 17 10000 3.6 300 22:40 11.08.2019
3812 Haze 36 995 17 10000 3.6 300 22:20 11.08.2019
3813 Haze 36 995 17 10000 3.6 300 22:20 11.08.2019
3814 Haze 36 995 17 10000 3.6 300 21:59 11.08.2019
3815 Haze 36 995 15 10000 3.6 310 21:41 11.08.2019
3816 Haze 36 995 15 10000 3.6 310 21:22 11.08.2019
3817 Haze 37 995 16 10000 3.6 310 20:57 11.08.2019
3818 Haze 37 995 15 10000 3.6 310 20:39 11.08.2019
3819 Haze 37 995 15 10000 3.6 310 20:20 11.08.2019
3820 Haze 36 995 18 10000 4.6 340 19:44 11.08.2019
3821 Haze 36 995 17 10000 5.1 330 19:20 11.08.2019
3822 Haze 37 995 22 10000 5.1 330 18:42 11.08.2019
3823 Haze 37 995 22 10000 5.1 330 18:23 11.08.2019
3824 Haze 38 995 21 10000 6.7 340 17:59 11.08.2019
3825 Haze 38 995 21 10000 7.2 340 17:41 11.08.2019
3826 Haze 38 995 21 10000 7.2 340 17:20 11.08.2019
3827 Haze 40 994 20 10000 7.7 340 16:57 11.08.2019
3828 Haze 40 994 20 10000 8.2 340 16:38 11.08.2019
3829 Haze 40 994 20 10000 8.2 340 16:20 11.08.2019
3830 Haze 42 994 15 10000 9.8 330 15:44 11.08.2019
3831 Haze 42 994 15 10000 9.8 330 15:25 11.08.2019
3832 Haze 43 994 13 10000 8.7 330 14:59 11.08.2019
3833 Haze 43 994 14 10000 10.3 330 14:39 11.08.2019
3834 Haze 43 994 14 10000 10.3 330 14:20 11.08.2019
3835 Haze 43 994 18 10000 10.3 340 13:44 11.08.2019
3836 Haze 43 994 15 10000 10.3 330 13:26 11.08.2019
3837 Haze 43 994 16 10000 9.3 330 12:57 11.08.2019
3838 Haze 43 994 14 9000 9.8 330 12:37 11.08.2019
3839 Haze 43 994 14 9000 9.8 330 12:19 11.08.2019
3840 Haze 43 995 17 8000 9.8 330 11:40 11.08.2019
3841 Haze 43 995 17 8000 9.8 330 11:22 11.08.2019
3842 Haze 42 995 19 10000 10.8 330 10:55 11.08.2019
3843 Clear 42 995 21 10000 9.8 330 10:37 11.08.2019
3844 Haze 42 995 21 10000 9.8 330 10:19 11.08.2019
3845 Haze 41 996 26 10000 8.2 330 09:43 11.08.2019
3846 Haze 41 996 26 10000 8.2 330 09:24 11.08.2019
3847 Haze 39 996 31 10000 6.7 320 08:56 11.08.2019
3848 Haze 39 996 29 10000 6.2 320 08:36 11.08.2019
3849 Haze 39 996 29 10000 6.2 320 08:18 11.08.2019
3850 Haze 36 996 33 10000 6.7 310 07:32 11.08.2019
3851 Haze 36 995 35 10000 5.1 310 06:51 11.08.2019
3852 Haze 36 995 30 10000 4.6 300 06:31 11.08.2019
3853 Haze 33 995 32 10000 4.1 290 04:46 11.08.2019
3854 Haze 33 994 28 10000 2.6 270 02:53 11.08.2019
3855 Haze 33 994 38 10000 2.1 260 01:58 11.08.2019
3856 Haze 33 995 30 10000 2.6 280 01:32 11.08.2019
3857 Haze 33 994 25 10000 2.1 250 00:56 11.08.2019
3858 Clear 33 995 26 10000 1.5 290 00:36 11.08.2019
3859 Clear 33 995 31 10000 1 0 23:55 10.08.2019
3860 Haze 33 995 34 10000 1.5 160 23:34 10.08.2019
3861 Haze 33 995 38 10000 1.5 140 22:57 10.08.2019
3862 Clear 33 996 38 10000 1.5 20 22:38 10.08.2019
3863 Haze 33 996 38 10000 1.5 20 22:19 10.08.2019
3864 Clear 33 996 34 10000 1 0 21:41 10.08.2019
3865 Haze 34 996 34 10000 1 0 21:21 10.08.2019
3866 Haze 35 996 28 10000 3.1 340 20:59 10.08.2019
3867 Haze 35 996 28 10000 3.1 340 20:59 10.08.2019
3868 Haze 35 996 28 10000 3.6 330 20:40 10.08.2019
3869 Haze 35 996 28 10000 3.6 330 20:20 10.08.2019
3870 Haze 35 996 26 10000 4.6 340 19:54 10.08.2019
3871 Haze 36 996 25 10000 5.7 330 19:36 10.08.2019
3872 Haze 36 996 25 10000 5.7 330 19:18 10.08.2019
3873 Haze 37 995 21 10000 6.7 340 18:38 10.08.2019
3874 Haze 37 995 21 10000 6.7 340 18:20 10.08.2019
3875 Haze 39 995 19 10000 5.1 330 17:40 10.08.2019
3876 Haze 39 995 19 10000 5.1 330 17:21 10.08.2019
3877 Haze 41 994 20 10000 6.2 320 16:43 10.08.2019
3878 Haze 41 994 20 10000 6.2 320 16:25 10.08.2019
3879 Haze 40 994 35 10000 5.7 340 15:51 10.08.2019
3880 Haze 39 994 51 10000 6.7 350 15:22 10.08.2019
3881 Haze 39 994 48 10000 8.2 350 14:44 10.08.2019
3882 Haze 39 994 48 10000 8.2 350 14:21 10.08.2019
3883 Haze 40 994 43 10000 7.2 340 13:42 10.08.2019
3884 Haze 40 994 43 10000 7.2 340 13:20 10.08.2019
3885 Haze 40 994 43 10000 6.2 360 12:57 10.08.2019
3886 Haze 40 995 45 10000 5.7 10 12:39 10.08.2019
3887 Haze 40 995 45 10000 5.7 10 12:20 10.08.2019
3888 Haze 40 995 45 10000 6.2 10 11:42 10.08.2019
3889 Haze 40 995 45 10000 6.2 10 11:22 10.08.2019
3890 Haze 39 996 45 10000 6.2 10 10:57 10.08.2019
3891 Haze 39 996 45 10000 5.7 20 10:37 10.08.2019
3892 Haze 39 996 45 10000 5.7 20 10:19 10.08.2019
3893 Haze 40 996 35 10000 7.2 350 09:43 10.08.2019
3894 Haze 39 996 37 10000 7.7 340 09:23 10.08.2019
3895 Haze 38 996 37 10000 7.7 340 08:55 10.08.2019
3896 Haze 38 996 37 10000 7.7 340 08:55 10.08.2019
3897 Haze 38 996 39 10000 6.2 330 08:37 10.08.2019
3898 Haze 38 996 39 10000 6.2 330 08:18 10.08.2019
3899 Haze 36 996 42 10000 6.2 330 07:43 10.08.2019
3900 Haze 36 996 44 10000 5.7 330 07:19 10.08.2019
3901 Haze 35 996 47 10000 4.6 320 06:43 10.08.2019
3902 Haze 33 995 56 10000 4.1 310 05:44 10.08.2019
3903 Haze 33 995 50 10000 3.6 320 05:44 10.08.2019
3904 Haze 33 995 56 10000 4.1 310 05:18 10.08.2019
3905 Haze 32 994 52 10000 2.6 320 03:51 10.08.2019
3906 Haze 33 994 59 10000 3.1 320 02:38 10.08.2019
3907 Haze 33 993 67 10000 2.6 320 01:44 10.08.2019
3908 Haze 33 993 67 10000 2.6 320 01:24 10.08.2019
3909 Haze 33 994 67 10000 1.5 360 00:58 10.08.2019
3910 Haze 33 994 67 10000 2.6 350 00:40 10.08.2019
3911 Haze 33 994 67 10000 2.6 350 00:18 10.08.2019
3912 Haze 33 994 67 10000 3.6 340 23:39 09.08.2019
3913 Haze 33 994 67 10000 3.6 340 23:20 09.08.2019
3914 Haze 33 994 67 10000 3.6 340 23:20 09.08.2019
3915 Haze 33 994 67 10000 3.6 340 23:20 09.08.2019
3916 Haze 33 995 71 10000 3.6 330 22:55 09.08.2019
3917 Haze 33 995 71 10000 3.6 330 22:55 09.08.2019
3918 Haze 33 995 79 10000 4.6 330 22:37 09.08.2019
3919 Haze 33 995 79 10000 4.6 330 22:18 09.08.2019
3920 Haze 34 995 75 10000 5.1 340 21:40 09.08.2019
3921 Haze 34 995 75 10000 5.1 340 21:21 09.08.2019
3922 Haze 34 995 71 10000 5.7 340 20:57 09.08.2019
3923 Haze 34 995 71 10000 5.7 340 20:39 09.08.2019
3924 Haze 34 995 71 10000 5.7 340 20:18 09.08.2019
3925 Haze 35 994 67 10000 7.2 340 19:43 09.08.2019
3926 Haze 35 994 67 10000 7.2 340 19:22 09.08.2019
3927 Haze 35 994 71 10000 5.7 340 18:58 09.08.2019
3928 Haze 35 994 71 10000 6.2 350 18:38 09.08.2019
3929 Haze 35 994 71 10000 6.2 350 18:19 09.08.2019
3930 Haze 35 993 75 9000 7.2 350 17:43 09.08.2019
3931 Haze 35 993 75 9000 7.2 350 17:43 09.08.2019
3932 Haze 35 993 75 7000 6.7 360 17:24 09.08.2019
3933 -273 0 0 0 0 0 16:56 09.08.2019
3934 Haze 36 993 75 6000 7.7 10 16:37 09.08.2019
3935 Haze 36 993 75 6000 7.7 10 16:18 09.08.2019
3936 Haze 37 992 71 6000 7.2 10 15:42 09.08.2019
3937 Haze 37 992 71 6000 7.2 10 15:21 09.08.2019
3938 Haze 38 992 75 6000 7.7 10 14:58 09.08.2019
3939 Haze 38 992 71 6000 7.2 10 14:38 09.08.2019
3940 Haze 38 992 71 6000 7.2 10 14:20 09.08.2019
3941 Haze 39 992 75 6000 6.7 10 13:46 09.08.2019
3942 Haze 38 992 71 6000 6.7 10 13:21 09.08.2019
3943 Haze 38 992 67 6000 7.7 10 12:56 09.08.2019
3944 Haze 38 992 67 6000 7.7 10 12:37 09.08.2019
3945 Haze 38 992 67 6000 7.7 10 12:18 09.08.2019
3946 Haze 38 993 67 8000 7.7 10 11:41 09.08.2019
3947 Haze 38 993 67 8000 7.7 10 11:21 09.08.2019
3948 Haze 39 993 60 9000 8.2 10 10:54 09.08.2019
3949 Haze 39 993 48 9000 8.7 350 10:36 09.08.2019
3950 Haze 39 993 48 9000 8.7 350 10:18 09.08.2019
3951 Haze 39 994 45 9000 6.7 330 09:41 09.08.2019
3952 Haze 39 994 45 9000 6.7 330 09:19 09.08.2019
3953 Haze 38 994 40 9000 8.2 330 08:45 09.08.2019
3954 Haze 38 994 40 9000 8.7 330 08:25 09.08.2019
3955 Haze 37 994 42 8000 6.2 320 07:56 09.08.2019
3956 Haze 37 994 39 6000 6.2 320 07:37 09.08.2019
3957 Haze 37 994 39 6000 6.2 320 07:19 09.08.2019
3958 Haze 35 994 39 6000 5.7 310 06:44 09.08.2019
3959 Haze 35 994 39 6000 5.7 310 06:21 09.08.2019
3960 Clear 35 993 41 6000 5.7 300 05:37 09.08.2019
3961 Haze 34 992 44 10000 6.2 310 02:28 09.08.2019
3962 Haze 34 992 44 10000 5.7 310 01:26 09.08.2019
3963 Haze 34 993 44 10000 4.6 300 00:42 09.08.2019
3964 Haze 34 993 44 10000 4.6 300 00:23 09.08.2019
3965 Haze 34 993 44 10000 5.7 310 23:57 08.08.2019
3966 Haze 34 993 44 10000 5.7 310 23:57 08.08.2019
3967 Haze 35 993 39 10000 4.1 320 23:37 08.08.2019
3968 Haze 35 993 39 10000 4.1 320 23:19 08.08.2019
3969 Haze 34 993 39 10000 6.7 330 22:55 08.08.2019
3970 Haze 35 993 37 10000 6.7 330 22:36 08.08.2019
3971 Haze 35 993 37 10000 6.7 330 22:18 08.08.2019
3972 Haze 35 994 44 10000 6.7 330 21:42 08.08.2019
3973 Haze 35 994 44 10000 6.7 330 21:42 08.08.2019
3974 Haze 35 994 44 10000 6.7 330 21:23 08.08.2019
3975 Haze 35 994 47 10000 6.7 330 20:57 08.08.2019
3976 Haze 35 994 47 10000 7.2 340 20:39 08.08.2019
3977 Haze 35 994 47 10000 7.2 340 20:39 08.08.2019
3978 Haze 35 994 47 10000 7.2 340 20:19 08.08.2019
3979 Haze 36 993 44 10000 7.7 340 19:48 08.08.2019
3980 Haze 36 993 44 10000 7.7 340 19:29 08.08.2019
3981 Haze 37 993 39 10000 7.7 340 18:57 08.08.2019
3982 Haze 37 992 35 10000 7.2 330 18:36 08.08.2019
3983 Haze 37 992 35 10000 7.2 330 18:18 08.08.2019
3984 Haze 37 992 35 10000 7.2 330 18:18 08.08.2019
3985 Haze 38 992 35 10000 7.2 320 17:42 08.08.2019
3986 Haze 38 992 35 10000 7.2 320 17:24 08.08.2019
3987 Haze 40 992 31 9000 6.7 310 16:57 08.08.2019
3988 Haze 40 991 31 9000 5.7 320 16:39 08.08.2019
3989 Haze 40 991 31 9000 5.7 320 16:39 08.08.2019
3990 Haze 40 991 31 9000 5.7 320 16:20 08.08.2019
3991 Haze 42 991 26 9000 7.2 320 15:57 08.08.2019
3992 Haze 42 991 26 9000 7.2 330 15:37 08.08.2019
3993 Haze 42 991 26 9000 7.2 330 15:19 08.08.2019
3994 Dust 43 991 25 9000 8.2 320 14:38 08.08.2019
3995 Dust 43 991 25 9000 8.2 320 14:19 08.08.2019
3996 Haze 43 991 25 9000 9.3 330 13:42 08.08.2019
3997 Haze 43 991 25 9000 9.3 330 13:24 08.08.2019
3998 Haze 43 991 23 8000 8.2 320 12:58 08.08.2019
3999 Dust 44 992 24 6000 7.7 310 12:38 08.08.2019
4000 Dust 44 992 24 6000 7.7 310 12:18 08.08.2019
4001 Dust 43 992 20 5000 8.7 320 11:43 08.08.2019
4002 Dust 43 992 20 5000 8.7 320 11:24 08.08.2019
4003 Haze 42 993 21 7000 7.7 310 10:42 08.08.2019
4004 Haze 42 993 21 7000 7.7 310 10:22 08.08.2019
4005 Haze 41 993 20 9000 8.2 310 09:58 08.08.2019
4006 Haze 41 994 20 10000 7.7 310 09:39 08.08.2019
4007 Haze 41 994 20 10000 7.7 310 09:20 08.08.2019
4008 Haze 40 994 24 10000 6.2 300 08:42 08.08.2019
4009 Haze 40 994 26 10000 5.7 300 08:21 08.08.2019
4010 Haze 40 994 26 10000 5.7 300 08:21 08.08.2019
4011 -273 0 0 0 0 0 07:56 08.08.2019
4012 Haze 38 994 29 10000 5.7 290 07:56 08.08.2019
4013 Haze 38 994 33 10000 6.2 300 07:37 08.08.2019
4014 Haze 38 994 33 10000 6.2 300 07:18 08.08.2019
4015 Haze 37 994 35 10000 5.1 310 06:41 08.08.2019
4016 Haze 36 994 35 10000 5.7 300 05:57 08.08.2019
4017 Haze 36 994 32 10000 5.1 300 05:39 08.08.2019
4018 Haze 35 994 30 10000 3.6 280 03:59 08.08.2019
4019 Haze 36 993 27 10000 4.6 290 03:39 08.08.2019
4020 Haze 35 993 30 10000 3.1 270 01:42 08.08.2019
4021 Haze 35 993 30 10000 3.1 280 00:59 08.08.2019
4022 Haze 35 993 29 10000 3.1 280 00:22 08.08.2019
4023 Haze 36 993 25 10000 2.6 270 23:38 07.08.2019
4024 Haze 36 993 25 10000 2.6 270 23:18 07.08.2019
4025 Haze 36 994 25 10000 4.1 290 22:41 07.08.2019
4026 Haze 36 994 25 10000 4.1 290 22:21 07.08.2019
4027 Haze 37 994 25 10000 3.6 290 21:58 07.08.2019
4028 Haze 37 994 22 10000 3.1 280 21:40 07.08.2019
4029 Haze 37 994 22 10000 3.1 280 21:21 07.08.2019
4030 Haze 37 994 22 10000 3.1 280 21:21 07.08.2019
4031 Haze 38 994 19 10000 3.6 290 20:59 07.08.2019
4032 Haze 38 994 19 10000 4.6 300 20:41 07.08.2019
4033 Haze 38 994 19 10000 4.6 300 20:20 07.08.2019
4034 Haze 38 994 19 10000 3.6 310 19:55 07.08.2019
4035 Haze 38 994 20 10000 3.6 300 19:36 07.08.2019
4036 Haze 38 994 20 10000 3.6 300 19:18 07.08.2019
4037 Haze 40 994 19 10000 5.1 310 18:40 07.08.2019
4038 Haze 40 994 19 10000 5.1 310 18:20 07.08.2019
4039 Haze 42 994 16 10000 3.6 310 17:56 07.08.2019
4040 Haze 42 994 14 10000 5.7 300 17:38 07.08.2019
4041 Haze 42 994 14 10000 5.7 300 17:19 07.08.2019
4042 Haze 43 994 12 10000 6.2 320 16:56 07.08.2019
4043 Haze 43 993 12 10000 6.2 320 16:38 07.08.2019
4044 Haze 43 993 12 10000 6.2 320 16:19 07.08.2019
4045 Haze 44 994 11 10000 7.2 310 15:43 07.08.2019
4046 Haze 44 994 11 10000 6.7 320 15:22 07.08.2019
4047 Haze 44 994 11 10000 6.7 320 14:57 07.08.2019
4048 Clear 44 993 12 10000 7.2 310 14:39 07.08.2019
4049 Haze 45 993 12 10000 7.2 310 14:20 07.08.2019
4050 Haze 45 994 11 10000 7.2 320 13:40 07.08.2019
4051 Haze 45 994 11 10000 7.2 320 13:19 07.08.2019
4052 Haze 45 994 12 10000 7.7 310 12:58 07.08.2019
4053 Haze 45 994 14 10000 8.2 330 12:39 07.08.2019
4054 Haze 45 994 14 10000 8.2 330 12:20 07.08.2019
4055 Haze 45 995 15 10000 8.2 310 11:58 07.08.2019
4056 Haze 45 995 17 10000 6.7 320 11:40 07.08.2019
4057 Haze 45 995 17 10000 6.7 320 11:19 07.08.2019
4058 Haze 43 995 20 10000 5.1 300 10:41 07.08.2019
4059 Haze 43 995 20 10000 5.1 300 10:20 07.08.2019
4060 Haze 42 996 21 10000 5.7 310 09:59 07.08.2019
4061 Haze 42 996 22 10000 4.6 310 09:41 07.08.2019
4062 Haze 42 996 22 10000 4.6 310 09:21 07.08.2019
4063 Haze 41 996 22 10000 4.6 300 08:45 07.08.2019
4064 Haze 40 996 23 10000 4.1 300 08:25 07.08.2019
4065 Haze 39 996 24 10000 4.1 300 07:51 07.08.2019
4066 Haze 37 995 26 10000 5.1 290 07:32 07.08.2019
4067 Haze 37 995 29 10000 4.1 270 06:50 07.08.2019
4068 Haze 37 995 25 10000 3.6 270 06:27 07.08.2019
4069 Haze 35 995 30 10000 2.6 240 05:43 07.08.2019
4070 Haze 34 995 28 10000 3.1 250 04:43 07.08.2019
4071 Haze 34 995 28 10000 2.1 250 03:20 07.08.2019
4072 Clear 34 994 25 10000 3.6 250 02:42 07.08.2019
4073 Haze 34 994 22 10000 3.1 240 01:53 07.08.2019
4074 Haze 35 994 18 10000 2.6 250 01:23 07.08.2019
4075 Haze 36 994 17 10000 2.1 260 00:38 07.08.2019
4076 Haze 36 994 17 10000 2.1 260 00:19 07.08.2019
4077 Haze 36 993 19 10000 3.1 230 23:40 06.08.2019
4078 Haze 36 993 19 10000 3.1 230 23:20 06.08.2019
4079 Haze 36 994 18 10000 1.5 230 22:42 06.08.2019
4080 Haze 36 994 18 10000 1.5 230 22:22 06.08.2019
4081 Haze 37 995 18 10000 2.1 230 21:59 06.08.2019
4082 Haze 37 995 24 10000 2.1 200 21:40 06.08.2019
4083 Haze 37 995 24 10000 2.1 200 21:20 06.08.2019
4084 Haze 37 995 24 10000 2.1 200 21:20 06.08.2019
4085 Haze 37 995 24 10000 2.1 200 21:19 06.08.2019
4086 Haze 37 995 24 10000 2.1 200 21:19 06.08.2019
4087 Haze 37 995 31 10000 1.5 170 20:47 06.08.2019
4088 Haze 36 995 32 10000 0.5 0 20:29 06.08.2019
4089 Haze 37 995 35 10000 1 10 19:58 06.08.2019
4090 Haze 37 995 39 10000 1.5 40 19:38 06.08.2019
4091 Haze 37 995 39 10000 1.5 40 19:19 06.08.2019
4092 Haze 38 995 37 10000 2.1 360 18:43 06.08.2019
4093 Haze 38 995 37 10000 2.1 360 18:25 06.08.2019
4094 Haze 39 995 27 10000 4.6 360 17:58 06.08.2019
4095 Haze 40 994 19 10000 6.2 350 17:38 06.08.2019
4096 Haze 40 994 19 10000 6.2 350 17:20 06.08.2019
4097 Haze 42 994 16 10000 7.2 350 16:54 06.08.2019
4098 Haze 42 994 12 10000 7.2 330 16:36 06.08.2019
4099 Haze 42 994 12 10000 7.2 330 16:18 06.08.2019
4100 Haze 43 994 10 10000 6.2 320 15:56 06.08.2019
4101 Clear 43 994 11 10000 6.7 310 15:37 06.08.2019
4102 Haze 44 994 11 10000 6.7 310 15:18 06.08.2019
4103 Haze 43 995 11 10000 7.2 330 14:40 06.08.2019
4104 Haze 43 995 11 10000 7.2 330 14:22 06.08.2019
4105 Haze 44 995 11 10000 6.7 310 13:57 06.08.2019
4106 Haze 44 995 12 10000 6.7 320 13:38 06.08.2019
4107 Haze 44 995 12 10000 6.7 320 13:19 06.08.2019
4108 Haze 45 995 10 10000 5.7 300 12:42 06.08.2019
4109 Haze 45 995 10 10000 5.7 300 12:24 06.08.2019
4110 Haze 45 995 10 10000 6.7 290 11:59 06.08.2019
4111 Haze 45 995 10 10000 6.7 290 11:59 06.08.2019
4112 Haze 45 996 11 10000 7.2 310 11:40 06.08.2019
4113 Haze 45 996 11 10000 7.2 310 11:18 06.08.2019
4114 Haze 44 996 11 10000 7.2 300 10:41 06.08.2019
4115 Haze 44 996 11 10000 7.2 300 10:22 06.08.2019
4116 Haze 43 996 13 10000 5.7 290 09:47 06.08.2019
4117 Haze 43 996 14 10000 4.6 290 09:23 06.08.2019
4118 Haze 41 997 17 10000 4.6 260 08:56 06.08.2019
4119 Haze 41 997 17 10000 3.6 250 08:37 06.08.2019
4120 Haze 41 997 17 10000 3.6 250 08:19 06.08.2019
4121 Haze 38 996 24 10000 3.6 250 07:32 06.08.2019
4122 Haze 36 996 24 10000 4.1 250 06:45 06.08.2019
4123 Haze 36 996 23 10000 4.1 250 06:26 06.08.2019
4124 Haze 35 996 25 10000 3.6 250 05:47 06.08.2019
4125 Clear 35 995 23 10000 2.6 230 02:59 06.08.2019
4126 Clear 35 994 22 10000 2.6 230 01:46 06.08.2019
4127 Clear 36 994 20 10000 3.1 220 01:21 06.08.2019
4128 Clear 36 995 19 10000 2.6 220 00:26 06.08.2019
4129 Haze 35 995 20 10000 2.6 220 23:21 05.08.2019
4130 Haze 36 995 17 10000 2.1 240 22:59 05.08.2019
4131 Haze 36 995 17 10000 2.1 240 22:40 05.08.2019
4132 Haze 36 995 17 10000 2.1 240 22:22 05.08.2019
4133 Haze 36 995 17 10000 2.1 240 22:22 05.08.2019
4134 Haze 37 995 17 10000 2.1 240 21:43 05.08.2019
4135 Clear 37 995 18 10000 1 0 21:21 05.08.2019
4136 Clear 37 995 18 10000 1.5 310 20:59 05.08.2019
4137 Clear 36 995 30 10000 1 0 20:40 05.08.2019
4138 Haze 37 995 30 10000 1 0 20:22 05.08.2019
4139 Haze 38 995 33 10000 1 0 19:59 05.08.2019
4140 Haze 38 995 29 10000 1.5 350 19:39 05.08.2019
4141 Haze 38 995 29 10000 1.5 350 19:20 05.08.2019
4142 Haze 38 995 37 10000 2.1 350 18:43 05.08.2019
4143 Haze 39 995 33 10000 3.1 360 18:21 05.08.2019
4144 Haze 40 995 21 10000 5.1 350 17:57 05.08.2019
4145 Haze 40 994 20 10000 6.2 350 17:39 05.08.2019
4146 Haze 40 994 20 10000 6.2 350 17:20 05.08.2019
4147 Clear 42 994 13 10000 5.1 310 16:43 05.08.2019
4148 Clear 42 994 13 10000 5.1 310 16:23 05.08.2019
4149 Haze 43 994 12 10000 5.7 310 15:43 05.08.2019
4150 Haze 43 994 12 10000 6.2 320 15:20 05.08.2019
4151 Clear 42 994 25 10000 6.2 10 14:43 05.08.2019
4152 Clear 42 994 25 10000 6.2 10 14:23 05.08.2019
4153 Haze 43 995 26 10000 5.7 10 13:57 05.08.2019
4154 Haze 43 995 28 10000 5.7 20 13:39 05.08.2019
4155 Haze 43 995 28 10000 5.7 20 13:18 05.08.2019
4156 Haze 43 996 18 10000 5.7 10 12:42 05.08.2019
4157 Haze 43 996 18 10000 5.7 10 12:19 05.08.2019
4158 Haze 43 996 16 10000 5.1 10 11:44 05.08.2019
4159 Haze 43 996 16 10000 6.2 10 11:25 05.08.2019
4160 Haze 43 996 18 10000 6.2 360 10:49 05.08.2019
4161 Haze 43 996 16 10000 6.2 340 10:31 05.08.2019
4162 Haze 43 997 13 10000 5.7 320 09:57 05.08.2019
4163 Clear 42 997 13 10000 3.6 300 09:38 05.08.2019
4164 Haze 42 997 13 10000 3.6 300 09:20 05.08.2019
4165 Haze 41 997 16 10000 3.1 280 08:44 05.08.2019
4166 Clear 41 997 18 10000 4.1 280 08:25 05.08.2019
4167 Clear 39 997 21 10000 3.6 250 07:49 05.08.2019
4168 Haze 37 997 26 10000 3.1 260 07:30 05.08.2019
4169 Haze 36 996 27 10000 2.6 260 06:57 05.08.2019
4170 Haze 35 996 29 10000 3.1 250 06:24 05.08.2019
4171 Haze 33 996 34 10000 2.1 260 05:31 05.08.2019
4172 Haze 31 996 32 10000 2.6 260 04:52 05.08.2019
4173 Haze 31 996 32 10000 2.1 260 03:52 05.08.2019
4174 Haze 32 995 39 10000 2.1 250 02:47 05.08.2019
4175 Haze 33 995 39 10000 2.6 250 01:58 05.08.2019
4176 Haze 33 995 36 10000 2.1 250 01:25 05.08.2019
4177 Haze 34 995 30 10000 2.6 250 00:40 05.08.2019
4178 Haze 34 995 30 10000 2.6 250 00:20 05.08.2019
4179 Haze 34 996 30 10000 1.5 260 23:43 04.08.2019
4180 Haze 34 996 29 10000 2.1 260 23:23 04.08.2019
4181 Haze 35 996 25 10000 2.1 270 22:57 04.08.2019
4182 Haze 35 996 25 10000 2.1 250 22:38 04.08.2019
4183 Haze 35 996 25 10000 2.1 250 22:20 04.08.2019
4184 Haze 36 996 19 10000 2.1 300 21:56 04.08.2019
4185 Haze 36 996 22 10000 2.1 310 21:37 04.08.2019
4186 Haze 36 996 22 10000 2.1 310 21:19 04.08.2019
4187 Haze 37 996 24 10000 2.6 330 20:41 04.08.2019
4188 Haze 37 996 24 10000 2.6 330 20:19 04.08.2019
4189 Haze 36 996 30 10000 3.1 340 19:54 04.08.2019
4190 Haze 36 996 35 10000 2.6 340 19:36 04.08.2019
4191 Haze 36 996 35 10000 2.6 340 19:18 04.08.2019
4192 Haze 38 995 45 10000 3.6 350 18:41 04.08.2019
4193 Haze 38 995 45 10000 3.6 350 18:20 04.08.2019
4194 Haze 39 995 42 10000 4.1 350 17:44 04.08.2019
4195 Haze 39 995 37 10000 4.6 360 17:24 04.08.2019
4196 Haze 41 995 33 10000 6.2 350 16:46 04.08.2019
4197 Haze 41 995 30 10000 8.2 350 16:27 04.08.2019
4198 Haze 41 995 43 10000 6.2 360 15:56 04.08.2019
4199 Haze 41 995 38 10000 7.2 360 15:37 04.08.2019
4200 Haze 41 995 38 10000 7.2 360 15:19 04.08.2019
4201 Haze 42 995 30 10000 8.2 360 14:42 04.08.2019
4202 Haze 42 995 30 10000 8.2 360 14:22 04.08.2019
4203 Clear 42 995 25 10000 8.2 10 13:46 04.08.2019
4204 Clear 42 995 30 10000 7.7 10 13:27 04.08.2019
4205 Haze 42 996 32 10000 7.7 360 12:57 04.08.2019
4206 Haze 42 996 30 10000 7.2 10 12:39 04.08.2019
4207 Haze 42 996 30 10000 7.2 10 12:21 04.08.2019
4208 Haze 42 996 32 10000 6.7 10 11:46 04.08.2019
4209 Haze 42 997 28 10000 7.7 360 11:23 04.08.2019
4210 Haze 42 997 32 10000 7.2 10 10:48 04.08.2019
4211 Haze 43 997 21 10000 8.7 340 10:23 04.08.2019
4212 Haze 41 997 26 10000 8.2 350 09:47 04.08.2019
4213 Haze 41 997 28 10000 7.7 340 09:26 04.08.2019
4214 Haze 40 997 28 10000 6.7 330 08:59 04.08.2019
4215 Haze 40 997 33 10000 5.7 330 08:35 04.08.2019
4216 Haze 37 997 37 10000 4.6 320 07:55 04.08.2019
4217 Haze 37 997 39 10000 4.6 310 07:29 04.08.2019
4218 Mist 35 997 47 10000 2.1 270 06:43 04.08.2019
4219 Mist 35 997 47 10000 2.1 270 06:19 04.08.2019
4220 Haze 31 995 59 10000 0.5 0 03:37 04.08.2019
4221 Haze 32 995 50 10000 1.5 250 01:55 04.08.2019
4222 Haze 32 994 47 10000 1 0 01:32 04.08.2019
4223 Haze 32 995 75 10000 0.5 0 00:43 04.08.2019
4224 Haze 32 995 75 10000 0.5 0 00:24 04.08.2019
4225 Haze 33 995 75 10000 1 340 23:56 03.08.2019
4226 Haze 33 995 71 10000 1.5 360 23:37 03.08.2019
4227 Haze 33 995 71 10000 1.5 360 23:18 03.08.2019
4228 Haze 34 995 67 10000 2.1 360 22:40 03.08.2019
4229 Haze 34 995 67 10000 2.1 360 22:19 03.08.2019
4230 Haze 35 995 59 10000 2.1 20 21:39 03.08.2019
4231 Haze 35 995 59 10000 2.1 20 21:21 03.08.2019
4232 Haze 35 995 59 10000 2.1 20 21:21 03.08.2019
4233 Haze 35 995 67 10000 2.6 360 20:45 03.08.2019
4234 Haze 35 995 71 10000 3.1 360 20:24 03.08.2019
4235 Haze 35 995 71 10000 3.1 350 19:55 03.08.2019
4236 Haze 35 995 75 10000 3.6 350 19:37 03.08.2019
4237 Haze 35 995 75 10000 3.6 350 19:19 03.08.2019
4238 Haze 36 994 75 10000 3.6 10 18:40 03.08.2019
4239 Haze 36 994 75 10000 3.6 10 18:22 03.08.2019
4240 Haze 37 994 75 10000 3.6 10 17:42 03.08.2019
4241 Haze 37 994 71 10000 3.6 20 17:20 03.08.2019
4242 Haze 38 994 63 10000 4.6 10 16:39 03.08.2019
4243 Haze 38 994 63 10000 4.6 10 16:21 03.08.2019
4244 Haze 39 994 60 10000 5.1 10 15:46 03.08.2019
4245 Haze 39 993 60 10000 5.1 360 15:26 03.08.2019
4246 Haze 40 993 57 10000 5.1 10 14:50 03.08.2019
4247 Haze 40 993 57 10000 4.6 10 14:24 03.08.2019
4248 Haze 41 994 57 10000 4.6 20 13:59 03.08.2019
4249 Haze 40 994 57 10000 5.1 360 13:41 03.08.2019
4250 Haze 40 994 57 10000 5.1 360 13:23 03.08.2019
4251 Haze 40 994 60 10000 4.1 10 12:54 03.08.2019
4252 Haze 40 994 60 9000 4.1 20 12:36 03.08.2019
4253 Haze 40 994 60 9000 4.1 20 12:18 03.08.2019
4254 Haze 40 994 57 9000 4.6 20 11:38 03.08.2019
4255 Haze 40 994 57 9000 4.6 20 11:19 03.08.2019
4256 Haze 40 995 51 10000 4.1 10 10:38 03.08.2019
4257 Haze 40 995 51 10000 4.1 10 10:19 03.08.2019
4258 Haze 39 995 40 10000 4.6 360 09:37 03.08.2019
4259 Haze 39 995 40 10000 4.6 360 09:18 03.08.2019
4260 Haze 39 995 42 10000 3.6 320 08:43 03.08.2019
4261 Haze 36 995 39 10000 3.6 320 07:38 03.08.2019
4262 Haze 35 994 50 10000 2.1 10 06:48 03.08.2019
4263 Haze 35 994 47 10000 2.6 340 06:18 03.08.2019
4264 Haze 32 993 41 10000 2.1 300 02:59 03.08.2019
4265 Haze 33 993 37 10000 2.6 280 02:23 03.08.2019
4266 Haze 34 993 63 10000 4.1 240 00:58 03.08.2019
4267 Haze 33 993 71 10000 3.6 230 00:32 03.08.2019
4268 Clear 33 993 75 10000 4.1 210 23:42 02.08.2019
4269 Haze 33 993 75 10000 4.1 210 23:20 02.08.2019
4270 Haze 33 993 75 10000 2.6 230 22:58 02.08.2019
4271 Clear 33 993 75 10000 2.1 180 22:40 02.08.2019
4272 Haze 34 993 75 10000 2.1 180 22:21 02.08.2019
4273 Haze 34 993 75 10000 3.6 100 21:56 02.08.2019
4274 Haze 34 994 79 10000 1.5 110 21:37 02.08.2019
4275 Haze 34 994 79 10000 1.5 110 21:18 02.08.2019
4276 Haze 35 994 79 10000 2.1 120 20:42 02.08.2019
4277 Haze 35 994 79 10000 2.1 120 20:22 02.08.2019
4278 Haze 35 994 79 10000 1.5 80 19:50 02.08.2019
4279 Haze 35 994 79 10000 1.5 80 19:50 02.08.2019
4280 Haze 35 994 79 10000 2.1 100 19:30 02.08.2019
4281 Haze 36 994 71 10000 1.5 100 18:50 02.08.2019
4282 Haze 36 994 75 10000 2.1 50 18:32 02.08.2019
4283 Haze 39 994 67 10000 2.6 30 17:56 02.08.2019
4284 Haze 38 994 67 10000 3.1 30 17:38 02.08.2019
4285 Haze 38 994 67 10000 3.1 30 17:19 02.08.2019
4286 Haze 39 993 60 10000 3.6 30 16:39 02.08.2019
4287 Haze 39 993 60 10000 3.6 30 16:20 02.08.2019
4288 Haze 41 993 57 10000 4.1 20 15:47 02.08.2019
4289 Haze 41 993 57 10000 4.1 20 15:47 02.08.2019
4290 Haze 41 993 48 10000 4.1 30 15:21 02.08.2019
4291 Haze 41 994 43 10000 4.1 40 14:59 02.08.2019
4292 Haze 42 994 36 10000 4.1 30 14:40 02.08.2019
4293 Haze 42 994 36 10000 4.1 30 14:18 02.08.2019
4294 Haze 42 994 36 10000 3.6 50 13:45 02.08.2019
4295 Haze 42 994 36 10000 4.1 50 13:20 02.08.2019
4296 Haze 44 994 30 10000 3.6 120 12:43 02.08.2019
4297 Haze 44 994 30 10000 3.6 120 12:19 02.08.2019
4298 Haze 46 994 11 10000 5.1 320 11:41 02.08.2019
4299 Haze 46 994 11 10000 5.1 320 11:22 02.08.2019
4300 Haze 46 994 11 10000 4.6 290 10:45 02.08.2019
4301 Haze 46 995 11 10000 3.6 300 10:24 02.08.2019
4302 Haze 44 995 12 10000 3.6 290 09:55 02.08.2019
4303 Haze 44 995 14 10000 3.6 290 09:37 02.08.2019
4304 Haze 44 995 14 10000 3.6 290 09:18 02.08.2019
4305 Haze 42 996 17 10000 3.1 260 08:40 02.08.2019
4306 Haze 42 996 17 10000 3.1 260 08:18 02.08.2019
4307 Haze 40 996 19 10000 4.1 250 07:40 02.08.2019
4308 Haze 40 996 19 10000 4.1 250 07:21 02.08.2019
4309 Haze 37 996 19 10000 2.6 260 06:33 02.08.2019
4310 Haze 34 996 25 10000 2.6 240 05:43 02.08.2019
4311 Haze 33 995 41 10000 2.6 220 03:34 02.08.2019
4312 Haze 33 995 41 10000 2.6 230 02:42 02.08.2019
4313 Haze 34 995 47 10000 2.6 230 01:38 02.08.2019
4314 Haze 35 995 44 10000 3.1 220 00:32 02.08.2019
4315 Haze 35 995 41 10000 2.6 230 23:44 01.08.2019
4316 Haze 35 995 47 10000 2.6 220 23:26 01.08.2019
4317 Haze 36 996 31 10000 2.1 230 22:45 01.08.2019
4318 Haze 36 996 42 10000 2.6 220 22:25 01.08.2019
4319 Haze 36 996 44 10000 3.1 220 21:57 01.08.2019
4320 Haze 36 996 47 10000 2.1 210 21:39 01.08.2019
4321 Haze 36 996 47 10000 2.1 210 21:21 01.08.2019
4322 Haze 36 996 56 10000 1.5 130 20:46 01.08.2019
4323 Haze 36 997 56 10000 1 0 20:23 01.08.2019
4324 Haze 37 996 56 10000 1.5 350 19:58 01.08.2019
4325 Haze 37 996 60 10000 1.5 360 19:37 01.08.2019
4326 Haze 37 996 60 10000 1.5 360 19:18 01.08.2019
4327 Haze 38 996 50 10000 3.1 10 18:43 01.08.2019
4328 Haze 38 996 50 10000 3.1 10 18:43 01.08.2019
4329 Haze 38 996 50 10000 3.1 10 18:23 01.08.2019
4330 Haze 38 996 50 10000 3.1 10 18:23 01.08.2019
4331 Haze 39 996 50 10000 3.1 10 17:47 01.08.2019
4332 Haze 39 996 47 10000 3.6 10 17:29 01.08.2019
4333 Haze 41 996 38 10000 3.6 360 16:45 01.08.2019
4334 Haze 41 996 38 10000 3.6 360 16:23 01.08.2019
4335 Haze 42 996 34 10000 3.6 10 15:46 01.08.2019
4336 Haze 42 996 30 10000 4.1 10 15:22 01.08.2019
4337 Haze 43 996 26 10000 5.1 10 14:59 01.08.2019
4338 Haze 42 996 32 10000 4.1 360 14:41 01.08.2019
4339 Haze 42 996 32 10000 4.1 360 14:19 01.08.2019
4340 Haze 43 997 28 10000 4.6 360 13:56 01.08.2019
4341 Clear 41 997 23 10000 4.1 360 13:38 01.08.2019
4342 Haze 44 997 23 10000 4.1 360 13:20 01.08.2019
4343 Haze 44 997 22 10000 5.1 20 12:41 01.08.2019
4344 Haze 44 997 22 10000 5.1 20 12:22 01.08.2019
4345 Haze 44 998 17 10000 6.2 360 11:43 01.08.2019
4346 Haze 44 998 17 10000 6.2 360 11:24 01.08.2019
4347 Haze 44 998 17 10000 5.1 360 10:46 01.08.2019
4348 Haze 44 998 16 10000 5.1 340 10:28 01.08.2019
4349 Haze 43 998 18 10000 4.1 320 09:59 01.08.2019
4350 Haze 43 999 21 10000 4.1 320 09:41 01.08.2019
4351 Haze 43 999 21 10000 4.1 320 09:23 01.08.2019
4352 Haze 41 999 19 10000 4.1 310 08:45 01.08.2019
4353 Haze 40 999 22 10000 3.6 300 08:20 01.08.2019
4354 Haze 39 999 23 10000 3.1 290 07:50 01.08.2019
4355 Haze 39 999 26 10000 2.6 290 07:25 01.08.2019
4356 Haze 36 998 33 10000 2.1 270 06:49 01.08.2019
4357 Haze 36 998 37 10000 1.5 250 06:27 01.08.2019
4358 Haze 32 998 52 10000 4.31 285.268 04:24 01.08.2019
4359 Haze 33 997 47 10000 1.5 240 02:35 01.08.2019
4360 Haze 33 997 49 10000 1 0 00:49 01.08.2019
4361 Haze 34 997 39 10000 0.5 0 00:25 01.08.2019
4362 Clear 34 997 47 10000 0.5 0 23:43 31.07.2019
4363 Clear 34 997 47 10000 0.5 0 23:43 31.07.2019
4364 Haze 34 997 47 10000 0.5 0 23:21 31.07.2019
4365 Haze 34 997 59 10000 1 0 22:58 31.07.2019
4366 Haze 34 998 63 10000 1 360 22:40 31.07.2019
4367 Haze 34 998 63 10000 1 360 22:21 31.07.2019
4368 Haze 35 998 67 10000 2.1 350 21:39 31.07.2019
4369 Haze 35 998 67 10000 2.1 350 21:39 31.07.2019
4370 Haze 35 998 67 10000 2.1 350 21:20 31.07.2019
4371 Haze 35 998 75 10000 2.6 350 20:48 31.07.2019
4372 Haze 35 998 75 10000 3.1 350 20:22 31.07.2019
4373 Haze 36 997 79 9000 3.6 340 19:43 31.07.2019
4374 Haze 36 997 79 9000 3.6 340 19:24 31.07.2019
4375 Haze 36 997 79 9000 3.6 360 18:55 31.07.2019
4376 Haze 36 997 75 9000 3.1 350 18:37 31.07.2019
4377 Haze 36 997 75 9000 3.1 350 18:18 31.07.2019
4378 Haze 37 997 67 9000 3.1 10 17:42 31.07.2019
4379 Haze 37 997 67 9000 3.1 10 17:20 31.07.2019
4380 Haze 38 996 67 9000 4.1 360 16:47 31.07.2019
4381 Haze 38 996 63 8000 3.6 10 16:20 31.07.2019
4382 Haze 39 996 63 7000 4.1 20 15:46 31.07.2019
4383 Haze 39 996 63 7000 4.1 20 15:26 31.07.2019
4384 Haze 41 996 63 7000 5.1 30 14:59 31.07.2019
4385 Haze 41 996 57 8000 4.6 20 14:40 31.07.2019
4386 Haze 41 996 57 8000 4.6 20 14:18 31.07.2019
4387 Haze 41 996 54 8000 5.1 360 13:45 31.07.2019
4388 Haze 41 997 51 10000 5.1 360 13:26 31.07.2019
4389 Haze 41 997 43 10000 5.1 20 12:57 31.07.2019
4390 Haze 42 997 40 10000 4.1 10 12:38 31.07.2019
4391 Haze 42 997 40 10000 4.1 10 12:18 31.07.2019
4392 Haze 43 998 28 10000 5.1 10 11:39 31.07.2019
4393 Haze 43 998 28 10000 5.1 10 11:20 31.07.2019
4394 Haze 43 998 22 10000 5.1 350 10:44 31.07.2019
4395 Haze 43 998 22 10000 5.1 350 10:21 31.07.2019
4396 Haze 43 998 20 10000 4.1 310 09:57 31.07.2019
4397 Haze 42 998 21 10000 3.6 300 09:38 31.07.2019
4398 Haze 42 998 21 10000 3.6 300 09:20 31.07.2019
4399 Clear 40 998 24 10000 2.6 270 08:42 31.07.2019
4400 Haze 39 998 24 10000 2.6 270 08:22 31.07.2019
4401 Haze 38 998 33 10000 2.6 250 07:35 31.07.2019
4402 Haze 36 998 35 10000 2.6 240 06:44 31.07.2019
4403 Haze 33 997 52 10000 3.1 230 04:56 31.07.2019
4404 Haze 32 997 66 10000 2.1 230 03:29 31.07.2019
4405 Haze 33 996 67 10000 2.6 190 00:24 31.07.2019
4406 Clear 33 996 71 10000 2.1 160 23:40 30.07.2019
4407 Haze 34 996 71 10000 2.1 160 23:20 30.07.2019
4408 Haze 34 997 71 10000 2.1 140 22:46 30.07.2019
4409 Haze 34 997 56 10000 1 120 22:25 30.07.2019
4410 Haze 35 997 53 10000 1 0 21:57 30.07.2019
4411 Haze 35 998 56 10000 1 0 21:36 30.07.2019
4412 Haze 35 998 56 10000 1 0 21:18 30.07.2019
4413 Haze 36 997 53 10000 2.1 10 20:43 30.07.2019
4414 Haze 36 997 53 10000 2.6 20 20:24 30.07.2019
4415 Haze 36 997 63 10000 1 0 19:59 30.07.2019
4416 Haze 36 997 60 10000 1.5 20 19:39 30.07.2019
4417 Haze 36 997 60 10000 1.5 20 19:18 30.07.2019
4418 Haze 37 997 56 10000 2.1 10 18:43 30.07.2019
4419 Haze 37 997 56 10000 2.1 10 18:19 30.07.2019
4420 Haze 38 996 53 10000 3.1 10 17:42 30.07.2019
4421 Haze 38 996 53 10000 3.1 10 17:19 30.07.2019
4422 Haze 39 996 50 10000 3.1 30 16:52 30.07.2019
4423 Haze 39 996 45 10000 3.1 30 16:21 30.07.2019
4424 Haze 40 996 45 10000 3.6 10 15:58 30.07.2019
4425 Haze 40 996 37 10000 4.1 30 15:38 30.07.2019
4426 Haze 40 996 37 10000 4.1 30 15:19 30.07.2019
4427 Haze 42 996 30 10000 4.1 40 14:42 30.07.2019
4428 Haze 42 996 30 10000 4.1 40 14:21 30.07.2019
4429 Haze 43 997 30 10000 5.1 40 13:48 30.07.2019
4430 Haze 43 996 25 10000 3.6 100 13:29 30.07.2019
4431 Haze 43 997 27 10000 4.6 110 12:59 30.07.2019
4432 Haze 43 997 27 10000 4.1 120 12:40 30.07.2019
4433 Haze 43 997 27 10000 4.1 120 12:22 30.07.2019
4434 -273 0 0 0 0 0 11:44 30.07.2019
4435 Haze 43 997 25 10000 3.6 100 11:21 30.07.2019
4436 Haze 42 998 23 10000 2.6 90 10:55 30.07.2019
4437 Haze 42 998 28 10000 3.1 100 10:37 30.07.2019
4438 Haze 42 998 28 10000 3.1 100 10:18 30.07.2019
4439 Haze 41 998 34 10000 1.5 0 09:44 30.07.2019
4440 Haze 41 998 34 8000 1.5 310 09:24 30.07.2019
4441 Haze 39 998 42 8000 2.1 160 08:32 30.07.2019
4442 Haze 36 998 50 8000 2.1 180 07:52 30.07.2019
4443 Haze 36 998 53 8000 2.1 0 07:34 30.07.2019
4444 Mist 34 998 71 8000 2.6 200 06:50 30.07.2019
4445 Mist 34 998 75 8000 2.1 200 06:31 30.07.2019
4446 Mist 32 998 71 8000 2.1 190 05:34 30.07.2019
4447 Mist 33 997 75 9000 2.1 150 03:29 30.07.2019
4448 Haze 34 997 75 10000 1 0 01:22 30.07.2019
4449 Mist 34 997 75 9000 4.6 20 00:26 30.07.2019
4450 Mist 34 997 75 9000 4.1 350 23:57 29.07.2019
4451 Mist 34 997 79 8000 4.1 340 23:38 29.07.2019
4452 Mist 34 997 79 8000 4.1 340 23:19 29.07.2019
4453 Haze 34 997 79 7000 4.6 330 22:54 29.07.2019
4454 Haze 34 998 79 7000 4.1 350 22:36 29.07.2019
4455 Haze 34 998 79 7000 4.1 350 22:36 29.07.2019
4456 Haze 34 998 79 7000 4.1 350 22:18 29.07.2019
4457 Haze 35 998 84 7000 4.6 350 21:41 29.07.2019
4458 Haze 35 998 84 7000 4.6 350 21:23 29.07.2019
4459 Haze 35 998 84 7000 4.6 360 20:55 29.07.2019
4460 Haze 35 998 75 9000 5.1 350 20:37 29.07.2019
4461 Haze 35 998 75 9000 5.1 350 20:19 29.07.2019
4462 Haze 37 997 63 10000 3.6 360 19:42 29.07.2019
4463 Haze 37 997 63 10000 3.6 360 19:21 29.07.2019
4464 Haze 38 997 67 10000 2.6 40 18:55 29.07.2019
4465 Haze 38 997 60 10000 2.6 30 18:36 29.07.2019
4466 Haze 38 997 60 10000 2.6 30 18:18 29.07.2019
4467 Haze 39 996 50 10000 3.1 30 17:46 29.07.2019
4468 Haze 39 996 48 10000 2.1 40 17:26 29.07.2019
4469 Haze 40 996 50 10000 2.6 40 16:46 29.07.2019
4470 Haze 41 996 40 10000 4.1 30 16:26 29.07.2019
4471 Haze 41 996 45 10000 2.6 80 15:54 29.07.2019
4472 Haze 41 996 45 10000 3.1 80 15:35 29.07.2019
4473 Haze 41 996 45 10000 2.6 100 14:57 29.07.2019
4474 Haze 41 996 48 10000 3.6 110 14:39 29.07.2019
4475 Haze 41 996 48 10000 3.6 110 14:21 29.07.2019
4476 Haze 41 997 45 10000 5.7 110 13:43 29.07.2019
4477 Haze 41 997 45 10000 5.7 110 13:23 29.07.2019
4478 Haze 40 997 48 10000 6.2 110 12:43 29.07.2019
4479 Haze 40 997 48 10000 6.2 110 12:43 29.07.2019
4480 Haze 40 997 48 10000 6.2 110 12:25 29.07.2019
4481 Haze 40 997 51 10000 6.7 100 11:45 29.07.2019
4482 Haze 40 998 60 9000 6.7 90 11:24 29.07.2019
4483 -273 0 0 0 0 0 10:59 29.07.2019
4484 Haze 39 998 64 8000 6.7 80 10:40 29.07.2019
4485 Haze 39 998 64 8000 6.7 80 10:21 29.07.2019
4486 Haze 38 998 64 7000 5.1 60 09:41 29.07.2019
4487 Haze 38 998 64 7000 5.1 60 09:21 29.07.2019
4488 Haze 37 998 63 7000 5.7 30 08:42 29.07.2019
4489 Haze 37 998 63 7000 5.7 30 08:22 29.07.2019
4490 Haze 36 998 63 6000 6.2 30 07:45 29.07.2019
4491 Haze 36 998 63 6000 5.7 20 07:24 29.07.2019
4492 Haze 33 998 79 6000 4.1 10 05:57 29.07.2019
4493 Haze 33 998 79 6000 3.6 20 05:31 29.07.2019
4494 Haze 32 996 84 6000 3.6 10 02:43 29.07.2019
4495 Haze 33 996 84 6000 2.6 360 01:47 29.07.2019
4496 Haze 33 996 84 6000 3.6 360 01:26 29.07.2019
4497 Haze 33 996 84 7000 3.1 360 00:52 29.07.2019
4498 Haze 33 996 75 7000 3.6 10 00:23 29.07.2019
4499 Haze 34 996 63 7000 3.6 30 23:41 28.07.2019
4500 Haze 34 996 63 7000 3.6 30 23:19 28.07.2019
4501 Haze 34 996 59 7000 3.6 20 22:43 28.07.2019
4502 Haze 34 996 63 7000 3.1 20 22:24 28.07.2019
4503 Haze 35 997 63 7000 3.6 20 21:50 28.07.2019
4504 Haze 35 997 67 10000 2.6 10 21:20 28.07.2019
4505 Haze 35 997 63 10000 2.6 30 20:49 28.07.2019
4506 Haze 35 996 63 10000 3.1 80 20:30 28.07.2019
4507 Haze 35 996 59 10000 3.6 70 19:57 28.07.2019
4508 Haze 35 996 59 10000 3.6 70 19:38 28.07.2019
4509 Haze 35 996 59 10000 3.6 70 19:20 28.07.2019
4510 Haze 35 995 59 10000 4.1 60 18:45 28.07.2019
4511 Haze 35 995 59 10000 3.1 40 18:25 28.07.2019
4512 Haze 36 995 53 10000 4.6 60 17:55 28.07.2019
4513 Haze 36 995 53 10000 4.1 60 17:37 28.07.2019
4514 Haze 36 995 53 10000 4.1 60 17:19 28.07.2019
4515 Haze 37 994 53 10000 5.1 50 16:41 28.07.2019
4516 Haze 37 994 53 10000 5.1 50 16:22 28.07.2019
4517 Haze 38 995 50 10000 5.1 70 15:44 28.07.2019
4518 Haze 38 994 44 10000 5.7 80 15:24 28.07.2019
4519 Clear 38 995 47 10000 4.6 90 14:39 28.07.2019
4520 Clear 38 995 47 10000 4.6 90 14:20 28.07.2019
4521 Haze 38 995 53 10000 4.6 90 13:56 28.07.2019
4522 Haze 38 995 53 10000 4.6 90 13:56 28.07.2019
4523 Haze 38 995 53 9000 5.1 90 13:37 28.07.2019
4524 Haze 38 995 53 9000 5.1 90 13:19 28.07.2019
4525 Haze 38 996 60 6000 4.6 90 12:42 28.07.2019
4526 Haze 38 996 60 6000 4.6 90 12:23 28.07.2019
4527 Haze 38 996 60 6000 4.6 90 12:23 28.07.2019
4528 Haze 38 996 63 6000 4.6 80 11:49 28.07.2019
4529 Haze 38 996 60 6000 4.6 60 11:28 28.07.2019
4530 Haze 38 996 60 6000 4.6 70 10:56 28.07.2019
4531 Haze 38 996 60 7000 4.6 60 10:37 28.07.2019
4532 Haze 38 996 60 7000 4.6 60 10:18 28.07.2019
4533 Haze 37 997 63 8000 4.1 50 09:40 28.07.2019
4534 Haze 37 997 63 8000 4.1 50 09:20 28.07.2019
4535 Haze 36 996 60 9000 3.6 70 08:41 28.07.2019
4536 Haze 36 996 60 9000 3.6 70 08:21 28.07.2019
4537 Haze 34 996 63 9000 3.6 60 07:40 28.07.2019
4538 Haze 33 996 67 9000 1.5 50 06:59 28.07.2019
4539 Haze 33 996 71 9000 1.5 10 06:32 28.07.2019
4540 Haze 32 995 75 8000 5.85 45.222 05:19 28.07.2019
4541 Haze 32 994 75 10000 2.1 350 02:25 28.07.2019
4542 Haze 32 994 70 10000 2.6 330 01:32 28.07.2019
4543 Haze 32 994 70 10000 2.6 340 00:52 28.07.2019
4544 Haze 33 994 67 10000 2.6 350 00:25 28.07.2019
4545 Haze 33 994 67 10000 2.6 360 23:52 27.07.2019
4546 Haze 33 994 67 10000 2.1 360 23:27 27.07.2019
4547 Haze 33 995 71 10000 1.5 350 22:43 27.07.2019
4548 Haze 33 995 71 10000 1.5 350 22:23 27.07.2019
4549 Haze 34 995 63 10000 2.6 340 21:47 27.07.2019
4550 Haze 34 995 67 10000 3.6 350 21:23 27.07.2019
4551 Haze 34 995 67 10000 3.1 360 20:56 27.07.2019
4552 Haze 34 994 67 10000 3.6 360 20:37 27.07.2019
4553 Haze 34 994 67 10000 3.6 360 20:19 27.07.2019
4554 Haze 35 994 67 10000 4.1 360 19:39 27.07.2019
4555 Haze 35 994 67 10000 4.1 360 19:21 27.07.2019
4556 Haze 36 993 67 10000 4.1 360 18:46 27.07.2019
4557 Haze 37 993 63 10000 4.6 360 18:28 27.07.2019
4558 Haze 37 993 60 9000 4.6 350 17:50 27.07.2019
4559 Haze 37 993 60 9000 5.1 350 17:32 27.07.2019
4560 Haze 38 993 60 9000 6.2 350 16:55 27.07.2019
4561 Haze 39 992 51 9000 5.7 350 16:37 27.07.2019
4562 Haze 42 992 19 10000 6.7 300 15:56 27.07.2019
4563 Haze 43 992 15 10000 6.2 290 15:36 27.07.2019
4564 Haze 43 992 15 10000 6.2 290 15:18 27.07.2019
4565 Haze 44 993 11 10000 5.7 290 14:41 27.07.2019
4566 Haze 44 993 11 10000 5.7 290 14:23 27.07.2019
4567 Clear 44 993 11 10000 5.7 280 13:46 27.07.2019
4568 Clear 44 993 11 10000 5.7 280 13:22 27.07.2019
4569 Haze 44 993 12 10000 6.2 280 12:50 27.07.2019
4570 Haze 45 993 12 10000 5.7 280 12:27 27.07.2019
4571 Haze 44 994 12 10000 5.1 270 11:54 27.07.2019
4572 Haze 44 994 12 10000 4.6 260 11:36 27.07.2019
4573 Haze 44 994 12 10000 4.6 260 11:18 27.07.2019
4574 Dust 43 994 14 8000 4.6 250 10:40 27.07.2019
4575 Dust 43 994 14 8000 4.6 250 10:20 27.07.2019
4576 Dust 42 995 15 8000 5.1 260 09:40 27.07.2019
4577 Dust 42 995 15 8000 5.1 260 09:22 27.07.2019
4578 Haze 41 995 14 8000 4.6 270 08:48 27.07.2019
4579 Haze 41 995 18 7000 4.6 260 08:29 27.07.2019
4580 Haze 39 995 19 7000 4.1 260 07:50 27.07.2019
4581 Haze 39 995 20 7000 3.6 250 07:27 27.07.2019
4582 -273 0 0 0 0 0 06:56 27.07.2019
4583 Haze 37 995 25 8000 2.6 240 06:30 27.07.2019
4584 Haze 35 995 27 8000 3.1 240 05:51 27.07.2019
4585 Haze 35 995 25 8000 2.6 240 05:18 27.07.2019
4586 Haze 36 994 20 8000 2.6 250 04:30 27.07.2019
4587 Haze 35 994 17 10000 3.1 250 02:58 27.07.2019
4588 Haze 35 994 14 10000 2.6 260 02:31 27.07.2019
4589 Haze 35 994 14 10000 2.6 250 01:44 27.07.2019
4590 Haze 36 994 13 10000 3.1 250 00:59 27.07.2019
4591 Haze 36 994 14 10000 2.6 240 00:32 27.07.2019
4592 Clear 36 994 15 10000 2.1 230 23:53 26.07.2019
4593 Clear 36 994 14 10000 2.1 230 23:33 26.07.2019
4594 Haze 36 994 15 10000 2.1 220 22:56 26.07.2019
4595 Haze 36 995 15 10000 2.1 220 22:38 26.07.2019
4596 Haze 36 995 15 10000 2.1 220 22:20 26.07.2019
4597 Haze 37 995 17 10000 1.5 190 21:48 26.07.2019
4598 Haze 37 995 15 10000 1 0 21:19 26.07.2019
4599 Haze 38 995 11 10000 1.5 300 20:42 26.07.2019
4600 Haze 38 995 11 10000 1.5 300 20:23 26.07.2019
4601 Haze 37 995 29 10000 2.1 340 19:43 26.07.2019
4602 Haze 37 995 29 10000 2.1 340 19:25 26.07.2019
4603 Haze 38 995 26 10000 3.1 330 18:58 26.07.2019
4604 Haze 38 995 27 10000 3.1 330 18:37 26.07.2019
4605 Haze 38 995 27 10000 3.1 330 18:19 26.07.2019
4606 Haze 39 995 53 9000 2.1 360 17:46 26.07.2019
4607 Haze 39 995 47 9000 2.1 20 17:19 26.07.2019
4608 Haze 39 995 47 8000 2.6 20 16:57 26.07.2019
4609 Haze 39 995 47 8000 2.6 30 16:38 26.07.2019
4610 Haze 39 995 47 8000 2.6 30 16:19 26.07.2019
4611 Haze 40 995 47 9000 3.6 10 15:55 26.07.2019
4612 Haze 40 995 45 9000 3.1 20 15:36 26.07.2019
4613 Haze 40 995 45 9000 3.1 20 15:18 26.07.2019
4614 Haze 40 995 45 9000 3.6 30 14:42 26.07.2019
4615 Haze 40 995 45 9000 3.6 30 14:22 26.07.2019
4616 Haze 41 996 48 8000 4.1 50 13:42 26.07.2019
4617 Haze 41 996 48 8000 4.1 60 13:24 26.07.2019
4618 Haze 41 996 45 9000 4.1 80 12:49 26.07.2019
4619 Haze 41 996 48 9000 4.1 100 12:20 26.07.2019
4620 Haze 42 996 48 9000 4.1 100 11:47 26.07.2019
4621 Haze 41 997 45 10000 4.6 100 11:22 26.07.2019
4622 Haze 41 997 40 10000 3.1 0 10:58 26.07.2019
4623 Haze 42 997 28 10000 3.1 350 10:38 26.07.2019
4624 Haze 41 997 30 10000 3.1 360 09:59 26.07.2019
4625 Haze 41 997 23 10000 3.6 330 09:41 26.07.2019
4626 Haze 41 997 23 10000 3.6 330 09:21 26.07.2019
4627 Haze 40 998 30 10000 1.5 310 08:40 26.07.2019
4628 Haze 40 998 30 10000 1.5 310 08:20 26.07.2019
4629 Haze 37 998 37 10000 1.5 210 07:36 26.07.2019
4630 Haze 37 998 37 10000 1.5 210 07:18 26.07.2019
4631 Haze 33 997 50 7000 1.5 240 05:43 26.07.2019
4632 Haze 33 997 50 7000 1.5 250 04:30 26.07.2019
4633 Clear 33 996 53 10000 1.5 240 03:44 26.07.2019
4634 Haze 34 996 56 9000 1 0 01:45 26.07.2019
4635 Haze 34 996 53 9000 1 0 00:50 26.07.2019
4636 Haze 34 996 56 9000 1.5 170 00:27 26.07.2019
4637 Mist 34 996 63 9000 1 130 23:40 25.07.2019
4638 Mist 34 996 63 9000 1 130 23:19 25.07.2019
4639 Clouds 33 997 67 9000 1 90 22:41 25.07.2019
4640 Mist 34 997 67 9000 1 90 22:21 25.07.2019
4641 Mist 35 997 67 9000 0.5 0 21:47 25.07.2019
4642 Mist 35 997 67 9000 0.5 80 21:23 25.07.2019
4643 Mist 34 998 75 9000 1 0 20:51 25.07.2019
4644 Mist 34 998 79 9000 1.5 110 20:33 25.07.2019
4645 Clouds 34 997 84 8000 1.5 90 19:57 25.07.2019
4646 Clouds 34 997 84 8000 2.1 100 19:39 25.07.2019
4647 Haze 35 997 84 8000 2.1 100 19:21 25.07.2019
4648 Haze 35 997 79 8000 3.1 80 18:41 25.07.2019
4649 Haze 35 997 79 8000 3.1 80 18:22 25.07.2019
4650 Haze 36 997 79 8000 3.1 90 17:48 25.07.2019
4651 Haze 36 997 79 8000 3.6 80 17:30 25.07.2019
4652 Haze 37 997 71 8000 3.6 80 16:56 25.07.2019
4653 Haze 37 996 71 8000 4.1 80 16:37 25.07.2019
4654 Haze 37 996 71 8000 4.1 80 16:18 25.07.2019
4655 Haze 38 996 71 8000 5.7 100 15:42 25.07.2019
4656 Haze 38 996 71 8000 5.7 100 15:19 25.07.2019
4657 Haze 40 997 60 8000 4.6 80 14:42 25.07.2019
4658 Haze 40 997 60 8000 4.6 80 14:22 25.07.2019
4659 Haze 40 997 57 8000 4.6 70 13:44 25.07.2019
4660 Haze 40 997 60 8000 4.6 90 13:26 25.07.2019
4661 Haze 40 998 60 8000 4.6 80 12:57 25.07.2019
4662 Haze 40 998 57 8000 4.1 90 12:28 25.07.2019
4663 Haze 40 998 60 8000 4.6 90 11:46 25.07.2019
4664 Haze 40 998 57 7000 5.1 90 11:25 25.07.2019
4665 Haze 39 999 60 7000 4.6 90 10:59 25.07.2019
4666 Haze 40 999 57 7000 3.6 90 10:37 25.07.2019
4667 Haze 40 999 57 7000 3.6 90 10:18 25.07.2019
4668 Haze 38 1000 53 7000 4.1 130 09:42 25.07.2019
4669 Haze 38 1000 53 7000 4.1 130 09:23 25.07.2019
4670 Haze 37 1000 63 6000 3.6 120 08:42 25.07.2019
4671 Haze 36 1000 60 6000 2.1 120 07:56 25.07.2019
4672 Haze 36 999 63 6000 2.6 120 07:34 25.07.2019
4673 Mist 34 999 75 7000 3.1 100 06:43 25.07.2019
4674 Haze 33 999 75 7000 3.6 100 05:39 25.07.2019
4675 Haze 33 999 75 7000 3.6 100 05:20 25.07.2019
4676 Mist 33 998 79 8000 3.1 80 04:36 25.07.2019
4677 Mist 33 997 84 9000 1.5 60 01:45 25.07.2019
4678 Mist 33 997 84 9000 1.5 60 01:18 25.07.2019
4679 Mist 33 997 84 9000 1.5 10 00:20 25.07.2019
4680 Mist 33 997 89 10000 2.1 10 23:46 24.07.2019
4681 Mist 33 997 84 10000 1.5 10 23:27 24.07.2019
4682 Mist 34 997 79 10000 1.5 350 22:55 24.07.2019
4683 Mist 34 997 79 10000 1.5 350 22:55 24.07.2019
4684 Mist 34 998 75 10000 1.5 10 22:36 24.07.2019
4685 Mist 34 998 75 10000 1.5 10 22:18 24.07.2019
4686 Mist 34 998 79 10000 1.5 50 21:42 24.07.2019
4687 Mist 34 998 79 10000 1.5 50 21:21 24.07.2019
4688 Mist 34 998 79 10000 1.5 50 21:21 24.07.2019
4689 Mist 34 998 75 10000 1.5 70 20:55 24.07.2019
4690 Mist 34 998 79 10000 2.1 70 20:37 24.07.2019
4691 Mist 34 998 79 10000 2.1 70 20:19 24.07.2019
4692 Mist 34 997 79 10000 3.6 70 19:42 24.07.2019
4693 Mist 34 997 79 10000 3.6 70 19:22 24.07.2019
4694 Haze 35 997 71 9000 3.6 60 18:45 24.07.2019
4695 Haze 35 997 71 9000 3.6 60 18:25 24.07.2019
4696 Haze 36 996 71 8000 3.6 50 17:56 24.07.2019
4697 Haze 36 996 71 8000 3.6 50 17:37 24.07.2019
4698 Haze 36 996 71 8000 3.6 50 17:18 24.07.2019
4699 Haze 37 996 67 7000 4.6 40 16:40 24.07.2019
4700 Haze 37 996 67 7000 4.6 40 16:40 24.07.2019
4701 Haze 37 996 67 7000 4.6 40 16:21 24.07.2019
4702 Haze 38 996 63 6000 4.6 30 15:39 24.07.2019
4703 Haze 38 996 63 6000 4.6 30 15:21 24.07.2019
4704 Haze 38 996 63 6000 5.1 20 14:50 24.07.2019
4705 Haze 38 996 63 6000 5.1 30 14:23 24.07.2019
4706 Haze 39 996 60 6000 4.6 30 13:58 24.07.2019
4707 Haze 38 996 63 6000 4.1 10 13:36 24.07.2019
4708 Haze 38 996 63 6000 4.1 10 13:18 24.07.2019
4709 Haze 38 996 63 7000 4.1 30 12:46 24.07.2019
4710 Haze 39 996 60 7000 3.6 50 12:23 24.07.2019
4711 Haze 38 997 63 6000 3.1 100 11:38 24.07.2019
4712 Haze 38 997 63 6000 3.1 100 11:19 24.07.2019
4713 Haze 38 998 60 6000 4.6 90 10:43 24.07.2019
4714 Haze 38 998 60 6000 4.6 90 10:24 24.07.2019
4715 Haze 38 998 60 6000 3.6 80 09:44 24.07.2019
4716 Haze 38 998 60 6000 3.6 80 09:44 24.07.2019
4717 Haze 38 998 60 6000 3.1 60 09:24 24.07.2019
4718 Haze 35 998 71 6000 3.1 350 08:55 24.07.2019
4719 Haze 35 998 71 6000 3.1 350 08:30 24.07.2019
4720 Mist 35 998 75 6000 3.1 350 07:51 24.07.2019
4721 Mist 35 998 71 6000 2.6 360 07:24 24.07.2019
4722 Haze 34 998 79 6000 3.1 30 06:29 24.07.2019
4723 Haze 33 998 84 5000 3.1 10 05:33 24.07.2019
4724 Mist 33 995 84 8000 2.6 170 01:59 24.07.2019
4725 Mist 33 995 84 8000 2.1 170 01:29 24.07.2019
4726 Mist 33 996 84 7000 2.6 140 00:57 24.07.2019
4727 Mist 33 996 84 7000 1.5 80 00:22 24.07.2019
4728 Haze 33 996 84 7000 2.6 40 23:42 23.07.2019
4729 Haze 33 996 84 7000 2.6 40 23:42 23.07.2019
4730 Haze 33 996 84 7000 2.6 40 23:23 23.07.2019
4731 Haze 33 997 84 5000 4.6 50 22:39 23.07.2019
4732 Haze 33 997 84 5000 4.6 50 22:19 23.07.2019
4733 Haze 33 997 89 5000 6.2 30 21:58 23.07.2019
4734 Haze 33 997 89 5000 3.6 20 21:40 23.07.2019
4735 Haze 34 997 89 5000 3.6 20 21:21 23.07.2019
4736 Haze 34 997 89 5000 3.1 10 20:47 23.07.2019
4737 Haze 34 997 84 5000 2.6 20 20:21 23.07.2019
4738 Haze 34 996 84 6000 2.6 20 19:42 23.07.2019
4739 Haze 34 996 84 6000 2.6 20 19:19 23.07.2019
4740 Haze 35 996 79 5000 2.1 20 18:48 23.07.2019
4741 Haze 35 996 79 5000 2.6 30 18:24 23.07.2019
4742 Haze 36 995 79 4500 3.6 360 17:45 23.07.2019
4743 Haze 36 995 79 4500 3.6 360 17:26 23.07.2019
4744 Haze 36 995 75 5000 4.1 360 16:58 23.07.2019
4745 Haze 36 995 71 5000 3.1 30 16:39 23.07.2019
4746 Haze 36 995 71 5000 3.1 30 16:19 23.07.2019
4747 Haze 37 995 71 5000 3.6 90 15:45 23.07.2019
4748 Haze 37 995 71 5000 3.6 90 15:45 23.07.2019
4749 Haze 37 995 71 5000 3.6 90 15:24 23.07.2019
4750 Haze 37 995 71 5000 4.1 90 14:39 23.07.2019
4751 Haze 37 995 71 5000 4.1 90 14:20 23.07.2019
4752 Haze 37 995 71 6000 4.6 90 13:58 23.07.2019
4753 Haze 37 995 67 6000 4.6 90 13:39 23.07.2019
4754 Haze 37 995 67 6000 4.6 90 13:20 23.07.2019
4755 Haze 37 995 63 6000 4.6 100 12:48 23.07.2019
4756 Haze 37 996 67 5000 4.6 90 12:25 23.07.2019
4757 Haze 37 996 67 4200 5.1 90 11:49 23.07.2019
4758 Haze 37 996 67 4000 4.6 80 11:31 23.07.2019
4759 Haze 37 996 63 4000 5.1 90 10:59 23.07.2019
4760 Haze 37 996 63 4200 5.1 90 10:40 23.07.2019
4761 Haze 37 996 63 4200 5.1 90 10:20 23.07.2019
4762 Haze 37 996 63 5000 3.6 90 09:41 23.07.2019
4763 Haze 37 996 63 5000 3.6 90 09:19 23.07.2019
4764 Haze 35 996 63 6000 3.6 100 08:43 23.07.2019
4765 Haze 35 996 63 6000 3.6 100 08:19 23.07.2019
4766 Haze 35 997 60 7000 3.6 80 07:55 23.07.2019
4767 Haze 35 996 53 7000 2.1 30 07:34 23.07.2019
4768 Haze 34 996 71 6000 1 0 06:44 23.07.2019
4769 Haze 34 996 71 6000 1 0 06:26 23.07.2019
4770 Mist 32 995 66 6000 2.42 274.479 02:57 23.07.2019
4771 Mist 32 994 66 6000 2.1 170 01:32 23.07.2019
4772 Mist 32 994 70 6000 2.1 0 00:30 23.07.2019
4773 Mist 32 994 70 6000 2.1 220 23:43 22.07.2019
4774 Mist 32 994 70 6000 2.1 210 23:22 22.07.2019
4775 Mist 33 994 75 6000 3.1 190 22:59 22.07.2019
4776 Mist 33 995 75 7000 2.1 150 22:41 22.07.2019
4777 Mist 33 995 75 7000 2.1 150 22:20 22.07.2019
4778 Mist 33 996 70 8000 2.1 70 21:43 22.07.2019
4779 Mist 33 996 70 8000 2.1 70 21:22 22.07.2019
4780 Mist 33 996 75 7000 3.1 40 20:49 22.07.2019
4781 Mist 33 997 79 7000 4.6 40 20:31 22.07.2019
4782 Haze 35 996 79 8000 4.1 50 19:57 22.07.2019
4783 Haze 35 997 71 8000 4.6 40 19:37 22.07.2019
4784 Haze 35 997 71 8000 4.6 40 19:18 22.07.2019
4785 Haze 35 996 75 8000 3.1 80 18:44 22.07.2019
4786 Haze 36 996 71 8000 3.6 80 18:26 22.07.2019
4787 Haze 37 995 60 8000 2.6 90 17:44 22.07.2019
4788 Haze 37 995 60 8000 2.6 90 17:26 22.07.2019
4789 Haze 38 995 47 8000 1 0 16:58 22.07.2019
4790 Haze 38 995 50 8000 1.5 90 16:38 22.07.2019
4791 Haze 38 995 50 8000 1.5 90 16:18 22.07.2019
4792 Haze 38 995 56 8000 3.6 110 15:43 22.07.2019
4793 Haze 38 995 56 8000 3.6 110 15:19 22.07.2019
4794 Haze 39 995 56 8000 4.1 90 14:44 22.07.2019
4795 Haze 39 996 53 8000 4.6 90 14:22 22.07.2019
4796 Haze 39 996 50 8000 4.6 90 13:50 22.07.2019
4797 Haze 39 996 47 8000 5.1 100 13:30 22.07.2019
4798 Haze 41 996 50 8000 5.1 100 12:50 22.07.2019
4799 Haze 41 997 31 8000 4.6 60 12:31 22.07.2019
4800 Haze 40 997 45 8000 5.1 100 11:46 22.07.2019
4801 Haze 40 997 50 7000 5.7 100 11:27 22.07.2019
4802 Haze 40 997 57 6000 5.1 100 10:59 22.07.2019
4803 Haze 40 997 53 6000 4.1 70 10:34 22.07.2019
4804 Haze 39 997 51 6000 3.6 50 09:46 22.07.2019
4805 Haze 40 997 30 7000 3.1 330 09:26 22.07.2019
4806 Haze 38 998 31 7000 1.5 0 08:59 22.07.2019
4807 Haze 37 998 45 7000 1 0 08:38 22.07.2019
4808 Haze 37 998 45 7000 1 0 08:19 22.07.2019
4809 Haze 35 998 53 6000 2.1 0 07:46 22.07.2019
4810 Haze 35 998 60 6000 2.6 280 07:27 22.07.2019
4811 Mist 32 998 75 6000 2.6 190 05:20 22.07.2019
4812 Mist 31 997 75 8000 1 110 02:59 22.07.2019
4813 Mist 33 997 66 8000 0.5 0 00:59 22.07.2019
4814 Mist 33 997 70 8000 0.5 0 00:39 22.07.2019
4815 Mist 33 997 70 8000 0.5 0 00:20 22.07.2019
4816 Mist 33 997 70 8000 1.5 90 23:45 21.07.2019
4817 Mist 33 997 70 8000 1.5 100 22:57 21.07.2019
4818 Mist 33 998 75 8000 1 100 22:39 21.07.2019
4819 Mist 33 998 75 8000 1 100 22:20 21.07.2019
4820 Haze 33 998 75 8000 1.5 130 21:49 21.07.2019
4821 Haze 33 998 70 9000 1.5 120 21:26 21.07.2019
4822 Haze 34 998 71 8000 1.5 50 20:57 21.07.2019
4823 Haze 34 998 70 8000 1.5 70 20:39 21.07.2019
4824 Haze 34 998 70 8000 1.5 70 20:21 21.07.2019
4825 Haze 35 998 71 7000 1.5 100 19:48 21.07.2019
4826 Haze 35 998 71 7000 2.1 90 19:28 21.07.2019
4827 Haze 35 998 71 6000 2.1 90 18:49 21.07.2019
4828 Haze 35 997 63 6000 2.6 40 18:26 21.07.2019
4829 Haze 36 997 63 5000 3.1 40 17:55 21.07.2019
4830 Haze 36 997 63 5000 3.1 40 17:36 21.07.2019
4831 Haze 36 997 63 5000 3.1 40 17:18 21.07.2019
4832 Haze 37 997 56 6000 4.6 50 16:40 21.07.2019
4833 Haze 37 997 56 6000 4.6 50 16:22 21.07.2019
4834 Haze 37 997 56 6000 4.6 50 16:22 21.07.2019
4835 Haze 39 997 50 7000 4.1 80 15:40 21.07.2019
4836 Haze 39 997 50 7000 4.1 80 15:20 21.07.2019
4837 Dust 40 997 47 6000 3.6 80 14:44 21.07.2019
4838 Dust 40 997 47 6000 3.6 80 14:24 21.07.2019
4839 Dust 40 998 47 6000 3.6 70 13:53 21.07.2019
4840 Dust 40 998 45 6000 3.1 80 13:33 21.07.2019
4841 Haze 39 998 50 6000 4.1 100 12:55 21.07.2019
4842 Haze 39 998 50 7000 4.6 90 12:37 21.07.2019
4843 Haze 39 998 50 7000 4.6 90 12:18 21.07.2019
4844 Haze 39 999 45 8000 5.1 90 11:44 21.07.2019
4845 Haze 39 999 35 9000 3.1 10 11:25 21.07.2019
4846 Haze 38 999 37 9000 2.6 360 10:43 21.07.2019
4847 Haze 38 999 42 9000 2.6 10 10:23 21.07.2019
4848 Haze 37 1000 47 9000 2.1 350 09:49 21.07.2019
4849 Haze 37 1000 44 9000 2.1 40 09:30 21.07.2019
4850 Haze 36 1000 47 8000 3.1 40 08:45 21.07.2019
4851 Haze 35 1000 53 7000 2.1 350 08:27 21.07.2019
4852 Haze 34 1000 63 6000 1 0 07:39 21.07.2019
4853 Haze 32 1000 71 6000 1 0 06:54 21.07.2019
4854 Haze 31 1000 84 5000 0.5 0 05:45 21.07.2019
4855 Mist 31 998 84 7000 2.6 10 02:58 21.07.2019
4856 Mist 32 998 84 7000 2.1 360 01:33 21.07.2019
4857 Haze 31 998 84 6000 2.1 30 00:42 21.07.2019
4858 Haze 31 998 84 6000 2.1 30 00:42 21.07.2019
4859 Haze 31 998 84 6000 2.1 30 00:19 21.07.2019
4860 Haze 32 998 84 5000 2.6 340 23:42 20.07.2019
4861 Haze 32 998 84 5000 2.6 340 23:21 20.07.2019
4862 Haze 32 999 84 5000 3.1 340 22:46 20.07.2019
4863 Haze 32 999 84 5000 3.6 350 22:22 20.07.2019
4864 Haze 33 999 79 5000 4.1 350 21:57 20.07.2019
4865 Haze 33 999 79 5000 4.1 360 21:38 20.07.2019
4866 Haze 33 999 79 5000 4.1 360 21:20 20.07.2019
4867 Haze 33 999 79 5000 3.1 360 20:41 20.07.2019
4868 Haze 33 999 79 5000 3.1 360 20:19 20.07.2019
4869 Haze 33 998 75 5000 3.1 360 19:45 20.07.2019
4870 Haze 33 998 75 5000 3.1 360 19:45 20.07.2019
4871 Clear 34 998 71 6000 2.6 360 19:20 20.07.2019
4872 Clear 33 998 71 6000 3.1 30 18:43 20.07.2019
4873 Clear 34 998 71 6000 3.1 30 18:20 20.07.2019
4874 Clear 33 998 71 6000 3.1 40 17:54 20.07.2019
4875 Clear 34 998 63 6000 4.1 40 17:25 20.07.2019
4876 Clear 34 997 63 6000 4.1 60 16:44 20.07.2019
4877 Clear 35 997 53 6000 4.1 40 16:26 20.07.2019
4878 Clear 36 997 42 7000 3.6 50 15:58 20.07.2019
4879 Clear 36 997 39 7000 3.6 30 15:38 20.07.2019
4880 Haze 38 997 39 7000 3.6 30 15:20 20.07.2019
4881 Haze 38 998 33 7000 4.1 20 14:47 20.07.2019
4882 Haze 38 998 39 7000 4.1 50 14:28 20.07.2019
4883 Haze 38 998 47 9000 4.1 70 13:39 20.07.2019
4884 Haze 38 998 47 9000 4.1 70 13:20 20.07.2019
4885 Haze 38 998 37 10000 4.1 70 12:57 20.07.2019
4886 Haze 38 999 42 10000 4.6 70 12:26 20.07.2019
4887 Haze 38 999 35 10000 4.1 70 11:57 20.07.2019
4888 Haze 38 999 42 10000 3.6 60 11:27 20.07.2019
4889 Haze 37 999 53 10000 3.6 50 10:58 20.07.2019
4890 Haze 37 999 56 10000 3.6 50 10:37 20.07.2019
4891 Haze 37 999 56 10000 3.6 50 10:18 20.07.2019
4892 Haze 37 999 56 10000 3.1 60 09:45 20.07.2019
4893 Haze 36 999 59 10000 3.1 40 09:22 20.07.2019
4894 Haze 35 999 59 9000 3.6 30 08:45 20.07.2019
4895 Haze 35 999 59 9000 3.1 70 08:20 20.07.2019
4896 Haze 33 999 70 7000 2.1 350 07:21 20.07.2019
4897 Haze 32 999 79 8000 3.6 20 06:42 20.07.2019
4898 Mist 31 998 79 8000 1.5 10 04:57 20.07.2019
4899 Mist 31 998 74 8000 1.5 10 04:29 20.07.2019
4900 Haze 31 997 75 10000 0.5 0 01:21 20.07.2019
4901 Haze 31 997 75 10000 0.5 0 01:21 20.07.2019
4902 Mist 32 997 79 10000 0.5 0 00:47 20.07.2019
4903 Mist 32 997 79 10000 0.5 0 00:23 20.07.2019
4904 Haze 32 998 84 10000 3.1 50 23:45 19.07.2019
4905 Haze 32 998 84 10000 3.1 50 23:26 19.07.2019
4906 Haze 33 998 79 10000 3.1 60 22:51 19.07.2019
4907 Haze 33 998 75 10000 2.6 40 22:26 19.07.2019
4908 Haze 33 998 84 10000 3.6 40 21:59 19.07.2019
4909 Haze 33 998 75 10000 2.6 30 21:39 19.07.2019
4910 Haze 33 998 75 10000 2.6 30 21:21 19.07.2019
4911 Haze 34 998 75 10000 3.6 10 20:42 19.07.2019
4912 Haze 34 998 75 10000 3.6 10 20:23 19.07.2019
4913 Haze 35 997 67 10000 2.6 10 19:37 19.07.2019
4914 Haze 35 997 59 10000 2.1 30 18:47 19.07.2019
4915 Haze 36 996 53 10000 2.6 40 18:26 19.07.2019
4916 Haze 37 996 44 10000 3.1 50 17:58 19.07.2019
4917 Haze 37 996 63 10000 3.1 80 17:40 19.07.2019
4918 Haze 37 996 63 10000 3.1 80 17:21 19.07.2019
4919 Haze 38 995 47 10000 4.1 90 16:47 19.07.2019
4920 Haze 38 995 47 10000 3.6 100 16:24 19.07.2019
4921 Clear 37 995 50 10000 3.6 90 15:47 19.07.2019
4922 Haze 40 995 50 10000 3.6 90 15:29 19.07.2019
4923 Haze 40 995 44 10000 4.6 100 14:55 19.07.2019
4924 Haze 40 995 45 10000 4.6 100 14:37 19.07.2019
4925 Haze 40 995 45 10000 4.6 100 14:19 19.07.2019
4926 Haze 40 996 44 10000 5.1 100 13:42 19.07.2019
4927 Haze 40 996 44 10000 5.1 100 13:22 19.07.2019
4928 Haze 40 996 47 10000 5.7 100 12:48 19.07.2019
4929 Haze 39 996 47 10000 5.7 100 12:28 19.07.2019
4930 Haze 40 996 44 10000 6.2 100 11:47 19.07.2019
4931 Haze 39 997 44 10000 6.2 110 11:19 19.07.2019
4932 Haze 39 997 42 10000 6.2 100 10:57 19.07.2019
4933 Haze 39 997 37 10000 4.1 110 10:38 19.07.2019
4934 Haze 39 997 37 10000 4.1 110 10:18 19.07.2019
4935 Haze 39 997 27 10000 2.1 160 09:43 19.07.2019
4936 Haze 39 997 27 10000 2.1 160 09:22 19.07.2019
4937 Haze 38 998 29 10000 2.6 210 08:50 19.07.2019
4938 Haze 38 997 32 10000 3.1 200 08:28 19.07.2019
4939 Haze 36 998 37 10000 2.6 210 07:33 19.07.2019
4940 Haze 33 998 46 10000 1 0 06:37 19.07.2019
4941 Haze 30 997 55 10000 2.1 230 03:53 19.07.2019
4942 Haze 30 996 62 10000 2.6 230 01:44 19.07.2019
4943 Haze 31 996 62 10000 2.1 210 00:54 19.07.2019
4944 Haze 31 996 70 10000 2.1 170 23:59 18.07.2019
4945 Haze 31 996 70 10000 2.1 160 23:40 18.07.2019
4946 Haze 31 996 70 10000 2.1 160 23:40 18.07.2019
4947 Haze 31 996 70 10000 2.1 160 23:22 18.07.2019
4948 Clear 32 997 70 10000 2.1 150 22:44 18.07.2019
4949 Haze 32 997 75 10000 1.5 130 22:20 18.07.2019
4950 Haze 32 997 66 10000 1 0 21:57 18.07.2019
4951 Clear 33 998 55 10000 1.5 40 21:38 18.07.2019
4952 Haze 34 998 52 10000 2.6 10 21:18 18.07.2019
4953 Haze 34 998 52 10000 2.6 10 20:45 18.07.2019
4954 Haze 34 998 46 10000 1.5 10 20:23 18.07.2019
4955 Haze 35 997 44 10000 1.5 360 19:49 18.07.2019
4956 Haze 35 997 47 10000 1.5 350 19:27 18.07.2019
4957 Haze 36 997 47 10000 3.1 350 18:51 18.07.2019
4958 Haze 36 997 47 10000 2.6 360 18:22 18.07.2019
4959 Haze 37 997 39 10000 4.1 360 17:56 18.07.2019
4960 Haze 38 997 39 10000 3.6 10 17:37 18.07.2019
4961 Haze 38 997 39 10000 3.6 10 17:19 18.07.2019
4962 Haze 38 997 39 10000 3.6 360 16:49 18.07.2019
4963 Haze 38 997 39 10000 3.6 360 16:49 18.07.2019
4964 Haze 39 996 37 10000 5.1 10 16:25 18.07.2019
4965 Haze 39 996 35 10000 5.1 360 15:56 18.07.2019
4966 Haze 39 997 37 10000 5.7 10 15:36 18.07.2019
4967 Haze 39 997 39 10000 5.7 10 14:56 18.07.2019
4968 Haze 40 997 33 10000 6.7 10 14:37 18.07.2019
4969 Haze 40 997 33 10000 6.7 10 14:37 18.07.2019
4970 Haze 40 997 33 10000 6.7 10 14:19 18.07.2019
4971 Haze 40 998 28 10000 7.2 360 13:38 18.07.2019
4972 Haze 40 998 29 10000 7.2 10 13:19 18.07.2019
4973 Haze 39 998 35 10000 7.2 10 12:44 18.07.2019
4974 Haze 39 998 29 10000 7.7 10 12:20 18.07.2019
4975 Haze 39 998 29 10000 7.7 10 11:51 18.07.2019
4976 Haze 39 999 29 10000 8.2 360 11:33 18.07.2019
4977 Haze 39 999 31 10000 7.7 360 10:52 18.07.2019
4978 Haze 40 999 28 10000 8.2 360 10:23 18.07.2019
4979 Haze 39 999 31 10000 8.2 350 09:45 18.07.2019
4980 Haze 39 999 31 10000 8.2 350 09:23 18.07.2019
4981 Haze 38 999 33 10000 7.7 340 08:47 18.07.2019
4982 Haze 37 999 33 10000 7.7 330 08:20 18.07.2019
4983 Haze 37 999 31 10000 6.2 320 07:39 18.07.2019
4984 Haze 34 999 35 10000 4.6 330 07:20 18.07.2019
4985 Haze 34 999 37 10000 5.1 320 06:36 18.07.2019
4986 Haze 32 998 41 10000 4.6 310 04:21 18.07.2019
4987 Haze 32 997 44 10000 3.6 290 02:52 18.07.2019
4988 Haze 32 997 41 10000 3.6 300 01:38 18.07.2019
4989 Haze 33 997 36 10000 4.1 300 00:28 18.07.2019
4990 Haze 33 997 34 10000 4.1 300 23:49 17.07.2019
4991 Haze 33 997 30 10000 4.6 330 23:19 17.07.2019
4992 Clear 33 998 30 10000 5.1 330 22:55 17.07.2019
4993 Clear 33 998 30 10000 5.1 330 22:36 17.07.2019
4994 Haze 33 998 32 10000 4.6 330 22:18 17.07.2019
4995 Haze 33 998 32 10000 5.7 330 21:43 17.07.2019
4996 Haze 33 998 32 10000 5.7 330 21:25 17.07.2019
4997 Haze 34 998 30 10000 5.7 330 20:58 17.07.2019
4998 Haze 34 998 30 10000 6.2 330 20:39 17.07.2019
4999 Clear 35 998 28 10000 6.2 330 20:20 17.07.2019
5000 Clear 35 998 28 10000 6.2 330 20:20 17.07.2019
5001 Clear 35 998 26 10000 7.2 340 19:43 17.07.2019
5002 Haze 36 998 26 10000 6.7 330 19:22 17.07.2019
5003 Haze 36 998 26 10000 6.7 330 18:58 17.07.2019
5004 Haze 36 998 30 10000 6.7 330 18:39 17.07.2019
5005 Haze 37 998 22 10000 8.7 340 18:20 17.07.2019
5006 Haze 37 998 22 10000 8.7 340 17:46 17.07.2019
5007 Haze 37 998 22 10000 8.7 340 17:24 17.07.2019
5008 Haze 39 997 21 10000 9.3 340 16:43 17.07.2019
5009 Haze 39 997 21 10000 9.3 340 16:23 17.07.2019
5010 Haze 39 997 24 10000 10.3 340 15:52 17.07.2019
5011 Haze 39 997 24 10000 10.3 340 15:32 17.07.2019
5012 Haze 39 997 24 10000 10.3 340 15:32 17.07.2019
5013 Haze 39 997 31 10000 10.8 350 14:58 17.07.2019
5014 Haze 39 997 39 10000 9.8 350 14:40 17.07.2019
5015 Haze 39 997 39 10000 9.8 350 14:21 17.07.2019
5016 Haze 39 997 39 10000 9.3 350 13:59 17.07.2019
5017 Haze 39 997 39 10000 9.3 360 13:40 17.07.2019
5018 Haze 39 998 39 10000 9.8 10 13:19 17.07.2019
5019 Haze 39 998 39 10000 9.3 360 12:39 17.07.2019
5020 Haze 40 998 39 10000 8.7 360 12:20 17.07.2019
5021 Haze 40 998 40 10000 9.3 360 11:44 17.07.2019
5022 Haze 40 998 33 10000 9.3 360 11:21 17.07.2019
5023 Haze 40 998 26 10000 10.8 340 10:50 17.07.2019
5024 Haze 40 998 26 10000 10.8 340 10:29 17.07.2019
5025 Haze 39 998 24 10000 11.3 340 09:55 17.07.2019
5026 Haze 39 998 26 10000 10.8 340 09:37 17.07.2019
5027 Haze 39 998 26 10000 9.8 340 09:18 17.07.2019
5028 Haze 38 998 27 10000 9.3 340 08:41 17.07.2019
5029 Haze 38 998 27 10000 9.3 340 08:21 17.07.2019
5030 Haze 37 998 33 10000 8.7 340 08:21 17.07.2019
5031 Haze 37 998 33 10000 7.7 330 07:41 17.07.2019
5032 Haze 36 998 32 10000 10.3 340 07:22 17.07.2019
5033 Haze 36 997 32 10000 10.8 340 06:46 17.07.2019
5034 Haze 36 997 32 10000 10.8 340 06:46 17.07.2019
5035 Haze 36 997 32 10000 10.8 340 06:28 17.07.2019
5036 Haze 34 997 39 10000 9.3 330 05:43 17.07.2019
5037 Haze 34 997 39 10000 9.3 330 05:23 17.07.2019
5038 Haze 34 997 39 10000 8.2 330 04:29 17.07.2019
5039 Haze 34 996 37 10000 6.2 320 02:47 17.07.2019
5040 Haze 34 995 37 10000 6.7 320 01:58 17.07.2019
5041 Haze 34 995 34 10000 5.7 320 01:24 17.07.2019
5042 Haze 35 995 37 10000 5.7 310 00:44 17.07.2019
5043 Haze 34 995 30 10000 5.1 310 00:23 17.07.2019
5044 Haze 35 996 24 10000 6.2 330 23:49 16.07.2019
5045 Haze 35 996 24 10000 6.2 330 23:28 16.07.2019
5046 Haze 35 996 29 10000 4.1 310 22:58 16.07.2019
5047 Haze 36 996 24 10000 4.1 310 22:39 16.07.2019
5048 Clear 35 996 22 10000 3.6 320 22:19 16.07.2019
5049 Clear 35 996 23 10000 4.1 330 21:45 16.07.2019
5050 Haze 36 996 21 10000 5.1 330 21:21 16.07.2019
5051 Haze 36 996 21 10000 5.1 330 20:58 16.07.2019
5052 Haze 37 996 18 10000 5.7 320 20:38 16.07.2019
5053 Haze 37 996 18 10000 5.7 320 20:20 16.07.2019
5054 Haze 37 996 15 10000 5.7 320 19:46 16.07.2019
5055 Haze 37 996 15 10000 5.7 320 19:27 16.07.2019
5056 Haze 38 995 18 10000 5.1 330 18:46 16.07.2019
5057 Haze 39 995 17 10000 6.2 330 18:21 16.07.2019
5058 Haze 39 995 17 10000 6.2 330 17:58 16.07.2019
5059 Haze 39 995 20 10000 5.7 320 17:38 16.07.2019
5060 Haze 39 995 20 10000 5.7 320 17:20 16.07.2019
5061 Haze 41 994 16 10000 6.2 320 16:40 16.07.2019
5062 Haze 42 994 12 10000 8.2 340 16:19 16.07.2019
5063 Clear 42 994 12 10000 7.7 330 15:41 16.07.2019
5064 Haze 42 994 12 10000 7.7 330 15:21 16.07.2019
5065 Haze 44 994 13 10000 7.2 320 14:58 16.07.2019
5066 Haze 44 994 14 10000 6.7 320 14:39 16.07.2019
5067 Haze 43 994 16 10000 7.2 320 14:20 16.07.2019
5068 Haze 43 995 12 10000 5.7 320 13:45 16.07.2019
5069 Haze 43 995 12 10000 5.7 320 13:24 16.07.2019
5070 Haze 44 995 12 10000 6.7 310 12:54 16.07.2019
5071 Haze 43 995 16 10000 6.7 320 12:36 16.07.2019
5072 Haze 43 995 18 10000 6.2 310 12:18 16.07.2019
5073 Haze 43 995 18 10000 6.2 310 11:42 16.07.2019
5074 Haze 43 995 18 10000 6.2 310 11:22 16.07.2019
5075 Haze 42 996 19 10000 6.2 320 10:47 16.07.2019
5076 Haze 42 996 19 10000 6.2 320 10:22 16.07.2019
5077 Haze 41 996 20 10000 6.7 310 09:59 16.07.2019
5078 Haze 41 996 23 10000 6.7 310 09:40 16.07.2019
5079 Haze 40 996 21 10000 5.1 300 09:19 16.07.2019
5080 Haze 39 996 23 10000 4.6 300 08:42 16.07.2019
5081 Haze 39 996 23 10000 4.6 300 08:20 16.07.2019
5082 Haze 37 996 27 10000 4.1 280 07:42 16.07.2019
5083 Haze 35 996 27 10000 3.1 280 07:24 16.07.2019
5084 Haze 35 996 30 10000 3.1 270 06:48 16.07.2019
5085 Haze 35 996 30 10000 3.1 270 06:27 16.07.2019
5086 Haze 32 995 28 10000 6.7 290 05:37 16.07.2019
5087 Haze 32 995 29 10000 6.2 290 05:18 16.07.2019
5088 Haze 32 995 26 10000 6.2 280 03:57 16.07.2019
5089 Haze 32 994 28 10000 5.1 280 03:21 16.07.2019
5090 Haze 32 994 28 10000 5.1 280 02:31 16.07.2019
5091 Haze 33 994 24 10000 5.7 290 01:49 16.07.2019
5092 Haze 32 995 30 10000 5.7 280 00:47 16.07.2019
5093 Haze 33 995 26 10000 6.2 280 00:22 16.07.2019
5094 Haze 33 995 26 10000 6.2 280 23:53 15.07.2019
5095 Haze 34 995 26 10000 6.2 280 23:34 15.07.2019
5096 Haze 34 996 30 10000 2.6 280 22:49 15.07.2019
5097 Haze 34 996 30 10000 2.6 280 22:23 15.07.2019
5098 Haze 35 996 27 10000 4.6 290 21:59 15.07.2019
5099 Haze 35 996 23 10000 5.1 310 21:41 15.07.2019
5100 Haze 35 996 23 10000 5.1 310 21:20 15.07.2019
5101 Haze 36 997 27 10000 5.1 300 20:57 15.07.2019
5102 Haze 36 996 25 10000 4.6 320 20:38 15.07.2019
5103 Haze 36 996 21 10000 4.6 320 20:19 15.07.2019
5104 Haze 36 996 21 10000 4.6 310 19:43 15.07.2019
5105 Haze 36 996 21 10000 4.6 310 19:21 15.07.2019
5106 Haze 37 996 22 10000 4.6 320 18:55 15.07.2019
5107 Haze 37 996 22 10000 4.6 320 18:37 15.07.2019
5108 Haze 38 996 21 10000 4.6 330 18:18 15.07.2019
5109 Haze 38 996 21 10000 4.6 330 18:18 15.07.2019
5110 Haze 38 996 21 10000 4.6 330 18:18 15.07.2019
5111 Haze 38 996 20 10000 5.7 330 17:44 15.07.2019
5112 Haze 38 996 20 10000 5.7 330 17:26 15.07.2019
5113 Haze 40 995 16 10000 7.7 330 16:59 15.07.2019
5114 Haze 40 995 17 10000 8.7 330 16:38 15.07.2019
5115 Haze 41 996 16 10000 7.7 310 16:20 15.07.2019
5116 Haze 41 996 16 10000 7.7 310 15:55 15.07.2019
5117 Haze 41 996 17 10000 8.7 330 15:37 15.07.2019
5118 Haze 42 996 17 10000 7.7 310 15:19 15.07.2019
5119 Haze 42 996 18 10000 7.7 330 14:43 15.07.2019
5120 Haze 42 996 18 10000 7.7 330 14:23 15.07.2019
5121 Haze 42 996 16 10000 8.2 320 13:51 15.07.2019
5122 Haze 42 996 15 10000 8.2 320 13:22 15.07.2019
5123 Haze 42 996 16 10000 9.3 330 12:58 15.07.2019
5124 Haze 42 997 16 10000 8.7 330 12:40 15.07.2019
5125 Haze 42 997 17 10000 8.2 330 12:20 15.07.2019
5126 Haze 42 997 17 10000 7.7 310 11:41 15.07.2019
5127 Haze 42 997 18 10000 7.7 320 11:22 15.07.2019
5128 Haze 41 998 19 10000 7.2 320 10:45 15.07.2019
5129 Haze 41 998 19 10000 7.2 320 10:26 15.07.2019
5130 Haze 41 998 20 10000 7.7 310 09:48 15.07.2019
5131 Haze 41 998 20 10000 7.7 310 09:26 15.07.2019
5132 Haze 40 998 21 10000 6.7 310 08:58 15.07.2019
5133 Haze 39 998 24 10000 6.7 310 08:40 15.07.2019
5134 Haze 39 998 24 10000 6.7 310 08:22 15.07.2019
5135 Haze 37 998 25 10000 5.1 310 07:37 15.07.2019
5136 Clear 36 998 25 10000 4.1 290 06:55 15.07.2019
5137 Clear 35 998 30 10000 4.1 290 06:33 15.07.2019
5138 Haze 33 998 41 10000 3.6 280 05:44 15.07.2019
5139 Haze 32 997 43 10000 3.6 270 05:19 15.07.2019
5140 Haze 32 997 46 10000 4.1 280 04:41 15.07.2019
5141 Haze 32 997 46 10000 4.1 280 03:35 15.07.2019
5142 Haze 32 997 46 10000 3.6 270 02:32 15.07.2019
5143 Haze 32 997 49 10000 3.6 270 01:41 15.07.2019
5144 Haze 32 997 46 10000 3.1 270 01:20 15.07.2019
5145 Haze 33 997 41 10000 2.6 270 00:46 15.07.2019
5146 Haze 33 997 36 10000 2.6 280 00:19 15.07.2019
5147 Haze 33 998 28 10000 3.6 310 23:42 14.07.2019
5148 Haze 33 998 28 10000 3.6 310 23:21 14.07.2019
5149 Haze 33 998 28 10000 3.6 310 22:59 14.07.2019
5150 Haze 33 998 22 10000 4.1 320 22:40 14.07.2019
5151 Haze 34 999 25 10000 4.6 330 22:21 14.07.2019
5152 Haze 34 999 25 10000 4.6 330 21:57 14.07.2019
5153 Haze 34 999 25 10000 4.6 330 21:57 14.07.2019
5154 Haze 34 999 26 10000 4.6 340 21:39 14.07.2019
5155 Haze 34 999 25 10000 4.1 330 21:18 14.07.2019
5156 Haze 34 999 22 10000 5.1 340 20:39 14.07.2019
5157 Haze 36 999 23 10000 4.6 330 20:21 14.07.2019
5158 Haze 36 999 23 10000 4.6 330 19:59 14.07.2019
5159 Haze 36 998 22 10000 5.1 340 19:39 14.07.2019
5160 Haze 37 998 23 10000 6.2 340 19:21 14.07.2019
5161 Haze 37 998 22 10000 6.7 340 18:43 14.07.2019
5162 Haze 37 998 22 10000 6.7 340 18:25 14.07.2019
5163 Haze 38 997 24 10000 5.7 340 17:58 14.07.2019
5164 Haze 38 997 27 10000 6.7 350 17:36 14.07.2019
5165 Haze 39 997 24 10000 7.7 350 17:18 14.07.2019
5166 Haze 39 997 31 10000 7.7 360 16:42 14.07.2019
5167 Haze 39 997 31 10000 7.7 360 16:21 14.07.2019
5168 Haze 40 997 29 10000 7.7 360 15:43 14.07.2019
5169 Haze 41 997 28 10000 8.2 360 15:23 14.07.2019
5170 Haze 41 997 28 10000 9.3 350 14:47 14.07.2019
5171 Haze 41 997 30 10000 8.2 360 14:20 14.07.2019
5172 Haze 41 998 32 10000 8.2 360 13:47 14.07.2019
5173 Haze 41 998 32 10000 8.2 360 13:47 14.07.2019
5174 Haze 41 998 32 10000 8.2 360 13:25 14.07.2019
5175 Haze 41 998 33 10000 8.7 10 12:57 14.07.2019
5176 Haze 41 998 32 10000 8.7 360 12:39 14.07.2019
5177 Haze 41 998 31 10000 8.7 10 12:19 14.07.2019
5178 Haze 41 998 33 10000 8.7 10 11:49 14.07.2019
5179 Haze 41 999 33 10000 9.8 360 11:20 14.07.2019
5180 Haze 41 999 31 10000 9.3 350 10:46 14.07.2019
5181 Haze 40 999 37 10000 8.7 350 10:21 14.07.2019
5182 Haze 40 999 35 10000 8.2 360 09:48 14.07.2019
5183 Haze 40 999 35 10000 8.2 360 09:30 14.07.2019
5184 Haze 39 999 31 10000 9.3 340 08:48 14.07.2019
5185 Haze 37 999 35 10000 8.7 340 08:30 14.07.2019
5186 Haze 37 999 37 10000 7.7 340 07:43 14.07.2019
5187 Haze 35 999 39 10000 7.7 340 07:21 14.07.2019
5188 Haze 34 998 37 10000 7.7 330 05:46 14.07.2019
5189 Haze 32 998 34 10000 3.1 300 03:58 14.07.2019
5190 Haze 32 997 41 10000 2.1 280 03:39 14.07.2019
5191 Haze 32 997 38 10000 2.1 270 03:21 14.07.2019
5192 Haze 32 997 32 10000 2.1 310 02:23 14.07.2019
5193 Haze 33 997 32 10000 2.1 310 01:53 14.07.2019
5194 Haze 33 997 32 10000 2.1 310 01:27 14.07.2019
5195 Haze 33 997 32 10000 2.1 310 00:41 14.07.2019
5196 Haze 33 997 36 10000 2.1 330 00:20 14.07.2019
5197 Haze 33 997 36 10000 2.1 330 23:57 13.07.2019
5198 Haze 33 997 32 10000 2.1 320 23:38 13.07.2019
5199 Haze 34 997 32 10000 2.6 320 23:20 13.07.2019
5200 Haze 33 998 44 10000 2.1 340 22:41 13.07.2019
5201 Haze 33 998 39 10000 2.6 330 22:21 13.07.2019
5202 Haze 33 998 44 10000 3.1 340 21:48 13.07.2019
5203 Haze 34 998 46 10000 3.1 350 21:21 13.07.2019
5204 Haze 34 998 46 10000 3.1 350 20:51 13.07.2019
5205 Haze 34 998 44 10000 4.1 350 20:33 13.07.2019
5206 Haze 34 997 67 10000 3.6 360 19:50 13.07.2019
5207 Haze 34 997 67 10000 3.6 360 19:30 13.07.2019
5208 Haze 35 997 67 10000 4.6 350 18:47 13.07.2019
5209 Haze 35 997 67 10000 4.6 350 18:28 13.07.2019
5210 Haze 36 997 63 10000 5.1 350 17:56 13.07.2019
5211 Haze 36 997 59 10000 5.1 360 17:37 13.07.2019
5212 Haze 38 997 56 10000 6.2 360 17:18 13.07.2019
5213 Haze 38 997 56 10000 6.2 360 17:18 13.07.2019
5214 Haze 38 997 56 10000 6.7 350 16:42 13.07.2019
5215 Haze 39 996 53 10000 7.2 360 16:23 13.07.2019
5216 Haze 39 996 53 10000 7.7 360 15:46 13.07.2019
5217 Haze 39 996 53 10000 7.7 360 15:24 13.07.2019
5218 Haze 39 996 45 10000 8.2 10 14:47 13.07.2019
5219 Haze 39 996 45 10000 8.2 10 14:27 13.07.2019
5220 Haze 40 997 45 10000 9.3 20 13:58 13.07.2019
5221 Haze 40 997 42 10000 8.2 10 13:39 13.07.2019
5222 Haze 40 997 47 10000 8.7 360 13:18 13.07.2019
5223 Clear 38 997 42 10000 8.7 10 12:40 13.07.2019
5224 Dust 41 997 42 10000 8.2 360 12:22 13.07.2019
5225 Dust 40 997 42 10000 8.2 360 11:57 13.07.2019
5226 Dust 41 997 35 10000 9.3 360 11:20 13.07.2019
5227 Dust 41 997 30 10000 10.3 350 10:55 13.07.2019
5228 Dust 41 997 26 10000 10.3 350 10:37 13.07.2019
5229 Clear 39 998 26 10000 9.3 340 10:18 13.07.2019
5230 Clear 39 998 28 10000 10.3 340 09:41 13.07.2019
5231 Haze 39 998 28 10000 10.3 340 09:20 13.07.2019
5232 Haze 39 998 29 10000 10.3 340 08:45 13.07.2019
5233 Haze 39 998 29 10000 10.3 340 08:26 13.07.2019
5234 Haze 38 998 35 10000 7.2 330 07:30 13.07.2019
5235 Haze 34 998 41 10000 4.6 320 06:50 13.07.2019
5236 Haze 33 998 41 10000 4.6 310 06:22 13.07.2019
5237 Haze 34 997 39 10000 4.1 310 05:37 13.07.2019
5238 Haze 32 997 44 10000 2.6 270 04:25 13.07.2019
5239 Haze 33 996 36 10000 3.1 290 03:59 13.07.2019
5240 Haze 33 996 32 10000 2.1 290 03:39 13.07.2019
5241 Haze 32 996 34 10000 1.5 270 02:20 13.07.2019
5242 Haze 33 996 34 10000 1.5 260 01:43 13.07.2019
5243 Haze 32 996 36 10000 1 0 01:20 13.07.2019
5244 Haze 32 996 36 10000 1 0 00:57 13.07.2019
5245 Haze 32 996 49 10000 0.5 110 00:20 13.07.2019
5246 Haze 32 996 46 10000 0.5 100 23:49 12.07.2019
5247 Haze 32 996 46 10000 0.5 100 23:49 12.07.2019
5248 Haze 32 996 46 10000 0.5 100 23:29 12.07.2019
5249 Haze 33 996 49 10000 1 0 22:46 12.07.2019
5250 Haze 33 996 49 10000 1 0 22:25 12.07.2019
5251 Haze 33 996 49 10000 1 0 22:25 12.07.2019
5252 Haze 33 997 52 10000 1 350 21:57 12.07.2019
5253 Haze 33 997 52 10000 1.5 10 21:39 12.07.2019
5254 Haze 34 997 44 10000 2.1 360 21:19 12.07.2019
5255 Haze 34 997 44 10000 2.1 360 21:19 12.07.2019
5256 Haze 34 997 44 10000 3.1 360 20:42 12.07.2019
5257 Haze 34 997 44 10000 3.1 360 20:21 12.07.2019
5258 Haze 36 997 32 10000 3.1 360 19:42 12.07.2019
5259 Haze 36 997 32 10000 3.1 360 19:24 12.07.2019
5260 Haze 37 996 24 10000 4.6 340 18:46 12.07.2019
5261 Haze 38 996 37 10000 4.6 350 18:22 12.07.2019
5262 Haze 38 996 37 10000 4.6 350 17:55 12.07.2019
5263 Haze 38 996 37 10000 6.2 350 17:30 12.07.2019
5264 Haze 38 996 37 10000 6.2 350 17:30 12.07.2019
5265 Haze 40 996 35 10000 7.2 360 16:52 12.07.2019
5266 Haze 40 995 31 10000 6.7 360 16:25 12.07.2019
5267 Clear 38 995 33 10000 7.2 360 15:57 12.07.2019
5268 Clear 38 995 38 10000 7.2 10 15:37 12.07.2019
5269 Haze 41 995 34 10000 7.2 360 15:18 12.07.2019
5270 Haze 41 995 32 10000 7.7 10 14:44 12.07.2019
5271 Haze 42 995 22 10000 7.7 350 14:21 12.07.2019
5272 Haze 42 995 26 10000 7.2 360 13:46 12.07.2019
5273 Haze 42 995 26 10000 7.2 360 13:23 12.07.2019
5274 Haze 43 996 21 10000 7.2 360 12:42 12.07.2019
5275 Haze 44 996 14 10000 8.7 350 12:23 12.07.2019
5276 Haze 44 996 12 10000 6.2 320 11:47 12.07.2019
5277 Haze 44 996 12 10000 6.2 320 11:24 12.07.2019
5278 Haze 45 996 11 10000 6.2 330 10:58 12.07.2019
5279 Haze 44 997 12 10000 5.1 320 10:40 12.07.2019
5280 Haze 43 997 15 10000 4.6 310 10:22 12.07.2019
5281 Clear 42 997 16 10000 6.2 300 09:51 12.07.2019
5282 Haze 42 997 16 10000 6.2 300 09:25 12.07.2019
5283 Haze 41 997 17 10000 4.1 280 08:47 12.07.2019
5284 Haze 41 997 17 10000 4.1 280 08:23 12.07.2019
5285 Haze 39 997 21 10000 3.6 280 07:47 12.07.2019
5286 Haze 39 997 21 10000 3.6 280 07:29 12.07.2019
5287 Haze 36 997 29 10000 2.6 260 06:30 12.07.2019
5288 Haze 33 997 44 10000 3.1 250 05:51 12.07.2019
5289 Clear 33 996 46 10000 3.1 250 04:25 12.07.2019
5290 Clear 33 995 36 10000 2.6 250 01:51 12.07.2019
5291 Clear 33 995 34 10000 2.1 240 01:32 12.07.2019
5292 Clear 33 995 36 10000 2.1 230 00:35 12.07.2019
5293 Clear 33 996 52 10000 2.1 220 23:57 11.07.2019
5294 Clear 34 996 37 10000 1.5 220 23:38 11.07.2019
5295 Clear 34 996 44 10000 1 0 23:19 11.07.2019
5296 Clear 33 996 34 10000 1 0 22:43 11.07.2019
5297 Haze 33 996 34 10000 1 0 22:24 11.07.2019
5298 Haze 33 996 59 10000 0.5 0 21:44 11.07.2019
5299 Haze 34 997 63 10000 1 360 21:20 11.07.2019
5300 Haze 34 997 63 10000 1 360 20:59 11.07.2019
5301 Haze 34 997 67 10000 2.1 360 20:41 11.07.2019
5302 Haze 35 997 67 10000 1.5 40 20:22 11.07.2019
5303 Haze 35 997 67 10000 1.5 40 19:55 11.07.2019
5304 Haze 35 996 67 10000 1 20 19:36 11.07.2019
5305 Haze 36 996 67 10000 1.5 20 19:18 11.07.2019
5306 Haze 36 996 63 10000 2.6 20 18:39 11.07.2019
5307 Haze 38 996 59 10000 3.1 10 18:21 11.07.2019
5308 Haze 38 995 53 10000 3.6 10 17:46 11.07.2019
5309 Haze 38 995 53 10000 3.6 10 17:28 11.07.2019
5310 Haze 39 995 42 10000 3.6 40 16:52 11.07.2019
5311 Haze 39 995 42 10000 3.6 40 16:24 11.07.2019
5312 Haze 41 995 37 10000 4.1 40 15:55 11.07.2019
5313 Haze 41 995 28 10000 4.1 20 15:37 11.07.2019
5314 Haze 41 995 28 10000 4.1 20 15:37 11.07.2019
5315 Haze 42 995 20 10000 4.1 20 15:19 11.07.2019
5316 Haze 42 995 23 10000 3.6 30 14:43 11.07.2019
5317 Haze 42 995 23 10000 3.6 30 14:23 11.07.2019
5318 Haze 42 995 22 10000 5.1 30 13:47 11.07.2019
5319 Haze 42 995 22 10000 5.1 30 13:29 11.07.2019
5320 Haze 44 995 7 10000 4.6 300 12:47 11.07.2019
5321 Haze 44 995 7 10000 4.6 300 12:28 11.07.2019
5322 Haze 45 995 8 10000 5.7 290 11:59 11.07.2019
5323 Haze 45 996 8 10000 5.7 300 11:41 11.07.2019
5324 Haze 45 996 8 10000 5.7 300 11:22 11.07.2019
5325 Haze 45 996 9 10000 5.7 320 10:46 11.07.2019
5326 Haze 43 996 12 10000 5.1 310 10:19 11.07.2019
5327 Haze 43 997 16 10000 4.6 310 09:48 11.07.2019
5328 Haze 43 997 16 10000 4.6 310 09:29 11.07.2019
5329 Haze 41 997 17 10000 3.6 300 08:53 11.07.2019
5330 Haze 41 997 17 10000 3.6 300 08:27 11.07.2019
5331 Haze 39 996 19 10000 3.6 270 07:57 11.07.2019
5332 Haze 39 996 19 10000 3.6 270 07:38 11.07.2019
5333 Haze 36 996 19 10000 3.1 250 06:41 11.07.2019
5334 Haze 35 996 19 10000 3.1 240 05:53 11.07.2019
5335 Haze 34 995 23 10000 2.1 230 05:30 11.07.2019
5336 Haze 34 995 23 10000 2.6 220 04:55 11.07.2019
5337 Haze 34 994 32 10000 3.6 220 02:41 11.07.2019
5338 Haze 34 994 32 10000 3.6 220 02:41 11.07.2019
5339 Haze 34 993 34 10000 3.6 220 01:43 11.07.2019
5340 Haze 34 993 36 10000 3.1 220 00:31 11.07.2019
5341 Haze 35 994 39 10000 3.6 210 23:49 10.07.2019
5342 Haze 35 994 39 10000 3.6 210 23:20 10.07.2019
5343 Haze 35 994 37 10000 3.6 200 22:52 10.07.2019
5344 Haze 35 994 37 10000 3.6 200 22:22 10.07.2019
5345 Haze 36 995 35 10000 3.6 200 21:48 10.07.2019
5346 Haze 36 995 35 10000 3.6 200 21:28 10.07.2019
5347 Haze 36 995 39 10000 3.6 200 20:58 10.07.2019
5348 Haze 36 994 42 10000 2.6 180 20:39 10.07.2019
5349 Haze 37 994 39 10000 2.6 160 20:19 10.07.2019
5350 Haze 36 994 47 10000 2.6 130 19:54 10.07.2019
5351 Haze 38 994 35 10000 1 10 19:22 10.07.2019
5352 Haze 38 994 35 10000 1 10 18:59 10.07.2019
5353 Haze 38 994 35 10000 2.6 360 18:41 10.07.2019
5354 Haze 40 993 29 10000 2.6 360 18:22 10.07.2019
5355 Haze 40 993 26 10000 4.1 10 17:42 10.07.2019
5356 Haze 41 993 19 10000 5.1 360 17:22 10.07.2019
5357 Haze 42 993 9 10000 5.1 330 16:38 10.07.2019
5358 Haze 44 993 8 10000 5.7 340 16:19 10.07.2019
5359 Haze 44 993 8 10000 6.2 320 15:46 10.07.2019
5360 Haze 44 993 8 10000 6.2 320 15:22 10.07.2019
5361 Haze 44 993 8 10000 5.7 310 14:41 10.07.2019
5362 Haze 45 993 8 10000 6.2 290 14:23 10.07.2019
5363 Haze 45 993 8 10000 6.2 290 13:52 10.07.2019
5364 Haze 44 994 9 10000 7.2 300 13:19 10.07.2019
5365 Haze 44 994 9 10000 7.2 300 12:58 10.07.2019
5366 Haze 44 994 9 10000 7.2 310 12:38 10.07.2019
5367 Haze 44 994 9 10000 6.7 300 12:19 10.07.2019
5368 Haze 44 994 9 10000 7.2 310 11:47 10.07.2019
5369 Haze 43 995 10 10000 7.2 310 11:21 10.07.2019
5370 Haze 43 995 11 10000 6.2 320 10:50 10.07.2019
5371 Haze 43 995 11 10000 6.2 320 10:23 10.07.2019
5372 Haze 42 995 15 10000 6.7 330 09:44 10.07.2019
5373 Haze 41 995 16 10000 5.1 300 09:21 10.07.2019
5374 Haze 41 995 16 10000 5.1 300 08:55 10.07.2019
5375 Haze 41 995 17 10000 4.6 310 08:36 10.07.2019
5376 Haze 39 995 19 10000 3.6 320 08:18 10.07.2019
5377 Haze 39 995 21 10000 3.6 310 07:42 10.07.2019
5378 Haze 37 995 21 10000 3.6 310 07:20 10.07.2019
5379 Haze 34 995 27 10000 2.6 280 06:00 10.07.2019
5380 Haze 34 995 26 10000 3.1 290 05:39 10.07.2019
5381 Haze 33 995 28 10000 3.6 280 04:29 10.07.2019
5382 Haze 34 994 30 10000 3.1 270 00:49 10.07.2019
5383 Haze 34 994 30 10000 3.1 270 00:29 10.07.2019
5384 Haze 35 995 22 10000 3.6 290 23:42 09.07.2019
5385 Haze 35 995 22 10000 3.6 290 23:22 09.07.2019
5386 Haze 36 995 18 10000 4.1 310 22:43 09.07.2019
5387 Haze 36 995 18 10000 4.1 310 22:24 09.07.2019
5388 Haze 37 995 17 10000 4.6 300 21:59 09.07.2019
5389 Haze 37 996 15 10000 4.1 310 21:41 09.07.2019
5390 Haze 37 996 15 10000 4.1 310 21:23 09.07.2019
5391 Clear 38 995 13 10000 5.7 320 20:43 09.07.2019
5392 Clear 38 995 13 10000 5.7 320 20:43 09.07.2019
5393 Haze 38 995 13 10000 5.7 320 20:24 09.07.2019
5394 Haze 38 995 13 10000 5.7 330 19:42 09.07.2019
5395 Haze 39 995 16 10000 5.7 330 19:24 09.07.2019
5396 Haze 39 995 15 10000 6.7 330 18:47 09.07.2019
5397 Haze 39 995 15 10000 6.7 330 18:26 09.07.2019
5398 Haze 40 995 14 10000 6.7 330 17:57 09.07.2019
5399 Haze 41 995 12 10000 7.2 330 17:39 09.07.2019
5400 Haze 42 994 12 10000 9.3 330 17:19 09.07.2019
5401 Haze 42 994 11 10000 7.7 330 16:50 09.07.2019
5402 Haze 42 994 11 10000 7.7 330 16:25 09.07.2019
5403 Haze 43 994 11 10000 9.8 330 15:51 09.07.2019
5404 Haze 43 994 11 10000 9.8 330 15:33 09.07.2019
5405 Haze 44 994 10 10000 10.3 330 14:58 09.07.2019
5406 Haze 44 994 10 10000 9.3 330 14:39 09.07.2019
5407 Haze 45 995 9 10000 10.8 330 14:19 09.07.2019
5408 Haze 45 995 9 10000 10.8 340 13:45 09.07.2019
5409 Haze 45 995 9 10000 10.8 340 13:27 09.07.2019
5410 Haze 44 995 10 10000 8.7 330 12:42 09.07.2019
5411 Haze 44 995 13 10000 10.8 350 12:23 09.07.2019
5412 Haze 44 995 13 10000 10.8 350 11:58 09.07.2019
5413 Haze 44 995 23 10000 8.2 360 11:40 09.07.2019
5414 Haze 44 995 23 10000 8.2 360 11:21 09.07.2019
5415 Haze 44 996 18 10000 9.3 360 10:57 09.07.2019
5416 Haze 44 996 18 10000 9.3 360 10:34 09.07.2019
5417 Haze 43 997 10 9000 9.8 350 09:48 09.07.2019
5418 Haze 43 997 10 9000 9.8 350 09:29 09.07.2019
5419 Haze 42 997 16 10000 6.2 330 08:59 09.07.2019
5420 Haze 42 997 16 10000 6.7 320 08:40 09.07.2019
5421 Haze 34 996 41 10000 4.1 320 04:18 05.07.2019
5422 Clear 35 996 39 10000 4.1 310 03:38 05.07.2019
5423 Haze 35 996 37 10000 4.1 320 03:19 05.07.2019
5424 Haze 35 995 35 10000 5.7 320 02:49 05.07.2019
5425 Haze 36 995 29 10000 5.7 330 01:52 05.07.2019
5426 Haze 36 995 26 10000 6.2 320 01:27 05.07.2019
5427 Haze 36 995 32 10000 6.2 310 00:51 05.07.2019
5428 Haze 36 995 32 10000 6.2 310 00:27 05.07.2019
5429 Haze 35 995 37 10000 5.7 310 23:23 04.07.2019
5430 Haze 35 995 37 10000 5.7 310 23:23 04.07.2019
5431 Haze 35 996 35 10000 4.6 310 22:59 04.07.2019
5432 Haze 35 996 32 10000 4.6 310 22:40 04.07.2019
5433 Haze 35 997 32 10000 3.1 310 22:19 04.07.2019
5434 Haze 35 997 34 10000 3.1 330 21:44 04.07.2019
5435 Haze 35 997 34 10000 3.1 330 21:25 04.07.2019
5436 Haze 36 997 32 10000 3.1 330 20:58 04.07.2019
5437 Haze 36 997 35 10000 3.1 320 20:37 04.07.2019
5438 Haze 35 997 67 10000 3.1 350 20:18 04.07.2019
5439 Haze 35 997 67 10000 3.6 350 19:41 04.07.2019
5440 Haze 35 997 67 10000 3.6 350 19:21 04.07.2019
5441 Haze 36 996 63 10000 3.1 360 18:46 04.07.2019
5442 Haze 36 996 63 10000 3.1 360 18:28 04.07.2019
5443 Haze 37 996 60 10000 3.6 340 17:58 04.07.2019
5444 Haze 37 996 56 10000 3.6 340 17:40 04.07.2019
5445 Haze 39 996 53 10000 4.1 350 17:18 04.07.2019
5446 Haze 39 996 53 10000 4.1 350 17:18 04.07.2019
5447 Haze 39 997 47 10000 4.1 360 15:45 04.07.2019
5448 Haze 39 997 47 10000 4.1 360 15:25 04.07.2019
5449 Haze 41 997 45 10000 3.6 360 14:59 04.07.2019
5450 Haze 41 997 42 10000 3.6 20 14:39 04.07.2019
5451 Haze 41 997 40 10000 2.6 80 14:19 04.07.2019
5452 Haze 41 997 40 10000 2.6 80 13:56 04.07.2019
5453 Haze 40 997 42 10000 3.1 80 13:38 04.07.2019
5454 Haze 40 998 39 10000 3.6 100 13:19 04.07.2019
5455 Clear 37 998 47 10000 4.1 100 12:39 04.07.2019
5456 Haze 39 998 45 10000 4.6 100 12:19 04.07.2019
5457 Clear 36 998 47 10000 4.6 90 11:45 04.07.2019
5458 Haze 38 999 56 10000 4.1 70 11:20 04.07.2019
5459 Haze 38 999 56 10000 4.1 70 10:56 04.07.2019
5460 Haze 38 999 56 10000 4.1 70 10:56 04.07.2019
5461 Haze 39 999 57 10000 4.1 40 10:38 04.07.2019
5462 Haze 38 999 47 10000 3.1 20 10:18 04.07.2019
5463 Haze 38 999 45 10000 3.6 20 09:38 04.07.2019
5464 Haze 36 999 42 10000 3.1 340 09:19 04.07.2019
5465 Haze 36 999 42 10000 3.1 340 08:52 04.07.2019
5466 Mist 34 999 47 10000 3.1 300 08:18 04.07.2019
5467 Mist 34 999 56 10000 3.1 330 07:40 04.07.2019
5468 Mist 32 999 63 10000 1.5 250 07:19 04.07.2019
5469 Mist 32 999 63 10000 2.6 310 06:33 04.07.2019
5470 Mist 30 998 79 10000 1 0 05:43 04.07.2019
5471 Mist 29 998 84 7000 2.1 320 04:59 04.07.2019
5472 Mist 30 997 89 10000 1.5 350 02:23 04.07.2019
5473 Mist 31 998 84 10000 1.5 360 01:27 04.07.2019
5474 Mist 31 998 84 10000 2.1 20 00:51 04.07.2019
5475 Mist 31 998 84 10000 2.1 10 23:53 03.07.2019
5476 Mist 31 998 84 10000 1.5 30 23:21 03.07.2019
5477 Haze 31 998 79 9000 2.1 10 22:57 03.07.2019
5478 Haze 31 998 79 9000 2.6 350 22:38 03.07.2019
5479 Haze 31 998 79 9000 2.6 350 22:20 03.07.2019
5480 Haze 32 998 79 9000 2.1 10 21:55 03.07.2019
5481 Haze 32 998 79 9000 1.5 360 21:36 03.07.2019
5482 Haze 32 998 79 10000 1.5 10 20:55 03.07.2019
5483 Clear 32 998 79 10000 2.6 30 20:36 03.07.2019
5484 Haze 33 998 79 10000 3.6 20 20:18 03.07.2019
5485 Haze 33 998 79 10000 4.1 20 19:44 03.07.2019
5486 Haze 33 998 79 10000 4.1 20 19:44 03.07.2019
5487 Haze 33 998 79 10000 4.1 20 19:25 03.07.2019
5488 Haze 34 997 75 10000 4.1 30 18:45 03.07.2019
5489 Haze 34 997 75 10000 3.6 30 18:22 03.07.2019
5490 Haze 35 997 71 10000 3.6 40 17:49 03.07.2019
5491 Haze 35 997 71 10000 3.6 40 17:19 03.07.2019
5492 Haze 35 997 71 10000 3.6 40 17:19 03.07.2019
5493 Haze 35 997 67 10000 4.1 40 16:57 03.07.2019
5494 Haze 35 997 59 10000 4.1 30 16:39 03.07.2019
5495 Haze 37 997 67 10000 5.1 20 16:18 03.07.2019
5496 Haze 36 997 59 10000 4.1 30 15:44 03.07.2019
5497 Haze 36 997 59 10000 4.1 30 15:26 03.07.2019
5498 Haze 37 997 60 10000 3.6 70 14:44 03.07.2019
5499 Haze 38 997 63 10000 4.6 90 14:22 03.07.2019
5500 Haze 37 997 63 10000 4.6 90 13:50 03.07.2019
5501 Haze 37 997 60 10000 4.6 90 13:31 03.07.2019
5502 Haze 38 997 63 10000 4.1 100 12:52 03.07.2019
5503 Haze 37 998 53 10000 4.6 100 12:20 03.07.2019
5504 Haze 37 998 53 10000 4.6 100 11:55 03.07.2019
5505 Haze 37 998 53 10000 4.6 100 11:36 03.07.2019
5506 Haze 37 998 53 10000 3.6 90 11:18 03.07.2019
5507 Haze 37 998 60 10000 4.1 90 10:40 03.07.2019
5508 Haze 37 998 60 10000 4.1 90 10:21 03.07.2019
5509 Haze 37 998 56 10000 3.6 40 09:41 03.07.2019
5510 Haze 37 998 56 10000 3.6 40 09:20 03.07.2019
5511 Haze 35 998 56 10000 4.1 40 08:53 03.07.2019
5512 Haze 35 998 53 10000 3.6 10 08:31 03.07.2019
5513 Haze 35 998 50 10000 4.6 360 07:49 03.07.2019
5514 Haze 35 998 50 10000 4.6 360 07:31 03.07.2019
5515 Haze 34 998 44 10000 3.1 320 06:35 03.07.2019
5516 Haze 31 997 55 10000 2.6 340 05:39 03.07.2019
5517 Haze 31 996 49 10000 3.1 300 04:52 03.07.2019
5518 Haze 31 996 46 10000 1.5 250 03:27 03.07.2019
5519 Haze 31 997 46 10000 2.6 310 02:37 03.07.2019
5520 Haze 32 996 46 10000 2.6 280 01:22 03.07.2019
5521 Haze 31 996 46 10000 2.6 290 00:55 03.07.2019
5522 Haze 32 997 42 9000 2.6 260 00:36 03.07.2019
5523 Haze 32 996 75 10000 3.1 200 23:39 02.07.2019
5524 Haze 33 997 71 10000 2.6 190 23:20 02.07.2019
5525 Haze 33 997 71 10000 2.6 190 22:59 02.07.2019
5526 Haze 32 997 75 10000 2.1 160 22:40 02.07.2019
5527 Haze 32 997 75 10000 2.1 160 22:40 02.07.2019
5528 Haze 33 998 33 9000 0.5 0 22:22 02.07.2019
5529 Haze 33 997 75 10000 2.6 120 21:56 02.07.2019
5530 Haze 33 997 75 10000 2.6 120 21:37 02.07.2019
5531 Haze 34 997 79 10000 3.1 130 21:18 02.07.2019
5532 Haze 34 997 79 10000 3.1 130 20:41 02.07.2019
5533 Haze 35 998 28 9000 1.5 340 20:23 02.07.2019
5534 Haze 35 997 71 10000 2.6 80 19:45 02.07.2019
5535 Haze 36 997 32 10000 3.1 360 19:25 02.07.2019
5536 Haze 38 996 20 10000 2.6 320 19:00 02.07.2019
5537 Haze 38 996 20 10000 4.6 340 18:41 02.07.2019
5538 Haze 38 996 20 10000 4.6 340 18:41 02.07.2019
5539 Haze 38 996 20 10000 4.6 340 18:18 02.07.2019
5540 Haze 38 996 20 10000 4.6 340 18:18 02.07.2019
5541 Haze 40 996 14 10000 4.6 330 17:40 02.07.2019
5542 Haze 42 995 13 10000 5.7 310 17:20 02.07.2019
5543 Haze 42 995 14 10000 5.7 310 16:46 02.07.2019
5544 Haze 42 995 14 10000 5.7 310 16:28 02.07.2019
5545 Haze 42 995 12 10000 6.7 330 15:44 02.07.2019
5546 Haze 43 995 12 10000 6.2 310 15:24 02.07.2019
5547 Haze 43 995 15 10000 5.1 320 14:50 02.07.2019
5548 Haze 43 995 15 10000 5.1 320 14:32 02.07.2019
5549 Haze 43 996 16 10000 6.2 310 13:46 02.07.2019
5550 Haze 43 997 10 9000 9.3 320 13:21 02.07.2019
5551 Haze 43 996 13 10000 6.7 320 12:59 02.07.2019
5552 Haze 43 996 13 10000 6.7 320 12:40 02.07.2019
5553 Haze 42 997 16 10000 6.2 300 12:18 02.07.2019
5554 Haze 43 997 15 10000 6.2 320 11:42 02.07.2019
5555 Haze 43 997 15 10000 6.7 320 11:21 02.07.2019
5556 Clear 43 997 15 10000 6.7 320 10:46 02.07.2019
5557 Haze 42 997 15 10000 6.7 320 10:25 02.07.2019
5558 Haze 42 997 16 10000 5.7 310 09:45 02.07.2019
5559 Haze 41 997 19 10000 6.2 320 09:22 02.07.2019
5560 Haze 40 998 21 10000 5.7 310 08:42 02.07.2019
5561 Haze 40 998 21 10000 5.7 310 08:42 02.07.2019
5562 Haze 39 997 26 10000 6.2 320 08:21 02.07.2019
5563 Haze 38 997 31 10000 6.7 310 07:53 02.07.2019
5564 Haze 38 997 31 10000 6.7 310 07:21 02.07.2019
5565 Haze 37 998 33 10000 5.7 300 06:50 02.07.2019
5566 Haze 35 998 35 10000 3.6 290 06:26 02.07.2019
5567 Haze 34 997 34 10000 3.1 280 04:57 02.07.2019
5568 Haze 35 997 19 10000 2.6 280 02:19 02.07.2019
5569 Haze 36 997 22 10000 2.6 240 23:55 01.07.2019
5570 Haze 36 997 22 10000 2.6 240 23:24 01.07.2019
5571 Haze 36 998 21 10000 2.1 240 22:47 01.07.2019
5572 Haze 36 998 21 10000 2.1 240 22:27 01.07.2019
5573 Haze 37 998 18 10000 2.6 310 21:48 01.07.2019
5574 Haze 37 998 18 10000 2.6 310 21:28 01.07.2019
5575 Haze 38 998 17 10000 3.1 310 20:53 01.07.2019
5576 Haze 38 998 17 10000 3.1 310 20:53 01.07.2019
5577 Haze 37 998 17 10000 4.6 330 20:23 01.07.2019
5578 Haze 37 998 17 10000 4.6 330 19:59 01.07.2019
5579 Haze 37 997 16 10000 4.6 330 19:41 01.07.2019
5580 Haze 38 998 14 9000 2.1 350 19:23 01.07.2019
5581 Clear 39 997 16 10000 5.1 330 18:53 01.07.2019
5582 Haze 40 997 16 10000 5.1 330 18:31 01.07.2019
5583 Haze 40 997 19 10000 6.2 340 18:00 01.07.2019
5584 Haze 40 996 35 10000 7.2 350 17:41 01.07.2019
5585 Haze 40 996 35 10000 7.2 350 17:21 01.07.2019
5586 Haze 41 996 38 10000 6.2 360 16:47 01.07.2019
5587 Haze 41 996 38 10000 6.2 360 16:26 01.07.2019
5588 Haze 41 996 38 10000 6.2 360 16:26 01.07.2019
5589 Haze 42 996 35 10000 7.2 360 15:55 01.07.2019
5590 Haze 42 996 28 10000 7.2 10 15:36 01.07.2019
5591 Haze 42 996 28 10000 7.2 10 15:18 01.07.2019
5592 Haze 42 996 32 10000 6.7 10 14:42 01.07.2019
5593 Haze 42 996 32 10000 6.7 10 14:19 01.07.2019
5594 Haze 44 997 13 10000 6.7 10 13:41 01.07.2019
5595 Haze 44 997 13 10000 6.7 10 13:22 01.07.2019
5596 Haze 44 997 20 10000 7.2 10 12:46 01.07.2019
5597 Haze 44 997 20 10000 7.2 10 12:27 01.07.2019
5598 Haze 44 997 18 10000 8.2 360 11:59 01.07.2019
5599 Haze 43 997 30 10000 7.2 10 11:39 01.07.2019
5600 Haze 43 997 30 10000 7.2 10 11:19 01.07.2019
5601 Haze 43 998 21 10000 7.2 360 10:47 01.07.2019
5602 Haze 43 998 21 10000 7.2 360 10:23 01.07.2019
5603 Haze 44 997 16 10000 4.6 360 09:45 01.07.2019
5604 Haze 44 997 12 10000 3.6 330 09:27 01.07.2019
5605 Haze 43 997 13 10000 4.1 330 08:59 01.07.2019
5606 Clear 42 997 15 10000 3.1 330 08:37 01.07.2019
5607 Haze 40 997 19 10000 1.5 300 07:39 01.07.2019
5608 Haze 37 997 21 10000 2.1 290 06:52 01.07.2019
5609 Haze 34 997 27 10000 1.5 270 05:39 01.07.2019
5610 Haze 34 996 22 10000 0.5 0 01:28 01.07.2019
5611 Haze 34 996 23 10000 0.5 0 00:44 01.07.2019
5612 Haze 34 996 23 10000 0.5 0 00:24 01.07.2019
5613 Haze 36 996 22 10000 1 330 23:39 30.06.2019
5614 Haze 36 996 22 10000 1 330 23:19 30.06.2019
5615 Haze 36 997 27 10000 2.1 340 22:43 30.06.2019
5616 Haze 36 997 35 10000 2.1 340 22:20 30.06.2019
5617 Haze 36 997 53 10000 2.1 350 21:41 30.06.2019
5618 Haze 36 997 53 10000 2.1 350 21:19 30.06.2019
5619 Haze 37 997 50 10000 1 350 20:55 30.06.2019
5620 Haze 37 997 44 10000 1.5 340 20:36 30.06.2019
5621 Haze 37 997 44 10000 2.6 350 20:18 30.06.2019
5622 Haze 37 997 47 10000 2.1 350 19:43 30.06.2019
5623 Haze 37 997 47 10000 2.1 350 19:24 30.06.2019
5624 Haze 39 996 40 10000 1.5 50 18:26 30.06.2019
5625 Haze 40 996 42 10000 2.1 10 17:59 30.06.2019
5626 Haze 40 996 38 10000 3.1 30 17:38 30.06.2019
5627 Haze 42 996 40 10000 2.6 40 17:18 30.06.2019
5628 Haze 42 995 34 10000 4.1 20 16:46 30.06.2019
5629 Haze 42 995 34 10000 4.1 20 16:26 30.06.2019
5630 Haze 44 996 25 10000 4.6 20 15:38 30.06.2019
5631 Haze 45 996 22 10000 4.1 20 15:19 30.06.2019
5632 Haze 45 996 22 10000 4.1 20 14:50 30.06.2019
5633 Haze 45 996 21 10000 4.6 30 14:30 30.06.2019
5634 Haze 47 996 10 10000 4.6 20 13:48 30.06.2019
5635 Haze 47 996 10 10000 4.6 20 13:29 30.06.2019
5636 Haze 47 996 9 10000 5.1 10 12:53 30.06.2019
5637 Haze 47 996 9 10000 4.6 10 12:29 30.06.2019
5638 Haze 46 997 9 10000 4.1 20 11:58 30.06.2019
5639 Haze 46 997 10 10000 4.1 10 11:39 30.06.2019
5640 Haze 46 997 10 10000 4.1 10 11:19 30.06.2019
5641 Haze 45 997 12 10000 4.1 350 10:45 30.06.2019
5642 Haze 45 997 13 10000 3.1 320 10:20 30.06.2019
5643 Haze 45 997 11 10000 3.1 310 09:57 30.06.2019
5644 Haze 45 998 12 10000 2.1 270 09:37 30.06.2019
5645 Haze 45 998 12 10000 2.1 270 09:19 30.06.2019
5646 Haze 43 997 13 10000 2.6 260 08:40 30.06.2019
5647 Haze 43 997 13 10000 2.6 260 08:21 30.06.2019
5648 Haze 41 997 13 10000 2.6 240 07:42 30.06.2019
5649 Haze 41 997 13 10000 2.6 240 07:22 30.06.2019
5650 Haze 38 996 17 10000 1.5 270 06:33 30.06.2019
5651 Haze 34 995 23 10000 1.5 240 03:32 30.06.2019
5652 Haze 34 995 29 10000 1.5 220 01:53 30.06.2019
5653 Haze 35 995 25 10000 1.5 240 00:46 30.06.2019
5654 Haze 35 995 25 10000 1.5 240 00:24 30.06.2019
5655 Haze 35 995 27 10000 1.5 220 23:48 29.06.2019
5656 Haze 36 995 39 10000 1.5 200 23:22 29.06.2019
5657 Haze 36 996 50 10000 1 160 22:47 29.06.2019
5658 Haze 36 996 47 10000 1 0 22:23 29.06.2019
5659 Haze 36 996 39 10000 1 0 21:55 29.06.2019
5660 Haze 36 996 53 10000 1.5 140 21:25 29.06.2019
5661 Haze 37 996 47 10000 0.5 0 20:47 29.06.2019
5662 Haze 36 996 53 10000 0.5 110 20:29 29.06.2019
5663 Haze 38 996 56 10000 1 90 19:59 29.06.2019
5664 Haze 38 996 50 10000 1 0 19:41 29.06.2019
5665 Haze 38 996 53 10000 1 80 19:20 29.06.2019
5666 Haze 38 996 53 10000 1 80 18:47 29.06.2019
5667 Haze 39 996 47 10000 1.5 90 18:24 29.06.2019
5668 Haze 40 995 40 7000 2.6 80 17:38 29.06.2019
5669 Haze 44 995 15 7000 2.6 110 17:19 29.06.2019
5670 Haze 44 995 15 7000 2.6 120 16:43 29.06.2019
5671 Haze 44 995 15 7000 2.6 120 16:19 29.06.2019
5672 Haze 44 995 23 10000 3.6 140 15:33 29.06.2019
5673 Haze 45 995 21 10000 4.6 120 14:55 29.06.2019
5674 Haze 45 995 22 10000 3.6 120 14:37 29.06.2019
5675 Haze 46 995 21 10000 5.1 120 14:18 29.06.2019
5676 Haze 45 995 21 10000 5.1 120 13:41 29.06.2019
5677 Haze 45 995 21 10000 5.1 120 13:23 29.06.2019
5678 Haze 44 996 34 10000 5.1 110 12:41 29.06.2019
5679 Haze 44 996 34 10000 5.1 110 12:22 29.06.2019
5680 Haze 44 996 32 10000 4.1 90 11:46 29.06.2019
5681 Haze 44 996 32 10000 4.1 90 11:28 29.06.2019
5682 Haze 44 997 32 10000 3.6 90 10:52 29.06.2019
5683 Haze 43 997 32 10000 3.6 100 10:24 29.06.2019
5684 Clear 40 997 42 10000 4.1 100 09:57 29.06.2019
5685 Haze 41 997 48 10000 3.6 100 09:19 29.06.2019
5686 Haze 41 997 32 10000 2.6 130 08:36 29.06.2019
5687 Haze 40 997 23 10000 1.5 290 07:46 29.06.2019
5688 Haze 37 997 24 10000 2.1 250 06:57 29.06.2019
5689 Haze 36 997 29 10000 1.5 240 06:39 29.06.2019
5690 Haze 33 997 32 10000 2.1 250 06:19 29.06.2019
5691 Haze 34 995 28 10000 2.6 240 01:54 29.06.2019
5692 Haze 34 995 30 10000 2.6 230 00:54 29.06.2019
5693 Haze 35 996 30 10000 3.1 210 23:54 28.06.2019
5694 Haze 35 996 27 10000 3.1 210 23:22 28.06.2019
5695 Haze 35 996 35 10000 2.6 210 22:47 28.06.2019
5696 Haze 35 996 39 10000 2.6 220 22:22 28.06.2019
5697 Haze 36 996 31 10000 2.6 200 21:45 28.06.2019
5698 Haze 36 997 29 10000 2.6 190 21:20 28.06.2019
5699 Haze 36 996 35 10000 2.1 200 20:43 28.06.2019
5700 Haze 36 996 35 10000 2.1 200 20:20 28.06.2019
5701 Haze 37 996 31 10000 2.6 170 19:42 28.06.2019
5702 Haze 37 996 31 10000 2.6 170 19:24 28.06.2019
5703 Haze 37 996 42 10000 3.1 140 18:42 28.06.2019
5704 Haze 37 996 42 10000 3.1 140 18:22 28.06.2019
5705 Haze 38 996 47 10000 2.6 130 17:54 28.06.2019
5706 Haze 38 995 42 10000 3.1 130 17:28 28.06.2019
5707 Haze 40 995 45 10000 3.1 110 16:47 28.06.2019
5708 Haze 40 995 33 10000 3.1 100 16:20 28.06.2019
5709 Haze 42 995 23 10000 4.1 50 15:47 28.06.2019
5710 Haze 42 995 23 10000 4.1 50 15:18 28.06.2019
5711 Haze 42 995 28 10000 4.1 60 14:42 28.06.2019
5712 Haze 42 995 28 10000 4.1 60 14:21 28.06.2019
5713 Haze 42 995 50 10000 4.6 90 13:49 28.06.2019
5714 Haze 43 995 40 10000 3.6 90 13:29 28.06.2019
5715 Haze 43 996 45 10000 4.1 90 12:53 28.06.2019
5716 Haze 44 996 28 10000 5.1 110 12:34 28.06.2019
5717 Haze 44 996 30 10000 4.6 90 11:46 28.06.2019
5718 Haze 43 997 29 10000 3.1 110 11:19 28.06.2019
5719 Haze 43 997 30 10000 3.6 130 10:43 28.06.2019
5720 Haze 43 997 30 10000 3.6 130 10:20 28.06.2019
5721 Haze 42 997 29 10000 3.6 90 09:47 28.06.2019
5722 Haze 42 998 28 10000 3.1 40 09:28 28.06.2019
5723 Haze 42 998 18 10000 3.6 20 08:43 28.06.2019
5724 Haze 42 998 18 10000 3.6 20 08:24 28.06.2019
5725 Haze 41 997 12 10000 3.6 240 07:43 28.06.2019
5726 Haze 38 997 14 10000 3.6 250 06:57 28.06.2019
5727 Haze 33 996 21 10000 2.1 230 04:42 28.06.2019
5728 Haze 33 996 41 10000 1.5 210 01:21 28.06.2019
5729 Haze 33 996 44 10000 3.1 200 00:23 28.06.2019
5730 Haze 34 996 44 10000 3.1 170 23:47 27.06.2019
5731 Haze 33 996 63 10000 2.6 140 23:25 27.06.2019
5732 Haze 34 997 67 10000 2.6 140 22:44 27.06.2019
5733 Haze 34 997 67 10000 2.6 140 22:26 27.06.2019
5734 Haze 34 997 63 10000 2.1 140 21:59 27.06.2019
5735 Haze 34 997 53 10000 2.6 120 21:41 27.06.2019
5736 Haze 34 997 53 10000 2.6 120 21:21 27.06.2019
5737 Haze 35 997 53 10000 2.6 130 20:49 27.06.2019
5738 Haze 35 997 53 10000 3.1 120 20:31 27.06.2019
5739 Haze 36 997 63 10000 2.1 150 19:57 27.06.2019
5740 Haze 37 997 39 10000 2.1 120 19:39 27.06.2019
5741 Haze 37 997 39 10000 2.1 120 19:21 27.06.2019
5742 Haze 38 997 33 10000 1 50 18:41 27.06.2019
5743 Haze 40 997 37 10000 1.5 90 18:19 27.06.2019
5744 Haze 40 997 37 10000 2.6 90 17:39 27.06.2019
5745 Haze 40 997 37 10000 2.6 90 17:21 27.06.2019
5746 Haze 43 997 17 10000 2.1 40 16:39 27.06.2019
5747 Clear 40 996 34 10000 1.5 100 16:19 27.06.2019
5748 Clear 40 996 34 10000 1.5 100 16:19 27.06.2019
5749 Clear 40 996 31 10000 3.1 90 15:47 27.06.2019
5750 Haze 43 996 31 10000 3.1 90 15:26 27.06.2019
5751 Haze 43 997 30 10000 3.6 110 14:52 27.06.2019
5752 Haze 43 997 30 10000 3.6 110 14:30 27.06.2019
5753 Haze 41 997 38 10000 4.6 100 13:56 27.06.2019
5754 Haze 42 997 32 10000 3.6 90 13:36 27.06.2019
5755 Haze 42 997 32 10000 3.6 90 13:18 27.06.2019
5756 Haze 42 998 34 10000 3.6 110 12:41 27.06.2019
5757 Haze 42 998 34 10000 3.6 110 12:22 27.06.2019
5758 Clear 41 998 26 10000 4.1 110 11:44 27.06.2019
5759 Haze 43 998 26 10000 4.1 110 11:21 27.06.2019
5760 Haze 42 998 26 10000 3.1 100 10:56 27.06.2019
5761 Haze 41 999 32 9000 3.6 90 10:36 27.06.2019
5762 Haze 41 999 32 9000 3.6 90 10:18 27.06.2019
5763 Haze 41 999 28 8000 4.6 100 09:37 27.06.2019
5764 Haze 41 999 28 8000 4.6 100 09:19 27.06.2019
5765 Haze 40 999 26 10000 2.6 0 08:45 27.06.2019
5766 Haze 40 999 26 10000 2.6 0 08:23 27.06.2019
5767 Haze 39 1000 21 10000 3.1 250 07:39 27.06.2019
5768 Haze 35 1000 29 9000 1.5 250 06:56 27.06.2019
5769 Haze 34 1000 44 9000 2.1 200 06:29 27.06.2019
5770 Haze 31 999 70 8000 2.6 160 03:50 27.06.2019
5771 Haze 31 999 79 10000 1 0 02:41 27.06.2019
5772 Haze 32 998 52 10000 1.5 110 01:18 27.06.2019
5773 Haze 33 998 52 10000 1.5 130 00:47 27.06.2019
5774 Haze 33 998 52 10000 2.1 0 00:25 27.06.2019
5775 Haze 34 998 44 10000 1 0 23:45 26.06.2019
5776 Haze 34 998 44 10000 1 0 23:22 26.06.2019
5777 Haze 34 998 44 10000 1 0 23:22 26.06.2019
5778 Haze 33 999 37 10000 1.5 260 22:55 26.06.2019
5779 Haze 34 999 29 10000 1.5 280 22:37 26.06.2019
5780 Haze 34 999 29 10000 1.5 280 22:18 26.06.2019
5781 Haze 33 1000 67 10000 1 0 21:41 26.06.2019
5782 Haze 33 1000 67 10000 1 0 21:20 26.06.2019
5783 Haze 34 1000 75 9000 2.1 340 20:50 26.06.2019
5784 Haze 34 1000 75 8000 2.1 310 20:31 26.06.2019
5785 Haze 34 1000 75 8000 2.1 340 19:59 26.06.2019
5786 Haze 34 1000 75 8000 1.5 360 19:40 26.06.2019
5787 Haze 34 1000 75 8000 1.5 360 19:21 26.06.2019
5788 Haze 35 1000 75 7000 2.6 10 18:44 26.06.2019
5789 Haze 35 1000 75 7000 2.6 10 18:22 26.06.2019
5790 Haze 36 1000 71 8000 3.1 10 17:53 26.06.2019
5791 Haze 36 1000 59 8000 3.6 10 17:27 26.06.2019
5792 Haze 38 999 59 8000 3.6 10 16:52 26.06.2019
5793 Haze 38 999 56 8000 3.6 20 16:30 26.06.2019
5794 Haze 39 999 53 9000 3.1 20 15:58 26.06.2019
5795 Haze 39 999 53 9000 2.6 30 15:29 26.06.2019
5796 Haze 39 1000 56 10000 3.1 40 14:58 26.06.2019
5797 Haze 40 1000 56 10000 3.6 50 14:37 26.06.2019
5798 Haze 40 1000 56 10000 3.6 50 14:18 26.06.2019
5799 Haze 40 1000 50 10000 4.1 40 13:39 26.06.2019
5800 Haze 41 1000 45 10000 4.1 40 13:19 26.06.2019
5801 Haze 41 1001 38 10000 4.6 40 12:40 26.06.2019
5802 Haze 41 1001 38 10000 4.6 40 12:20 26.06.2019
5803 Haze 41 1001 38 10000 4.6 40 12:20 26.06.2019
5804 Haze 42 1001 30 10000 5.1 20 11:42 26.06.2019
5805 Haze 42 1001 30 10000 5.1 20 11:42 26.06.2019
5806 Haze 42 1001 30 10000 5.1 20 11:19 26.06.2019
5807 Haze 42 1001 28 10000 4.6 350 10:39 26.06.2019
5808 Haze 42 1001 28 10000 4.6 350 10:21 26.06.2019
5809 Haze 40 1002 35 10000 4.1 330 09:36 26.06.2019
5810 Haze 39 1002 35 10000 3.6 340 09:18 26.06.2019
5811 Haze 39 1002 42 10000 2.1 320 08:38 26.06.2019
5812 Haze 37 1002 56 10000 1 0 08:19 26.06.2019
5813 Haze 36 1002 56 10000 1 0 07:41 26.06.2019
5814 Haze 35 1002 56 10000 2.1 90 06:34 26.06.2019
5815 Haze 31 1001 62 10000 1 0 03:52 26.06.2019
5816 Haze 32 1000 75 10000 2.6 10 00:45 26.06.2019
5817 Haze 32 1000 70 10000 3.1 20 00:19 26.06.2019
5818 Haze 32 1000 66 10000 3.1 360 23:39 25.06.2019
5819 Haze 32 1000 66 10000 3.1 360 23:20 25.06.2019
5820 Haze 33 1000 63 10000 3.6 350 22:43 25.06.2019
5821 Haze 33 1000 63 10000 3.6 350 22:24 25.06.2019
5822 Haze 33 1001 56 10000 4.1 10 21:51 25.06.2019
5823 Haze 33 1001 52 10000 3.6 340 21:28 25.06.2019
5824 Haze 34 1001 56 10000 4.6 340 20:59 25.06.2019
5825 Haze 34 1001 67 10000 3.6 350 20:37 25.06.2019
5826 Haze 34 1001 67 10000 3.6 350 20:37 25.06.2019
5827 Haze 34 1001 67 10000 3.6 350 20:18 25.06.2019
5828 Haze 35 1000 67 10000 5.1 360 19:45 25.06.2019
5829 Haze 35 1000 67 10000 5.1 360 19:22 25.06.2019
5830 Haze 36 1000 59 10000 6.2 360 18:43 25.06.2019
5831 Haze 36 1000 59 10000 6.2 360 18:25 25.06.2019
5832 Haze 37 1000 56 10000 7.2 350 17:50 25.06.2019
5833 -273 0 0 0 0 0 17:28 25.06.2019
5834 Haze 39 999 44 10000 8.7 350 16:55 25.06.2019
5835 Haze 39 999 44 10000 9.3 360 16:37 25.06.2019
5836 Haze 39 999 44 10000 9.3 360 16:19 25.06.2019
5837 Haze 40 999 47 10000 7.7 360 15:40 25.06.2019
5838 Haze 40 999 47 10000 7.7 360 15:21 25.06.2019
5839 Haze 41 999 45 10000 7.7 360 14:51 25.06.2019
5840 Haze 41 999 45 10000 7.7 360 14:51 25.06.2019
5841 Haze 40 1000 45 10000 7.2 360 14:32 25.06.2019
5842 Clear 39 1000 34 10000 6.7 10 13:43 25.06.2019
5843 Haze 42 1000 34 10000 6.7 10 13:24 25.06.2019
5844 Haze 44 1000 19 10000 8.7 350 12:43 25.06.2019
5845 Haze 44 1000 19 10000 8.7 350 12:24 25.06.2019
5846 Haze 44 1001 16 10000 8.2 350 11:47 25.06.2019
5847 Haze 44 1001 16 10000 8.2 350 11:26 25.06.2019
5848 Haze 44 1001 16 10000 8.7 350 10:59 25.06.2019
5849 Haze 44 1001 17 10000 7.2 340 10:38 25.06.2019
5850 Haze 44 1001 17 10000 7.2 340 10:19 25.06.2019
5851 Clear 43 1001 18 10000 5.1 330 09:40 25.06.2019
5852 Haze 42 1001 18 10000 5.1 330 09:22 25.06.2019
5853 Haze 42 1002 19 10000 5.7 320 08:59 25.06.2019
5854 Haze 42 1001 19 10000 4.6 310 08:31 25.06.2019
5855 Haze 40 1001 20 10000 3.6 290 07:52 25.06.2019
5856 Haze 40 1001 23 10000 2.1 280 07:31 25.06.2019
5857 Haze 37 1001 24 10000 3.1 300 06:51 25.06.2019
5858 Haze 37 1001 29 10000 2.6 290 06:24 25.06.2019
5859 Haze 34 1000 25 10000 2.1 290 02:44 25.06.2019
5860 Haze 35 1000 22 10000 3.1 320 01:19 25.06.2019
5861 Haze 35 999 22 10000 3.6 300 00:28 25.06.2019
5862 Haze 35 999 19 10000 3.6 290 23:52 24.06.2019
5863 Haze 35 1000 19 10000 3.1 310 23:33 24.06.2019
5864 Haze 36 1000 21 10000 2.6 320 22:56 24.06.2019
5865 Haze 36 1001 22 10000 2.6 310 22:37 24.06.2019
5866 Haze 36 1001 22 10000 2.6 310 22:18 24.06.2019
5867 Haze 36 1001 25 10000 2.6 320 21:38 24.06.2019
5868 Haze 36 1001 25 10000 2.6 320 21:18 24.06.2019
5869 Haze 36 1001 39 10000 3.1 330 20:43 24.06.2019
5870 Haze 36 1001 39 10000 3.1 330 20:23 24.06.2019
5871 Haze 36 1001 44 10000 2.1 360 19:59 24.06.2019
5872 Haze 36 1001 44 10000 2.1 360 19:59 24.06.2019
5873 Haze 36 1001 47 10000 2.6 340 19:40 24.06.2019
5874 Haze 36 1001 47 10000 2.6 340 19:21 24.06.2019
5875 Haze 38 1001 45 10000 3.6 40 18:42 24.06.2019
5876 Haze 38 1001 45 10000 3.6 40 18:23 24.06.2019
5877 Haze 42 1000 13 10000 4.1 300 17:37 24.06.2019
5878 Haze 42 1000 13 10000 4.1 300 17:37 24.06.2019
5879 Haze 42 1000 13 10000 4.1 300 17:18 24.06.2019
5880 Haze 43 1000 13 10000 5.1 310 16:45 24.06.2019
5881 Haze 43 1000 13 10000 5.1 310 16:20 24.06.2019
5882 Haze 43 1000 13 10000 4.1 310 15:44 24.06.2019
5883 Haze 43 1000 13 10000 4.1 310 15:44 24.06.2019
5884 Haze 43 1000 13 10000 4.1 310 15:25 24.06.2019
5885 Haze 43 1000 12 10000 5.1 320 14:39 24.06.2019
5886 Haze 43 1000 12 10000 5.1 320 14:20 24.06.2019
5887 Haze 43 1000 27 10000 5.1 350 13:35 24.06.2019
5888 Haze 42 1000 28 10000 4.6 360 12:59 24.06.2019
5889 Haze 42 1001 26 10000 5.7 360 12:41 24.06.2019
5890 Haze 42 1001 26 10000 5.7 360 12:20 24.06.2019
5891 Haze 42 1001 19 10000 6.7 360 11:45 24.06.2019
5892 Haze 42 1001 19 10000 6.7 360 11:27 24.06.2019
5893 Haze 42 1001 22 10000 6.2 350 10:53 24.06.2019
5894 Haze 41 1002 23 10000 5.7 360 10:34 24.06.2019
5895 Haze 40 1002 23 10000 4.6 350 09:56 24.06.2019
5896 Haze 40 1002 21 10000 4.6 350 09:38 24.06.2019
5897 Haze 39 1002 24 10000 4.1 340 09:18 24.06.2019
5898 Haze 39 1002 27 10000 4.6 340 08:36 24.06.2019
5899 Haze 37 1002 29 10000 4.6 340 07:58 24.06.2019
5900 Haze 37 1002 29 10000 4.1 340 07:40 24.06.2019
5901 Haze 37 1002 29 10000 4.1 340 07:21 24.06.2019
5902 Haze 34 1002 30 10000 3.1 350 06:23 24.06.2019
5903 Haze 32 1002 46 10000 1.5 340 05:40 24.06.2019
5904 Haze 31 1001 55 10000 1.5 360 04:43 24.06.2019
5905 Haze 31 1001 55 10000 2.6 330 03:48 24.06.2019
5906 Haze 32 1000 62 10000 2.6 350 02:36 24.06.2019
5907 Haze 33 1000 59 10000 3.6 360 01:55 24.06.2019
5908 Haze 33 1000 44 10000 1 0 01:31 24.06.2019
5909 Haze 33 999 44 10000 3.1 240 00:46 24.06.2019
5910 Haze 33 999 44 10000 3.1 240 00:20 24.06.2019
5911 Haze 32 1000 52 10000 1 0 23:48 23.06.2019
5912 Haze 32 1001 70 10000 1.5 350 23:48 23.06.2019
5913 Haze 32 1001 70 10000 1.5 350 23:28 23.06.2019
5914 Haze 33 1001 63 10000 2.1 350 22:57 23.06.2019
5915 Haze 33 1001 66 10000 2.6 350 22:39 23.06.2019
5916 Haze 33 1001 59 10000 3.6 330 22:19 23.06.2019
5917 Haze 33 1002 63 10000 3.6 340 21:41 23.06.2019
5918 Haze 33 1002 63 10000 3.6 340 21:41 23.06.2019
5919 Haze 33 1002 63 10000 3.6 340 21:22 23.06.2019
5920 Haze 33 1002 66 10000 3.6 340 20:51 23.06.2019
5921 Haze 33 1002 66 10000 3.6 340 20:29 23.06.2019
5922 Haze 34 1002 70 10000 3.6 350 19:54 23.06.2019
5923 Haze 34 1001 70 10000 4.1 350 19:36 23.06.2019
5924 Haze 34 1001 70 10000 4.6 350 19:18 23.06.2019
5925 Haze 34 1001 70 10000 4.6 360 18:41 23.06.2019
5926 Haze 35 1001 70 9000 5.1 360 18:19 23.06.2019
5927 Haze 35 1001 67 9000 5.1 10 17:41 23.06.2019
5928 Haze 35 1001 67 9000 5.1 10 17:21 23.06.2019
5929 Haze 37 1000 53 8000 6.2 20 16:44 23.06.2019
5930 Haze 37 1000 53 8000 6.2 20 16:44 23.06.2019
5931 Haze 37 1000 53 8000 6.2 20 16:24 23.06.2019
5932 Haze 38 1000 47 10000 5.7 40 15:43 23.06.2019
5933 Haze 38 1000 47 10000 5.7 40 15:24 23.06.2019
5934 Haze 39 1000 42 10000 5.7 40 14:59 23.06.2019
5935 Haze 40 1000 40 10000 5.7 60 14:37 23.06.2019
5936 Haze 41 1001 33 9000 5.1 30 14:19 23.06.2019
5937 Haze 41 1001 26 10000 4.6 20 13:42 23.06.2019
5938 Haze 41 1001 26 10000 4.6 20 13:20 23.06.2019
5939 Haze 42 1001 23 10000 5.1 10 12:56 23.06.2019
5940 Clear 40 1001 26 10000 5.1 10 12:37 23.06.2019
5941 Haze 42 1001 26 10000 5.1 10 12:18 23.06.2019
5942 Haze 40 1001 29 10000 5.1 10 11:44 23.06.2019
5943 Haze 40 1001 29 10000 5.1 10 11:24 23.06.2019
5944 Haze 39 1002 33 10000 4.6 340 10:47 23.06.2019
5945 Haze 39 1002 33 10000 4.6 340 10:20 23.06.2019
5946 Haze 39 1002 29 10000 4.6 360 09:54 23.06.2019
5947 Rain 37 1002 31 10000 4.1 360 09:22 23.06.2019
5948 Rain 36 1002 44 9000 3.6 10 08:46 23.06.2019
5949 Rain 36 1002 44 9000 3.6 10 08:27 23.06.2019
5950 Haze 34 1002 50 9000 3.1 350 07:55 23.06.2019
5951 Haze 34 1002 50 9000 3.1 350 07:55 23.06.2019
5952 Haze 33 1002 63 8000 3.1 350 07:25 23.06.2019
5953 Haze 32 1002 70 8000 2.1 340 06:55 23.06.2019
5954 Mist 31 1002 84 6000 2.6 360 05:59 23.06.2019
5955 Mist 30 1001 84 6000 2.6 330 04:38 23.06.2019
5956 Mist 30 1000 84 7000 2.6 360 02:24 23.06.2019
5957 Mist 31 1000 84 7000 3.1 350 01:37 23.06.2019
5958 Haze 30 1000 74 8000 4.1 350 00:37 23.06.2019
5959 Haze 30 1001 74 10000 4.6 340 23:58 22.06.2019
5960 Haze 30 1001 74 10000 4.6 340 23:39 22.06.2019
5961 Haze 30 1001 74 10000 4.6 340 23:20 22.06.2019
5962 Haze 31 1001 66 10000 3.6 350 22:45 22.06.2019
5963 Haze 31 1001 66 10000 4.1 340 22:24 22.06.2019
5964 Haze 32 1001 66 10000 4.1 340 21:41 22.06.2019
5965 Haze 32 1001 66 10000 4.1 340 21:20 22.06.2019
5966 Haze 32 1001 70 10000 3.6 330 20:53 22.06.2019
5967 Haze 32 1001 70 10000 3.6 340 20:26 22.06.2019
5968 Haze 33 1001 70 10000 3.6 350 19:53 22.06.2019
5969 Haze 33 1001 75 10000 3.6 360 19:28 22.06.2019
5970 Haze 33 1001 75 10000 4.1 360 18:59 22.06.2019
5971 Haze 33 1000 66 9000 3.6 10 18:40 22.06.2019
5972 Haze 33 1000 70 7000 3.6 30 18:18 22.06.2019
5973 Haze 33 1000 70 7000 4.1 40 17:38 22.06.2019
5974 Haze 33 1000 70 7000 4.1 40 17:38 22.06.2019
5975 Haze 33 1000 70 7000 4.1 40 17:19 22.06.2019
5976 Haze 34 1000 70 6000 4.1 20 16:39 22.06.2019
5977 Haze 34 1000 70 6000 4.1 20 16:20 22.06.2019
5978 Haze 36 1000 63 8000 4.1 50 15:41 22.06.2019
5979 Haze 36 1000 63 8000 4.1 50 15:23 22.06.2019
5980 Haze 36 1000 63 8000 3.6 30 14:46 22.06.2019
5981 Haze 36 1000 59 8000 4.1 50 14:28 22.06.2019
5982 Haze 36 1000 56 10000 5.1 50 13:44 22.06.2019
5983 Haze 36 1000 56 10000 5.1 50 13:25 22.06.2019
5984 Haze 37 1000 53 10000 6.2 50 12:54 22.06.2019
5985 Haze 37 1001 56 10000 6.2 30 12:36 22.06.2019
5986 Haze 37 1001 56 10000 5.7 20 11:59 22.06.2019
5987 Haze 37 1001 50 10000 6.2 10 11:36 22.06.2019
5988 Haze 36 1001 59 10000 6.2 360 10:54 22.06.2019
5989 Haze 36 1001 53 10000 5.7 360 10:22 22.06.2019
5990 Haze 36 1001 53 10000 5.7 10 09:55 22.06.2019
5991 Haze 36 1001 47 10000 6.2 360 09:27 22.06.2019
5992 Haze 36 1001 44 10000 4.6 320 08:44 22.06.2019
5993 Haze 36 1001 44 10000 4.6 320 08:25 22.06.2019
5994 Haze 34 1001 49 10000 5.1 310 07:36 22.06.2019
5995 Haze 33 1001 46 10000 5.1 310 06:56 22.06.2019
5996 Haze 33 1001 44 10000 5.1 310 06:31 22.06.2019
5997 Haze 30 999 49 10000 2.6 280 02:38 22.06.2019
5998 Haze 30 999 49 10000 2.1 260 01:35 22.06.2019
5999 Haze 31 999 41 10000 3.6 310 00:47 22.06.2019
6000 Haze 31 999 41 10000 3.6 310 00:22 22.06.2019
6001 Haze 31 1000 38 10000 2.6 320 23:45 21.06.2019
6002 Haze 31 1000 38 10000 2.6 320 23:22 21.06.2019
6003 Haze 32 1000 36 10000 3.1 320 22:53 21.06.2019
6004 Haze 32 1000 34 10000 2.6 320 22:25 21.06.2019
6005 Haze 32 1000 34 10000 4.6 330 21:55 21.06.2019
6006 Haze 32 1000 34 10000 4.1 330 21:37 21.06.2019
6007 Haze 33 1000 34 10000 4.6 340 21:18 21.06.2019
6008 Haze 33 1000 34 10000 5.7 340 20:45 21.06.2019
6009 Haze 33 1000 34 10000 5.7 340 20:22 21.06.2019
6010 Haze 34 1000 30 10000 6.7 330 19:37 21.06.2019
6011 Haze 35 1000 28 10000 6.2 330 18:55 21.06.2019
6012 Haze 35 999 30 10000 6.2 320 18:34 21.06.2019
6013 Haze 36 999 30 10000 8.2 340 17:48 21.06.2019
6014 Haze 36 999 30 10000 8.7 340 17:29 21.06.2019
6015 Haze 38 999 22 10000 8.2 330 16:42 21.06.2019
6016 Haze 38 999 22 10000 8.2 330 16:23 21.06.2019
6017 Haze 39 998 24 10000 9.3 340 15:45 21.06.2019
6018 Haze 39 998 24 10000 9.3 340 15:24 21.06.2019
6019 Haze 39 998 23 10000 10.3 350 14:53 21.06.2019
6020 Haze 39 999 23 10000 10.3 350 14:31 21.06.2019
6021 Haze 40 999 21 10000 9.8 350 13:58 21.06.2019
6022 Haze 40 999 23 10000 9.8 340 13:36 21.06.2019
6023 Haze 40 999 23 10000 9.3 350 13:18 21.06.2019
6024 Haze 40 1000 21 10000 9.3 350 12:40 21.06.2019
6025 Haze 41 1000 24 10000 9.8 360 12:18 21.06.2019
6026 Haze 41 1000 18 10000 9.8 340 11:47 21.06.2019
6027 Haze 41 1000 18 10000 9.8 340 11:26 21.06.2019
6028 Haze 41 1000 18 10000 10.3 330 10:52 21.06.2019
6029 Haze 41 1000 20 10000 10.3 340 10:23 21.06.2019
6030 Haze 40 1001 19 10000 9.8 330 09:59 21.06.2019
6031 Haze 39 1001 26 10000 9.8 340 09:40 21.06.2019
6032 Haze 39 1001 26 10000 9.8 340 09:19 21.06.2019
6033 Haze 37 1001 35 10000 6.2 320 08:43 21.06.2019
6034 Haze 37 1001 35 10000 6.2 320 08:24 21.06.2019
6035 Haze 36 1001 37 10000 5.7 320 07:52 21.06.2019
6036 Haze 36 1001 37 10000 5.7 320 07:30 21.06.2019
6037 Haze 34 1001 41 10000 5.7 310 06:54 21.06.2019
6038 Haze 33 1001 46 10000 5.7 310 06:21 21.06.2019
6039 Haze 32 1000 49 10000 4.6 310 05:26 21.06.2019
6040 Haze 31 1000 52 10000 4.6 290 04:30 21.06.2019
6041 Clear 32 999 46 10000 4.6 300 03:34 21.06.2019
6042 Haze 32 999 46 10000 4.6 300 02:53 21.06.2019
6043 Haze 32 999 43 10000 5.7 300 01:53 21.06.2019
6044 Haze 32 999 38 10000 4.6 300 00:56 21.06.2019
6045 Haze 32 999 36 10000 4.6 310 00:23 21.06.2019
6046 Haze 32 999 34 10000 4.6 310 23:49 20.06.2019
6047 Haze 32 999 34 10000 4.6 310 23:23 20.06.2019
6048 Haze 33 999 30 10000 4.1 300 22:58 20.06.2019
6049 Haze 33 999 28 10000 3.6 320 22:39 20.06.2019
6050 Haze 33 999 28 10000 3.6 320 22:20 20.06.2019
6051 Haze 33 999 26 10000 5.1 330 21:49 20.06.2019
6052 Haze 33 1000 26 10000 6.7 330 21:19 20.06.2019
6053 Haze 33 1000 26 10000 6.7 330 20:50 20.06.2019
6054 Haze 33 1000 26 10000 7.2 330 20:27 20.06.2019
6055 Haze 34 1000 28 10000 7.7 330 19:59 20.06.2019
6056 Haze 34 999 28 10000 6.7 330 19:39 20.06.2019
6057 Haze 34 999 28 10000 6.7 330 19:18 20.06.2019
6058 Clear 36 999 26 10000 8.7 330 18:43 20.06.2019
6059 Haze 36 999 26 10000 8.7 330 18:23 20.06.2019
6060 Haze 37 999 23 10000 8.7 330 17:56 20.06.2019
6061 Haze 37 999 22 10000 8.7 320 17:38 20.06.2019
6062 Haze 38 998 22 10000 8.2 330 16:57 20.06.2019
6063 Haze 38 998 21 10000 9.3 330 16:39 20.06.2019
6064 Haze 38 998 21 10000 9.3 330 16:18 20.06.2019
6065 Clear 39 998 17 10000 8.7 320 15:42 20.06.2019
6066 Clear 39 998 17 10000 8.7 320 15:42 20.06.2019
6067 Haze 39 998 17 10000 8.7 320 15:22 20.06.2019
6068 Haze 40 998 16 10000 9.8 330 14:50 20.06.2019
6069 Dust 40 998 17 10000 11.3 320 14:24 20.06.2019
6070 Dust 40 999 18 10000 8.7 320 13:42 20.06.2019
6071 Dust 40 999 18 10000 8.7 320 13:21 20.06.2019
6072 Dust 41 999 16 10000 10.8 330 12:54 20.06.2019
6073 Dust 41 999 18 10000 10.3 330 12:36 20.06.2019
6074 Dust 41 999 16 10000 9.8 320 12:18 20.06.2019
6075 Dust 41 999 15 10000 10.8 330 11:39 20.06.2019
6076 Dust 41 999 15 10000 10.8 330 11:20 20.06.2019
6077 Haze 40 1000 15 10000 10.3 320 10:42 20.06.2019
6078 Haze 40 1000 15 10000 10.3 320 10:23 20.06.2019
6079 Haze 40 1000 18 10000 10.8 330 09:41 20.06.2019
6080 Haze 40 1000 18 10000 10.8 330 09:41 20.06.2019
6081 Haze 40 1000 18 10000 10.8 330 09:23 20.06.2019
6082 Haze 39 1000 20 10000 8.2 320 08:47 20.06.2019
6083 Haze 39 1000 20 10000 8.2 320 08:28 20.06.2019
6084 Haze 38 1000 21 10000 8.7 330 07:55 20.06.2019
6085 Haze 38 1000 25 10000 7.7 320 07:31 20.06.2019
6086 Haze 35 999 30 10000 7.7 320 06:46 20.06.2019
6087 Haze 35 999 30 10000 7.7 320 06:18 20.06.2019
6088 Haze 33 998 36 10000 6.7 310 03:37 20.06.2019
6089 Haze 33 998 44 10000 6.2 310 00:43 20.06.2019
6090 Haze 33 998 44 10000 6.2 310 00:24 20.06.2019
6091 Haze 34 998 39 10000 6.7 300 23:42 19.06.2019
6092 Haze 34 998 39 10000 6.7 300 23:24 19.06.2019
6093 Haze 34 999 32 10000 6.7 310 22:48 19.06.2019
6094 Haze 34 999 32 10000 6.7 310 22:20 19.06.2019
6095 Haze 35 999 30 10000 6.7 310 21:55 19.06.2019
6096 Haze 35 999 30 10000 6.7 310 21:55 19.06.2019
6097 Haze 35 999 28 10000 7.2 310 21:36 19.06.2019
6098 Haze 35 999 28 10000 7.2 310 21:18 19.06.2019
6099 Haze 36 999 22 10000 6.7 320 20:39 19.06.2019
6100 Haze 37 998 21 10000 7.2 320 20:20 19.06.2019
6101 Haze 37 998 21 10000 7.2 320 19:42 19.06.2019
6102 Haze 37 998 21 10000 7.2 320 19:23 19.06.2019
6103 Haze 37 998 21 10000 6.7 310 18:55 19.06.2019
6104 Haze 37 998 21 10000 7.2 320 18:22 19.06.2019
6105 Haze 38 998 17 9000 7.7 320 17:42 19.06.2019
6106 Haze 38 998 17 9000 7.7 320 17:23 19.06.2019
6107 Haze 39 998 15 6000 9.3 320 16:43 19.06.2019
6108 Haze 39 998 15 6000 9.3 320 16:22 19.06.2019
6109 Haze 40 998 14 6000 9.3 310 15:58 19.06.2019
6110 Haze 40 998 14 6000 9.3 320 15:31 19.06.2019
6111 Haze 41 998 15 7000 10.3 320 14:59 19.06.2019
6112 Haze 41 998 16 7000 11.8 330 14:41 19.06.2019
6113 Haze 41 998 16 7000 11.8 330 14:21 19.06.2019
6114 Dust 42 998 13 7000 9.8 320 13:43 19.06.2019
6115 Dust 42 998 13 7000 9.8 320 13:25 19.06.2019
6116 Dust 42 998 14 7000 9.3 320 12:47 19.06.2019
6117 Dust 42 998 14 7000 9.3 320 12:22 19.06.2019
6118 Haze 42 998 16 8000 10.3 330 11:57 19.06.2019
6119 Haze 42 998 16 8000 10.3 320 11:38 19.06.2019
6120 Haze 42 998 16 8000 10.3 320 11:20 19.06.2019
6121 Dust 42 999 17 8000 11.3 330 10:45 19.06.2019
6122 Dust 42 999 17 8000 11.3 330 10:27 19.06.2019
6123 Haze 41 999 19 10000 9.3 320 09:50 19.06.2019
6124 Haze 41 999 19 10000 9.8 330 09:22 19.06.2019
6125 Haze 40 999 21 10000 9.8 330 08:51 19.06.2019
6126 Haze 40 999 23 10000 7.2 320 08:29 19.06.2019
6127 Haze 38 999 26 10000 6.2 320 07:52 19.06.2019
6128 Haze 38 999 33 10000 6.2 320 07:34 19.06.2019
6129 Haze 36 999 35 10000 6.7 310 06:55 19.06.2019
6130 Haze 36 998 35 10000 5.7 320 06:30 19.06.2019
6131 Haze 34 998 34 10000 5.7 320 05:50 19.06.2019
6132 Clear 35 998 37 10000 6.2 310 04:47 19.06.2019
6133 Haze 35 997 37 10000 5.7 310 03:48 19.06.2019
6134 Haze 35 997 30 10000 6.7 310 02:34 19.06.2019
6135 Haze 35 998 30 10000 6.2 310 01:29 19.06.2019
6136 Haze 35 998 30 10000 6.2 310 00:52 19.06.2019
6137 Haze 35 998 29 10000 6.2 310 00:34 19.06.2019
6138 Haze 35 998 27 10000 6.2 310 23:58 18.06.2019
6139 Haze 35 998 27 10000 6.2 310 23:58 18.06.2019
6140 Haze 36 998 24 10000 6.2 310 23:30 18.06.2019
6141 Haze 37 999 18 10000 5.7 320 22:55 18.06.2019
6142 Haze 37 999 17 10000 6.7 320 22:37 18.06.2019
6143 Haze 37 999 17 10000 6.7 320 22:19 18.06.2019
6144 Haze 37 1000 17 10000 6.7 320 21:44 18.06.2019
6145 Haze 37 1000 17 10000 6.7 320 21:21 18.06.2019
6146 Haze 37 1000 17 10000 6.2 320 20:55 18.06.2019
6147 Haze 37 1000 17 10000 7.2 320 20:37 18.06.2019
6148 Haze 38 1000 17 10000 7.7 330 20:18 18.06.2019
6149 Haze 38 1000 17 10000 7.7 330 20:18 18.06.2019
6150 Haze 38 1000 16 10000 8.2 330 19:39 18.06.2019
6151 Haze 38 1000 16 10000 8.2 330 19:20 18.06.2019
6152 Haze 39 999 16 10000 7.7 330 18:46 18.06.2019
6153 Haze 39 999 16 10000 7.7 330 18:25 18.06.2019
6154 Haze 40 999 16 10000 9.8 330 17:42 18.06.2019
6155 Haze 40 999 16 10000 9.8 330 17:21 18.06.2019
6156 Haze 42 999 17 10000 10.3 330 16:57 18.06.2019
6157 Haze 42 998 15 10000 10.8 340 16:38 18.06.2019
6158 Haze 42 998 15 10000 10.8 340 16:20 18.06.2019
6159 Haze 43 998 16 10000 10.3 340 15:38 18.06.2019
6160 Haze 43 998 16 10000 10.3 340 15:20 18.06.2019
6161 Dust 43 998 16 10000 10.8 340 14:55 18.06.2019
6162 Dust 43 999 17 10000 11.3 340 14:36 18.06.2019
6163 Dust 44 999 15 10000 10.8 340 14:18 18.06.2019
6164 Dust 44 999 15 10000 11.3 340 13:41 18.06.2019
6165 Dust 44 999 15 10000 11.3 340 13:22 18.06.2019
6166 Dust 45 999 14 10000 11.3 340 12:44 18.06.2019
6167 Dust 45 999 14 10000 11.3 340 12:25 18.06.2019
6168 Dust 44 999 17 10000 11.3 340 11:47 18.06.2019
6169 Dust 44 999 17 10000 11.3 340 11:23 18.06.2019
6170 Dust 44 999 17 10000 11.3 340 10:57 18.06.2019
6171 Dust 44 999 17 9000 11.3 340 10:38 18.06.2019
6172 Dust 44 999 17 9000 11.3 340 10:19 18.06.2019
6173 Haze 43 1000 17 6000 11.8 340 09:49 18.06.2019
6174 Haze 43 1000 18 6000 10.8 340 09:24 18.06.2019
6175 Haze 41 1000 22 9000 9.3 340 08:47 18.06.2019
6176 Haze 41 1000 22 9000 9.3 340 08:21 18.06.2019
6177 Haze 41 1000 22 9000 9.3 340 08:21 18.06.2019
6178 Clear 39 1000 26 10000 9.3 340 07:41 18.06.2019
6179 Clear 40 1000 26 10000 9.3 340 07:23 18.06.2019
6180 Clear 38 999 27 10000 7.7 320 06:44 18.06.2019
6181 Clear 37 999 24 10000 6.7 320 05:21 18.06.2019
6182 Haze 36 998 21 10000 7.2 330 03:58 18.06.2019
6183 Haze 36 998 24 10000 6.7 320 01:59 18.06.2019
6184 Haze 36 998 26 10000 5.7 320 01:25 18.06.2019
6185 Haze 36 998 31 10000 5.7 310 00:56 18.06.2019
6186 Haze 36 998 29 10000 6.2 310 00:30 18.06.2019
6187 Haze 38 999 27 10000 5.1 310 23:41 17.06.2019
6188 Haze 38 999 27 10000 5.1 310 23:20 17.06.2019
6189 Haze 37 999 26 10000 4.1 320 22:58 17.06.2019
6190 Haze 37 999 24 10000 4.6 310 22:38 17.06.2019
6191 Haze 37 999 26 10000 4.1 310 22:20 17.06.2019
6192 Haze 37 999 29 10000 4.6 310 21:42 17.06.2019
6193 Haze 37 999 29 10000 4.6 310 21:22 17.06.2019
6194 Haze 38 999 28 10000 4.6 310 20:39 17.06.2019
6195 Haze 38 999 26 10000 5.1 320 20:20 17.06.2019
6196 Haze 38 999 26 10000 5.1 320 19:54 17.06.2019
6197 Haze 39 999 23 10000 5.7 320 19:36 17.06.2019
6198 Haze 40 999 22 10000 4.6 320 19:18 17.06.2019
6199 Haze 40 999 20 10000 4.6 320 18:38 17.06.2019
6200 Haze 41 998 18 10000 5.7 330 18:18 17.06.2019
6201 Haze 41 998 18 10000 5.7 330 18:18 17.06.2019
6202 Haze 41 998 18 10000 5.7 330 18:18 17.06.2019
6203 Haze 41 998 18 10000 5.7 330 17:47 17.06.2019
6204 Haze 41 998 18 10000 5.7 330 17:29 17.06.2019
6205 Haze 41 998 18 10000 5.7 330 17:29 17.06.2019
6206 Haze 44 998 12 10000 6.2 330 16:55 17.06.2019
6207 Haze 44 998 12 10000 6.2 330 16:37 17.06.2019
6208 Haze 45 998 11 10000 7.7 330 16:18 17.06.2019
6209 Haze 45 998 13 10000 7.7 340 15:40 17.06.2019
6210 Haze 46 998 12 10000 7.7 340 15:20 17.06.2019
6211 Haze 46 998 12 10000 7.7 340 14:55 17.06.2019
6212 Haze 47 998 12 10000 7.7 340 14:34 17.06.2019
6213 Haze 47 998 12 10000 7.7 340 14:34 17.06.2019
6214 Haze 47 998 11 10000 7.7 340 13:58 17.06.2019
6215 Haze 47 998 11 10000 8.2 340 13:39 17.06.2019
6216 Haze 47 998 10 10000 8.7 340 13:20 17.06.2019
6217 Haze 47 999 11 10000 8.2 330 12:39 17.06.2019
6218 Haze 47 999 11 10000 7.7 330 12:19 17.06.2019
6219 Haze 47 999 11 10000 7.7 330 11:43 17.06.2019
6220 Haze 47 999 11 10000 7.7 330 11:24 17.06.2019
6221 Haze 46 1000 12 10000 6.7 330 10:47 17.06.2019
6222 Haze 46 1000 12 10000 6.7 330 10:28 17.06.2019
6223 Haze 45 1000 14 10000 6.7 330 09:56 17.06.2019
6224 Haze 45 1000 14 10000 6.7 330 09:56 17.06.2019
6225 Haze 45 1000 14 10000 6.7 330 09:56 17.06.2019
6226 Haze 45 1000 15 10000 5.7 330 09:33 17.06.2019
6227 Haze 42 1000 18 10000 4.1 320 08:48 17.06.2019
6228 Haze 42 1000 18 10000 4.1 320 08:25 17.06.2019
6229 Haze 40 1000 22 10000 4.1 310 07:58 17.06.2019
6230 Haze 39 1000 23 10000 4.6 310 07:32 17.06.2019
6231 Haze 37 999 24 10000 4.1 310 06:59 17.06.2019
6232 Haze 35 999 26 10000 3.1 300 06:18 17.06.2019
6233 Haze 35 999 30 10000 1.5 280 05:26 17.06.2019
6234 Haze 34 998 30 10000 2.1 270 04:30 17.06.2019
6235 Haze 34 998 25 10000 4.1 300 03:31 17.06.2019
6236 Haze 34 998 25 10000 3.6 310 02:44 17.06.2019
6237 Haze 34 998 25 10000 3.6 310 02:26 17.06.2019
6238 Haze 34 998 25 10000 2.6 310 01:36 17.06.2019
6239 Haze 33 998 27 10000 3.1 300 00:57 17.06.2019
6240 Haze 33 998 26 10000 2.1 310 00:37 17.06.2019
6241 Haze 33 999 25 10000 1 0 00:18 17.06.2019
6242 Haze 32 999 38 10000 1 0 23:39 16.06.2019
6243 Haze 33 999 39 10000 1.5 300 23:20 16.06.2019
6244 Haze 33 999 41 10000 1.5 320 22:45 16.06.2019
6245 Haze 33 999 49 10000 3.1 350 22:20 16.06.2019
6246 Haze 33 999 49 10000 3.1 350 21:57 16.06.2019
6247 Haze 34 1000 44 10000 1.5 10 21:39 16.06.2019
6248 Haze 35 1000 44 10000 1.5 340 21:20 16.06.2019
6249 Haze 35 1000 47 10000 3.1 340 20:40 16.06.2019
6250 Haze 35 1000 59 10000 3.6 350 20:19 16.06.2019
6251 Haze 35 1000 59 10000 3.6 350 19:58 16.06.2019
6252 Haze 35 999 59 10000 4.1 340 19:39 16.06.2019
6253 Haze 36 999 56 10000 4.1 340 19:21 16.06.2019
6254 Haze 36 999 44 10000 3.1 360 18:42 16.06.2019
6255 Haze 36 999 59 10000 3.6 360 18:21 16.06.2019
6256 Haze 36 999 59 10000 3.6 360 17:58 16.06.2019
6257 Haze 36 999 59 10000 3.6 20 17:40 16.06.2019
6258 Haze 38 998 53 10000 3.6 10 17:21 16.06.2019
6259 Haze 37 998 53 10000 3.6 10 16:55 16.06.2019
6260 Haze 38 998 47 10000 4.6 20 16:37 16.06.2019
6261 Haze 39 998 42 10000 4.1 30 16:18 16.06.2019
6262 Haze 39 998 42 10000 4.6 40 15:40 16.06.2019
6263 Haze 40 998 31 10000 5.7 50 15:21 16.06.2019
6264 Haze 40 999 39 10000 5.7 40 14:41 16.06.2019
6265 Haze 42 999 35 10000 6.2 50 14:22 16.06.2019
6266 Haze 42 999 23 10000 6.7 40 13:51 16.06.2019
6267 Haze 42 999 23 10000 6.7 40 13:51 16.06.2019
6268 Haze 42 999 23 10000 6.7 40 13:51 16.06.2019
6269 Haze 42 999 23 10000 6.7 40 13:26 16.06.2019
6270 Haze 42 999 28 10000 6.2 40 12:56 16.06.2019
6271 Haze 43 999 23 10000 6.2 20 12:37 16.06.2019
6272 Haze 44 999 23 10000 6.2 10 12:18 16.06.2019
6273 Haze 44 999 21 10000 7.2 350 11:38 16.06.2019
6274 Haze 42 999 23 10000 6.2 360 11:19 16.06.2019
6275 Haze 43 999 16 10000 7.2 350 10:45 16.06.2019
6276 Haze 42 1000 18 10000 6.2 340 10:20 16.06.2019
6277 Haze 42 1000 18 10000 6.2 340 10:20 16.06.2019
6278 Haze 41 1000 19 10000 6.2 340 09:48 16.06.2019
6279 Haze 41 1000 19 10000 6.2 340 09:25 16.06.2019
6280 Haze 40 1000 23 10000 5.7 350 08:50 16.06.2019
6281 Haze 39 1000 23 10000 5.7 350 08:23 16.06.2019
6282 Haze 39 1000 23 10000 5.7 350 07:54 16.06.2019
6283 Haze 38 999 26 10000 4.6 340 07:36 16.06.2019
6284 Clear 37 999 27 10000 3.6 320 06:57 16.06.2019
6285 Clear 37 999 27 10000 3.6 320 06:27 16.06.2019
6286 Haze 33 999 30 10000 3.6 300 05:29 16.06.2019
6287 Haze 32 998 34 10000 3.6 290 04:36 16.06.2019
6288 Haze 32 998 34 10000 3.6 290 04:36 16.06.2019
6289 Haze 31 998 36 10000 3.1 300 03:53 16.06.2019
6290 Haze 30 998 46 10000 1.5 330 03:30 16.06.2019
6291 Clear 32 997 43 10000 2.1 360 01:59 16.06.2019
6292 Clear 33 997 34 10000 2.6 320 01:40 16.06.2019
6293 Haze 32 997 32 10000 3.1 310 01:21 16.06.2019
6294 Haze 32 998 32 10000 3.1 310 00:39 16.06.2019
6295 Haze 32 998 70 10000 1.5 340 00:19 16.06.2019
6296 Haze 32 998 75 10000 2.1 10 23:42 15.06.2019
6297 Haze 32 999 75 10000 1.5 20 23:22 15.06.2019
6298 Haze 32 999 79 10000 1.5 330 22:49 15.06.2019
6299 Haze 32 999 79 10000 1.5 330 22:26 15.06.2019
6300 Haze 33 999 75 10000 1.5 350 21:45 15.06.2019
6301 Haze 33 999 75 10000 1.5 350 21:27 15.06.2019
6302 Haze 34 999 75 10000 1.5 360 20:56 15.06.2019
6303 Haze 34 999 70 10000 2.6 350 20:36 15.06.2019
6304 Haze 35 999 67 10000 3.1 360 20:18 15.06.2019
6305 Haze 35 999 63 10000 3.1 360 19:40 15.06.2019
6306 Haze 37 999 59 10000 3.1 10 19:22 15.06.2019
6307 Haze 37 999 50 10000 3.6 10 18:39 15.06.2019
6308 Haze 39 998 53 10000 3.6 360 18:20 15.06.2019
6309 Haze 39 998 47 10000 4.6 350 17:43 15.06.2019
6310 Haze 39 998 47 10000 4.6 350 17:43 15.06.2019
6311 Haze 41 998 39 10000 5.7 360 17:21 15.06.2019
6312 Haze 41 998 27 10000 6.2 360 16:46 15.06.2019
6313 Haze 42 998 28 10000 6.2 360 16:19 15.06.2019
6314 Haze 42 998 26 10000 6.7 350 15:43 15.06.2019
6315 Haze 43 998 22 10000 7.2 350 15:23 15.06.2019
6316 Haze 43 998 22 10000 7.2 350 15:23 15.06.2019
6317 Haze 43 998 17 10000 7.7 360 14:42 15.06.2019
6318 Haze 44 998 16 10000 7.7 360 14:19 15.06.2019
6319 Haze 44 998 16 10000 7.7 360 13:56 15.06.2019
6320 Haze 44 998 13 10000 7.7 360 13:38 15.06.2019
6321 Haze 44 998 13 10000 7.7 360 13:38 15.06.2019
6322 Haze 45 998 13 10000 7.7 360 13:18 15.06.2019
6323 Haze 44 998 14 10000 7.7 360 12:44 15.06.2019
6324 Haze 44 998 16 10000 6.7 360 12:23 15.06.2019
6325 Haze 44 999 16 10000 7.2 360 11:49 15.06.2019
6326 Haze 44 999 16 10000 7.2 360 11:30 15.06.2019
6327 Haze 42 999 22 10000 7.2 350 10:46 15.06.2019
6328 Haze 42 999 22 10000 7.2 350 10:25 15.06.2019
6329 Haze 42 999 22 10000 6.7 350 09:48 15.06.2019
6330 Haze 42 999 22 10000 6.7 350 09:27 15.06.2019
6331 Haze 41 999 25 10000 6.2 350 08:55 15.06.2019
6332 Haze 41 999 25 10000 6.2 350 08:55 15.06.2019
6333 Haze 40 999 24 10000 6.2 350 08:37 15.06.2019
6334 Haze 39 999 28 10000 6.2 330 08:18 15.06.2019
6335 -273 0 0 0 0 0 07:26 15.06.2019
6336 Haze 38 999 29 10000 6.2 330 07:26 15.06.2019
6337 Haze 38 999 29 10000 6.2 330 07:26 15.06.2019
6338 Haze 36 999 31 10000 4.1 320 06:48 15.06.2019
6339 Haze 36 999 31 10000 4.1 320 06:28 15.06.2019
6340 Haze 35 998 27 10000 3.6 310 05:39 15.06.2019
6341 Haze 34 998 25 10000 4.1 300 04:56 15.06.2019
6342 Haze 34 998 22 10000 3.1 310 04:26 15.06.2019
6343 Haze 35 997 19 10000 3.6 310 03:22 15.06.2019
6344 Haze 36 997 16 10000 3.6 310 02:34 15.06.2019
6345 Haze 36 997 17 10000 4.1 310 01:57 15.06.2019
6346 Haze 36 997 17 10000 4.1 310 01:57 15.06.2019
6347 Haze 36 997 18 10000 4.6 310 01:24 15.06.2019
6348 Haze 36 997 16 10000 4.6 310 00:42 15.06.2019
6349 Haze 36 997 16 10000 4.6 310 00:23 15.06.2019
6350 Haze 37 998 17 10000 4.6 310 23:49 14.06.2019
6351 Haze 37 998 17 10000 4.1 310 23:20 14.06.2019
6352 Haze 38 998 15 10000 5.1 310 22:41 14.06.2019
6353 Haze 38 998 15 10000 5.1 310 22:41 14.06.2019
6354 Haze 38 999 15 10000 5.1 310 22:21 14.06.2019
6355 Haze 38 999 14 10000 4.6 310 21:49 14.06.2019
6356 Haze 38 999 14 10000 4.6 310 21:28 14.06.2019
6357 Haze 39 999 14 10000 4.1 310 20:57 14.06.2019
6358 Haze 39 999 14 10000 5.1 310 20:38 14.06.2019
6359 Haze 39 998 12 10000 5.7 300 20:18 14.06.2019
6360 Haze 39 998 11 10000 4.6 300 19:41 14.06.2019
6361 Haze 40 998 9 10000 5.1 310 19:22 14.06.2019
6362 Haze 40 998 9 10000 5.1 310 18:54 14.06.2019
6363 Haze 40 998 10 10000 4.6 320 18:54 14.06.2019
6364 Haze 40 998 10 10000 4.6 320 18:36 14.06.2019
6365 Haze 41 998 10 10000 5.7 330 18:18 14.06.2019
6366 Haze 41 998 14 10000 6.2 330 17:44 14.06.2019
6367 Haze 41 998 14 10000 6.2 330 17:23 14.06.2019
6368 Haze 42 998 14 10000 7.7 340 16:49 14.06.2019
6369 Haze 43 998 11 10000 8.7 340 16:24 14.06.2019
6370 Haze 43 998 11 10000 8.7 340 16:24 14.06.2019
6371 Haze 43 998 11 10000 8.7 340 16:24 14.06.2019
6372 Haze 43 998 11 10000 8.7 340 15:59 14.06.2019
6373 Haze 43 998 12 10000 8.7 350 15:39 14.06.2019
6374 Haze 44 998 12 10000 8.2 350 15:19 14.06.2019
6375 Haze 44 998 10 10000 8.7 340 14:46 14.06.2019
6376 Haze 44 998 10 10000 8.7 340 14:46 14.06.2019
6377 -273 0 0 0 0 0 14:28 14.06.2019
6378 Haze 44 998 10 10000 9.3 350 13:46 14.06.2019
6379 Haze 44 998 10 10000 9.3 350 13:28 14.06.2019
6380 Rain 44 998 11 10000 8.7 350 12:58 14.06.2019
6381 Rain 44 999 11 10000 8.2 340 12:39 14.06.2019
6382 Haze 44 999 13 10000 8.7 350 12:21 14.06.2019
6383 Haze 44 999 13 10000 8.7 350 12:21 14.06.2019
6384 Haze 44 999 12 10000 9.8 350 11:42 14.06.2019
6385 Haze 44 999 12 10000 9.8 350 11:42 14.06.2019
6386 Haze 44 999 12 10000 9.8 350 11:42 14.06.2019
6387 Haze 44 999 13 10000 9.8 350 11:23 14.06.2019
6388 Haze 44 999 16 10000 8.2 340 10:48 14.06.2019
6389 Haze 43 1000 14 10000 7.2 330 10:21 14.06.2019
6390 Haze 43 1000 14 10000 7.2 330 09:55 14.06.2019
6391 Haze 43 1000 15 10000 6.2 330 09:34 14.06.2019
6392 Haze 40 1000 20 10000 6.2 330 08:49 14.06.2019
6393 Haze 39 1000 19 10000 5.1 330 08:21 14.06.2019
6394 Haze 38 999 22 10000 6.2 330 07:55 14.06.2019
6395 Haze 36 999 24 10000 6.2 330 07:24 14.06.2019
6396 Haze 36 999 24 10000 6.2 330 06:55 14.06.2019
6397 Haze 34 999 29 10000 6.7 330 06:20 14.06.2019
6398 Haze 35 999 29 10000 6.2 330 05:47 14.06.2019
6399 Haze 33 999 29 10000 5.7 320 04:54 14.06.2019
6400 Haze 33 998 30 10000 4.6 320 04:27 14.06.2019
6401 Haze 34 998 22 10000 5.7 310 03:39 14.06.2019
6402 Haze 34 998 22 10000 4.6 310 03:21 14.06.2019
6403 Haze 34 998 25 10000 5.1 310 02:36 14.06.2019
6404 Haze 34 998 25 10000 5.1 310 02:36 14.06.2019
6405 Haze 34 998 30 10000 4.6 310 01:47 14.06.2019
6406 Haze 34 998 30 10000 4.6 310 00:37 14.06.2019
6407 Haze 34 998 30 10000 4.6 310 00:19 14.06.2019
6408 Haze 34 999 30 10000 4.6 310 23:49 13.06.2019
6409 Haze 34 999 30 10000 4.6 310 23:25 13.06.2019
6410 Haze 35 999 29 10000 4.1 320 22:41 13.06.2019
6411 Haze 35 999 27 10000 5.1 320 22:22 13.06.2019
6412 Haze 35 999 27 10000 5.1 320 21:59 13.06.2019
6413 Haze 35 1000 29 10000 6.2 310 21:37 13.06.2019
6414 Haze 36 1000 30 10000 6.2 320 21:18 13.06.2019
6415 Haze 36 1000 30 10000 6.2 320 21:18 13.06.2019
6416 Haze 36 999 27 10000 6.2 320 20:44 13.06.2019
6417 Haze 37 999 24 10000 6.7 320 20:20 13.06.2019
6418 Haze 37 999 22 10000 6.2 320 19:43 13.06.2019
6419 Haze 37 999 22 10000 6.2 320 19:25 13.06.2019
6420 Haze 39 999 19 10000 5.7 320 18:59 13.06.2019
6421 Haze 39 999 19 10000 6.7 330 18:41 13.06.2019
6422 Haze 40 998 19 10000 8.2 340 18:22 13.06.2019
6423 Haze 40 998 18 10000 7.2 340 17:45 13.06.2019
6424 Haze 42 998 16 10000 8.2 340 17:22 13.06.2019
6425 Haze 42 998 16 10000 8.2 340 16:59 13.06.2019
6426 Haze 42 998 16 10000 8.7 340 16:41 13.06.2019
6427 Haze 43 998 17 10000 9.3 340 16:20 13.06.2019
6428 Haze 43 998 13 10000 11.3 340 15:41 13.06.2019
6429 Haze 44 998 11 10000 11.3 340 15:22 13.06.2019
6430 Haze 44 998 12 10000 10.8 340 14:52 13.06.2019
6431 Haze 44 998 12 10000 10.8 340 14:31 13.06.2019
6432 Rain 44 998 11 10000 11.8 340 13:59 13.06.2019
6433 Rain 44 998 14 10000 11.3 340 13:39 13.06.2019
6434 Haze 43 999 21 10000 10.3 350 13:21 13.06.2019
6435 Haze 44 999 14 10000 10.3 340 12:41 13.06.2019
6436 Haze 43 999 17 10000 10.8 350 12:22 13.06.2019
6437 Haze 43 1000 17 10000 9.8 350 11:47 13.06.2019
6438 Haze 43 1000 17 10000 9.8 350 11:29 13.06.2019
6439 Haze 41 1000 24 10000 8.7 350 10:55 13.06.2019
6440 Haze 41 1000 31 10000 8.7 360 10:37 13.06.2019
6441 Haze 41 1001 28 10000 9.3 350 10:18 13.06.2019
6442 Haze 41 1001 20 10000 10.3 340 09:42 13.06.2019
6443 Haze 40 1000 24 10000 11.3 350 09:22 13.06.2019
6444 Haze 40 1001 28 10000 10.8 350 08:43 13.06.2019
6445 Haze 39 1000 29 10000 9.3 350 08:23 13.06.2019
6446 Haze 39 1000 29 9000 10.3 340 07:50 13.06.2019
6447 Haze 39 1000 29 9000 10.3 340 07:25 13.06.2019
6448 Haze 36 1000 37 10000 8.2 340 06:45 13.06.2019
6449 Haze 34 1000 37 10000 7.2 340 06:22 13.06.2019
6450 Haze 34 999 41 10000 6.7 340 05:55 13.06.2019
6451 Haze 34 999 41 10000 6.7 340 05:36 13.06.2019
6452 Haze 34 999 41 10000 6.7 340 04:57 13.06.2019
6453 Haze 34 998 47 10000 6.2 330 02:26 13.06.2019
6454 Haze 34 998 41 10000 3.6 330 00:47 13.06.2019
6455 Haze 34 998 41 10000 4.6 340 23:52 12.06.2019
6456 Haze 35 999 35 10000 4.1 330 23:23 12.06.2019
6457 Haze 35 999 41 10000 3.6 330 22:44 12.06.2019
6458 Haze 35 999 41 10000 3.6 330 22:25 12.06.2019
6459 Haze 35 999 41 10000 3.6 330 21:56 12.06.2019
6460 Haze 35 999 39 10000 4.1 330 21:37 12.06.2019
6461 Haze 35 999 47 10000 4.1 340 21:18 12.06.2019
6462 Haze 35 999 47 10000 4.1 340 21:18 12.06.2019
6463 Haze 36 999 42 10000 4.1 330 20:38 12.06.2019
6464 Haze 37 999 44 10000 4.6 340 20:20 12.06.2019
6465 Haze 36 999 71 10000 4.6 340 19:42 12.06.2019
6466 Haze 37 998 67 10000 5.1 350 19:23 12.06.2019
6467 Haze 37 998 67 10000 5.1 350 18:56 12.06.2019
6468 Haze 37 998 63 10000 3.6 10 18:38 12.06.2019
6469 Haze 38 998 60 10000 4.6 10 18:19 12.06.2019
6470 Haze 38 998 56 10000 4.1 360 17:43 12.06.2019
6471 Haze 38 997 60 10000 4.1 360 17:20 12.06.2019
6472 Haze 39 997 50 10000 3.1 10 16:42 12.06.2019
6473 Haze 39 997 50 10000 3.1 10 16:23 12.06.2019
6474 Haze 40 997 45 10000 2.6 40 15:53 12.06.2019
6475 Haze 40 997 42 10000 2.6 30 15:32 12.06.2019
6476 Haze 40 997 48 10000 4.6 40 14:49 12.06.2019
6477 Haze 40 997 48 10000 4.6 40 14:27 12.06.2019
6478 Haze 41 997 38 10000 4.6 40 13:44 12.06.2019
6479 Haze 42 997 38 10000 5.1 50 13:21 12.06.2019
6480 Haze 42 997 38 10000 5.1 50 12:59 12.06.2019
6481 Haze 42 998 34 10000 4.6 30 12:39 12.06.2019
6482 Haze 42 998 34 10000 4.6 30 12:39 12.06.2019
6483 Haze 42 998 43 10000 5.1 30 12:19 12.06.2019
6484 Haze 42 998 36 10000 5.7 20 11:47 12.06.2019
6485 Haze 42 998 36 10000 5.7 20 11:28 12.06.2019
6486 Haze 42 999 36 10000 4.6 10 10:52 12.06.2019
6487 Haze 42 999 36 10000 4.6 10 10:34 12.06.2019
6488 Haze 41 999 34 10000 4.6 350 09:55 12.06.2019
6489 Haze 41 999 34 10000 4.6 340 09:37 12.06.2019
6490 Haze 40 999 32 10000 4.6 320 09:18 12.06.2019
6491 Haze 40 999 34 10000 4.1 320 08:25 12.06.2019
6492 Haze 38 999 40 10000 3.6 320 07:52 12.06.2019
6493 Haze 35 999 50 10000 3.6 290 06:55 12.06.2019
6494 Mist 33 999 59 9000 1.5 270 05:54 12.06.2019
6495 Mist 32 998 53 9000 2.1 300 05:24 12.06.2019
6496 Haze 32 998 79 7000 0.5 0 02:19 12.06.2019
6497 Haze 33 998 75 8000 1.5 10 00:41 12.06.2019
6498 Haze 34 999 44 10000 1.5 50 23:53 11.06.2019
6499 Haze 34 999 44 10000 1.5 50 23:34 11.06.2019
6500 Haze 35 999 39 10000 1 0 22:45 11.06.2019
6501 Haze 36 999 39 10000 1.5 220 22:24 11.06.2019
6502 Haze 36 999 39 10000 1.5 220 21:58 11.06.2019
6503 Haze 35 999 41 10000 1.5 150 21:40 11.06.2019
6504 Haze 36 999 41 10000 1 120 21:21 11.06.2019
6505 Haze 36 999 44 10000 0.5 0 20:50 11.06.2019
6506 Haze 36 999 44 10000 0.5 0 20:27 11.06.2019
6507 Haze 35 999 47 10000 1.52 7.163 19:58 11.06.2019
6508 Haze 35 999 50 10000 1 0 19:40 11.06.2019
6509 Haze 36 999 53 10000 1 0 19:21 11.06.2019
6510 Haze 36 999 56 9000 1.5 80 18:40 11.06.2019
6511 Haze 37 998 47 8000 2.6 110 18:18 11.06.2019
6512 Haze 37 998 53 8000 2.6 110 17:41 11.06.2019
6513 Haze 39 998 47 7000 3.1 110 17:19 11.06.2019
6514 Dust 39 998 53 6000 2.6 90 16:42 11.06.2019
6515 Haze 41 998 40 6000 3.6 50 16:23 11.06.2019
6516 Haze 41 998 40 6000 3.6 50 16:23 11.06.2019
6517 Haze 41 998 40 6000 4.1 30 15:43 11.06.2019
6518 Haze 41 998 40 6000 4.1 30 15:25 11.06.2019
6519 Haze 42 998 35 7000 4.1 40 14:54 11.06.2019
6520 Haze 43 998 30 9000 5.1 50 14:23 11.06.2019
6521 Haze 43 998 30 9000 5.1 50 13:58 11.06.2019
6522 Haze 43 999 26 10000 5.1 40 13:37 11.06.2019
6523 Haze 45 999 21 10000 4.1 80 13:19 11.06.2019
6524 Haze 45 999 25 10000 4.6 60 12:41 11.06.2019
6525 Haze 46 999 9 10000 2.6 0 12:21 11.06.2019
6526 Haze 46 999 9 10000 2.6 0 12:21 11.06.2019
6527 Haze 46 999 9 10000 2.1 0 11:49 11.06.2019
6528 Haze 46 999 9 10000 2.1 0 11:31 11.06.2019
6529 Haze 45 1000 10 10000 3.1 260 10:50 11.06.2019
6530 Haze 45 1000 10 10000 3.1 260 10:27 11.06.2019
6531 Haze 43 1000 15 10000 3.6 280 09:51 11.06.2019
6532 Haze 43 1000 15 10000 3.6 280 09:26 11.06.2019
6533 Haze 41 1000 16 10000 3.1 290 08:58 11.06.2019
6534 Haze 41 1000 16 10000 2.6 260 08:40 11.06.2019
6535 Haze 39 1000 16 8000 2.1 250 08:19 11.06.2019
6536 Haze 39 1000 16 8000 2.1 250 07:33 11.06.2019
6537 Haze 36 1000 29 6000 1.5 200 06:52 11.06.2019
6538 Haze 30 1000 40 7000 1.5 180 05:21 11.06.2019
6539 Haze 30 1000 45 8000 2.1 130 04:36 11.06.2019
6540 Mist 31 999 43 10000 1 200 02:26 11.06.2019
6541 Mist 32 999 55 10000 0.5 0 00:50 11.06.2019
6542 Mist 32 999 55 10000 0.5 0 00:26 11.06.2019
6543 Mist 32 999 63 10000 1.5 350 23:45 10.06.2019
6544 Haze 33 999 49 10000 1.5 350 23:21 10.06.2019
6545 Haze 33 1000 46 10000 1 0 22:45 10.06.2019
6546 Haze 33 1000 46 10000 1 0 22:26 10.06.2019
6547 Haze 34 1000 39 10000 1 0 21:56 10.06.2019
6548 Haze 33 1000 39 10000 0.93 312.654 21:38 10.06.2019
6549 Haze 35 999 34 10000 1 0 21:19 10.06.2019
6550 Haze 35 999 39 10000 1 0 20:42 10.06.2019
6551 Haze 35 999 47 9000 2.6 140 20:21 10.06.2019
6552 Haze 35 999 53 9000 1.5 110 19:44 10.06.2019
6553 Haze 36 999 53 10000 1.5 110 19:22 10.06.2019
6554 Haze 36 999 53 10000 1.5 110 18:57 10.06.2019
6555 Haze 36 999 59 10000 1.5 100 18:39 10.06.2019
6556 Haze 38 999 56 10000 3.1 100 18:19 10.06.2019
6557 Haze 38 999 27 10000 2.6 60 17:44 10.06.2019
6558 Haze 38 999 27 10000 2.6 60 17:24 10.06.2019
6559 Haze 40 998 29 10000 3.6 80 16:49 10.06.2019
6560 Haze 40 998 29 10000 3.6 80 16:30 10.06.2019
6561 Haze 41 998 29 10000 4.6 70 15:58 10.06.2019
6562 Haze 41 998 20 10000 4.6 70 15:39 10.06.2019
6563 Haze 43 998 19 10000 5.1 70 15:21 10.06.2019
6564 Haze 43 998 20 10000 4.1 90 14:42 10.06.2019
6565 Haze 43 998 20 10000 4.1 90 14:24 10.06.2019
6566 Haze 45 999 16 10000 5.1 110 13:46 10.06.2019
6567 Haze 45 999 16 10000 5.1 110 13:28 10.06.2019
6568 Haze 46 999 16 9000 5.1 100 12:54 10.06.2019
6569 Haze 46 999 16 9000 5.1 100 12:31 10.06.2019
6570 Haze 45 1000 16 9000 3.1 100 11:58 10.06.2019
6571 Haze 45 1000 16 9000 3.1 100 11:37 10.06.2019
6572 Haze 44 1000 20 8000 3.1 80 11:18 10.06.2019
6573 Haze 44 1000 20 8000 3.1 80 10:41 10.06.2019
6574 Haze 43 1000 30 7000 1.5 90 10:19 10.06.2019
6575 Haze 43 1000 30 7000 1.5 90 09:51 10.06.2019
6576 Haze 43 1000 30 7000 1.5 90 09:29 10.06.2019
6577 Haze 39 1001 50 7000 3.6 80 08:50 10.06.2019
6578 Haze 39 1001 50 7000 3.6 80 08:27 10.06.2019
6579 Haze 39 1001 31 8000 2.1 100 07:42 10.06.2019
6580 Haze 31 1000 49 7000 1 0 04:43 10.06.2019
6581 Haze 31 1000 52 9000 4.6 80 03:29 10.06.2019
6582 Haze 32 1000 49 10000 2.1 180 01:55 10.06.2019
6583 Haze 33 1000 49 10000 1.5 150 01:19 10.06.2019
6584 Haze 33 1000 46 10000 1.5 150 00:47 10.06.2019
6585 Haze 33 1000 46 10000 1.78 225.114 23:48 09.06.2019
6586 Haze 34 1000 44 10000 1.5 100 23:23 09.06.2019
6587 Haze 34 1000 44 10000 1 0 22:48 09.06.2019
6588 Haze 34 1000 44 10000 1 0 22:26 09.06.2019
6589 Haze 35 1001 41 10000 1.5 140 21:59 09.06.2019
6590 Haze 35 1001 37 10000 1.5 140 21:37 09.06.2019
6591 Haze 36 1001 34 10000 1.5 130 21:19 09.06.2019
6592 Haze 36 1001 37 10000 2.6 130 20:42 09.06.2019
6593 Haze 36 1001 34 10000 1.5 140 20:22 09.06.2019
6594 Haze 37 1000 30 10000 1 90 19:45 09.06.2019
6595 Haze 38 1001 37 10000 1 40 19:19 09.06.2019
6596 Haze 38 1001 32 10000 1.5 50 18:45 09.06.2019
6597 Haze 38 1001 32 10000 1.5 50 18:26 09.06.2019
6598 Haze 39 1000 31 10000 2.1 40 17:56 09.06.2019
6599 Haze 39 1000 31 10000 2.1 40 17:32 09.06.2019
6600 Haze 41 1001 33 10000 2.6 30 16:59 09.06.2019
6601 Haze 41 1001 27 10000 3.6 20 16:40 09.06.2019
6602 Haze 43 1001 24 10000 3.1 30 16:20 09.06.2019
6603 Haze 43 1001 24 10000 3.1 30 16:20 09.06.2019
6604 Haze 42 1001 28 10000 4.1 30 15:50 09.06.2019
6605 Haze 42 1001 28 10000 4.1 30 15:29 09.06.2019
6606 Haze 43 1001 19 10000 4.6 40 14:58 09.06.2019
6607 Haze 44 1001 23 10000 3.6 90 14:39 09.06.2019
6608 Haze 44 1001 23 10000 4.6 110 14:19 09.06.2019
6609 Haze 44 1001 18 10000 4.1 80 13:48 09.06.2019
6610 Haze 45 1002 15 10000 4.6 30 12:58 09.06.2019
6611 Haze 46 1002 11 10000 2.6 320 12:38 09.06.2019
6612 Haze 45 1002 10 10000 2.6 330 12:19 09.06.2019
6613 Haze 45 1003 10 10000 3.1 310 11:38 09.06.2019
6614 Haze 45 1003 10 10000 2.1 0 11:19 09.06.2019
6615 Haze 44 1003 12 10000 2.6 210 10:43 09.06.2019
6616 Haze 44 1004 12 10000 2.1 240 10:22 09.06.2019
6617 Haze 43 1004 15 9000 2.1 0 09:40 09.06.2019
6618 Haze 42 1004 16 9000 2.1 240 09:21 09.06.2019
6619 Haze 41 1004 20 8000 2.6 220 08:45 09.06.2019
6620 Haze 39 1004 20 9000 2.1 210 08:19 09.06.2019
6621 Haze 35 1004 44 9000 2.6 220 06:48 09.06.2019
6622 Haze 35 1004 44 9000 2.6 220 06:29 09.06.2019
6623 Haze 32 1003 79 8000 2.6 150 03:26 09.06.2019
6624 Haze 32 1002 44 8000 1 0 01:38 09.06.2019
6625 Haze 33 1002 44 8000 2.6 200 01:19 09.06.2019
6626 Haze 33 1002 46 8000 2.1 130 00:45 09.06.2019
6627 Haze 34 1002 39 8000 1.5 230 23:43 08.06.2019
6628 Haze 34 1002 39 8000 1.5 230 23:24 08.06.2019
6629 Haze 35 1002 39 10000 2.1 220 22:56 08.06.2019
6630 Haze 35 1003 37 10000 2.1 220 22:38 08.06.2019
6631 Haze 35 1003 41 10000 1.5 160 22:19 08.06.2019
6632 Haze 35 1003 50 10000 1.5 150 21:49 08.06.2019
6633 Haze 35 1003 50 10000 1.5 150 21:25 08.06.2019
6634 Haze 35 1003 53 10000 1.5 130 20:46 08.06.2019
6635 Haze 35 1003 53 10000 1.5 130 20:25 08.06.2019
6636 Haze 36 1003 59 10000 1.5 120 19:58 08.06.2019
6637 Haze 36 1003 44 10000 1 0 19:39 08.06.2019
6638 Haze 37 1003 44 10000 1 40 19:19 08.06.2019
6639 Haze 37 1003 44 10000 1.5 10 18:51 08.06.2019
6640 Haze 37 1003 44 10000 1.5 10 18:32 08.06.2019
6641 Haze 38 1003 42 10000 2.6 360 17:48 08.06.2019
6642 Haze 38 1003 42 10000 2.6 360 17:23 08.06.2019
6643 Haze 41 1003 28 10000 4.6 10 16:54 08.06.2019
6644 Haze 41 1003 28 10000 4.6 10 16:35 08.06.2019
6645 Haze 41 1003 28 10000 4.6 40 15:56 08.06.2019
6646 Haze 41 1003 31 10000 4.6 40 15:36 08.06.2019
6647 Haze 43 1003 23 10000 4.1 90 14:49 08.06.2019
6648 Haze 43 1003 23 10000 4.1 90 14:31 08.06.2019
6649 Haze 44 1003 18 10000 4.6 50 13:53 08.06.2019
6650 Haze 45 1004 17 10000 3.1 50 12:57 08.06.2019
6651 Haze 45 1004 17 10000 3.6 90 12:39 08.06.2019
6652 Haze 46 1005 11 10000 2.1 250 11:57 08.06.2019
6653 Haze 46 1005 11 10000 2.1 250 11:38 08.06.2019
6654 Haze 44 1005 12 10000 2.6 220 11:20 08.06.2019
6655 Haze 44 1005 13 10000 2.6 210 10:43 08.06.2019
6656 Haze 43 1005 15 10000 2.6 200 10:22 08.06.2019
6657 Haze 42 1006 16 10000 3.6 210 09:36 08.06.2019
6658 Haze 40 1006 16 10000 4.1 210 08:59 08.06.2019
6659 Haze 40 1006 16 10000 4.1 220 08:25 08.06.2019
6660 Haze 38 1005 24 10000 3.1 220 07:39 08.06.2019
6661 Haze 35 1005 34 10000 3.6 210 06:45 08.06.2019
6662 Haze 31 1004 38 10000 0.5 0 03:41 08.06.2019
6663 Haze 32 1004 36 10000 1 0 02:20 08.06.2019
6664 Haze 33 1004 30 10000 1 0 00:32 08.06.2019
6665 Haze 34 1004 30 10000 1.5 160 23:59 07.06.2019
6666 Haze 34 1004 36 10000 1.5 150 23:21 07.06.2019
6667 Haze 34 1004 34 10000 2.1 150 22:54 07.06.2019
6668 Haze 34 1004 34 10000 2.1 150 22:35 07.06.2019
6669 Haze 35 1005 41 10000 1 140 21:56 07.06.2019
6670 Haze 35 1005 39 10000 1 130 21:38 07.06.2019
6671 Haze 35 1005 36 10000 1 120 21:20 07.06.2019
6672 Haze 35 1005 36 10000 1 110 20:42 07.06.2019
6673 Haze 35 1005 36 10000 1 110 20:23 07.06.2019
6674 Clear 35 1004 30 10000 1.5 140 19:46 07.06.2019
6675 Clear 37 1004 34 10000 1.5 120 19:20 07.06.2019
6676 Clear 37 1004 30 10000 2.1 100 18:45 07.06.2019
6677 Haze 39 1004 30 10000 2.1 100 18:27 07.06.2019
6678 Haze 39 1004 25 10000 2.6 80 17:46 07.06.2019
6679 Haze 39 1004 25 10000 2.6 80 17:46 07.06.2019
6680 Haze 39 1004 25 10000 2.6 80 17:23 07.06.2019
6681 Haze 41 1004 20 10000 3.6 50 16:42 07.06.2019
6682 Haze 41 1004 20 10000 3.6 50 16:22 07.06.2019
6683 Haze 43 1003 17 10000 3.6 80 15:49 07.06.2019
6684 Haze 44 1003 18 10000 4.1 110 15:20 07.06.2019
6685 Haze 44 1003 16 10000 4.6 110 14:46 07.06.2019
6686 Haze 44 1003 16 10000 4.6 110 14:23 07.06.2019
6687 Haze 44 1004 16 10000 4.6 100 13:36 07.06.2019
6688 Haze 43 1004 17 10000 4.6 90 13:18 07.06.2019
6689 Haze 43 1004 16 10000 4.1 80 12:39 07.06.2019
6690 Haze 44 1005 16 10000 2.6 0 12:18 07.06.2019
6691 Haze 44 1005 10 10000 1.5 260 11:40 07.06.2019
6692 Haze 44 1005 10 10000 1.5 260 11:21 07.06.2019
6693 Haze 43 1005 11 10000 2.1 0 10:47 07.06.2019
6694 Haze 42 1006 14 10000 2.1 230 10:21 07.06.2019
6695 Haze 42 1006 16 10000 2.6 210 09:49 07.06.2019
6696 Haze 42 1006 16 10000 2.6 210 09:27 07.06.2019
6697 Haze 38 1006 35 10000 4.1 190 08:50 07.06.2019
6698 Haze 38 1006 35 10000 4.1 190 08:28 07.06.2019
6699 Haze 38 1006 35 10000 4.1 190 08:28 07.06.2019
6700 Haze 33 1005 50 10000 3.6 180 07:55 07.06.2019
6701 Haze 35 1005 32 10000 2.6 200 07:23 07.06.2019
6702 Haze 35 1005 34 10000 2.1 210 06:48 07.06.2019
6703 Haze 35 1005 34 10000 2.1 210 06:27 07.06.2019
6704 Haze 33 1004 26 10000 4.6 160 05:45 07.06.2019
6705 Haze 32 1003 36 10000 2.1 230 02:58 07.06.2019
6706 Haze 32 1003 32 10000 1 0 01:39 07.06.2019
6707 Haze 33 1003 28 10000 1.5 230 00:48 07.06.2019
6708 Haze 33 1003 28 10000 1.5 230 00:48 07.06.2019
6709 Haze 33 1003 28 10000 1.5 210 00:22 07.06.2019
6710 Haze 33 1004 30 10000 1 0 23:42 06.06.2019
6711 Haze 33 1004 28 10000 1 0 23:21 06.06.2019
6712 Haze 33 1004 38 10000 1.5 150 22:38 06.06.2019
6713 Haze 34 1004 38 10000 1 140 22:20 06.06.2019
6714 Haze 34 1005 36 10000 1 130 21:56 06.06.2019
6715 Haze 34 1005 36 10000 1 130 21:38 06.06.2019
6716 Haze 34 1005 36 10000 2.04 123.012 21:19 06.06.2019
6717 Haze 34 1005 36 10000 2.04 123.012 20:41 06.06.2019
6718 Haze 36 1004 32 10000 1 0 20:21 06.06.2019
6719 Haze 36 1004 30 10000 1.5 30 19:39 06.06.2019
6720 Haze 37 1004 28 10000 2.1 20 19:19 06.06.2019
6721 Haze 37 1004 28 10000 2.6 30 18:52 06.06.2019
6722 Haze 37 1004 28 10000 2.6 30 18:32 06.06.2019
6723 Haze 38 1004 27 10000 2.6 30 17:57 06.06.2019
6724 Haze 38 1004 35 10000 3.6 40 17:38 06.06.2019
6725 Haze 39 1004 30 10000 4.1 40 17:20 06.06.2019
6726 Clear 37 1004 33 10000 4.6 20 16:42 06.06.2019
6727 Haze 41 1004 21 10000 4.6 40 16:21 06.06.2019
6728 Haze 41 1004 15 10000 4.6 40 15:46 06.06.2019
6729 Haze 41 1004 15 10000 4.6 40 15:26 06.06.2019
6730 Haze 43 1004 17 10000 4.1 100 14:46 06.06.2019
6731 Haze 44 1004 16 10000 4.6 110 14:20 06.06.2019
6732 Haze 43 1004 18 10000 5.1 110 13:54 06.06.2019
6733 Haze 43 1004 18 10000 5.1 110 13:31 06.06.2019
6734 Haze 44 1004 16 10000 5.1 100 12:56 06.06.2019
6735 Haze 44 1005 16 10000 4.1 110 12:38 06.06.2019
6736 Haze 44 1005 17 10000 2.6 0 12:20 06.06.2019
6737 Haze 43 1005 19 10000 3.1 170 11:45 06.06.2019
6738 Haze 43 1005 19 10000 3.1 170 11:27 06.06.2019
6739 Haze 42 1005 25 10000 3.6 220 10:49 06.06.2019
6740 Haze 42 1005 25 10000 3.6 220 10:28 06.06.2019
6741 Haze 39 1006 37 10000 3.1 190 09:47 06.06.2019
6742 Haze 39 1006 37 10000 3.1 190 09:26 06.06.2019
6743 Haze 37 1006 45 10000 3.1 170 08:52 06.06.2019
6744 Haze 37 1006 50 10000 3.6 180 08:28 06.06.2019
6745 Haze 35 1006 44 10000 4.1 190 07:55 06.06.2019
6746 Haze 35 1006 47 10000 3.1 170 07:33 06.06.2019
6747 Haze 34 1005 37 10000 1 0 06:50 06.06.2019
6748 Mist 31 1004 70 10000 2.1 340 05:54 06.06.2019
6749 Mist 30 1004 74 10000 1.5 340 04:39 06.06.2019
6750 Haze 31 1003 70 10000 2.6 350 02:44 06.06.2019
6751 Haze 31 1003 70 10000 2.6 350 01:57 06.06.2019
6752 Mist 31 1003 66 10000 3.1 10 01:20 06.06.2019
6753 Mist 31 1004 62 10000 3.1 10 00:33 06.06.2019
6754 Haze 32 1004 75 10000 3.6 360 23:53 05.06.2019
6755 Haze 32 1004 75 10000 3.6 360 23:31 05.06.2019
6756 Haze 33 1004 70 10000 3.6 360 22:55 05.06.2019
6757 Haze 33 1004 70 10000 3.6 360 22:37 05.06.2019
6758 Haze 33 1004 66 10000 2.6 360 22:18 05.06.2019
6759 Haze 33 1004 63 10000 2.6 350 21:42 05.06.2019
6760 Haze 34 1004 63 10000 3.1 360 21:23 05.06.2019
6761 Haze 34 1004 59 10000 4.1 360 20:45 05.06.2019
6762 Haze 34 1004 66 10000 3.6 360 20:26 05.06.2019
6763 Haze 34 1004 75 10000 4.1 360 19:45 05.06.2019
6764 Haze 35 1004 75 10000 3.6 10 19:23 05.06.2019
6765 Haze 36 1003 44 10000 2.1 40 18:49 05.06.2019
6766 Haze 36 1003 44 10000 2.1 40 18:31 05.06.2019
6767 Haze 38 1003 37 10000 2.1 120 17:51 05.06.2019
6768 Haze 38 1003 37 10000 2.1 120 17:26 05.06.2019
6769 Haze 40 1003 29 10000 2.6 100 16:45 05.06.2019
6770 Haze 40 1003 29 10000 2.6 100 16:25 05.06.2019
6771 Haze 40 1003 33 10000 3.6 110 15:57 05.06.2019
6772 Haze 40